<?xml version='1.0' encoding='UTF-8'?><gpx version="1.1" creator="JPX - https://github.com/jenetics/jpx" xmlns="http://www.topografix.com/GPX/1/1"><trk><trkseg><trkpt lat="43.7147833" lon="13.2203267"><ele>5.0</ele><time>2026-04-29T10:50:39.793Z</time></trkpt><trkpt lat="43.7147617" lon="13.2204583"><ele>5.0</ele><time>2026-04-29T10:50:41.793Z</time></trkpt><trkpt lat="43.7147333" lon="13.2205767"><ele>5.0</ele><time>2026-04-29T10:50:43.793Z</time></trkpt><trkpt lat="43.714715" lon="13.220735"><ele>5.0</ele><time>2026-04-29T10:50:45.793Z</time></trkpt><trkpt lat="43.71471" lon="13.220825"><ele>5.0</ele><time>2026-04-29T10:50:46.793Z</time></trkpt><trkpt lat="43.7146933" lon="13.22092"><ele>5.0</ele><time>2026-04-29T10:50:47.792Z</time></trkpt><trkpt lat="43.71466" lon="13.2210117"><ele>5.166666666666667</ele><time>2026-04-29T10:50:48.793Z</time></trkpt><trkpt lat="43.7146167" lon="13.2210917"><ele>5.333333333333334</ele><time>2026-04-29T10:50:49.793Z</time></trkpt><trkpt lat="43.71456" lon="13.2211767"><ele>5.5</ele><time>2026-04-29T10:50:50.792Z</time></trkpt><trkpt lat="43.7145017" lon="13.2212617"><ele>5.666666666666667</ele><time>2026-04-29T10:50:51.793Z</time></trkpt><trkpt lat="43.714445" lon="13.2213433"><ele>5.833333333333333</ele><time>2026-04-29T10:50:52.793Z</time></trkpt><trkpt lat="43.7143867" lon="13.2214167"><ele>6.0</ele><time>2026-04-29T10:50:53.793Z</time></trkpt><trkpt lat="43.714335" lon="13.22149"><ele>6.166666666666667</ele><time>2026-04-29T10:50:54.792Z</time></trkpt><trkpt lat="43.714285" lon="13.2215517"><ele>6.333333333333334</ele><time>2026-04-29T10:50:55.793Z</time></trkpt><trkpt lat="43.7142083" lon="13.22167"><ele>6.5</ele><time>2026-04-29T10:50:57.792Z</time></trkpt><trkpt lat="43.71415" lon="13.2217333"><ele>6.666666666666667</ele><time>2026-04-29T10:50:59.793Z</time></trkpt><trkpt lat="43.7140583" lon="13.2217617"><ele>6.833333333333334</ele><time>2026-04-29T10:51:02.793Z</time></trkpt><trkpt lat="43.7140083" lon="13.2216833"><ele>7.0</ele><time>2026-04-29T10:51:04.793Z</time></trkpt><trkpt lat="43.7139517" lon="13.2215733"><ele>6.833333333333334</ele><time>2026-04-29T10:51:06.793Z</time></trkpt><trkpt lat="43.7138967" lon="13.221465"><ele>6.666666666666667</ele><time>2026-04-29T10:51:08.792Z</time></trkpt><trkpt lat="43.71383" lon="13.2213383"><ele>6.5</ele><time>2026-04-29T10:51:10.793Z</time></trkpt><trkpt lat="43.7137883" lon="13.2212533"><ele>6.333333333333334</ele><time>2026-04-29T10:51:11.793Z</time></trkpt><trkpt lat="43.7137467" lon="13.2211633"><ele>6.166666666666667</ele><time>2026-04-29T10:51:12.793Z</time></trkpt><trkpt lat="43.7137033" lon="13.2210717"><ele>6.0</ele><time>2026-04-29T10:51:13.793Z</time></trkpt><trkpt lat="43.713665" lon="13.2209833"><ele>6.0</ele><time>2026-04-29T10:51:14.793Z</time></trkpt><trkpt lat="43.7136217" lon="13.2208633"><ele>6.0</ele><time>2026-04-29T10:51:16.792Z</time></trkpt><trkpt lat="43.71356" lon="13.2207433"><ele>6.0</ele><time>2026-04-29T10:51:19.792Z</time></trkpt><trkpt lat="43.713525" lon="13.22066"><ele>6.0</ele><time>2026-04-29T10:51:20.793Z</time></trkpt><trkpt lat="43.7134867" lon="13.2205417"><ele>6.0</ele><time>2026-04-29T10:51:21.793Z</time></trkpt><trkpt lat="43.7134383" lon="13.2204217"><ele>5.833333333333333</ele><time>2026-04-29T10:51:22.792Z</time></trkpt><trkpt lat="43.7133883" lon="13.2203067"><ele>5.666666666666667</ele><time>2026-04-29T10:51:23.793Z</time></trkpt><trkpt lat="43.7133383" lon="13.220205"><ele>5.5</ele><time>2026-04-29T10:51:24.793Z</time></trkpt><trkpt lat="43.71329" lon="13.2201033"><ele>5.333333333333334</ele><time>2026-04-29T10:51:25.793Z</time></trkpt><trkpt lat="43.7132433" lon="13.2200133"><ele>5.166666666666667</ele><time>2026-04-29T10:51:26.793Z</time></trkpt><trkpt lat="43.7131933" lon="13.2199283"><ele>5.0</ele><time>2026-04-29T10:51:27.793Z</time></trkpt><trkpt lat="43.71314" lon="13.219855"><ele>5.333333333333334</ele><time>2026-04-29T10:51:28.793Z</time></trkpt><trkpt lat="43.7130817" lon="13.219785"><ele>5.666666666666667</ele><time>2026-04-29T10:51:29.793Z</time></trkpt><trkpt lat="43.7130183" lon="13.2197117"><ele>6.0</ele><time>2026-04-29T10:51:30.793Z</time></trkpt><trkpt lat="43.7129533" lon="13.219635"><ele>6.333333333333334</ele><time>2026-04-29T10:51:31.793Z</time></trkpt><trkpt lat="43.7128883" lon="13.2195533"><ele>6.666666666666667</ele><time>2026-04-29T10:51:32.793Z</time></trkpt><trkpt lat="43.71282" lon="13.21947"><ele>7.0</ele><time>2026-04-29T10:51:33.793Z</time></trkpt><trkpt lat="43.7127517" lon="13.2193883"><ele>6.8</ele><time>2026-04-29T10:51:34.793Z</time></trkpt><trkpt lat="43.7126767" lon="13.2193"><ele>6.6</ele><time>2026-04-29T10:51:35.793Z</time></trkpt><trkpt lat="43.7126017" lon="13.219215"><ele>6.3999999999999995</ele><time>2026-04-29T10:51:36.793Z</time></trkpt><trkpt lat="43.712525" lon="13.2191317"><ele>6.199999999999999</ele><time>2026-04-29T10:51:37.793Z</time></trkpt><trkpt lat="43.7124483" lon="13.2190433"><ele>6.0</ele><time>2026-04-29T10:51:38.793Z</time></trkpt><trkpt lat="43.712365" lon="13.2189383"><ele>6.4</ele><time>2026-04-29T10:51:39.793Z</time></trkpt><trkpt lat="43.7122767" lon="13.218835"><ele>6.8</ele><time>2026-04-29T10:51:40.793Z</time></trkpt><trkpt lat="43.71219" lon="13.21873"><ele>7.200000000000001</ele><time>2026-04-29T10:51:41.793Z</time></trkpt><trkpt lat="43.7121217" lon="13.2186167"><ele>7.6000000000000005</ele><time>2026-04-29T10:51:42.792Z</time></trkpt><trkpt lat="43.7120467" lon="13.2185017"><ele>8.0</ele><time>2026-04-29T10:51:43.793Z</time></trkpt><trkpt lat="43.711975" lon="13.2183817"><ele>7.5</ele><time>2026-04-29T10:51:44.793Z</time></trkpt><trkpt lat="43.7119" lon="13.2182567"><ele>7.0</ele><time>2026-04-29T10:51:45.793Z</time></trkpt><trkpt lat="43.711835" lon="13.21812"><ele>6.5</ele><time>2026-04-29T10:51:46.792Z</time></trkpt><trkpt lat="43.71178" lon="13.2179783"><ele>6.0</ele><time>2026-04-29T10:51:47.793Z</time></trkpt><trkpt lat="43.711745" lon="13.2178217"><ele>5.75</ele><time>2026-04-29T10:51:48.793Z</time></trkpt><trkpt lat="43.7117217" lon="13.2176633"><ele>5.5</ele><time>2026-04-29T10:51:49.793Z</time></trkpt><trkpt lat="43.7116867" lon="13.217505"><ele>5.25</ele><time>2026-04-29T10:51:50.793Z</time></trkpt><trkpt lat="43.7116483" lon="13.2173567"><ele>5.0</ele><time>2026-04-29T10:51:51.793Z</time></trkpt><trkpt lat="43.711585" lon="13.2172283"><ele>6.0</ele><time>2026-04-29T10:51:52.793Z</time></trkpt><trkpt lat="43.7115117" lon="13.217095"><ele>7.0</ele><time>2026-04-29T10:51:53.793Z</time></trkpt><trkpt lat="43.7114267" lon="13.2169617"><ele>8.0</ele><time>2026-04-29T10:51:54.793Z</time></trkpt><trkpt lat="43.7113433" lon="13.2168367"><ele>9.0</ele><time>2026-04-29T10:51:55.793Z</time></trkpt><trkpt lat="43.7112567" lon="13.21671"><ele>9.0</ele><time>2026-04-29T10:51:56.793Z</time></trkpt><trkpt lat="43.7111683" lon="13.2165817"><ele>9.0</ele><time>2026-04-29T10:51:57.792Z</time></trkpt><trkpt lat="43.71108" lon="13.2164517"><ele>9.0</ele><time>2026-04-29T10:51:58.793Z</time></trkpt><trkpt lat="43.7109933" lon="13.2163333"><ele>9.0</ele><time>2026-04-29T10:51:59.793Z</time></trkpt><trkpt lat="43.7109083" lon="13.2162167"><ele>8.0</ele><time>2026-04-29T10:52:00.793Z</time></trkpt><trkpt lat="43.7108233" lon="13.2161067"><ele>7.0</ele><time>2026-04-29T10:52:01.793Z</time></trkpt><trkpt lat="43.7107433" lon="13.2159967"><ele>6.0</ele><time>2026-04-29T10:52:02.793Z</time></trkpt><trkpt lat="43.71067" lon="13.2158867"><ele>5.0</ele><time>2026-04-29T10:52:03.792Z</time></trkpt><trkpt lat="43.710605" lon="13.2157733"><ele>4.0</ele><time>2026-04-29T10:52:04.793Z</time></trkpt><trkpt lat="43.7105483" lon="13.21565"><ele>3.6</ele><time>2026-04-29T10:52:05.792Z</time></trkpt><trkpt lat="43.7105033" lon="13.2155283"><ele>3.2</ele><time>2026-04-29T10:52:06.793Z</time></trkpt><trkpt lat="43.7104583" lon="13.2154033"><ele>2.8000000000000003</ele><time>2026-04-29T10:52:07.793Z</time></trkpt><trkpt lat="43.7104083" lon="13.2152817"><ele>2.4000000000000004</ele><time>2026-04-29T10:52:08.793Z</time></trkpt><trkpt lat="43.7103583" lon="13.215155"><ele>2.0</ele><time>2026-04-29T10:52:09.792Z</time></trkpt><trkpt lat="43.7103067" lon="13.215025"><ele>2.0</ele><time>2026-04-29T10:52:10.792Z</time></trkpt><trkpt lat="43.710255" lon="13.2149"><ele>2.0</ele><time>2026-04-29T10:52:11.793Z</time></trkpt><trkpt lat="43.7102" lon="13.2147767"><ele>2.0</ele><time>2026-04-29T10:52:12.793Z</time></trkpt><trkpt lat="43.71014" lon="13.214655"><ele>2.0</ele><time>2026-04-29T10:52:13.793Z</time></trkpt><trkpt lat="43.7100717" lon="13.2145267"><ele>2.0</ele><time>2026-04-29T10:52:14.793Z</time></trkpt><trkpt lat="43.7100017" lon="13.2144133"><ele>2.4000000000000004</ele><time>2026-04-29T10:52:15.793Z</time></trkpt><trkpt lat="43.7099317" lon="13.2143067"><ele>2.8000000000000003</ele><time>2026-04-29T10:52:16.792Z</time></trkpt><trkpt lat="43.709855" lon="13.214215"><ele>3.2</ele><time>2026-04-29T10:52:17.793Z</time></trkpt><trkpt lat="43.7097717" lon="13.21414"><ele>3.6</ele><time>2026-04-29T10:52:18.793Z</time></trkpt><trkpt lat="43.70968" lon="13.2140633"><ele>4.0</ele><time>2026-04-29T10:52:19.793Z</time></trkpt><trkpt lat="43.70958" lon="13.213995"><ele>4.0</ele><time>2026-04-29T10:52:20.793Z</time></trkpt><trkpt lat="43.7094767" lon="13.2139317"><ele>4.0</ele><time>2026-04-29T10:52:21.792Z</time></trkpt><trkpt lat="43.70937" lon="13.213865"><ele>4.0</ele><time>2026-04-29T10:52:22.792Z</time></trkpt><trkpt lat="43.7092617" lon="13.21379"><ele>4.0</ele><time>2026-04-29T10:52:23.793Z</time></trkpt><trkpt lat="43.7091583" lon="13.2137233"><ele>4.0</ele><time>2026-04-29T10:52:24.793Z</time></trkpt><trkpt lat="43.7090533" lon="13.213655"><ele>4.0</ele><time>2026-04-29T10:52:25.793Z</time></trkpt><trkpt lat="43.708955" lon="13.2135833"><ele>4.0</ele><time>2026-04-29T10:52:26.793Z</time></trkpt><trkpt lat="43.70886" lon="13.2135183"><ele>4.0</ele><time>2026-04-29T10:52:27.793Z</time></trkpt><trkpt lat="43.7087683" lon="13.2134583"><ele>4.0</ele><time>2026-04-29T10:52:28.793Z</time></trkpt><trkpt lat="43.708665" lon="13.213395"><ele>4.25</ele><time>2026-04-29T10:52:29.793Z</time></trkpt><trkpt lat="43.708555" lon="13.2133183"><ele>4.5</ele><time>2026-04-29T10:52:30.793Z</time></trkpt><trkpt lat="43.7084433" lon="13.21322"><ele>4.75</ele><time>2026-04-29T10:52:31.793Z</time></trkpt><trkpt lat="43.7083433" lon="13.213095"><ele>5.0</ele><time>2026-04-29T10:52:32.793Z</time></trkpt><trkpt lat="43.7082317" lon="13.2129517"><ele>5.0</ele><time>2026-04-29T10:52:33.793Z</time></trkpt><trkpt lat="43.7081233" lon="13.2128033"><ele>5.0</ele><time>2026-04-29T10:52:34.792Z</time></trkpt><trkpt lat="43.70802" lon="13.2126617"><ele>5.0</ele><time>2026-04-29T10:52:35.793Z</time></trkpt><trkpt lat="43.70793" lon="13.2125267"><ele>5.0</ele><time>2026-04-29T10:52:36.793Z</time></trkpt><trkpt lat="43.7078467" lon="13.2123983"><ele>4.833333333333334</ele><time>2026-04-29T10:52:37.793Z</time></trkpt><trkpt lat="43.7077767" lon="13.2122833"><ele>4.666666666666667</ele><time>2026-04-29T10:52:38.793Z</time></trkpt><trkpt lat="43.707725" lon="13.212185"><ele>4.5</ele><time>2026-04-29T10:52:39.793Z</time></trkpt><trkpt lat="43.7076867" lon="13.2121"><ele>4.333333333333333</ele><time>2026-04-29T10:52:40.793Z</time></trkpt><trkpt lat="43.707645" lon="13.2120083"><ele>4.166666666666666</ele><time>2026-04-29T10:52:41.793Z</time></trkpt><trkpt lat="43.7075967" lon="13.2119"><ele>4.0</ele><time>2026-04-29T10:52:42.793Z</time></trkpt><trkpt lat="43.7075333" lon="13.2117883"><ele>4.0</ele><time>2026-04-29T10:52:43.793Z</time></trkpt><trkpt lat="43.7074583" lon="13.2116733"><ele>4.0</ele><time>2026-04-29T10:52:44.793Z</time></trkpt><trkpt lat="43.7073733" lon="13.21156"><ele>4.0</ele><time>2026-04-29T10:52:45.793Z</time></trkpt><trkpt lat="43.707285" lon="13.2114567"><ele>4.0</ele><time>2026-04-29T10:52:46.793Z</time></trkpt><trkpt lat="43.7071883" lon="13.2113583"><ele>4.25</ele><time>2026-04-29T10:52:47.793Z</time></trkpt><trkpt lat="43.70709" lon="13.2112717"><ele>4.5</ele><time>2026-04-29T10:52:48.793Z</time></trkpt><trkpt lat="43.7069833" lon="13.2111967"><ele>4.75</ele><time>2026-04-29T10:52:49.793Z</time></trkpt><trkpt lat="43.7068733" lon="13.2111383"><ele>5.0</ele><time>2026-04-29T10:52:50.792Z</time></trkpt><trkpt lat="43.7067667" lon="13.2110783"><ele>5.0</ele><time>2026-04-29T10:52:51.793Z</time></trkpt><trkpt lat="43.7066567" lon="13.2109983"><ele>5.0</ele><time>2026-04-29T10:52:52.793Z</time></trkpt><trkpt lat="43.7065617" lon="13.2109"><ele>5.0</ele><time>2026-04-29T10:52:53.793Z</time></trkpt><trkpt lat="43.70647" lon="13.210785"><ele>5.0</ele><time>2026-04-29T10:52:54.793Z</time></trkpt><trkpt lat="43.7063767" lon="13.2106633"><ele>5.25</ele><time>2026-04-29T10:52:55.793Z</time></trkpt><trkpt lat="43.70628" lon="13.210535"><ele>5.5</ele><time>2026-04-29T10:52:56.793Z</time></trkpt><trkpt lat="43.706185" lon="13.210405"><ele>5.75</ele><time>2026-04-29T10:52:57.793Z</time></trkpt><trkpt lat="43.70609" lon="13.2102783"><ele>6.0</ele><time>2026-04-29T10:52:58.793Z</time></trkpt><trkpt lat="43.706" lon="13.2101633"><ele>6.0</ele><time>2026-04-29T10:52:59.793Z</time></trkpt><trkpt lat="43.70592" lon="13.210065"><ele>6.0</ele><time>2026-04-29T10:53:00.793Z</time></trkpt><trkpt lat="43.7058533" lon="13.2099683"><ele>6.0</ele><time>2026-04-29T10:53:01.793Z</time></trkpt><trkpt lat="43.7058" lon="13.209875"><ele>6.0</ele><time>2026-04-29T10:53:02.793Z</time></trkpt><trkpt lat="43.7057417" lon="13.209785"><ele>6.0</ele><time>2026-04-29T10:53:03.793Z</time></trkpt><trkpt lat="43.7056783" lon="13.209705"><ele>5.833333333333333</ele><time>2026-04-29T10:53:04.793Z</time></trkpt><trkpt lat="43.7056133" lon="13.209645"><ele>5.666666666666667</ele><time>2026-04-29T10:53:05.793Z</time></trkpt><trkpt lat="43.70554" lon="13.20958"><ele>5.5</ele><time>2026-04-29T10:53:06.793Z</time></trkpt><trkpt lat="43.70547" lon="13.209515"><ele>5.333333333333334</ele><time>2026-04-29T10:53:07.793Z</time></trkpt><trkpt lat="43.7054" lon="13.2094367"><ele>5.166666666666667</ele><time>2026-04-29T10:53:08.793Z</time></trkpt><trkpt lat="43.7053283" lon="13.2093467"><ele>5.0</ele><time>2026-04-29T10:53:09.792Z</time></trkpt><trkpt lat="43.7052583" lon="13.20926"><ele>5.0</ele><time>2026-04-29T10:53:10.793Z</time></trkpt><trkpt lat="43.7051833" lon="13.2091767"><ele>5.0</ele><time>2026-04-29T10:53:11.793Z</time></trkpt><trkpt lat="43.705105" lon="13.209095"><ele>5.0</ele><time>2026-04-29T10:53:12.793Z</time></trkpt><trkpt lat="43.7050183" lon="13.209015"><ele>5.0</ele><time>2026-04-29T10:53:13.793Z</time></trkpt><trkpt lat="43.7049317" lon="13.2089433"><ele>5.0</ele><time>2026-04-29T10:53:14.793Z</time></trkpt><trkpt lat="43.7048433" lon="13.2088733"><ele>5.0</ele><time>2026-04-29T10:53:15.792Z</time></trkpt><trkpt lat="43.704745" lon="13.2088"><ele>5.0</ele><time>2026-04-29T10:53:16.793Z</time></trkpt><trkpt lat="43.704645" lon="13.2087217"><ele>5.0</ele><time>2026-04-29T10:53:17.792Z</time></trkpt><trkpt lat="43.7045433" lon="13.20863"><ele>5.0</ele><time>2026-04-29T10:53:18.793Z</time></trkpt><trkpt lat="43.704445" lon="13.208535"><ele>5.0</ele><time>2026-04-29T10:53:19.793Z</time></trkpt><trkpt lat="43.7043483" lon="13.20844"><ele>5.0</ele><time>2026-04-29T10:53:20.793Z</time></trkpt><trkpt lat="43.704255" lon="13.208345"><ele>5.0</ele><time>2026-04-29T10:53:21.793Z</time></trkpt><trkpt lat="43.70416" lon="13.2082117"><ele>5.0</ele><time>2026-04-29T10:53:22.793Z</time></trkpt><trkpt lat="43.70408" lon="13.2080733"><ele>5.0</ele><time>2026-04-29T10:53:23.793Z</time></trkpt><trkpt lat="43.704" lon="13.207965"><ele>5.0</ele><time>2026-04-29T10:53:24.793Z</time></trkpt><trkpt lat="43.70393" lon="13.2078617"><ele>5.0</ele><time>2026-04-29T10:53:25.793Z</time></trkpt><trkpt lat="43.703875" lon="13.20778"><ele>5.0</ele><time>2026-04-29T10:53:26.793Z</time></trkpt><trkpt lat="43.7038333" lon="13.2076817"><ele>5.0</ele><time>2026-04-29T10:53:27.793Z</time></trkpt><trkpt lat="43.7037967" lon="13.2075667"><ele>5.0</ele><time>2026-04-29T10:53:28.793Z</time></trkpt><trkpt lat="43.7037467" lon="13.2074583"><ele>5.0</ele><time>2026-04-29T10:53:29.792Z</time></trkpt><trkpt lat="43.7036933" lon="13.20735"><ele>5.0</ele><time>2026-04-29T10:53:30.792Z</time></trkpt><trkpt lat="43.7036233" lon="13.207255"><ele>5.0</ele><time>2026-04-29T10:53:31.793Z</time></trkpt><trkpt lat="43.7035517" lon="13.20715"><ele>5.0</ele><time>2026-04-29T10:53:32.793Z</time></trkpt><trkpt lat="43.7034733" lon="13.20705"><ele>5.5</ele><time>2026-04-29T10:53:33.793Z</time></trkpt><trkpt lat="43.7033867" lon="13.2069433"><ele>6.0</ele><time>2026-04-29T10:53:34.793Z</time></trkpt><trkpt lat="43.7033083" lon="13.206825"><ele>6.5</ele><time>2026-04-29T10:53:35.793Z</time></trkpt><trkpt lat="43.703225" lon="13.2067217"><ele>7.0</ele><time>2026-04-29T10:53:36.793Z</time></trkpt><trkpt lat="43.7031383" lon="13.20663"><ele>7.0</ele><time>2026-04-29T10:53:37.793Z</time></trkpt><trkpt lat="43.7030567" lon="13.2065583"><ele>6.999999999999999</ele><time>2026-04-29T10:53:38.793Z</time></trkpt><trkpt lat="43.702955" lon="13.2065067"><ele>6.999999999999999</ele><time>2026-04-29T10:53:39.793Z</time></trkpt><trkpt lat="43.702855" lon="13.2064633"><ele>7.0</ele><time>2026-04-29T10:53:40.793Z</time></trkpt><trkpt lat="43.7027417" lon="13.2063817"><ele>7.0</ele><time>2026-04-29T10:53:41.793Z</time></trkpt><trkpt lat="43.7026317" lon="13.2062817"><ele>6.666666666666667</ele><time>2026-04-29T10:53:42.793Z</time></trkpt><trkpt lat="43.70251" lon="13.206155"><ele>6.333333333333334</ele><time>2026-04-29T10:53:43.793Z</time></trkpt><trkpt lat="43.7023867" lon="13.2060117"><ele>6.0</ele><time>2026-04-29T10:53:44.793Z</time></trkpt><trkpt lat="43.70226" lon="13.2058617"><ele>6.0</ele><time>2026-04-29T10:53:45.793Z</time></trkpt><trkpt lat="43.7021417" lon="13.205705"><ele>6.0</ele><time>2026-04-29T10:53:46.793Z</time></trkpt><trkpt lat="43.7020233" lon="13.20555"><ele>6.0</ele><time>2026-04-29T10:53:47.793Z</time></trkpt><trkpt lat="43.701895" lon="13.2053883"><ele>6.0</ele><time>2026-04-29T10:53:48.792Z</time></trkpt><trkpt lat="43.7017667" lon="13.2052333"><ele>6.0</ele><time>2026-04-29T10:53:49.793Z</time></trkpt><trkpt lat="43.7016333" lon="13.2050683"><ele>6.0</ele><time>2026-04-29T10:53:50.793Z</time></trkpt><trkpt lat="43.701515" lon="13.2049117"><ele>6.0</ele><time>2026-04-29T10:53:51.793Z</time></trkpt><trkpt lat="43.7014017" lon="13.2047617"><ele>6.0</ele><time>2026-04-29T10:53:52.793Z</time></trkpt><trkpt lat="43.70129" lon="13.204615"><ele>6.0</ele><time>2026-04-29T10:53:53.793Z</time></trkpt><trkpt lat="43.70118" lon="13.20447"><ele>6.0</ele><time>2026-04-29T10:53:54.793Z</time></trkpt><trkpt lat="43.701085" lon="13.2043233"><ele>6.0</ele><time>2026-04-29T10:53:55.793Z</time></trkpt><trkpt lat="43.7009983" lon="13.204165"><ele>6.0</ele><time>2026-04-29T10:53:56.793Z</time></trkpt><trkpt lat="43.7009183" lon="13.2040033"><ele>6.0</ele><time>2026-04-29T10:53:57.793Z</time></trkpt><trkpt lat="43.7008483" lon="13.2038367"><ele>5.75</ele><time>2026-04-29T10:53:58.792Z</time></trkpt><trkpt lat="43.7007883" lon="13.2036683"><ele>5.5</ele><time>2026-04-29T10:53:59.792Z</time></trkpt><trkpt lat="43.70074" lon="13.2034967"><ele>5.25</ele><time>2026-04-29T10:54:00.793Z</time></trkpt><trkpt lat="43.7007167" lon="13.203325"><ele>5.0</ele><time>2026-04-29T10:54:01.793Z</time></trkpt><trkpt lat="43.7007067" lon="13.20314"><ele>5.0</ele><time>2026-04-29T10:54:02.793Z</time></trkpt><trkpt lat="43.70071" lon="13.2029483"><ele>5.0</ele><time>2026-04-29T10:54:03.793Z</time></trkpt><trkpt lat="43.700725" lon="13.2027433"><ele>5.0</ele><time>2026-04-29T10:54:04.793Z</time></trkpt><trkpt lat="43.7007483" lon="13.20254"><ele>5.0</ele><time>2026-04-29T10:54:05.793Z</time></trkpt><trkpt lat="43.7007817" lon="13.202325"><ele>5.333333333333334</ele><time>2026-04-29T10:54:06.792Z</time></trkpt><trkpt lat="43.700825" lon="13.202105"><ele>5.666666666666667</ele><time>2026-04-29T10:54:07.793Z</time></trkpt><trkpt lat="43.7008733" lon="13.2018833"><ele>6.0</ele><time>2026-04-29T10:54:08.792Z</time></trkpt><trkpt lat="43.7009283" lon="13.2016467"><ele>5.666666666666667</ele><time>2026-04-29T10:54:09.793Z</time></trkpt><trkpt lat="43.7009717" lon="13.201405"><ele>5.333333333333334</ele><time>2026-04-29T10:54:10.793Z</time></trkpt><trkpt lat="43.7010183" lon="13.2011583"><ele>5.0</ele><time>2026-04-29T10:54:11.793Z</time></trkpt><trkpt lat="43.7010667" lon="13.2009"><ele>5.0</ele><time>2026-04-29T10:54:12.793Z</time></trkpt><trkpt lat="43.7011167" lon="13.2006433"><ele>5.0</ele><time>2026-04-29T10:54:13.793Z</time></trkpt><trkpt lat="43.7011683" lon="13.2003817"><ele>5.0</ele><time>2026-04-29T10:54:14.793Z</time></trkpt><trkpt lat="43.701215" lon="13.2001167"><ele>5.0</ele><time>2026-04-29T10:54:15.792Z</time></trkpt><trkpt lat="43.70127" lon="13.1998483"><ele>5.0</ele><time>2026-04-29T10:54:16.793Z</time></trkpt><trkpt lat="43.7013233" lon="13.1995833"><ele>5.0</ele><time>2026-04-29T10:54:17.793Z</time></trkpt><trkpt lat="43.70138" lon="13.1992983"><ele>5.333333333333334</ele><time>2026-04-29T10:54:18.793Z</time></trkpt><trkpt lat="43.7014383" lon="13.1990183"><ele>5.666666666666667</ele><time>2026-04-29T10:54:19.793Z</time></trkpt><trkpt lat="43.70149" lon="13.19874"><ele>6.0</ele><time>2026-04-29T10:54:20.793Z</time></trkpt><trkpt lat="43.7015467" lon="13.19845"><ele>6.333333333333334</ele><time>2026-04-29T10:54:21.793Z</time></trkpt><trkpt lat="43.7016117" lon="13.1981617"><ele>6.666666666666667</ele><time>2026-04-29T10:54:22.793Z</time></trkpt><trkpt lat="43.7016667" lon="13.19789"><ele>7.0</ele><time>2026-04-29T10:54:23.793Z</time></trkpt><trkpt lat="43.7017217" lon="13.1976133"><ele>7.333333333333334</ele><time>2026-04-29T10:54:24.793Z</time></trkpt><trkpt lat="43.7017817" lon="13.1973317"><ele>7.666666666666666</ele><time>2026-04-29T10:54:25.793Z</time></trkpt><trkpt lat="43.7018433" lon="13.1970567"><ele>8.0</ele><time>2026-04-29T10:54:26.793Z</time></trkpt><trkpt lat="43.7019" lon="13.1967833"><ele>8.666666666666666</ele><time>2026-04-29T10:54:27.792Z</time></trkpt><trkpt lat="43.7019583" lon="13.1965133"><ele>9.333333333333334</ele><time>2026-04-29T10:54:28.793Z</time></trkpt><trkpt lat="43.70202" lon="13.1962383"><ele>10.0</ele><time>2026-04-29T10:54:29.793Z</time></trkpt><trkpt lat="43.702075" lon="13.195965"><ele>10.0</ele><time>2026-04-29T10:54:30.793Z</time></trkpt><trkpt lat="43.7021283" lon="13.1956883"><ele>10.0</ele><time>2026-04-29T10:54:31.793Z</time></trkpt><trkpt lat="43.7021733" lon="13.1954033"><ele>10.0</ele><time>2026-04-29T10:54:32.793Z</time></trkpt><trkpt lat="43.702195" lon="13.195115"><ele>10.666666666666668</ele><time>2026-04-29T10:54:33.793Z</time></trkpt><trkpt lat="43.7021983" lon="13.19483"><ele>11.333333333333334</ele><time>2026-04-29T10:54:34.793Z</time></trkpt><trkpt lat="43.7021783" lon="13.1945517"><ele>12.0</ele><time>2026-04-29T10:54:35.793Z</time></trkpt><trkpt lat="43.7021433" lon="13.1942733"><ele>12.666666666666668</ele><time>2026-04-29T10:54:36.793Z</time></trkpt><trkpt lat="43.70209" lon="13.1940017"><ele>13.333333333333334</ele><time>2026-04-29T10:54:37.793Z</time></trkpt><trkpt lat="43.7020233" lon="13.1937483"><ele>14.0</ele><time>2026-04-29T10:54:38.793Z</time></trkpt><trkpt lat="43.7019433" lon="13.1935083"><ele>14.0</ele><time>2026-04-29T10:54:39.793Z</time></trkpt><trkpt lat="43.7018483" lon="13.1932917"><ele>14.0</ele><time>2026-04-29T10:54:40.792Z</time></trkpt><trkpt lat="43.7017433" lon="13.1930883"><ele>14.0</ele><time>2026-04-29T10:54:41.793Z</time></trkpt><trkpt lat="43.70162" lon="13.192895"><ele>14.0</ele><time>2026-04-29T10:54:42.793Z</time></trkpt><trkpt lat="43.7014883" lon="13.1927233"><ele>14.0</ele><time>2026-04-29T10:54:43.793Z</time></trkpt><trkpt lat="43.7013533" lon="13.1925683"><ele>14.0</ele><time>2026-04-29T10:54:44.793Z</time></trkpt><trkpt lat="43.7012033" lon="13.19244"><ele>14.0</ele><time>2026-04-29T10:54:45.793Z</time></trkpt><trkpt lat="43.70105" lon="13.1923283"><ele>14.0</ele><time>2026-04-29T10:54:46.793Z</time></trkpt><trkpt lat="43.7008933" lon="13.192225"><ele>14.0</ele><time>2026-04-29T10:54:47.793Z</time></trkpt><trkpt lat="43.7007383" lon="13.192125"><ele>14.0</ele><time>2026-04-29T10:54:48.792Z</time></trkpt><trkpt lat="43.70058" lon="13.1920283"><ele>14.0</ele><time>2026-04-29T10:54:49.793Z</time></trkpt><trkpt lat="43.70042" lon="13.19193"><ele>14.0</ele><time>2026-04-29T10:54:50.793Z</time></trkpt><trkpt lat="43.70026" lon="13.1918333"><ele>14.333333333333334</ele><time>2026-04-29T10:54:51.793Z</time></trkpt><trkpt lat="43.7001067" lon="13.1917333"><ele>14.666666666666668</ele><time>2026-04-29T10:54:52.793Z</time></trkpt><trkpt lat="43.6999533" lon="13.1916433"><ele>15.0</ele><time>2026-04-29T10:54:53.793Z</time></trkpt><trkpt lat="43.6998" lon="13.191545"><ele>15.333333333333332</ele><time>2026-04-29T10:54:54.793Z</time></trkpt><trkpt lat="43.699645" lon="13.1914433"><ele>15.666666666666666</ele><time>2026-04-29T10:54:55.793Z</time></trkpt><trkpt lat="43.69949" lon="13.1913483"><ele>16.0</ele><time>2026-04-29T10:54:56.793Z</time></trkpt><trkpt lat="43.6993367" lon="13.1912533"><ele>16.666666666666664</ele><time>2026-04-29T10:54:57.793Z</time></trkpt><trkpt lat="43.69918" lon="13.1911583"><ele>17.333333333333332</ele><time>2026-04-29T10:54:58.793Z</time></trkpt><trkpt lat="43.699025" lon="13.1910583"><ele>18.0</ele><time>2026-04-29T10:54:59.793Z</time></trkpt><trkpt lat="43.69887" lon="13.1909567"><ele>18.0</ele><time>2026-04-29T10:55:00.793Z</time></trkpt><trkpt lat="43.69872" lon="13.1908617"><ele>18.0</ele><time>2026-04-29T10:55:01.793Z</time></trkpt><trkpt lat="43.6985717" lon="13.1907633"><ele>18.0</ele><time>2026-04-29T10:55:02.793Z</time></trkpt><trkpt lat="43.69842" lon="13.1906683"><ele>18.0</ele><time>2026-04-29T10:55:03.792Z</time></trkpt><trkpt lat="43.698265" lon="13.1905683"><ele>18.0</ele><time>2026-04-29T10:55:04.793Z</time></trkpt><trkpt lat="43.6981167" lon="13.1904617"><ele>18.0</ele><time>2026-04-29T10:55:05.793Z</time></trkpt><trkpt lat="43.69797" lon="13.1903467"><ele>18.0</ele><time>2026-04-29T10:55:06.793Z</time></trkpt><trkpt lat="43.6978267" lon="13.1902267"><ele>18.0</ele><time>2026-04-29T10:55:07.793Z</time></trkpt><trkpt lat="43.6976833" lon="13.1901033"><ele>18.0</ele><time>2026-04-29T10:55:08.792Z</time></trkpt><trkpt lat="43.6975417" lon="13.189975"><ele>18.666666666666668</ele><time>2026-04-29T10:55:09.793Z</time></trkpt><trkpt lat="43.6974017" lon="13.189835"><ele>19.333333333333336</ele><time>2026-04-29T10:55:10.793Z</time></trkpt><trkpt lat="43.69726" lon="13.189685"><ele>20.0</ele><time>2026-04-29T10:55:11.793Z</time></trkpt><trkpt lat="43.6971267" lon="13.1895317"><ele>20.0</ele><time>2026-04-29T10:55:12.793Z</time></trkpt><trkpt lat="43.6969933" lon="13.18937"><ele>20.0</ele><time>2026-04-29T10:55:13.793Z</time></trkpt><trkpt lat="43.696865" lon="13.189205"><ele>20.0</ele><time>2026-04-29T10:55:14.793Z</time></trkpt><trkpt lat="43.6967433" lon="13.189055"><ele>20.666666666666668</ele><time>2026-04-29T10:55:15.792Z</time></trkpt><trkpt lat="43.69662" lon="13.1888983"><ele>21.333333333333332</ele><time>2026-04-29T10:55:16.793Z</time></trkpt><trkpt lat="43.6964983" lon="13.1887483"><ele>22.0</ele><time>2026-04-29T10:55:17.793Z</time></trkpt><trkpt lat="43.6963783" lon="13.1885933"><ele>22.0</ele><time>2026-04-29T10:55:18.793Z</time></trkpt><trkpt lat="43.69625" lon="13.1884367"><ele>22.0</ele><time>2026-04-29T10:55:19.792Z</time></trkpt><trkpt lat="43.6961217" lon="13.18828"><ele>22.0</ele><time>2026-04-29T10:55:20.793Z</time></trkpt><trkpt lat="43.6960033" lon="13.1881233"><ele>22.333333333333332</ele><time>2026-04-29T10:55:21.793Z</time></trkpt><trkpt lat="43.6958817" lon="13.1879567"><ele>22.666666666666668</ele><time>2026-04-29T10:55:22.793Z</time></trkpt><trkpt lat="43.6957583" lon="13.1877833"><ele>23.0</ele><time>2026-04-29T10:55:23.793Z</time></trkpt><trkpt lat="43.69564" lon="13.1876017"><ele>23.0</ele><time>2026-04-29T10:55:24.793Z</time></trkpt><trkpt lat="43.695525" lon="13.187415"><ele>23.0</ele><time>2026-04-29T10:55:25.793Z</time></trkpt><trkpt lat="43.69541" lon="13.1872267"><ele>23.0</ele><time>2026-04-29T10:55:26.793Z</time></trkpt><trkpt lat="43.6952967" lon="13.1870317"><ele>22.666666666666668</ele><time>2026-04-29T10:55:27.793Z</time></trkpt><trkpt lat="43.6951883" lon="13.1868317"><ele>22.333333333333332</ele><time>2026-04-29T10:55:28.793Z</time></trkpt><trkpt lat="43.6950833" lon="13.1866283"><ele>22.0</ele><time>2026-04-29T10:55:29.793Z</time></trkpt><trkpt lat="43.69498" lon="13.186425"><ele>22.666666666666664</ele><time>2026-04-29T10:55:30.793Z</time></trkpt><trkpt lat="43.6948717" lon="13.1862167"><ele>23.333333333333332</ele><time>2026-04-29T10:55:31.793Z</time></trkpt><trkpt lat="43.6947633" lon="13.186015"><ele>24.0</ele><time>2026-04-29T10:55:32.793Z</time></trkpt><trkpt lat="43.69466" lon="13.1858133"><ele>24.333333333333336</ele><time>2026-04-29T10:55:33.793Z</time></trkpt><trkpt lat="43.6945633" lon="13.1856033"><ele>24.666666666666668</ele><time>2026-04-29T10:55:34.793Z</time></trkpt><trkpt lat="43.6944683" lon="13.1853933"><ele>25.0</ele><time>2026-04-29T10:55:35.793Z</time></trkpt><trkpt lat="43.6943683" lon="13.185185"><ele>25.0</ele><time>2026-04-29T10:55:36.793Z</time></trkpt><trkpt lat="43.6942633" lon="13.1849783"><ele>25.0</ele><time>2026-04-29T10:55:37.793Z</time></trkpt><trkpt lat="43.6941617" lon="13.1847717"><ele>25.0</ele><time>2026-04-29T10:55:38.792Z</time></trkpt><trkpt lat="43.6940567" lon="13.1845683"><ele>25.0</ele><time>2026-04-29T10:55:39.792Z</time></trkpt><trkpt lat="43.6939517" lon="13.18436"><ele>25.0</ele><time>2026-04-29T10:55:40.793Z</time></trkpt><trkpt lat="43.6938433" lon="13.18415"><ele>25.0</ele><time>2026-04-29T10:55:41.793Z</time></trkpt><trkpt lat="43.6937333" lon="13.18394"><ele>25.666666666666668</ele><time>2026-04-29T10:55:42.793Z</time></trkpt><trkpt lat="43.6936217" lon="13.183745"><ele>26.333333333333336</ele><time>2026-04-29T10:55:43.793Z</time></trkpt><trkpt lat="43.6935" lon="13.18355"><ele>27.0</ele><time>2026-04-29T10:55:44.793Z</time></trkpt><trkpt lat="43.693385" lon="13.18336"><ele>27.666666666666664</ele><time>2026-04-29T10:55:45.793Z</time></trkpt><trkpt lat="43.6932617" lon="13.183165"><ele>28.333333333333332</ele><time>2026-04-29T10:55:46.793Z</time></trkpt><trkpt lat="43.6931383" lon="13.1829783"><ele>29.0</ele><time>2026-04-29T10:55:47.792Z</time></trkpt><trkpt lat="43.6930167" lon="13.1827833"><ele>29.0</ele><time>2026-04-29T10:55:48.793Z</time></trkpt><trkpt lat="43.6928883" lon="13.182595"><ele>29.0</ele><time>2026-04-29T10:55:49.793Z</time></trkpt><trkpt lat="43.6927567" lon="13.1824167"><ele>29.0</ele><time>2026-04-29T10:55:50.793Z</time></trkpt><trkpt lat="43.6926267" lon="13.1822367"><ele>29.0</ele><time>2026-04-29T10:55:51.793Z</time></trkpt><trkpt lat="43.6924933" lon="13.1820517"><ele>29.0</ele><time>2026-04-29T10:55:52.792Z</time></trkpt><trkpt lat="43.69236" lon="13.1818817"><ele>29.0</ele><time>2026-04-29T10:55:53.793Z</time></trkpt><trkpt lat="43.6922217" lon="13.18172"><ele>29.0</ele><time>2026-04-29T10:55:54.793Z</time></trkpt><trkpt lat="43.692085" lon="13.18155"><ele>29.0</ele><time>2026-04-29T10:55:55.792Z</time></trkpt><trkpt lat="43.691945" lon="13.18139"><ele>29.0</ele><time>2026-04-29T10:55:56.792Z</time></trkpt><trkpt lat="43.6918067" lon="13.1812317"><ele>28.666666666666664</ele><time>2026-04-29T10:55:57.791Z</time></trkpt><trkpt lat="43.6916683" lon="13.181075"><ele>28.333333333333336</ele><time>2026-04-29T10:55:58.792Z</time></trkpt><trkpt lat="43.691535" lon="13.1809167"><ele>28.0</ele><time>2026-04-29T10:55:59.792Z</time></trkpt><trkpt lat="43.6913983" lon="13.1807517"><ele>27.666666666666668</ele><time>2026-04-29T10:56:00.792Z</time></trkpt><trkpt lat="43.6912633" lon="13.180595"><ele>27.333333333333336</ele><time>2026-04-29T10:56:01.792Z</time></trkpt><trkpt lat="43.6911317" lon="13.1804233"><ele>27.0</ele><time>2026-04-29T10:56:02.792Z</time></trkpt><trkpt lat="43.691" lon="13.1802517"><ele>27.666666666666664</ele><time>2026-04-29T10:56:03.792Z</time></trkpt><trkpt lat="43.6908583" lon="13.1800783"><ele>28.333333333333332</ele><time>2026-04-29T10:56:04.791Z</time></trkpt><trkpt lat="43.6907183" lon="13.1799017"><ele>29.0</ele><time>2026-04-29T10:56:05.792Z</time></trkpt><trkpt lat="43.690575" lon="13.1797317"><ele>27.333333333333332</ele><time>2026-04-29T10:56:06.792Z</time></trkpt><trkpt lat="43.690425" lon="13.179565"><ele>25.666666666666664</ele><time>2026-04-29T10:56:07.792Z</time></trkpt><trkpt lat="43.690285" lon="13.1793883"><ele>24.0</ele><time>2026-04-29T10:56:08.792Z</time></trkpt><trkpt lat="43.6901417" lon="13.1792167"><ele>22.666666666666668</ele><time>2026-04-29T10:56:09.791Z</time></trkpt><trkpt lat="43.6899967" lon="13.1790683"><ele>21.333333333333336</ele><time>2026-04-29T10:56:10.792Z</time></trkpt><trkpt lat="43.68985" lon="13.1789433"><ele>20.0</ele><time>2026-04-29T10:56:11.791Z</time></trkpt><trkpt lat="43.6896983" lon="13.178835"><ele>19.0</ele><time>2026-04-29T10:56:12.792Z</time></trkpt><trkpt lat="43.68955" lon="13.1787467"><ele>18.0</ele><time>2026-04-29T10:56:13.791Z</time></trkpt><trkpt lat="43.689395" lon="13.1786767"><ele>17.0</ele><time>2026-04-29T10:56:14.791Z</time></trkpt><trkpt lat="43.689245" lon="13.1786183"><ele>16.75</ele><time>2026-04-29T10:56:15.792Z</time></trkpt><trkpt lat="43.6891033" lon="13.1785833"><ele>16.5</ele><time>2026-04-29T10:56:16.792Z</time></trkpt><trkpt lat="43.6889783" lon="13.1785583"><ele>16.25</ele><time>2026-04-29T10:56:17.792Z</time></trkpt><trkpt lat="43.6888733" lon="13.1785317"><ele>16.0</ele><time>2026-04-29T10:56:18.792Z</time></trkpt><trkpt lat="43.6887833" lon="13.1784717"><ele>16.0</ele><time>2026-04-29T10:56:19.792Z</time></trkpt><trkpt lat="43.6887183" lon="13.1783833"><ele>16.0</ele><time>2026-04-29T10:56:20.792Z</time></trkpt><trkpt lat="43.6886783" lon="13.17828"><ele>16.0</ele><time>2026-04-29T10:56:21.792Z</time></trkpt><trkpt lat="43.68865" lon="13.178155"><ele>16.0</ele><time>2026-04-29T10:56:22.792Z</time></trkpt><trkpt lat="43.6886233" lon="13.1780367"><ele>16.0</ele><time>2026-04-29T10:56:23.792Z</time></trkpt><trkpt lat="43.6885867" lon="13.1779233"><ele>16.400000000000002</ele><time>2026-04-29T10:56:24.791Z</time></trkpt><trkpt lat="43.6885383" lon="13.17784"><ele>16.8</ele><time>2026-04-29T10:56:25.791Z</time></trkpt><trkpt lat="43.6884617" lon="13.1777933"><ele>17.200000000000003</ele><time>2026-04-29T10:56:26.792Z</time></trkpt><trkpt lat="43.6883683" lon="13.1777417"><ele>17.6</ele><time>2026-04-29T10:56:27.791Z</time></trkpt><trkpt lat="43.6882667" lon="13.177685"><ele>18.0</ele><time>2026-04-29T10:56:28.791Z</time></trkpt><trkpt lat="43.6881667" lon="13.1776267"><ele>18.0</ele><time>2026-04-29T10:56:29.792Z</time></trkpt><trkpt lat="43.6880617" lon="13.177555"><ele>18.0</ele><time>2026-04-29T10:56:30.791Z</time></trkpt><trkpt lat="43.6879583" lon="13.1774933"><ele>18.0</ele><time>2026-04-29T10:56:31.792Z</time></trkpt><trkpt lat="43.6878633" lon="13.1774267"><ele>18.0</ele><time>2026-04-29T10:56:32.792Z</time></trkpt><trkpt lat="43.6877617" lon="13.1773233"><ele>21.0</ele><time>2026-04-29T10:56:33.792Z</time></trkpt><trkpt lat="43.6876783" lon="13.1772067"><ele>24.0</ele><time>2026-04-29T10:56:34.792Z</time></trkpt><trkpt lat="43.6875967" lon="13.17702"><ele>27.0</ele><time>2026-04-29T10:56:35.791Z</time></trkpt><trkpt lat="43.6874883" lon="13.1767733"><ele>27.0</ele><time>2026-04-29T10:56:36.792Z</time></trkpt><trkpt lat="43.6873733" lon="13.17652"><ele>27.0</ele><time>2026-04-29T10:56:37.792Z</time></trkpt><trkpt lat="43.68726" lon="13.1763083"><ele>27.0</ele><time>2026-04-29T10:56:38.792Z</time></trkpt><trkpt lat="43.68716" lon="13.1761167"><ele>29.25</ele><time>2026-04-29T10:56:39.792Z</time></trkpt><trkpt lat="43.68707" lon="13.1759533"><ele>31.5</ele><time>2026-04-29T10:56:40.791Z</time></trkpt><trkpt lat="43.6870083" lon="13.1758033"><ele>33.75</ele><time>2026-04-29T10:56:41.791Z</time></trkpt><trkpt lat="43.6869433" lon="13.1756417"><ele>36.0</ele><time>2026-04-29T10:56:42.792Z</time></trkpt><trkpt lat="43.68689" lon="13.1754667"><ele>36.0</ele><time>2026-04-29T10:56:43.792Z</time></trkpt><trkpt lat="43.6868417" lon="13.1752783"><ele>36.0</ele><time>2026-04-29T10:56:44.791Z</time></trkpt><trkpt lat="43.6868033" lon="13.1750883"><ele>36.0</ele><time>2026-04-29T10:56:45.792Z</time></trkpt><trkpt lat="43.6867667" lon="13.1748933"><ele>36.0</ele><time>2026-04-29T10:56:46.792Z</time></trkpt><trkpt lat="43.6867333" lon="13.1746833"><ele>37.666666666666664</ele><time>2026-04-29T10:56:47.792Z</time></trkpt><trkpt lat="43.6866883" lon="13.174465"><ele>39.33333333333333</ele><time>2026-04-29T10:56:48.791Z</time></trkpt><trkpt lat="43.6866467" lon="13.1742467"><ele>41.0</ele><time>2026-04-29T10:56:49.792Z</time></trkpt><trkpt lat="43.6866117" lon="13.1740083"><ele>44.666666666666664</ele><time>2026-04-29T10:56:50.792Z</time></trkpt><trkpt lat="43.68657" lon="13.17377"><ele>48.33333333333333</ele><time>2026-04-29T10:56:51.791Z</time></trkpt><trkpt lat="43.6865267" lon="13.173545"><ele>52.0</ele><time>2026-04-29T10:56:52.792Z</time></trkpt><trkpt lat="43.68648" lon="13.1733117"><ele>55.0</ele><time>2026-04-29T10:56:53.792Z</time></trkpt><trkpt lat="43.6864267" lon="13.1730833"><ele>58.0</ele><time>2026-04-29T10:56:54.792Z</time></trkpt><trkpt lat="43.6863733" lon="13.172845"><ele>61.0</ele><time>2026-04-29T10:56:55.791Z</time></trkpt><trkpt lat="43.6863183" lon="13.1726283"><ele>61.0</ele><time>2026-04-29T10:56:56.792Z</time></trkpt><trkpt lat="43.6862533" lon="13.1724317"><ele>61.0</ele><time>2026-04-29T10:56:57.792Z</time></trkpt><trkpt lat="43.6861983" lon="13.1722767"><ele>61.0</ele><time>2026-04-29T10:56:58.792Z</time></trkpt><trkpt lat="43.6861583" lon="13.1721183"><ele>61.0</ele><time>2026-04-29T10:56:59.792Z</time></trkpt><trkpt lat="43.6861183" lon="13.1719633"><ele>61.0</ele><time>2026-04-29T10:57:00.792Z</time></trkpt><trkpt lat="43.6860967" lon="13.1717983"><ele>61.0</ele><time>2026-04-29T10:57:01.792Z</time></trkpt><trkpt lat="43.6860867" lon="13.1716183"><ele>61.0</ele><time>2026-04-29T10:57:02.792Z</time></trkpt><trkpt lat="43.6860983" lon="13.1714433"><ele>61.0</ele><time>2026-04-29T10:57:03.791Z</time></trkpt><trkpt lat="43.6861283" lon="13.1712667"><ele>66.33333333333333</ele><time>2026-04-29T10:57:04.792Z</time></trkpt><trkpt lat="43.6861883" lon="13.1710883"><ele>71.66666666666667</ele><time>2026-04-29T10:57:05.792Z</time></trkpt><trkpt lat="43.6862533" lon="13.1709017"><ele>77.0</ele><time>2026-04-29T10:57:06.792Z</time></trkpt><trkpt lat="43.68634" lon="13.1707083"><ele>76.33333333333334</ele><time>2026-04-29T10:57:07.792Z</time></trkpt><trkpt lat="43.6864233" lon="13.1705133"><ele>75.66666666666667</ele><time>2026-04-29T10:57:08.791Z</time></trkpt><trkpt lat="43.68651" lon="13.170325"><ele>75.0</ele><time>2026-04-29T10:57:09.792Z</time></trkpt><trkpt lat="43.68661" lon="13.1701583"><ele>75.0</ele><time>2026-04-29T10:57:10.792Z</time></trkpt><trkpt lat="43.6867183" lon="13.1700217"><ele>75.0</ele><time>2026-04-29T10:57:11.791Z</time></trkpt><trkpt lat="43.6868417" lon="13.1699017"><ele>75.0</ele><time>2026-04-29T10:57:12.792Z</time></trkpt><trkpt lat="43.68698" lon="13.169805"><ele>76.66666666666667</ele><time>2026-04-29T10:57:13.792Z</time></trkpt><trkpt lat="43.6871283" lon="13.1697317"><ele>78.33333333333334</ele><time>2026-04-29T10:57:14.792Z</time></trkpt><trkpt lat="43.6872733" lon="13.1696617"><ele>80.0</ele><time>2026-04-29T10:57:15.791Z</time></trkpt><trkpt lat="43.6874267" lon="13.1695833"><ele>80.0</ele><time>2026-04-29T10:57:16.792Z</time></trkpt><trkpt lat="43.68757" lon="13.1694933"><ele>80.0</ele><time>2026-04-29T10:57:17.792Z</time></trkpt><trkpt lat="43.6876967" lon="13.16939"><ele>80.0</ele><time>2026-04-29T10:57:18.791Z</time></trkpt><trkpt lat="43.687815" lon="13.1692667"><ele>80.0</ele><time>2026-04-29T10:57:19.792Z</time></trkpt><trkpt lat="43.6879017" lon="13.1691117"><ele>80.0</ele><time>2026-04-29T10:57:20.791Z</time></trkpt><trkpt lat="43.687965" lon="13.1689283"><ele>80.0</ele><time>2026-04-29T10:57:21.791Z</time></trkpt><trkpt lat="43.6880167" lon="13.16873"><ele>80.0</ele><time>2026-04-29T10:57:22.792Z</time></trkpt><trkpt lat="43.6880733" lon="13.1685233"><ele>80.0</ele><time>2026-04-29T10:57:23.791Z</time></trkpt><trkpt lat="43.688135" lon="13.1683133"><ele>80.0</ele><time>2026-04-29T10:57:24.792Z</time></trkpt><trkpt lat="43.6882117" lon="13.1681083"><ele>80.0</ele><time>2026-04-29T10:57:25.791Z</time></trkpt><trkpt lat="43.6882917" lon="13.1679033"><ele>81.0</ele><time>2026-04-29T10:57:26.792Z</time></trkpt><trkpt lat="43.6883683" lon="13.1676867"><ele>82.0</ele><time>2026-04-29T10:57:27.792Z</time></trkpt><trkpt lat="43.6884283" lon="13.16746"><ele>83.0</ele><time>2026-04-29T10:57:28.792Z</time></trkpt><trkpt lat="43.6884667" lon="13.1672183"><ele>84.66666666666667</ele><time>2026-04-29T10:57:29.792Z</time></trkpt><trkpt lat="43.6884917" lon="13.1669733"><ele>86.33333333333333</ele><time>2026-04-29T10:57:30.792Z</time></trkpt><trkpt lat="43.6885183" lon="13.16672"><ele>88.0</ele><time>2026-04-29T10:57:31.792Z</time></trkpt><trkpt lat="43.6885467" lon="13.1664717"><ele>89.33333333333333</ele><time>2026-04-29T10:57:32.792Z</time></trkpt><trkpt lat="43.68858" lon="13.1662283"><ele>90.66666666666667</ele><time>2026-04-29T10:57:33.792Z</time></trkpt><trkpt lat="43.688615" lon="13.1659767"><ele>92.0</ele><time>2026-04-29T10:57:34.792Z</time></trkpt><trkpt lat="43.6886367" lon="13.1657217"><ele>88.33333333333334</ele><time>2026-04-29T10:57:35.792Z</time></trkpt><trkpt lat="43.6886467" lon="13.16548"><ele>84.66666666666667</ele><time>2026-04-29T10:57:36.792Z</time></trkpt><trkpt lat="43.6886517" lon="13.1652333"><ele>81.0</ele><time>2026-04-29T10:57:37.792Z</time></trkpt><trkpt lat="43.6886617" lon="13.164975"><ele>83.33333333333333</ele><time>2026-04-29T10:57:38.792Z</time></trkpt><trkpt lat="43.6886733" lon="13.1647133"><ele>85.66666666666666</ele><time>2026-04-29T10:57:39.792Z</time></trkpt><trkpt lat="43.6886767" lon="13.16447"><ele>88.0</ele><time>2026-04-29T10:57:40.792Z</time></trkpt><trkpt lat="43.68868" lon="13.16423"><ele>90.66666666666666</ele><time>2026-04-29T10:57:41.792Z</time></trkpt><trkpt lat="43.688695" lon="13.1639917"><ele>93.33333333333333</ele><time>2026-04-29T10:57:42.792Z</time></trkpt><trkpt lat="43.688735" lon="13.1637583"><ele>96.0</ele><time>2026-04-29T10:57:43.792Z</time></trkpt><trkpt lat="43.6887933" lon="13.1635267"><ele>96.0</ele><time>2026-04-29T10:57:44.792Z</time></trkpt><trkpt lat="43.68887" lon="13.1633067"><ele>96.0</ele><time>2026-04-29T10:57:45.792Z</time></trkpt><trkpt lat="43.6889583" lon="13.16309"><ele>96.0</ele><time>2026-04-29T10:57:46.792Z</time></trkpt><trkpt lat="43.6890533" lon="13.1628733"><ele>99.0</ele><time>2026-04-29T10:57:47.792Z</time></trkpt><trkpt lat="43.6891417" lon="13.16265"><ele>102.0</ele><time>2026-04-29T10:57:48.792Z</time></trkpt><trkpt lat="43.6892283" lon="13.1624267"><ele>105.0</ele><time>2026-04-29T10:57:49.792Z</time></trkpt><trkpt lat="43.68932" lon="13.1622"><ele>105.33333333333334</ele><time>2026-04-29T10:57:50.792Z</time></trkpt><trkpt lat="43.6894133" lon="13.1619733"><ele>105.66666666666667</ele><time>2026-04-29T10:57:51.792Z</time></trkpt><trkpt lat="43.6895083" lon="13.1617383"><ele>106.0</ele><time>2026-04-29T10:57:52.792Z</time></trkpt><trkpt lat="43.6896" lon="13.1615083"><ele>107.33333333333334</ele><time>2026-04-29T10:57:53.792Z</time></trkpt><trkpt lat="43.6896867" lon="13.1612733"><ele>108.66666666666666</ele><time>2026-04-29T10:57:54.792Z</time></trkpt><trkpt lat="43.6897717" lon="13.16103"><ele>110.0</ele><time>2026-04-29T10:57:55.792Z</time></trkpt><trkpt lat="43.6898567" lon="13.16079"><ele>110.66666666666666</ele><time>2026-04-29T10:57:56.792Z</time></trkpt><trkpt lat="43.6899383" lon="13.1605583"><ele>111.33333333333334</ele><time>2026-04-29T10:57:57.792Z</time></trkpt><trkpt lat="43.690025" lon="13.1603383"><ele>112.0</ele><time>2026-04-29T10:57:58.792Z</time></trkpt><trkpt lat="43.690125" lon="13.1601367"><ele>112.0</ele><time>2026-04-29T10:57:59.792Z</time></trkpt><trkpt lat="43.6902433" lon="13.1599567"><ele>112.0</ele><time>2026-04-29T10:58:00.792Z</time></trkpt><trkpt lat="43.6903683" lon="13.1598"><ele>112.0</ele><time>2026-04-29T10:58:01.792Z</time></trkpt><trkpt lat="43.6905067" lon="13.1596367"><ele>113.66666666666667</ele><time>2026-04-29T10:58:02.792Z</time></trkpt><trkpt lat="43.690635" lon="13.1594733"><ele>115.33333333333334</ele><time>2026-04-29T10:58:03.792Z</time></trkpt><trkpt lat="43.69076" lon="13.1593067"><ele>117.0</ele><time>2026-04-29T10:58:04.791Z</time></trkpt><trkpt lat="43.69087" lon="13.1591233"><ele>116.33333333333334</ele><time>2026-04-29T10:58:05.792Z</time></trkpt><trkpt lat="43.6909633" lon="13.1589317"><ele>115.66666666666667</ele><time>2026-04-29T10:58:06.792Z</time></trkpt><trkpt lat="43.6910417" lon="13.158715"><ele>115.0</ele><time>2026-04-29T10:58:07.791Z</time></trkpt><trkpt lat="43.6911" lon="13.1584883"><ele>114.66666666666667</ele><time>2026-04-29T10:58:08.792Z</time></trkpt><trkpt lat="43.6911483" lon="13.158255"><ele>114.33333333333334</ele><time>2026-04-29T10:58:09.792Z</time></trkpt><trkpt lat="43.691195" lon="13.1580217"><ele>114.0</ele><time>2026-04-29T10:58:10.792Z</time></trkpt><trkpt lat="43.69124" lon="13.157785"><ele>117.0</ele><time>2026-04-29T10:58:11.791Z</time></trkpt><trkpt lat="43.6912917" lon="13.1575483"><ele>120.0</ele><time>2026-04-29T10:58:12.792Z</time></trkpt><trkpt lat="43.6913467" lon="13.15732"><ele>123.0</ele><time>2026-04-29T10:58:13.792Z</time></trkpt><trkpt lat="43.691415" lon="13.1571017"><ele>124.66666666666666</ele><time>2026-04-29T10:58:14.792Z</time></trkpt><trkpt lat="43.691495" lon="13.1568967"><ele>126.33333333333333</ele><time>2026-04-29T10:58:15.792Z</time></trkpt><trkpt lat="43.691585" lon="13.15671"><ele>128.0</ele><time>2026-04-29T10:58:16.792Z</time></trkpt><trkpt lat="43.6916667" lon="13.1565133"><ele>128.66666666666666</ele><time>2026-04-29T10:58:17.792Z</time></trkpt><trkpt lat="43.6917467" lon="13.1563117"><ele>129.33333333333334</ele><time>2026-04-29T10:58:18.792Z</time></trkpt><trkpt lat="43.6918217" lon="13.15611"><ele>130.0</ele><time>2026-04-29T10:58:19.792Z</time></trkpt><trkpt lat="43.691895" lon="13.155905"><ele>128.33333333333334</ele><time>2026-04-29T10:58:20.792Z</time></trkpt><trkpt lat="43.6919733" lon="13.1556967"><ele>126.66666666666666</ele><time>2026-04-29T10:58:21.792Z</time></trkpt><trkpt lat="43.6920533" lon="13.1554967"><ele>125.0</ele><time>2026-04-29T10:58:22.792Z</time></trkpt><trkpt lat="43.692135" lon="13.1552817"><ele>125.0</ele><time>2026-04-29T10:58:23.792Z</time></trkpt><trkpt lat="43.6922133" lon="13.1550633"><ele>125.0</ele><time>2026-04-29T10:58:24.792Z</time></trkpt><trkpt lat="43.6923017" lon="13.1548483"><ele>125.0</ele><time>2026-04-29T10:58:25.792Z</time></trkpt><trkpt lat="43.6924" lon="13.154635"><ele>125.66666666666666</ele><time>2026-04-29T10:58:26.792Z</time></trkpt><trkpt lat="43.6924983" lon="13.1544267"><ele>126.33333333333334</ele><time>2026-04-29T10:58:27.792Z</time></trkpt><trkpt lat="43.6926" lon="13.1542167"><ele>127.0</ele><time>2026-04-29T10:58:28.792Z</time></trkpt><trkpt lat="43.6927033" lon="13.1539983"><ele>128.66666666666669</ele><time>2026-04-29T10:58:29.792Z</time></trkpt><trkpt lat="43.6928033" lon="13.1537833"><ele>130.33333333333334</ele><time>2026-04-29T10:58:30.792Z</time></trkpt><trkpt lat="43.6929017" lon="13.1535683"><ele>132.0</ele><time>2026-04-29T10:58:31.791Z</time></trkpt><trkpt lat="43.6930083" lon="13.1533533"><ele>133.0</ele><time>2026-04-29T10:58:32.792Z</time></trkpt><trkpt lat="43.6931133" lon="13.1531283"><ele>134.0</ele><time>2026-04-29T10:58:33.792Z</time></trkpt><trkpt lat="43.69322" lon="13.1529117"><ele>135.0</ele><time>2026-04-29T10:58:34.792Z</time></trkpt><trkpt lat="43.693325" lon="13.1526983"><ele>135.0</ele><time>2026-04-29T10:58:35.792Z</time></trkpt><trkpt lat="43.6934217" lon="13.1524883"><ele>135.0</ele><time>2026-04-29T10:58:36.791Z</time></trkpt><trkpt lat="43.6935133" lon="13.1522767"><ele>135.0</ele><time>2026-04-29T10:58:37.792Z</time></trkpt><trkpt lat="43.6936033" lon="13.1520733"><ele>132.0</ele><time>2026-04-29T10:58:38.792Z</time></trkpt><trkpt lat="43.6936817" lon="13.1518667"><ele>129.0</ele><time>2026-04-29T10:58:39.792Z</time></trkpt><trkpt lat="43.6937317" lon="13.1516483"><ele>126.0</ele><time>2026-04-29T10:58:40.792Z</time></trkpt><trkpt lat="43.69378" lon="13.1514233"><ele>126.0</ele><time>2026-04-29T10:58:41.792Z</time></trkpt><trkpt lat="43.6938217" lon="13.15119"><ele>126.0</ele><time>2026-04-29T10:58:42.791Z</time></trkpt><trkpt lat="43.6938567" lon="13.1509633"><ele>126.0</ele><time>2026-04-29T10:58:43.792Z</time></trkpt><trkpt lat="43.6938867" lon="13.1507383"><ele>128.0</ele><time>2026-04-29T10:58:44.792Z</time></trkpt><trkpt lat="43.6939133" lon="13.1505233"><ele>130.0</ele><time>2026-04-29T10:58:45.792Z</time></trkpt><trkpt lat="43.6939383" lon="13.1503183"><ele>132.0</ele><time>2026-04-29T10:58:46.792Z</time></trkpt><trkpt lat="43.6939633" lon="13.1501183"><ele>132.0</ele><time>2026-04-29T10:58:47.792Z</time></trkpt><trkpt lat="43.6939783" lon="13.14992"><ele>132.0</ele><time>2026-04-29T10:58:48.792Z</time></trkpt><trkpt lat="43.693985" lon="13.1497183"><ele>132.0</ele><time>2026-04-29T10:58:49.792Z</time></trkpt><trkpt lat="43.693975" lon="13.1495117"><ele>132.0</ele><time>2026-04-29T10:58:50.792Z</time></trkpt><trkpt lat="43.6939667" lon="13.1492983"><ele>134.33333333333334</ele><time>2026-04-29T10:58:51.792Z</time></trkpt><trkpt lat="43.6939467" lon="13.1490883"><ele>136.66666666666669</ele><time>2026-04-29T10:58:52.791Z</time></trkpt><trkpt lat="43.69392" lon="13.148875"><ele>139.0</ele><time>2026-04-29T10:58:53.792Z</time></trkpt><trkpt lat="43.6938867" lon="13.14868"><ele>141.25</ele><time>2026-04-29T10:58:54.792Z</time></trkpt><trkpt lat="43.69387" lon="13.1484967"><ele>143.5</ele><time>2026-04-29T10:58:55.792Z</time></trkpt><trkpt lat="43.6938617" lon="13.1483233"><ele>145.75</ele><time>2026-04-29T10:58:56.792Z</time></trkpt><trkpt lat="43.6938983" lon="13.1481733"><ele>148.0</ele><time>2026-04-29T10:58:57.791Z</time></trkpt><trkpt lat="43.69396" lon="13.148055"><ele>148.25</ele><time>2026-04-29T10:58:58.791Z</time></trkpt><trkpt lat="43.6940533" lon="13.1479583"><ele>148.5</ele><time>2026-04-29T10:58:59.791Z</time></trkpt><trkpt lat="43.6941567" lon="13.14786"><ele>148.75</ele><time>2026-04-29T10:59:00.791Z</time></trkpt><trkpt lat="43.69426" lon="13.147755"><ele>149.0</ele><time>2026-04-29T10:59:01.792Z</time></trkpt><trkpt lat="43.6943567" lon="13.1476533"><ele>149.25</ele><time>2026-04-29T10:59:02.791Z</time></trkpt><trkpt lat="43.69445" lon="13.1475467"><ele>149.5</ele><time>2026-04-29T10:59:03.792Z</time></trkpt><trkpt lat="43.6945483" lon="13.1474333"><ele>149.75</ele><time>2026-04-29T10:59:04.792Z</time></trkpt><trkpt lat="43.6946383" lon="13.14731"><ele>150.0</ele><time>2026-04-29T10:59:05.792Z</time></trkpt><trkpt lat="43.6947283" lon="13.1471933"><ele>150.0</ele><time>2026-04-29T10:59:06.791Z</time></trkpt><trkpt lat="43.6948333" lon="13.1470733"><ele>150.0</ele><time>2026-04-29T10:59:07.792Z</time></trkpt><trkpt lat="43.6949283" lon="13.1469467"><ele>150.0</ele><time>2026-04-29T10:59:08.792Z</time></trkpt><trkpt lat="43.6950217" lon="13.146825"><ele>150.0</ele><time>2026-04-29T10:59:09.791Z</time></trkpt><trkpt lat="43.6951133" lon="13.1467"><ele>150.0</ele><time>2026-04-29T10:59:10.792Z</time></trkpt><trkpt lat="43.69521" lon="13.1465717"><ele>150.0</ele><time>2026-04-29T10:59:11.792Z</time></trkpt><trkpt lat="43.6953083" lon="13.146445"><ele>150.0</ele><time>2026-04-29T10:59:12.792Z</time></trkpt><trkpt lat="43.6954083" lon="13.146315"><ele>150.0</ele><time>2026-04-29T10:59:13.792Z</time></trkpt><trkpt lat="43.6955083" lon="13.1461983"><ele>149.75</ele><time>2026-04-29T10:59:14.792Z</time></trkpt><trkpt lat="43.69559" lon="13.1460783"><ele>149.5</ele><time>2026-04-29T10:59:15.792Z</time></trkpt><trkpt lat="43.69568" lon="13.1459583"><ele>149.25</ele><time>2026-04-29T10:59:16.792Z</time></trkpt><trkpt lat="43.695745" lon="13.145835"><ele>149.0</ele><time>2026-04-29T10:59:17.792Z</time></trkpt><trkpt lat="43.6957883" lon="13.145695"><ele>149.4</ele><time>2026-04-29T10:59:18.792Z</time></trkpt><trkpt lat="43.6958117" lon="13.14554"><ele>149.8</ele><time>2026-04-29T10:59:19.792Z</time></trkpt><trkpt lat="43.695835" lon="13.1453833"><ele>150.2</ele><time>2026-04-29T10:59:20.792Z</time></trkpt><trkpt lat="43.6958367" lon="13.1452333"><ele>150.6</ele><time>2026-04-29T10:59:21.792Z</time></trkpt><trkpt lat="43.69583" lon="13.1451033"><ele>151.0</ele><time>2026-04-29T10:59:22.792Z</time></trkpt><trkpt lat="43.6958167" lon="13.1449867"><ele>151.0</ele><time>2026-04-29T10:59:23.792Z</time></trkpt><trkpt lat="43.6957933" lon="13.1448867"><ele>151.0</ele><time>2026-04-29T10:59:24.792Z</time></trkpt><trkpt lat="43.695765" lon="13.1448067"><ele>151.0</ele><time>2026-04-29T10:59:25.792Z</time></trkpt><trkpt lat="43.6957183" lon="13.14469"><ele>151.0</ele><time>2026-04-29T10:59:27.792Z</time></trkpt><trkpt lat="43.6957517" lon="13.1445917"><ele>151.0</ele><time>2026-04-29T10:59:29.792Z</time></trkpt><trkpt lat="43.6958533" lon="13.1445383"><ele>151.0</ele><time>2026-04-29T10:59:31.792Z</time></trkpt><trkpt lat="43.695935" lon="13.1445317"><ele>150.6</ele><time>2026-04-29T10:59:32.792Z</time></trkpt><trkpt lat="43.69603" lon="13.1445233"><ele>150.2</ele><time>2026-04-29T10:59:33.791Z</time></trkpt><trkpt lat="43.6961333" lon="13.1445183"><ele>149.8</ele><time>2026-04-29T10:59:34.792Z</time></trkpt><trkpt lat="43.696245" lon="13.14452"><ele>149.4</ele><time>2026-04-29T10:59:35.792Z</time></trkpt><trkpt lat="43.696345" lon="13.1445217"><ele>149.0</ele><time>2026-04-29T10:59:36.792Z</time></trkpt><trkpt lat="43.6964383" lon="13.1445483"><ele>147.5</ele><time>2026-04-29T10:59:37.792Z</time></trkpt><trkpt lat="43.6965417" lon="13.1446"><ele>146.0</ele><time>2026-04-29T10:59:38.791Z</time></trkpt><trkpt lat="43.6966433" lon="13.144675"><ele>144.5</ele><time>2026-04-29T10:59:39.791Z</time></trkpt><trkpt lat="43.6967467" lon="13.1447567"><ele>143.0</ele><time>2026-04-29T10:59:40.792Z</time></trkpt><trkpt lat="43.69685" lon="13.1448233"><ele>142.0</ele><time>2026-04-29T10:59:41.792Z</time></trkpt><trkpt lat="43.6969483" lon="13.1448533"><ele>141.0</ele><time>2026-04-29T10:59:42.792Z</time></trkpt><trkpt lat="43.6970483" lon="13.1448617"><ele>140.0</ele><time>2026-04-29T10:59:43.792Z</time></trkpt><trkpt lat="43.6971633" lon="13.144835"><ele>139.0</ele><time>2026-04-29T10:59:44.792Z</time></trkpt><trkpt lat="43.6972717" lon="13.1447667"><ele>138.0</ele><time>2026-04-29T10:59:45.792Z</time></trkpt><trkpt lat="43.6973733" lon="13.1446867"><ele>138.0</ele><time>2026-04-29T10:59:46.791Z</time></trkpt><trkpt lat="43.6974633" lon="13.1445817"><ele>138.0</ele><time>2026-04-29T10:59:47.791Z</time></trkpt><trkpt lat="43.697545" lon="13.1444867"><ele>138.0</ele><time>2026-04-29T10:59:48.792Z</time></trkpt><trkpt lat="43.6976333" lon="13.1443833"><ele>138.0</ele><time>2026-04-29T10:59:49.792Z</time></trkpt><trkpt lat="43.6977217" lon="13.1442833"><ele>137.66666666666666</ele><time>2026-04-29T10:59:50.792Z</time></trkpt><trkpt lat="43.6978033" lon="13.1441933"><ele>137.33333333333334</ele><time>2026-04-29T10:59:51.792Z</time></trkpt><trkpt lat="43.6978767" lon="13.1441017"><ele>137.0</ele><time>2026-04-29T10:59:52.791Z</time></trkpt><trkpt lat="43.6979467" lon="13.1440367"><ele>136.66666666666669</ele><time>2026-04-29T10:59:53.792Z</time></trkpt><trkpt lat="43.6980217" lon="13.1439933"><ele>136.33333333333334</ele><time>2026-04-29T10:59:54.792Z</time></trkpt><trkpt lat="43.698075" lon="13.143945"><ele>136.0</ele><time>2026-04-29T10:59:55.792Z</time></trkpt><trkpt lat="43.6981083" lon="13.1438"><ele>136.0</ele><time>2026-04-29T10:59:57.792Z</time></trkpt><trkpt lat="43.6980867" lon="13.1437"><ele>136.0</ele><time>2026-04-29T10:59:58.792Z</time></trkpt><trkpt lat="43.6980533" lon="13.1435917"><ele>136.0</ele><time>2026-04-29T10:59:59.792Z</time></trkpt><trkpt lat="43.6980183" lon="13.1434767"><ele>136.0</ele><time>2026-04-29T11:00:00.792Z</time></trkpt><trkpt lat="43.6979833" lon="13.143365"><ele>136.0</ele><time>2026-04-29T11:00:01.792Z</time></trkpt><trkpt lat="43.69795" lon="13.143245"><ele>136.0</ele><time>2026-04-29T11:00:02.792Z</time></trkpt><trkpt lat="43.69793" lon="13.1431433"><ele>135.83333333333334</ele><time>2026-04-29T11:00:03.791Z</time></trkpt><trkpt lat="43.6979183" lon="13.1430467"><ele>135.66666666666669</ele><time>2026-04-29T11:00:04.792Z</time></trkpt><trkpt lat="43.6979267" lon="13.1429583"><ele>135.5</ele><time>2026-04-29T11:00:05.792Z</time></trkpt><trkpt lat="43.6979567" lon="13.142875"><ele>135.33333333333334</ele><time>2026-04-29T11:00:06.792Z</time></trkpt><trkpt lat="43.6980067" lon="13.14279"><ele>135.16666666666666</ele><time>2026-04-29T11:00:07.792Z</time></trkpt><trkpt lat="43.698065" lon="13.1426883"><ele>135.0</ele><time>2026-04-29T11:00:08.789Z</time></trkpt><trkpt lat="43.69812" lon="13.1425717"><ele>135.0</ele><time>2026-04-29T11:00:09.792Z</time></trkpt><trkpt lat="43.69815" lon="13.1424467"><ele>135.0</ele><time>2026-04-29T11:00:10.791Z</time></trkpt><trkpt lat="43.6981633" lon="13.142305"><ele>135.0</ele><time>2026-04-29T11:00:11.792Z</time></trkpt><trkpt lat="43.6981583" lon="13.1421583"><ele>135.0</ele><time>2026-04-29T11:00:12.792Z</time></trkpt><trkpt lat="43.6981467" lon="13.142"><ele>135.0</ele><time>2026-04-29T11:00:13.792Z</time></trkpt><trkpt lat="43.6981183" lon="13.141855"><ele>135.0</ele><time>2026-04-29T11:00:14.791Z</time></trkpt><trkpt lat="43.6980767" lon="13.1417233"><ele>135.0</ele><time>2026-04-29T11:00:15.792Z</time></trkpt><trkpt lat="43.6980433" lon="13.1416033"><ele>135.0</ele><time>2026-04-29T11:00:16.792Z</time></trkpt><trkpt lat="43.6980217" lon="13.14149"><ele>135.0</ele><time>2026-04-29T11:00:17.792Z</time></trkpt><trkpt lat="43.6980217" lon="13.14137"><ele>135.0</ele><time>2026-04-29T11:00:18.791Z</time></trkpt><trkpt lat="43.69803" lon="13.1412317"><ele>134.5</ele><time>2026-04-29T11:00:19.792Z</time></trkpt><trkpt lat="43.698055" lon="13.1410783"><ele>134.0</ele><time>2026-04-29T11:00:20.792Z</time></trkpt><trkpt lat="43.6980767" lon="13.1409267"><ele>133.5</ele><time>2026-04-29T11:00:21.792Z</time></trkpt><trkpt lat="43.698085" lon="13.14077"><ele>133.0</ele><time>2026-04-29T11:00:22.792Z</time></trkpt><trkpt lat="43.6980767" lon="13.1406"><ele>131.5</ele><time>2026-04-29T11:00:23.792Z</time></trkpt><trkpt lat="43.6980733" lon="13.1404383"><ele>130.0</ele><time>2026-04-29T11:00:24.792Z</time></trkpt><trkpt lat="43.69807" lon="13.1402733"><ele>128.5</ele><time>2026-04-29T11:00:25.791Z</time></trkpt><trkpt lat="43.6980717" lon="13.140115"><ele>127.0</ele><time>2026-04-29T11:00:26.792Z</time></trkpt><trkpt lat="43.698075" lon="13.1399633"><ele>126.0</ele><time>2026-04-29T11:00:27.791Z</time></trkpt><trkpt lat="43.698095" lon="13.1398183"><ele>124.99999999999999</ele><time>2026-04-29T11:00:28.792Z</time></trkpt><trkpt lat="43.6981433" lon="13.13968"><ele>123.99999999999999</ele><time>2026-04-29T11:00:29.792Z</time></trkpt><trkpt lat="43.6982" lon="13.1395483"><ele>123.0</ele><time>2026-04-29T11:00:30.792Z</time></trkpt><trkpt lat="43.6982683" lon="13.1394183"><ele>122.0</ele><time>2026-04-29T11:00:31.791Z</time></trkpt><trkpt lat="43.6983433" lon="13.1393"><ele>122.0</ele><time>2026-04-29T11:00:32.792Z</time></trkpt><trkpt lat="43.69844" lon="13.13918"><ele>122.0</ele><time>2026-04-29T11:00:33.792Z</time></trkpt><trkpt lat="43.6985533" lon="13.1390683"><ele>122.0</ele><time>2026-04-29T11:00:34.792Z</time></trkpt><trkpt lat="43.6986667" lon="13.13895"><ele>122.0</ele><time>2026-04-29T11:00:35.792Z</time></trkpt><trkpt lat="43.69876" lon="13.1388417"><ele>121.6</ele><time>2026-04-29T11:00:36.792Z</time></trkpt><trkpt lat="43.6988317" lon="13.1387333"><ele>121.19999999999999</ele><time>2026-04-29T11:00:37.792Z</time></trkpt><trkpt lat="43.6988683" lon="13.138615"><ele>120.8</ele><time>2026-04-29T11:00:38.792Z</time></trkpt><trkpt lat="43.6988883" lon="13.138475"><ele>120.4</ele><time>2026-04-29T11:00:39.792Z</time></trkpt><trkpt lat="43.6989033" lon="13.1383367"><ele>120.0</ele><time>2026-04-29T11:00:40.792Z</time></trkpt><trkpt lat="43.6989333" lon="13.1382067"><ele>120.0</ele><time>2026-04-29T11:00:41.792Z</time></trkpt><trkpt lat="43.6989767" lon="13.138095"><ele>120.0</ele><time>2026-04-29T11:00:42.792Z</time></trkpt><trkpt lat="43.6990267" lon="13.1379867"><ele>120.0</ele><time>2026-04-29T11:00:43.792Z</time></trkpt><trkpt lat="43.6991033" lon="13.1378917"><ele>120.0</ele><time>2026-04-29T11:00:44.791Z</time></trkpt><trkpt lat="43.6991917" lon="13.1377883"><ele>120.0</ele><time>2026-04-29T11:00:45.792Z</time></trkpt><trkpt lat="43.69928" lon="13.1376817"><ele>120.0</ele><time>2026-04-29T11:00:46.792Z</time></trkpt><trkpt lat="43.6993633" lon="13.137575"><ele>120.0</ele><time>2026-04-29T11:00:47.791Z</time></trkpt><trkpt lat="43.6994383" lon="13.1374717"><ele>120.0</ele><time>2026-04-29T11:00:48.792Z</time></trkpt><trkpt lat="43.6995117" lon="13.1373717"><ele>120.0</ele><time>2026-04-29T11:00:49.792Z</time></trkpt><trkpt lat="43.6995717" lon="13.137285"><ele>120.0</ele><time>2026-04-29T11:00:50.791Z</time></trkpt><trkpt lat="43.699635" lon="13.1371967"><ele>119.2</ele><time>2026-04-29T11:00:51.792Z</time></trkpt><trkpt lat="43.6996867" lon="13.1371017"><ele>118.4</ele><time>2026-04-29T11:00:52.792Z</time></trkpt><trkpt lat="43.6997317" lon="13.137"><ele>117.6</ele><time>2026-04-29T11:00:53.792Z</time></trkpt><trkpt lat="43.6997683" lon="13.1368667"><ele>116.8</ele><time>2026-04-29T11:00:54.792Z</time></trkpt><trkpt lat="43.6998017" lon="13.1367167"><ele>116.0</ele><time>2026-04-29T11:00:55.792Z</time></trkpt><trkpt lat="43.69983" lon="13.1365917"><ele>114.8</ele><time>2026-04-29T11:00:56.792Z</time></trkpt><trkpt lat="43.6998633" lon="13.1364417"><ele>113.6</ele><time>2026-04-29T11:00:57.792Z</time></trkpt><trkpt lat="43.6998917" lon="13.1362883"><ele>112.4</ele><time>2026-04-29T11:00:58.792Z</time></trkpt><trkpt lat="43.6999183" lon="13.1361483"><ele>111.2</ele><time>2026-04-29T11:00:59.792Z</time></trkpt><trkpt lat="43.6999483" lon="13.135995"><ele>110.0</ele><time>2026-04-29T11:01:00.792Z</time></trkpt><trkpt lat="43.6999833" lon="13.1358433"><ele>110.4</ele><time>2026-04-29T11:01:01.792Z</time></trkpt><trkpt lat="43.7000117" lon="13.1356883"><ele>110.8</ele><time>2026-04-29T11:01:02.792Z</time></trkpt><trkpt lat="43.7000333" lon="13.135535"><ele>111.19999999999999</ele><time>2026-04-29T11:01:03.792Z</time></trkpt><trkpt lat="43.7000533" lon="13.13538"><ele>111.6</ele><time>2026-04-29T11:01:04.792Z</time></trkpt><trkpt lat="43.7000867" lon="13.13524"><ele>112.0</ele><time>2026-04-29T11:01:05.792Z</time></trkpt><trkpt lat="43.7001267" lon="13.1350933"><ele>112.0</ele><time>2026-04-29T11:01:06.792Z</time></trkpt><trkpt lat="43.700165" lon="13.13496"><ele>111.99999999999999</ele><time>2026-04-29T11:01:07.791Z</time></trkpt><trkpt lat="43.7002" lon="13.1348267"><ele>111.99999999999999</ele><time>2026-04-29T11:01:08.792Z</time></trkpt><trkpt lat="43.7002217" lon="13.134705"><ele>112.0</ele><time>2026-04-29T11:01:09.792Z</time></trkpt><trkpt lat="43.70023" lon="13.13458"><ele>112.0</ele><time>2026-04-29T11:01:10.792Z</time></trkpt><trkpt lat="43.7002217" lon="13.1344567"><ele>113.19999999999999</ele><time>2026-04-29T11:01:11.792Z</time></trkpt><trkpt lat="43.700215" lon="13.1343217"><ele>114.39999999999999</ele><time>2026-04-29T11:01:12.792Z</time></trkpt><trkpt lat="43.7001967" lon="13.1341883"><ele>115.60000000000001</ele><time>2026-04-29T11:01:13.792Z</time></trkpt><trkpt lat="43.700165" lon="13.1340617"><ele>116.80000000000001</ele><time>2026-04-29T11:01:14.792Z</time></trkpt><trkpt lat="43.700135" lon="13.1339317"><ele>118.0</ele><time>2026-04-29T11:01:15.792Z</time></trkpt><trkpt lat="43.7000983" lon="13.133825"><ele>118.83333333333334</ele><time>2026-04-29T11:01:16.792Z</time></trkpt><trkpt lat="43.7000533" lon="13.133735"><ele>119.66666666666667</ele><time>2026-04-29T11:01:17.792Z</time></trkpt><trkpt lat="43.7000017" lon="13.133655"><ele>120.5</ele><time>2026-04-29T11:01:18.791Z</time></trkpt><trkpt lat="43.6999367" lon="13.13359"><ele>121.33333333333334</ele><time>2026-04-29T11:01:19.791Z</time></trkpt><trkpt lat="43.6998467" lon="13.1335367"><ele>122.16666666666667</ele><time>2026-04-29T11:01:20.792Z</time></trkpt><trkpt lat="43.6997567" lon="13.1334833"><ele>123.0</ele><time>2026-04-29T11:01:21.792Z</time></trkpt><trkpt lat="43.69967" lon="13.1334117"><ele>123.0</ele><time>2026-04-29T11:01:22.792Z</time></trkpt><trkpt lat="43.6996083" lon="13.133305"><ele>123.00000000000001</ele><time>2026-04-29T11:01:23.792Z</time></trkpt><trkpt lat="43.6995717" lon="13.1331883"><ele>123.00000000000001</ele><time>2026-04-29T11:01:24.792Z</time></trkpt><trkpt lat="43.6995383" lon="13.1330433"><ele>123.0</ele><time>2026-04-29T11:01:25.792Z</time></trkpt><trkpt lat="43.699525" lon="13.1328933"><ele>123.0</ele><time>2026-04-29T11:01:26.792Z</time></trkpt><trkpt lat="43.6995133" lon="13.132745"><ele>125.0</ele><time>2026-04-29T11:01:27.792Z</time></trkpt><trkpt lat="43.69952" lon="13.132595"><ele>127.00000000000001</ele><time>2026-04-29T11:01:28.792Z</time></trkpt><trkpt lat="43.6995183" lon="13.1324667"><ele>129.0</ele><time>2026-04-29T11:01:29.792Z</time></trkpt><trkpt lat="43.6995217" lon="13.1323417"><ele>131.0</ele><time>2026-04-29T11:01:30.792Z</time></trkpt><trkpt lat="43.6995167" lon="13.1322167"><ele>133.0</ele><time>2026-04-29T11:01:31.792Z</time></trkpt><trkpt lat="43.6995183" lon="13.13209"><ele>134.0</ele><time>2026-04-29T11:01:32.791Z</time></trkpt><trkpt lat="43.6994833" lon="13.1319767"><ele>135.0</ele><time>2026-04-29T11:01:33.792Z</time></trkpt><trkpt lat="43.6994533" lon="13.13187"><ele>136.0</ele><time>2026-04-29T11:01:34.792Z</time></trkpt><trkpt lat="43.6994067" lon="13.1317633"><ele>137.0</ele><time>2026-04-29T11:01:35.792Z</time></trkpt><trkpt lat="43.6993317" lon="13.1316517"><ele>138.0</ele><time>2026-04-29T11:01:36.792Z</time></trkpt><trkpt lat="43.6992467" lon="13.1315367"><ele>140.75</ele><time>2026-04-29T11:01:37.792Z</time></trkpt><trkpt lat="43.6991567" lon="13.131425"><ele>143.5</ele><time>2026-04-29T11:01:38.791Z</time></trkpt><trkpt lat="43.69907" lon="13.131315"><ele>146.25</ele><time>2026-04-29T11:01:39.792Z</time></trkpt><trkpt lat="43.6989917" lon="13.1312067"><ele>149.0</ele><time>2026-04-29T11:01:40.792Z</time></trkpt><trkpt lat="43.6989267" lon="13.1311"><ele>149.0</ele><time>2026-04-29T11:01:41.791Z</time></trkpt><trkpt lat="43.69886" lon="13.1309983"><ele>149.0</ele><time>2026-04-29T11:01:42.792Z</time></trkpt><trkpt lat="43.6988117" lon="13.13091"><ele>149.0</ele><time>2026-04-29T11:01:43.792Z</time></trkpt><trkpt lat="43.6987917" lon="13.1308117"><ele>149.0</ele><time>2026-04-29T11:01:44.792Z</time></trkpt><trkpt lat="43.6987833" lon="13.130725"><ele>149.0</ele><time>2026-04-29T11:01:45.792Z</time></trkpt><trkpt lat="43.6987633" lon="13.1305833"><ele>149.0</ele><time>2026-04-29T11:01:47.792Z</time></trkpt><trkpt lat="43.6987417" lon="13.13046"><ele>149.4</ele><time>2026-04-29T11:01:49.792Z</time></trkpt><trkpt lat="43.6986733" lon="13.1303633"><ele>149.8</ele><time>2026-04-29T11:01:51.791Z</time></trkpt><trkpt lat="43.6985767" lon="13.130255"><ele>150.2</ele><time>2026-04-29T11:01:53.792Z</time></trkpt><trkpt lat="43.6985233" lon="13.1302"><ele>150.6</ele><time>2026-04-29T11:01:54.792Z</time></trkpt><trkpt lat="43.698425" lon="13.13013"><ele>151.0</ele><time>2026-04-29T11:01:56.792Z</time></trkpt><trkpt lat="43.6983717" lon="13.1300217"><ele>151.2</ele><time>2026-04-29T11:02:12.792Z</time></trkpt><trkpt lat="43.6983367" lon="13.12994"><ele>151.39999999999998</ele><time>2026-04-29T11:02:14.791Z</time></trkpt><trkpt lat="43.698285" lon="13.1298733"><ele>151.6</ele><time>2026-04-29T11:02:15.792Z</time></trkpt><trkpt lat="43.6981917" lon="13.1297683"><ele>151.79999999999998</ele><time>2026-04-29T11:02:16.791Z</time></trkpt><trkpt lat="43.6980667" lon="13.1296317"><ele>152.0</ele><time>2026-04-29T11:02:17.792Z</time></trkpt><trkpt lat="43.697955" lon="13.12948"><ele>152.0</ele><time>2026-04-29T11:02:18.792Z</time></trkpt><trkpt lat="43.6978683" lon="13.1293183"><ele>152.0</ele><time>2026-04-29T11:02:19.792Z</time></trkpt><trkpt lat="43.6977917" lon="13.1291383"><ele>152.0</ele><time>2026-04-29T11:02:20.792Z</time></trkpt><trkpt lat="43.6977233" lon="13.1289567"><ele>152.0</ele><time>2026-04-29T11:02:21.792Z</time></trkpt><trkpt lat="43.6976517" lon="13.1287817"><ele>155.5</ele><time>2026-04-29T11:02:22.792Z</time></trkpt><trkpt lat="43.6975817" lon="13.1286133"><ele>159.0</ele><time>2026-04-29T11:02:23.792Z</time></trkpt><trkpt lat="43.6975217" lon="13.128455"><ele>162.5</ele><time>2026-04-29T11:02:24.792Z</time></trkpt><trkpt lat="43.6974533" lon="13.1282933"><ele>166.0</ele><time>2026-04-29T11:02:25.792Z</time></trkpt><trkpt lat="43.6973917" lon="13.1281317"><ele>167.25</ele><time>2026-04-29T11:02:26.792Z</time></trkpt><trkpt lat="43.6973333" lon="13.1279717"><ele>168.5</ele><time>2026-04-29T11:02:27.791Z</time></trkpt><trkpt lat="43.6972717" lon="13.127815"><ele>169.75</ele><time>2026-04-29T11:02:28.792Z</time></trkpt><trkpt lat="43.69721" lon="13.1276717"><ele>171.0</ele><time>2026-04-29T11:02:29.792Z</time></trkpt><trkpt lat="43.69716" lon="13.1275283"><ele>170.75</ele><time>2026-04-29T11:02:30.792Z</time></trkpt><trkpt lat="43.69712" lon="13.1273783"><ele>170.5</ele><time>2026-04-29T11:02:31.792Z</time></trkpt><trkpt lat="43.6970867" lon="13.1272133"><ele>170.25</ele><time>2026-04-29T11:02:32.792Z</time></trkpt><trkpt lat="43.69706" lon="13.1270367"><ele>170.0</ele><time>2026-04-29T11:02:33.792Z</time></trkpt><trkpt lat="43.6970383" lon="13.1268567"><ele>170.0</ele><time>2026-04-29T11:02:34.792Z</time></trkpt><trkpt lat="43.697015" lon="13.1266767"><ele>170.0</ele><time>2026-04-29T11:02:35.792Z</time></trkpt><trkpt lat="43.6969967" lon="13.126495"><ele>170.0</ele><time>2026-04-29T11:02:36.792Z</time></trkpt><trkpt lat="43.6969817" lon="13.12629"><ele>170.0</ele><time>2026-04-29T11:02:37.792Z</time></trkpt><trkpt lat="43.69696" lon="13.1260617"><ele>169.0</ele><time>2026-04-29T11:02:38.792Z</time></trkpt><trkpt lat="43.696935" lon="13.1258317"><ele>168.0</ele><time>2026-04-29T11:02:39.792Z</time></trkpt><trkpt lat="43.6969167" lon="13.125585"><ele>167.0</ele><time>2026-04-29T11:02:40.792Z</time></trkpt><trkpt lat="43.6968983" lon="13.1253283"><ele>166.33333333333331</ele><time>2026-04-29T11:02:41.792Z</time></trkpt><trkpt lat="43.6968767" lon="13.1250717"><ele>165.66666666666666</ele><time>2026-04-29T11:02:42.791Z</time></trkpt><trkpt lat="43.6968567" lon="13.1248167"><ele>165.0</ele><time>2026-04-29T11:02:43.792Z</time></trkpt><trkpt lat="43.6968333" lon="13.12456"><ele>166.0</ele><time>2026-04-29T11:02:44.792Z</time></trkpt><trkpt lat="43.6967933" lon="13.12432"><ele>167.0</ele><time>2026-04-29T11:02:45.792Z</time></trkpt><trkpt lat="43.696745" lon="13.1240883"><ele>168.0</ele><time>2026-04-29T11:02:46.792Z</time></trkpt><trkpt lat="43.6966783" lon="13.123885"><ele>168.0</ele><time>2026-04-29T11:02:47.792Z</time></trkpt><trkpt lat="43.6965883" lon="13.123725"><ele>168.0</ele><time>2026-04-29T11:02:48.791Z</time></trkpt><trkpt lat="43.6964833" lon="13.1236117"><ele>168.0</ele><time>2026-04-29T11:02:49.792Z</time></trkpt><trkpt lat="43.6963617" lon="13.1235067"><ele>168.0</ele><time>2026-04-29T11:02:50.792Z</time></trkpt><trkpt lat="43.6962317" lon="13.1233967"><ele>168.0</ele><time>2026-04-29T11:02:51.792Z</time></trkpt><trkpt lat="43.6961" lon="13.1232783"><ele>168.0</ele><time>2026-04-29T11:02:52.792Z</time></trkpt><trkpt lat="43.695975" lon="13.12315"><ele>168.0</ele><time>2026-04-29T11:02:53.792Z</time></trkpt><trkpt lat="43.6958667" lon="13.123005"><ele>171.0</ele><time>2026-04-29T11:02:54.791Z</time></trkpt><trkpt lat="43.6957717" lon="13.12283"><ele>174.0</ele><time>2026-04-29T11:02:55.792Z</time></trkpt><trkpt lat="43.6956783" lon="13.1226367"><ele>177.0</ele><time>2026-04-29T11:02:56.792Z</time></trkpt><trkpt lat="43.6955767" lon="13.1224317"><ele>177.66666666666666</ele><time>2026-04-29T11:02:57.792Z</time></trkpt><trkpt lat="43.6954717" lon="13.1222183"><ele>178.33333333333331</ele><time>2026-04-29T11:02:58.792Z</time></trkpt><trkpt lat="43.6953683" lon="13.1220083"><ele>179.0</ele><time>2026-04-29T11:02:59.792Z</time></trkpt><trkpt lat="43.69526" lon="13.121815"><ele>180.0</ele><time>2026-04-29T11:03:00.792Z</time></trkpt><trkpt lat="43.6951333" lon="13.1216417"><ele>181.0</ele><time>2026-04-29T11:03:01.792Z</time></trkpt><trkpt lat="43.6949917" lon="13.1214967"><ele>182.0</ele><time>2026-04-29T11:03:02.792Z</time></trkpt><trkpt lat="43.6948567" lon="13.121365"><ele>182.0</ele><time>2026-04-29T11:03:03.792Z</time></trkpt><trkpt lat="43.6947433" lon="13.121215"><ele>182.0</ele><time>2026-04-29T11:03:04.791Z</time></trkpt><trkpt lat="43.6946417" lon="13.12105"><ele>182.0</ele><time>2026-04-29T11:03:05.791Z</time></trkpt><trkpt lat="43.6945567" lon="13.1208667"><ele>183.0</ele><time>2026-04-29T11:03:06.791Z</time></trkpt><trkpt lat="43.6944783" lon="13.12067"><ele>184.0</ele><time>2026-04-29T11:03:07.791Z</time></trkpt><trkpt lat="43.6944017" lon="13.1204583"><ele>185.0</ele><time>2026-04-29T11:03:08.791Z</time></trkpt><trkpt lat="43.69432" lon="13.1202233"><ele>185.0</ele><time>2026-04-29T11:03:09.791Z</time></trkpt><trkpt lat="43.6942383" lon="13.1199783"><ele>185.0</ele><time>2026-04-29T11:03:10.791Z</time></trkpt><trkpt lat="43.6941533" lon="13.119725"><ele>185.0</ele><time>2026-04-29T11:03:11.791Z</time></trkpt><trkpt lat="43.694065" lon="13.119455"><ele>185.66666666666666</ele><time>2026-04-29T11:03:12.791Z</time></trkpt><trkpt lat="43.6939883" lon="13.1191867"><ele>186.33333333333334</ele><time>2026-04-29T11:03:13.791Z</time></trkpt><trkpt lat="43.693915" lon="13.1188983"><ele>187.0</ele><time>2026-04-29T11:03:14.79Z</time></trkpt><trkpt lat="43.6938467" lon="13.11861"><ele>187.0</ele><time>2026-04-29T11:03:15.791Z</time></trkpt><trkpt lat="43.6937967" lon="13.1183433"><ele>187.0</ele><time>2026-04-29T11:03:16.791Z</time></trkpt><trkpt lat="43.693755" lon="13.1180983"><ele>187.0</ele><time>2026-04-29T11:03:17.791Z</time></trkpt><trkpt lat="43.6937233" lon="13.117865"><ele>187.0</ele><time>2026-04-29T11:03:18.791Z</time></trkpt><trkpt lat="43.693705" lon="13.117645"><ele>187.0</ele><time>2026-04-29T11:03:19.791Z</time></trkpt><trkpt lat="43.693695" lon="13.117425"><ele>187.0</ele><time>2026-04-29T11:03:20.791Z</time></trkpt><trkpt lat="43.69369" lon="13.1171933"><ele>186.33333333333334</ele><time>2026-04-29T11:03:21.79Z</time></trkpt><trkpt lat="43.6936833" lon="13.1169617"><ele>185.66666666666666</ele><time>2026-04-29T11:03:22.791Z</time></trkpt><trkpt lat="43.693675" lon="13.1167367"><ele>185.0</ele><time>2026-04-29T11:03:23.791Z</time></trkpt><trkpt lat="43.6936667" lon="13.11651"><ele>185.0</ele><time>2026-04-29T11:03:24.791Z</time></trkpt><trkpt lat="43.693665" lon="13.1162817"><ele>185.0</ele><time>2026-04-29T11:03:25.791Z</time></trkpt><trkpt lat="43.693675" lon="13.1160467"><ele>185.0</ele><time>2026-04-29T11:03:26.791Z</time></trkpt><trkpt lat="43.6936917" lon="13.1158183"><ele>185.66666666666666</ele><time>2026-04-29T11:03:27.79Z</time></trkpt><trkpt lat="43.6937133" lon="13.1155917"><ele>186.33333333333334</ele><time>2026-04-29T11:03:28.79Z</time></trkpt><trkpt lat="43.69375" lon="13.1153767"><ele>187.0</ele><time>2026-04-29T11:03:29.79Z</time></trkpt><trkpt lat="43.69381" lon="13.1151683"><ele>187.0</ele><time>2026-04-29T11:03:30.791Z</time></trkpt><trkpt lat="43.6938833" lon="13.1149567"><ele>187.0</ele><time>2026-04-29T11:03:31.791Z</time></trkpt><trkpt lat="43.693975" lon="13.1147483"><ele>187.0</ele><time>2026-04-29T11:03:32.791Z</time></trkpt><trkpt lat="43.6940767" lon="13.1145433"><ele>188.66666666666669</ele><time>2026-04-29T11:03:33.791Z</time></trkpt><trkpt lat="43.6941783" lon="13.1143383"><ele>190.33333333333334</ele><time>2026-04-29T11:03:34.791Z</time></trkpt><trkpt lat="43.694265" lon="13.1141383"><ele>192.0</ele><time>2026-04-29T11:03:35.791Z</time></trkpt><trkpt lat="43.6943417" lon="13.11394"><ele>192.66666666666669</ele><time>2026-04-29T11:03:36.791Z</time></trkpt><trkpt lat="43.6944117" lon="13.1137417"><ele>193.33333333333334</ele><time>2026-04-29T11:03:37.791Z</time></trkpt><trkpt lat="43.6944733" lon="13.1135383"><ele>194.0</ele><time>2026-04-29T11:03:38.791Z</time></trkpt><trkpt lat="43.6945283" lon="13.1133583"><ele>194.5</ele><time>2026-04-29T11:03:39.791Z</time></trkpt><trkpt lat="43.6945783" lon="13.113185"><ele>195.0</ele><time>2026-04-29T11:03:40.791Z</time></trkpt><trkpt lat="43.6946317" lon="13.1130283"><ele>195.5</ele><time>2026-04-29T11:03:41.791Z</time></trkpt><trkpt lat="43.6946733" lon="13.1128683"><ele>196.0</ele><time>2026-04-29T11:03:42.791Z</time></trkpt><trkpt lat="43.6947017" lon="13.11272"><ele>196.0</ele><time>2026-04-29T11:03:43.791Z</time></trkpt><trkpt lat="43.694705" lon="13.11258"><ele>196.0</ele><time>2026-04-29T11:03:44.791Z</time></trkpt><trkpt lat="43.6946783" lon="13.11244"><ele>196.0</ele><time>2026-04-29T11:03:45.791Z</time></trkpt><trkpt lat="43.6946267" lon="13.1123267"><ele>196.0</ele><time>2026-04-29T11:03:46.791Z</time></trkpt><trkpt lat="43.6945583" lon="13.1122067"><ele>196.0</ele><time>2026-04-29T11:03:47.791Z</time></trkpt><trkpt lat="43.69448" lon="13.1120867"><ele>196.25</ele><time>2026-04-29T11:03:48.791Z</time></trkpt><trkpt lat="43.6944033" lon="13.1119583"><ele>196.5</ele><time>2026-04-29T11:03:49.791Z</time></trkpt><trkpt lat="43.6943483" lon="13.11181"><ele>196.75</ele><time>2026-04-29T11:03:50.791Z</time></trkpt><trkpt lat="43.69432" lon="13.1116433"><ele>197.0</ele><time>2026-04-29T11:03:51.791Z</time></trkpt><trkpt lat="43.6943083" lon="13.1114633"><ele>196.5</ele><time>2026-04-29T11:03:52.791Z</time></trkpt><trkpt lat="43.69431" lon="13.1112817"><ele>196.0</ele><time>2026-04-29T11:03:53.791Z</time></trkpt><trkpt lat="43.6943133" lon="13.1110867"><ele>195.5</ele><time>2026-04-29T11:03:54.791Z</time></trkpt><trkpt lat="43.69432" lon="13.1108917"><ele>195.0</ele><time>2026-04-29T11:03:55.791Z</time></trkpt><trkpt lat="43.694325" lon="13.1106883"><ele>196.25</ele><time>2026-04-29T11:03:56.791Z</time></trkpt><trkpt lat="43.6943267" lon="13.11048"><ele>197.5</ele><time>2026-04-29T11:03:57.79Z</time></trkpt><trkpt lat="43.6943267" lon="13.1102833"><ele>198.75</ele><time>2026-04-29T11:03:58.791Z</time></trkpt><trkpt lat="43.694315" lon="13.1101117"><ele>200.0</ele><time>2026-04-29T11:03:59.791Z</time></trkpt><trkpt lat="43.69429" lon="13.10996"><ele>200.75</ele><time>2026-04-29T11:04:00.791Z</time></trkpt><trkpt lat="43.6942267" lon="13.1098333"><ele>201.5</ele><time>2026-04-29T11:04:01.791Z</time></trkpt><trkpt lat="43.6941417" lon="13.1097383"><ele>202.25</ele><time>2026-04-29T11:04:02.791Z</time></trkpt><trkpt lat="43.694035" lon="13.1096533"><ele>203.0</ele><time>2026-04-29T11:04:03.791Z</time></trkpt><trkpt lat="43.6939133" lon="13.1095883"><ele>203.0</ele><time>2026-04-29T11:04:04.791Z</time></trkpt><trkpt lat="43.6937867" lon="13.109525"><ele>203.0</ele><time>2026-04-29T11:04:05.79Z</time></trkpt><trkpt lat="43.69365" lon="13.1094683"><ele>203.0</ele><time>2026-04-29T11:04:06.791Z</time></trkpt><trkpt lat="43.693505" lon="13.1093983"><ele>203.0</ele><time>2026-04-29T11:04:07.79Z</time></trkpt><trkpt lat="43.6933567" lon="13.1093167"><ele>202.33333333333334</ele><time>2026-04-29T11:04:08.791Z</time></trkpt><trkpt lat="43.693205" lon="13.1092417"><ele>201.66666666666669</ele><time>2026-04-29T11:04:09.791Z</time></trkpt><trkpt lat="43.6930417" lon="13.1091667"><ele>201.0</ele><time>2026-04-29T11:04:10.791Z</time></trkpt><trkpt lat="43.6928867" lon="13.109085"><ele>200.66666666666669</ele><time>2026-04-29T11:04:11.791Z</time></trkpt><trkpt lat="43.6927367" lon="13.1089883"><ele>200.33333333333334</ele><time>2026-04-29T11:04:12.791Z</time></trkpt><trkpt lat="43.6925967" lon="13.108875"><ele>200.0</ele><time>2026-04-29T11:04:13.791Z</time></trkpt><trkpt lat="43.6924683" lon="13.1087367"><ele>200.0</ele><time>2026-04-29T11:04:14.791Z</time></trkpt><trkpt lat="43.6923483" lon="13.1085817"><ele>200.0</ele><time>2026-04-29T11:04:15.791Z</time></trkpt><trkpt lat="43.6922333" lon="13.1084117"><ele>200.0</ele><time>2026-04-29T11:04:16.791Z</time></trkpt><trkpt lat="43.6921217" lon="13.1082417"><ele>199.0</ele><time>2026-04-29T11:04:17.791Z</time></trkpt><trkpt lat="43.692005" lon="13.1080683"><ele>198.0</ele><time>2026-04-29T11:04:18.791Z</time></trkpt><trkpt lat="43.6918883" lon="13.1079033"><ele>197.0</ele><time>2026-04-29T11:04:19.791Z</time></trkpt><trkpt lat="43.6917717" lon="13.1077383"><ele>197.0</ele><time>2026-04-29T11:04:20.79Z</time></trkpt><trkpt lat="43.6916417" lon="13.1075933"><ele>197.0</ele><time>2026-04-29T11:04:21.791Z</time></trkpt><trkpt lat="43.691515" lon="13.107465"><ele>197.0</ele><time>2026-04-29T11:04:22.791Z</time></trkpt><trkpt lat="43.6913917" lon="13.1073467"><ele>196.33333333333334</ele><time>2026-04-29T11:04:23.79Z</time></trkpt><trkpt lat="43.69127" lon="13.10723"><ele>195.66666666666669</ele><time>2026-04-29T11:04:24.79Z</time></trkpt><trkpt lat="43.691145" lon="13.1071233"><ele>195.0</ele><time>2026-04-29T11:04:25.791Z</time></trkpt><trkpt lat="43.691005" lon="13.1070317"><ele>193.66666666666666</ele><time>2026-04-29T11:04:26.791Z</time></trkpt><trkpt lat="43.6908567" lon="13.10696"><ele>192.33333333333331</ele><time>2026-04-29T11:04:27.791Z</time></trkpt><trkpt lat="43.6907183" lon="13.1068867"><ele>191.0</ele><time>2026-04-29T11:04:28.791Z</time></trkpt><trkpt lat="43.6905733" lon="13.1068167"><ele>191.0</ele><time>2026-04-29T11:04:29.791Z</time></trkpt><trkpt lat="43.69044" lon="13.10674"><ele>191.0</ele><time>2026-04-29T11:04:30.79Z</time></trkpt><trkpt lat="43.6903067" lon="13.1066583"><ele>191.0</ele><time>2026-04-29T11:04:31.791Z</time></trkpt><trkpt lat="43.6901767" lon="13.1065633"><ele>191.0</ele><time>2026-04-29T11:04:32.791Z</time></trkpt><trkpt lat="43.6900383" lon="13.1064633"><ele>192.0</ele><time>2026-04-29T11:04:33.791Z</time></trkpt><trkpt lat="43.6899017" lon="13.106355"><ele>193.0</ele><time>2026-04-29T11:04:34.791Z</time></trkpt><trkpt lat="43.6897617" lon="13.1062483"><ele>194.0</ele><time>2026-04-29T11:04:35.791Z</time></trkpt><trkpt lat="43.6896267" lon="13.1061467"><ele>194.0</ele><time>2026-04-29T11:04:36.79Z</time></trkpt><trkpt lat="43.6894933" lon="13.1060317"><ele>194.0</ele><time>2026-04-29T11:04:37.79Z</time></trkpt><trkpt lat="43.689375" lon="13.1058983"><ele>194.0</ele><time>2026-04-29T11:04:38.791Z</time></trkpt><trkpt lat="43.6892767" lon="13.10574"><ele>194.0</ele><time>2026-04-29T11:04:39.791Z</time></trkpt><trkpt lat="43.6892083" lon="13.1055583"><ele>194.0</ele><time>2026-04-29T11:04:40.791Z</time></trkpt><trkpt lat="43.6891533" lon="13.1053567"><ele>194.0</ele><time>2026-04-29T11:04:41.791Z</time></trkpt><trkpt lat="43.68911" lon="13.1051533"><ele>194.0</ele><time>2026-04-29T11:04:42.791Z</time></trkpt><trkpt lat="43.6890567" lon="13.1049483"><ele>194.0</ele><time>2026-04-29T11:04:43.791Z</time></trkpt><trkpt lat="43.6890083" lon="13.1047383"><ele>194.0</ele><time>2026-04-29T11:04:44.791Z</time></trkpt><trkpt lat="43.6889667" lon="13.104535"><ele>192.33333333333334</ele><time>2026-04-29T11:04:45.791Z</time></trkpt><trkpt lat="43.6889217" lon="13.10434"><ele>190.66666666666669</ele><time>2026-04-29T11:04:46.791Z</time></trkpt><trkpt lat="43.688875" lon="13.10413"><ele>189.0</ele><time>2026-04-29T11:04:47.791Z</time></trkpt><trkpt lat="43.688825" lon="13.10394"><ele>188.0</ele><time>2026-04-29T11:04:48.791Z</time></trkpt><trkpt lat="43.68878" lon="13.10375"><ele>187.0</ele><time>2026-04-29T11:04:49.791Z</time></trkpt><trkpt lat="43.688735" lon="13.1035567"><ele>186.0</ele><time>2026-04-29T11:04:50.791Z</time></trkpt><trkpt lat="43.6886917" lon="13.10336"><ele>185.0</ele><time>2026-04-29T11:04:51.791Z</time></trkpt><trkpt lat="43.6886467" lon="13.1031733"><ele>184.5</ele><time>2026-04-29T11:04:52.791Z</time></trkpt><trkpt lat="43.6886067" lon="13.1029783"><ele>184.0</ele><time>2026-04-29T11:04:53.791Z</time></trkpt><trkpt lat="43.68857" lon="13.1027867"><ele>183.5</ele><time>2026-04-29T11:04:54.791Z</time></trkpt><trkpt lat="43.6885567" lon="13.1025833"><ele>183.0</ele><time>2026-04-29T11:04:55.79Z</time></trkpt><trkpt lat="43.6885567" lon="13.1023817"><ele>184.75</ele><time>2026-04-29T11:04:56.791Z</time></trkpt><trkpt lat="43.6885567" lon="13.1021767"><ele>186.5</ele><time>2026-04-29T11:04:57.791Z</time></trkpt><trkpt lat="43.6885533" lon="13.101985"><ele>188.25</ele><time>2026-04-29T11:04:58.791Z</time></trkpt><trkpt lat="43.6885483" lon="13.1018"><ele>190.0</ele><time>2026-04-29T11:04:59.791Z</time></trkpt><trkpt lat="43.6885333" lon="13.1016217"><ele>190.25</ele><time>2026-04-29T11:05:00.791Z</time></trkpt><trkpt lat="43.6885083" lon="13.10145"><ele>190.5</ele><time>2026-04-29T11:05:01.791Z</time></trkpt><trkpt lat="43.6884717" lon="13.1012817"><ele>190.75</ele><time>2026-04-29T11:05:02.791Z</time></trkpt><trkpt lat="43.6884267" lon="13.10111"><ele>191.0</ele><time>2026-04-29T11:05:03.791Z</time></trkpt><trkpt lat="43.688385" lon="13.1009367"><ele>191.0</ele><time>2026-04-29T11:05:04.791Z</time></trkpt><trkpt lat="43.6883383" lon="13.1007633"><ele>191.0</ele><time>2026-04-29T11:05:05.791Z</time></trkpt><trkpt lat="43.688295" lon="13.1005767"><ele>191.0</ele><time>2026-04-29T11:05:06.791Z</time></trkpt><trkpt lat="43.68825" lon="13.100405"><ele>191.0</ele><time>2026-04-29T11:05:07.791Z</time></trkpt><trkpt lat="43.6882167" lon="13.1002317"><ele>192.25</ele><time>2026-04-29T11:05:08.791Z</time></trkpt><trkpt lat="43.688185" lon="13.1000533"><ele>193.5</ele><time>2026-04-29T11:05:09.791Z</time></trkpt><trkpt lat="43.68816" lon="13.0998833"><ele>194.75</ele><time>2026-04-29T11:05:10.791Z</time></trkpt><trkpt lat="43.68814" lon="13.099725"><ele>196.0</ele><time>2026-04-29T11:05:11.79Z</time></trkpt><trkpt lat="43.6881167" lon="13.0995717"><ele>197.16666666666666</ele><time>2026-04-29T11:05:12.791Z</time></trkpt><trkpt lat="43.6880917" lon="13.0994267"><ele>198.33333333333331</ele><time>2026-04-29T11:05:13.79Z</time></trkpt><trkpt lat="43.688075" lon="13.0993017"><ele>199.5</ele><time>2026-04-29T11:05:14.791Z</time></trkpt><trkpt lat="43.688065" lon="13.099195"><ele>200.66666666666669</ele><time>2026-04-29T11:05:15.791Z</time></trkpt><trkpt lat="43.68807" lon="13.099105"><ele>201.83333333333334</ele><time>2026-04-29T11:05:16.791Z</time></trkpt><trkpt lat="43.6880967" lon="13.099015"><ele>203.0</ele><time>2026-04-29T11:05:17.791Z</time></trkpt><trkpt lat="43.6881367" lon="13.0989067"><ele>203.0</ele><time>2026-04-29T11:05:18.791Z</time></trkpt><trkpt lat="43.6881783" lon="13.09879"><ele>203.0</ele><time>2026-04-29T11:05:19.791Z</time></trkpt><trkpt lat="43.6882283" lon="13.0986683"><ele>203.0</ele><time>2026-04-29T11:05:20.791Z</time></trkpt><trkpt lat="43.688285" lon="13.098525"><ele>203.0</ele><time>2026-04-29T11:05:21.791Z</time></trkpt><trkpt lat="43.68835" lon="13.0983817"><ele>203.0</ele><time>2026-04-29T11:05:22.791Z</time></trkpt><trkpt lat="43.688425" lon="13.0982283"><ele>201.5</ele><time>2026-04-29T11:05:23.791Z</time></trkpt><trkpt lat="43.688505" lon="13.098065"><ele>200.0</ele><time>2026-04-29T11:05:24.791Z</time></trkpt><trkpt lat="43.6885917" lon="13.097905"><ele>198.5</ele><time>2026-04-29T11:05:25.791Z</time></trkpt><trkpt lat="43.6886817" lon="13.0977183"><ele>197.0</ele><time>2026-04-29T11:05:26.791Z</time></trkpt><trkpt lat="43.6887817" lon="13.0975333"><ele>196.0</ele><time>2026-04-29T11:05:27.791Z</time></trkpt><trkpt lat="43.6888883" lon="13.09734"><ele>195.0</ele><time>2026-04-29T11:05:28.791Z</time></trkpt><trkpt lat="43.6889933" lon="13.0971317"><ele>194.0</ele><time>2026-04-29T11:05:29.79Z</time></trkpt><trkpt lat="43.6891017" lon="13.0969167"><ele>194.0</ele><time>2026-04-29T11:05:30.791Z</time></trkpt><trkpt lat="43.6892133" lon="13.0967167"><ele>194.0</ele><time>2026-04-29T11:05:31.791Z</time></trkpt><trkpt lat="43.6893167" lon="13.0965117"><ele>194.0</ele><time>2026-04-29T11:05:32.791Z</time></trkpt><trkpt lat="43.6894167" lon="13.0963083"><ele>194.0</ele><time>2026-04-29T11:05:33.791Z</time></trkpt><trkpt lat="43.689525" lon="13.0961067"><ele>194.0</ele><time>2026-04-29T11:05:34.791Z</time></trkpt><trkpt lat="43.6896233" lon="13.0959"><ele>194.0</ele><time>2026-04-29T11:05:35.791Z</time></trkpt><trkpt lat="43.6897233" lon="13.0956933"><ele>194.0</ele><time>2026-04-29T11:05:36.791Z</time></trkpt><trkpt lat="43.6898183" lon="13.09549"><ele>194.0</ele><time>2026-04-29T11:05:37.791Z</time></trkpt><trkpt lat="43.689915" lon="13.095285"><ele>194.0</ele><time>2026-04-29T11:05:38.791Z</time></trkpt><trkpt lat="43.69001" lon="13.09508"><ele>195.33333333333334</ele><time>2026-04-29T11:05:39.79Z</time></trkpt><trkpt lat="43.6901083" lon="13.09487"><ele>196.66666666666669</ele><time>2026-04-29T11:05:40.791Z</time></trkpt><trkpt lat="43.6902083" lon="13.0946617"><ele>198.0</ele><time>2026-04-29T11:05:41.791Z</time></trkpt><trkpt lat="43.6903017" lon="13.0944617"><ele>194.66666666666666</ele><time>2026-04-29T11:05:42.791Z</time></trkpt><trkpt lat="43.690395" lon="13.0942633"><ele>191.33333333333331</ele><time>2026-04-29T11:05:43.791Z</time></trkpt><trkpt lat="43.6904867" lon="13.094075"><ele>188.0</ele><time>2026-04-29T11:05:44.791Z</time></trkpt><trkpt lat="43.6905817" lon="13.0938917"><ele>188.0</ele><time>2026-04-29T11:05:45.791Z</time></trkpt><trkpt lat="43.6906717" lon="13.0937283"><ele>188.0</ele><time>2026-04-29T11:05:46.791Z</time></trkpt><trkpt lat="43.69078" lon="13.09357"><ele>188.0</ele><time>2026-04-29T11:05:47.791Z</time></trkpt><trkpt lat="43.6908867" lon="13.0934167"><ele>188.0</ele><time>2026-04-29T11:05:48.791Z</time></trkpt><trkpt lat="43.6909967" lon="13.0932833"><ele>188.0</ele><time>2026-04-29T11:05:49.791Z</time></trkpt><trkpt lat="43.691105" lon="13.09315"><ele>188.0</ele><time>2026-04-29T11:05:50.791Z</time></trkpt><trkpt lat="43.691205" lon="13.0930483"><ele>188.0</ele><time>2026-04-29T11:05:51.791Z</time></trkpt><trkpt lat="43.6912933" lon="13.092975"><ele>187.5</ele><time>2026-04-29T11:05:52.791Z</time></trkpt><trkpt lat="43.69136" lon="13.0929083"><ele>187.0</ele><time>2026-04-29T11:05:53.791Z</time></trkpt><trkpt lat="43.6913983" lon="13.09283"><ele>186.5</ele><time>2026-04-29T11:05:54.791Z</time></trkpt><trkpt lat="43.691405" lon="13.0926467"><ele>186.0</ele><time>2026-04-29T11:05:56.791Z</time></trkpt><trkpt lat="43.6913833" lon="13.0925483"><ele>185.5</ele><time>2026-04-29T11:05:57.791Z</time></trkpt><trkpt lat="43.6913517" lon="13.0924467"><ele>185.0</ele><time>2026-04-29T11:05:58.791Z</time></trkpt><trkpt lat="43.69132" lon="13.0923367"><ele>186.2</ele><time>2026-04-29T11:05:59.791Z</time></trkpt><trkpt lat="43.6912867" lon="13.0922233"><ele>187.4</ele><time>2026-04-29T11:06:00.79Z</time></trkpt><trkpt lat="43.691245" lon="13.0921017"><ele>188.60000000000002</ele><time>2026-04-29T11:06:01.791Z</time></trkpt><trkpt lat="43.6912017" lon="13.091975"><ele>189.8</ele><time>2026-04-29T11:06:02.791Z</time></trkpt><trkpt lat="43.6911567" lon="13.09185"><ele>191.0</ele><time>2026-04-29T11:06:03.791Z</time></trkpt><trkpt lat="43.6911117" lon="13.091715"><ele>191.75</ele><time>2026-04-29T11:06:04.791Z</time></trkpt><trkpt lat="43.6910683" lon="13.0915767"><ele>192.5</ele><time>2026-04-29T11:06:05.791Z</time></trkpt><trkpt lat="43.6910217" lon="13.0914267"><ele>193.25</ele><time>2026-04-29T11:06:06.79Z</time></trkpt><trkpt lat="43.6909833" lon="13.0912717"><ele>194.0</ele><time>2026-04-29T11:06:07.791Z</time></trkpt><trkpt lat="43.6909467" lon="13.0911183"><ele>194.0</ele><time>2026-04-29T11:06:08.791Z</time></trkpt><trkpt lat="43.69092" lon="13.0909483"><ele>194.0</ele><time>2026-04-29T11:06:09.791Z</time></trkpt><trkpt lat="43.6909" lon="13.0907717"><ele>194.0</ele><time>2026-04-29T11:06:10.791Z</time></trkpt><trkpt lat="43.6908867" lon="13.0906067"><ele>194.0</ele><time>2026-04-29T11:06:11.791Z</time></trkpt><trkpt lat="43.6908833" lon="13.0904417"><ele>194.5</ele><time>2026-04-29T11:06:12.791Z</time></trkpt><trkpt lat="43.69088" lon="13.090275"><ele>195.0</ele><time>2026-04-29T11:06:13.791Z</time></trkpt><trkpt lat="43.690885" lon="13.0901067"><ele>195.5</ele><time>2026-04-29T11:06:14.791Z</time></trkpt><trkpt lat="43.69089" lon="13.089935"><ele>196.0</ele><time>2026-04-29T11:06:15.791Z</time></trkpt><trkpt lat="43.690895" lon="13.08976"><ele>196.0</ele><time>2026-04-29T11:06:16.791Z</time></trkpt><trkpt lat="43.6908783" lon="13.0895683"><ele>196.0</ele><time>2026-04-29T11:06:17.791Z</time></trkpt><trkpt lat="43.6908617" lon="13.08938"><ele>196.0</ele><time>2026-04-29T11:06:18.791Z</time></trkpt><trkpt lat="43.69084" lon="13.0892017"><ele>196.0</ele><time>2026-04-29T11:06:19.791Z</time></trkpt><trkpt lat="43.6908033" lon="13.08903"><ele>194.75</ele><time>2026-04-29T11:06:20.791Z</time></trkpt><trkpt lat="43.6907417" lon="13.0888717"><ele>193.5</ele><time>2026-04-29T11:06:21.79Z</time></trkpt><trkpt lat="43.6906617" lon="13.0887233"><ele>192.25</ele><time>2026-04-29T11:06:22.791Z</time></trkpt><trkpt lat="43.6905883" lon="13.0885667"><ele>191.0</ele><time>2026-04-29T11:06:23.791Z</time></trkpt><trkpt lat="43.690525" lon="13.0884033"><ele>190.0</ele><time>2026-04-29T11:06:24.791Z</time></trkpt><trkpt lat="43.6904917" lon="13.0882133"><ele>189.0</ele><time>2026-04-29T11:06:25.791Z</time></trkpt><trkpt lat="43.6904783" lon="13.08802"><ele>188.0</ele><time>2026-04-29T11:06:26.791Z</time></trkpt><trkpt lat="43.6904783" lon="13.0878233"><ele>187.0</ele><time>2026-04-29T11:06:27.791Z</time></trkpt><trkpt lat="43.6904783" lon="13.0876217"><ele>187.0</ele><time>2026-04-29T11:06:28.791Z</time></trkpt><trkpt lat="43.6904667" lon="13.0874283"><ele>187.0</ele><time>2026-04-29T11:06:29.791Z</time></trkpt><trkpt lat="43.6904433" lon="13.0872467"><ele>187.0</ele><time>2026-04-29T11:06:30.791Z</time></trkpt><trkpt lat="43.6903933" lon="13.08708"><ele>187.0</ele><time>2026-04-29T11:06:31.791Z</time></trkpt><trkpt lat="43.6903233" lon="13.0869433"><ele>190.25</ele><time>2026-04-29T11:06:32.791Z</time></trkpt><trkpt lat="43.690245" lon="13.0868017"><ele>193.5</ele><time>2026-04-29T11:06:33.79Z</time></trkpt><trkpt lat="43.6901683" lon="13.0866517"><ele>196.75</ele><time>2026-04-29T11:06:34.791Z</time></trkpt><trkpt lat="43.6900967" lon="13.0864883"><ele>200.0</ele><time>2026-04-29T11:06:35.791Z</time></trkpt><trkpt lat="43.6900317" lon="13.0863167"><ele>200.0</ele><time>2026-04-29T11:06:36.791Z</time></trkpt><trkpt lat="43.689955" lon="13.08616"><ele>200.0</ele><time>2026-04-29T11:06:37.791Z</time></trkpt><trkpt lat="43.68987" lon="13.0860033"><ele>200.0</ele><time>2026-04-29T11:06:38.791Z</time></trkpt><trkpt lat="43.6897733" lon="13.0858617"><ele>200.0</ele><time>2026-04-29T11:06:39.791Z</time></trkpt><trkpt lat="43.6896717" lon="13.08573"><ele>200.25</ele><time>2026-04-29T11:06:40.791Z</time></trkpt><trkpt lat="43.6895717" lon="13.0856067"><ele>200.5</ele><time>2026-04-29T11:06:41.791Z</time></trkpt><trkpt lat="43.6894683" lon="13.0854883"><ele>200.75</ele><time>2026-04-29T11:06:42.791Z</time></trkpt><trkpt lat="43.689375" lon="13.0853633"><ele>201.0</ele><time>2026-04-29T11:06:43.791Z</time></trkpt><trkpt lat="43.6892917" lon="13.0852433"><ele>201.0</ele><time>2026-04-29T11:06:44.791Z</time></trkpt><trkpt lat="43.68923" lon="13.0851067"><ele>201.0</ele><time>2026-04-29T11:06:45.791Z</time></trkpt><trkpt lat="43.68917" lon="13.0849617"><ele>201.0</ele><time>2026-04-29T11:06:46.791Z</time></trkpt><trkpt lat="43.6891117" lon="13.0848067"><ele>201.0</ele><time>2026-04-29T11:06:47.79Z</time></trkpt><trkpt lat="43.689045" lon="13.08465"><ele>200.5</ele><time>2026-04-29T11:06:48.791Z</time></trkpt><trkpt lat="43.6889767" lon="13.0844883"><ele>200.0</ele><time>2026-04-29T11:06:49.791Z</time></trkpt><trkpt lat="43.6889217" lon="13.0843183"><ele>199.5</ele><time>2026-04-29T11:06:50.791Z</time></trkpt><trkpt lat="43.6888883" lon="13.0841317"><ele>199.0</ele><time>2026-04-29T11:06:51.791Z</time></trkpt><trkpt lat="43.6888783" lon="13.0839467"><ele>196.25</ele><time>2026-04-29T11:06:52.791Z</time></trkpt><trkpt lat="43.6888783" lon="13.0837583"><ele>193.5</ele><time>2026-04-29T11:06:53.791Z</time></trkpt><trkpt lat="43.6888567" lon="13.0835767"><ele>190.75</ele><time>2026-04-29T11:06:54.791Z</time></trkpt><trkpt lat="43.688815" lon="13.0834117"><ele>188.0</ele><time>2026-04-29T11:06:55.791Z</time></trkpt><trkpt lat="43.6887383" lon="13.0832583"><ele>185.5</ele><time>2026-04-29T11:06:56.791Z</time></trkpt><trkpt lat="43.6886467" lon="13.083115"><ele>183.0</ele><time>2026-04-29T11:06:57.791Z</time></trkpt><trkpt lat="43.6885533" lon="13.0829783"><ele>180.5</ele><time>2026-04-29T11:06:58.791Z</time></trkpt><trkpt lat="43.6884617" lon="13.0828517"><ele>178.0</ele><time>2026-04-29T11:06:59.791Z</time></trkpt><trkpt lat="43.6883567" lon="13.0827333"><ele>178.0</ele><time>2026-04-29T11:07:00.791Z</time></trkpt><trkpt lat="43.68825" lon="13.08261"><ele>178.0</ele><time>2026-04-29T11:07:01.791Z</time></trkpt><trkpt lat="43.6881383" lon="13.0824867"><ele>178.0</ele><time>2026-04-29T11:07:02.79Z</time></trkpt><trkpt lat="43.6880233" lon="13.0823533"><ele>178.0</ele><time>2026-04-29T11:07:03.79Z</time></trkpt><trkpt lat="43.6879117" lon="13.082215"><ele>175.33333333333334</ele><time>2026-04-29T11:07:04.791Z</time></trkpt><trkpt lat="43.68781" lon="13.08207"><ele>172.66666666666666</ele><time>2026-04-29T11:07:05.791Z</time></trkpt><trkpt lat="43.6877067" lon="13.0819033"><ele>170.0</ele><time>2026-04-29T11:07:06.79Z</time></trkpt><trkpt lat="43.6875917" lon="13.0817317"><ele>168.66666666666666</ele><time>2026-04-29T11:07:07.791Z</time></trkpt><trkpt lat="43.687485" lon="13.0815517"><ele>167.33333333333334</ele><time>2026-04-29T11:07:08.791Z</time></trkpt><trkpt lat="43.68738" lon="13.0813583"><ele>166.0</ele><time>2026-04-29T11:07:09.791Z</time></trkpt><trkpt lat="43.6872817" lon="13.0811617"><ele>166.0</ele><time>2026-04-29T11:07:10.79Z</time></trkpt><trkpt lat="43.68717" lon="13.0809517"><ele>166.0</ele><time>2026-04-29T11:07:11.791Z</time></trkpt><trkpt lat="43.6870317" lon="13.0807067"><ele>166.0</ele><time>2026-04-29T11:07:12.791Z</time></trkpt><trkpt lat="43.68689" lon="13.0804433"><ele>166.0</ele><time>2026-04-29T11:07:13.791Z</time></trkpt><trkpt lat="43.6867583" lon="13.0801783"><ele>166.0</ele><time>2026-04-29T11:07:14.791Z</time></trkpt><trkpt lat="43.6866383" lon="13.0799133"><ele>166.0</ele><time>2026-04-29T11:07:15.791Z</time></trkpt><trkpt lat="43.686525" lon="13.079675"><ele>166.0</ele><time>2026-04-29T11:07:16.791Z</time></trkpt><trkpt lat="43.686405" lon="13.0794517"><ele>166.0</ele><time>2026-04-29T11:07:17.791Z</time></trkpt><trkpt lat="43.68629" lon="13.07924"><ele>163.33333333333334</ele><time>2026-04-29T11:07:18.791Z</time></trkpt><trkpt lat="43.68617" lon="13.0790333"><ele>160.66666666666666</ele><time>2026-04-29T11:07:19.791Z</time></trkpt><trkpt lat="43.6860417" lon="13.0788483"><ele>158.0</ele><time>2026-04-29T11:07:20.791Z</time></trkpt><trkpt lat="43.6859117" lon="13.0786867"><ele>164.33333333333331</ele><time>2026-04-29T11:07:21.791Z</time></trkpt><trkpt lat="43.685785" lon="13.0785383"><ele>170.66666666666666</ele><time>2026-04-29T11:07:22.791Z</time></trkpt><trkpt lat="43.6856617" lon="13.0784"><ele>177.0</ele><time>2026-04-29T11:07:23.79Z</time></trkpt><trkpt lat="43.68554" lon="13.078275"><ele>176.0</ele><time>2026-04-29T11:07:24.791Z</time></trkpt><trkpt lat="43.685415" lon="13.0781883"><ele>175.0</ele><time>2026-04-29T11:07:25.791Z</time></trkpt><trkpt lat="43.6852767" lon="13.0781183"><ele>174.0</ele><time>2026-04-29T11:07:26.791Z</time></trkpt><trkpt lat="43.6851267" lon="13.07807"><ele>173.0</ele><time>2026-04-29T11:07:27.79Z</time></trkpt><trkpt lat="43.684965" lon="13.078035"><ele>178.0</ele><time>2026-04-29T11:07:28.791Z</time></trkpt><trkpt lat="43.6848" lon="13.078"><ele>183.0</ele><time>2026-04-29T11:07:29.791Z</time></trkpt><trkpt lat="43.6846233" lon="13.0779583"><ele>188.0</ele><time>2026-04-29T11:07:30.791Z</time></trkpt><trkpt lat="43.6844483" lon="13.077915"><ele>189.0</ele><time>2026-04-29T11:07:31.79Z</time></trkpt><trkpt lat="43.684275" lon="13.0778783"><ele>190.0</ele><time>2026-04-29T11:07:32.791Z</time></trkpt><trkpt lat="43.6840967" lon="13.07784"><ele>191.0</ele><time>2026-04-29T11:07:33.79Z</time></trkpt><trkpt lat="43.6839133" lon="13.0778083"><ele>191.0</ele><time>2026-04-29T11:07:34.791Z</time></trkpt><trkpt lat="43.6837383" lon="13.0777833"><ele>191.0</ele><time>2026-04-29T11:07:35.791Z</time></trkpt><trkpt lat="43.6835617" lon="13.0777317"><ele>191.0</ele><time>2026-04-29T11:07:36.791Z</time></trkpt><trkpt lat="43.683385" lon="13.077675"><ele>192.0</ele><time>2026-04-29T11:07:37.791Z</time></trkpt><trkpt lat="43.68321" lon="13.0776133"><ele>193.0</ele><time>2026-04-29T11:07:38.791Z</time></trkpt><trkpt lat="43.6830367" lon="13.0775467"><ele>194.0</ele><time>2026-04-29T11:07:39.791Z</time></trkpt><trkpt lat="43.6828667" lon="13.0774817"><ele>192.66666666666669</ele><time>2026-04-29T11:07:40.791Z</time></trkpt><trkpt lat="43.682695" lon="13.0774067"><ele>191.33333333333334</ele><time>2026-04-29T11:07:41.791Z</time></trkpt><trkpt lat="43.6825283" lon="13.077355"><ele>190.0</ele><time>2026-04-29T11:07:42.791Z</time></trkpt><trkpt lat="43.68237" lon="13.0772983"><ele>190.0</ele><time>2026-04-29T11:07:43.79Z</time></trkpt><trkpt lat="43.682215" lon="13.07723"><ele>190.0</ele><time>2026-04-29T11:07:44.791Z</time></trkpt><trkpt lat="43.6820633" lon="13.077155"><ele>190.0</ele><time>2026-04-29T11:07:45.791Z</time></trkpt><trkpt lat="43.6819233" lon="13.0770733"><ele>190.0</ele><time>2026-04-29T11:07:46.791Z</time></trkpt><trkpt lat="43.68179" lon="13.0769833"><ele>190.0</ele><time>2026-04-29T11:07:47.791Z</time></trkpt><trkpt lat="43.681665" lon="13.076885"><ele>190.0</ele><time>2026-04-29T11:07:48.791Z</time></trkpt><trkpt lat="43.6815533" lon="13.07679"><ele>190.0</ele><time>2026-04-29T11:07:49.79Z</time></trkpt><trkpt lat="43.6814517" lon="13.0766883"><ele>189.75</ele><time>2026-04-29T11:07:50.791Z</time></trkpt><trkpt lat="43.6813467" lon="13.0765933"><ele>189.5</ele><time>2026-04-29T11:07:51.791Z</time></trkpt><trkpt lat="43.6812433" lon="13.0764933"><ele>189.25</ele><time>2026-04-29T11:07:52.791Z</time></trkpt><trkpt lat="43.6811417" lon="13.0764067"><ele>189.0</ele><time>2026-04-29T11:07:53.791Z</time></trkpt><trkpt lat="43.6810383" lon="13.076335"><ele>188.6</ele><time>2026-04-29T11:07:54.791Z</time></trkpt><trkpt lat="43.6809433" lon="13.0762717"><ele>188.2</ele><time>2026-04-29T11:07:55.791Z</time></trkpt><trkpt lat="43.680845" lon="13.0762133"><ele>187.79999999999998</ele><time>2026-04-29T11:07:56.791Z</time></trkpt><trkpt lat="43.6807483" lon="13.076165"><ele>187.39999999999998</ele><time>2026-04-29T11:07:57.791Z</time></trkpt><trkpt lat="43.6806483" lon="13.0761083"><ele>187.0</ele><time>2026-04-29T11:07:58.791Z</time></trkpt><trkpt lat="43.6805517" lon="13.0760583"><ele>187.0</ele><time>2026-04-29T11:07:59.791Z</time></trkpt><trkpt lat="43.6804617" lon="13.0760083"><ele>187.0</ele><time>2026-04-29T11:08:00.791Z</time></trkpt><trkpt lat="43.6803617" lon="13.075955"><ele>187.0</ele><time>2026-04-29T11:08:01.79Z</time></trkpt><trkpt lat="43.6802567" lon="13.0758967"><ele>187.0</ele><time>2026-04-29T11:08:02.791Z</time></trkpt><trkpt lat="43.68015" lon="13.0758317"><ele>187.0</ele><time>2026-04-29T11:08:03.791Z</time></trkpt><trkpt lat="43.6800433" lon="13.0757717"><ele>186.5</ele><time>2026-04-29T11:08:04.791Z</time></trkpt><trkpt lat="43.6799367" lon="13.075705"><ele>186.0</ele><time>2026-04-29T11:08:05.791Z</time></trkpt><trkpt lat="43.6798333" lon="13.0756317"><ele>185.5</ele><time>2026-04-29T11:08:06.791Z</time></trkpt><trkpt lat="43.67973" lon="13.0755483"><ele>185.0</ele><time>2026-04-29T11:08:07.791Z</time></trkpt><trkpt lat="43.679625" lon="13.07545"><ele>185.0</ele><time>2026-04-29T11:08:08.791Z</time></trkpt><trkpt lat="43.6795217" lon="13.0753433"><ele>185.0</ele><time>2026-04-29T11:08:09.791Z</time></trkpt><trkpt lat="43.6794183" lon="13.0752233"><ele>185.0</ele><time>2026-04-29T11:08:10.791Z</time></trkpt><trkpt lat="43.6793167" lon="13.075085"><ele>185.0</ele><time>2026-04-29T11:08:11.791Z</time></trkpt><trkpt lat="43.6792267" lon="13.0749317"><ele>185.33333333333331</ele><time>2026-04-29T11:08:12.791Z</time></trkpt><trkpt lat="43.6791283" lon="13.0747583"><ele>185.66666666666666</ele><time>2026-04-29T11:08:13.791Z</time></trkpt><trkpt lat="43.679015" lon="13.0745433"><ele>186.0</ele><time>2026-04-29T11:08:14.791Z</time></trkpt><trkpt lat="43.6788917" lon="13.0743183"><ele>188.0</ele><time>2026-04-29T11:08:15.791Z</time></trkpt><trkpt lat="43.6787783" lon="13.074075"><ele>190.0</ele><time>2026-04-29T11:08:16.791Z</time></trkpt><trkpt lat="43.678655" lon="13.0738417"><ele>192.0</ele><time>2026-04-29T11:08:17.79Z</time></trkpt><trkpt lat="43.6785367" lon="13.07362"><ele>192.0</ele><time>2026-04-29T11:08:18.79Z</time></trkpt><trkpt lat="43.6784183" lon="13.073415"><ele>192.0</ele><time>2026-04-29T11:08:19.791Z</time></trkpt><trkpt lat="43.67831" lon="13.0732117"><ele>192.0</ele><time>2026-04-29T11:08:20.791Z</time></trkpt><trkpt lat="43.678215" lon="13.0730033"><ele>189.66666666666666</ele><time>2026-04-29T11:08:21.791Z</time></trkpt><trkpt lat="43.6781283" lon="13.072785"><ele>187.33333333333331</ele><time>2026-04-29T11:08:22.79Z</time></trkpt><trkpt lat="43.6780567" lon="13.0725667"><ele>185.0</ele><time>2026-04-29T11:08:23.791Z</time></trkpt><trkpt lat="43.6779917" lon="13.0723333"><ele>182.33333333333331</ele><time>2026-04-29T11:08:24.79Z</time></trkpt><trkpt lat="43.67793" lon="13.0720917"><ele>179.66666666666666</ele><time>2026-04-29T11:08:25.791Z</time></trkpt><trkpt lat="43.6778733" lon="13.0718517"><ele>177.0</ele><time>2026-04-29T11:08:26.791Z</time></trkpt><trkpt lat="43.6778167" lon="13.071605"><ele>179.66666666666666</ele><time>2026-04-29T11:08:27.791Z</time></trkpt><trkpt lat="43.67775" lon="13.0713483"><ele>182.33333333333331</ele><time>2026-04-29T11:08:28.791Z</time></trkpt><trkpt lat="43.6776817" lon="13.0710933"><ele>185.0</ele><time>2026-04-29T11:08:29.791Z</time></trkpt><trkpt lat="43.6776117" lon="13.0708333"><ele>184.66666666666666</ele><time>2026-04-29T11:08:30.791Z</time></trkpt><trkpt lat="43.6775417" lon="13.0705667"><ele>184.33333333333334</ele><time>2026-04-29T11:08:31.791Z</time></trkpt><trkpt lat="43.6774683" lon="13.0703117"><ele>184.0</ele><time>2026-04-29T11:08:32.79Z</time></trkpt><trkpt lat="43.6773817" lon="13.070065"><ele>182.33333333333334</ele><time>2026-04-29T11:08:33.791Z</time></trkpt><trkpt lat="43.67728" lon="13.06982"><ele>180.66666666666666</ele><time>2026-04-29T11:08:34.79Z</time></trkpt><trkpt lat="43.6771817" lon="13.0696033"><ele>179.0</ele><time>2026-04-29T11:08:35.791Z</time></trkpt><trkpt lat="43.6770783" lon="13.0694083"><ele>179.0</ele><time>2026-04-29T11:08:36.791Z</time></trkpt><trkpt lat="43.6769667" lon="13.0692233"><ele>179.0</ele><time>2026-04-29T11:08:37.791Z</time></trkpt><trkpt lat="43.676855" lon="13.0690617"><ele>179.0</ele><time>2026-04-29T11:08:38.791Z</time></trkpt><trkpt lat="43.6767467" lon="13.0689217"><ele>182.5</ele><time>2026-04-29T11:08:39.791Z</time></trkpt><trkpt lat="43.6766617" lon="13.06879"><ele>186.0</ele><time>2026-04-29T11:08:40.791Z</time></trkpt><trkpt lat="43.6765833" lon="13.0686517"><ele>189.5</ele><time>2026-04-29T11:08:41.791Z</time></trkpt><trkpt lat="43.676515" lon="13.0685"><ele>193.0</ele><time>2026-04-29T11:08:42.79Z</time></trkpt><trkpt lat="43.676465" lon="13.0683317"><ele>192.75</ele><time>2026-04-29T11:08:43.791Z</time></trkpt><trkpt lat="43.6764117" lon="13.0681433"><ele>192.5</ele><time>2026-04-29T11:08:44.79Z</time></trkpt><trkpt lat="43.6763833" lon="13.0679383"><ele>192.25</ele><time>2026-04-29T11:08:45.79Z</time></trkpt><trkpt lat="43.6763767" lon="13.0677417"><ele>192.0</ele><time>2026-04-29T11:08:46.791Z</time></trkpt><trkpt lat="43.6763783" lon="13.0675383"><ele>192.0</ele><time>2026-04-29T11:08:47.791Z</time></trkpt><trkpt lat="43.6763683" lon="13.0673467"><ele>192.0</ele><time>2026-04-29T11:08:48.791Z</time></trkpt><trkpt lat="43.6763233" lon="13.0671733"><ele>192.0</ele><time>2026-04-29T11:08:49.791Z</time></trkpt><trkpt lat="43.6762417" lon="13.0670283"><ele>192.0</ele><time>2026-04-29T11:08:50.79Z</time></trkpt><trkpt lat="43.6761383" lon="13.0669"><ele>193.25</ele><time>2026-04-29T11:08:51.791Z</time></trkpt><trkpt lat="43.6760367" lon="13.066765"><ele>194.5</ele><time>2026-04-29T11:08:52.79Z</time></trkpt><trkpt lat="43.67593" lon="13.0666317"><ele>195.75</ele><time>2026-04-29T11:08:53.79Z</time></trkpt><trkpt lat="43.6758217" lon="13.0664967"><ele>197.0</ele><time>2026-04-29T11:08:54.791Z</time></trkpt><trkpt lat="43.6757133" lon="13.06638"><ele>197.0</ele><time>2026-04-29T11:08:55.791Z</time></trkpt><trkpt lat="43.6755867" lon="13.0662967"><ele>197.0</ele><time>2026-04-29T11:08:56.79Z</time></trkpt><trkpt lat="43.67545" lon="13.06626"><ele>197.0</ele><time>2026-04-29T11:08:57.79Z</time></trkpt><trkpt lat="43.6753033" lon="13.0662633"><ele>197.0</ele><time>2026-04-29T11:08:58.791Z</time></trkpt><trkpt lat="43.675155" lon="13.066275"><ele>199.66666666666669</ele><time>2026-04-29T11:08:59.791Z</time></trkpt><trkpt lat="43.6749967" lon="13.06629"><ele>202.33333333333331</ele><time>2026-04-29T11:09:00.791Z</time></trkpt><trkpt lat="43.674845" lon="13.0662883"><ele>205.0</ele><time>2026-04-29T11:09:01.791Z</time></trkpt><trkpt lat="43.6746833" lon="13.066265"><ele>205.0</ele><time>2026-04-29T11:09:02.791Z</time></trkpt><trkpt lat="43.674525" lon="13.0662167"><ele>205.0</ele><time>2026-04-29T11:09:03.791Z</time></trkpt><trkpt lat="43.6743667" lon="13.0661533"><ele>205.0</ele><time>2026-04-29T11:09:04.79Z</time></trkpt><trkpt lat="43.674205" lon="13.0660833"><ele>206.0</ele><time>2026-04-29T11:09:05.791Z</time></trkpt><trkpt lat="43.6740467" lon="13.066005"><ele>207.0</ele><time>2026-04-29T11:09:06.79Z</time></trkpt><trkpt lat="43.6738917" lon="13.0659067"><ele>208.0</ele><time>2026-04-29T11:09:07.79Z</time></trkpt><trkpt lat="43.6737433" lon="13.0657883"><ele>205.0</ele><time>2026-04-29T11:09:08.791Z</time></trkpt><trkpt lat="43.6736033" lon="13.06566"><ele>202.0</ele><time>2026-04-29T11:09:09.79Z</time></trkpt><trkpt lat="43.6734533" lon="13.0655483"><ele>199.0</ele><time>2026-04-29T11:09:10.791Z</time></trkpt><trkpt lat="43.6732883" lon="13.0654733"><ele>199.0</ele><time>2026-04-29T11:09:11.791Z</time></trkpt><trkpt lat="43.6731267" lon="13.065415"><ele>199.0</ele><time>2026-04-29T11:09:12.791Z</time></trkpt><trkpt lat="43.672965" lon="13.0653417"><ele>199.0</ele><time>2026-04-29T11:09:13.791Z</time></trkpt><trkpt lat="43.672805" lon="13.06526"><ele>197.33333333333331</ele><time>2026-04-29T11:09:14.791Z</time></trkpt><trkpt lat="43.67264" lon="13.0651667"><ele>195.66666666666669</ele><time>2026-04-29T11:09:15.791Z</time></trkpt><trkpt lat="43.6724867" lon="13.0650817"><ele>194.0</ele><time>2026-04-29T11:09:16.791Z</time></trkpt><trkpt lat="43.6723367" lon="13.064995"><ele>194.0</ele><time>2026-04-29T11:09:17.791Z</time></trkpt><trkpt lat="43.6721933" lon="13.064905"><ele>194.0</ele><time>2026-04-29T11:09:18.79Z</time></trkpt><trkpt lat="43.6720517" lon="13.0648017"><ele>194.0</ele><time>2026-04-29T11:09:19.79Z</time></trkpt><trkpt lat="43.671925" lon="13.06467"><ele>197.0</ele><time>2026-04-29T11:09:20.791Z</time></trkpt><trkpt lat="43.6718" lon="13.06452"><ele>200.0</ele><time>2026-04-29T11:09:21.791Z</time></trkpt><trkpt lat="43.671675" lon="13.0643733"><ele>203.0</ele><time>2026-04-29T11:09:22.791Z</time></trkpt><trkpt lat="43.671545" lon="13.0642283"><ele>201.33333333333334</ele><time>2026-04-29T11:09:23.79Z</time></trkpt><trkpt lat="43.6714133" lon="13.0640867"><ele>199.66666666666669</ele><time>2026-04-29T11:09:24.791Z</time></trkpt><trkpt lat="43.6712767" lon="13.0639533"><ele>198.0</ele><time>2026-04-29T11:09:25.791Z</time></trkpt><trkpt lat="43.6711367" lon="13.0638183"><ele>199.33333333333331</ele><time>2026-04-29T11:09:26.791Z</time></trkpt><trkpt lat="43.6709917" lon="13.063685"><ele>200.66666666666666</ele><time>2026-04-29T11:09:27.79Z</time></trkpt><trkpt lat="43.6708483" lon="13.0635333"><ele>202.0</ele><time>2026-04-29T11:09:28.791Z</time></trkpt><trkpt lat="43.6707233" lon="13.0633717"><ele>200.66666666666666</ele><time>2026-04-29T11:09:29.791Z</time></trkpt><trkpt lat="43.6706" lon="13.0631917"><ele>199.33333333333331</ele><time>2026-04-29T11:09:30.79Z</time></trkpt><trkpt lat="43.67048" lon="13.0630033"><ele>198.0</ele><time>2026-04-29T11:09:31.791Z</time></trkpt><trkpt lat="43.6703633" lon="13.0628167"><ele>200.66666666666669</ele><time>2026-04-29T11:09:32.79Z</time></trkpt><trkpt lat="43.67025" lon="13.0626317"><ele>203.33333333333334</ele><time>2026-04-29T11:09:33.791Z</time></trkpt><trkpt lat="43.670135" lon="13.0624433"><ele>206.0</ele><time>2026-04-29T11:09:34.791Z</time></trkpt><trkpt lat="43.6700167" lon="13.0622717"><ele>206.0</ele><time>2026-04-29T11:09:35.791Z</time></trkpt><trkpt lat="43.6698833" lon="13.06211"><ele>206.0</ele><time>2026-04-29T11:09:36.79Z</time></trkpt><trkpt lat="43.6697483" lon="13.0619583"><ele>206.0</ele><time>2026-04-29T11:09:37.791Z</time></trkpt><trkpt lat="43.6696183" lon="13.061805"><ele>206.0</ele><time>2026-04-29T11:09:38.79Z</time></trkpt><trkpt lat="43.66949" lon="13.0616467"><ele>206.0</ele><time>2026-04-29T11:09:39.791Z</time></trkpt><trkpt lat="43.66936" lon="13.06149"><ele>206.0</ele><time>2026-04-29T11:09:40.791Z</time></trkpt><trkpt lat="43.6692417" lon="13.06133"><ele>208.0</ele><time>2026-04-29T11:09:41.791Z</time></trkpt><trkpt lat="43.6691267" lon="13.061155"><ele>210.0</ele><time>2026-04-29T11:09:42.791Z</time></trkpt><trkpt lat="43.669015" lon="13.0609883"><ele>212.0</ele><time>2026-04-29T11:09:43.791Z</time></trkpt><trkpt lat="43.6688967" lon="13.0608133"><ele>209.33333333333334</ele><time>2026-04-29T11:09:44.79Z</time></trkpt><trkpt lat="43.668795" lon="13.060625"><ele>206.66666666666669</ele><time>2026-04-29T11:09:45.791Z</time></trkpt><trkpt lat="43.6686933" lon="13.060435"><ele>204.0</ele><time>2026-04-29T11:09:46.791Z</time></trkpt><trkpt lat="43.6685933" lon="13.060235"><ele>206.66666666666669</ele><time>2026-04-29T11:09:47.791Z</time></trkpt><trkpt lat="43.6684917" lon="13.0600467"><ele>209.33333333333334</ele><time>2026-04-29T11:09:48.79Z</time></trkpt><trkpt lat="43.6683867" lon="13.0598533"><ele>212.0</ele><time>2026-04-29T11:09:49.791Z</time></trkpt><trkpt lat="43.6682883" lon="13.0596617"><ele>212.0</ele><time>2026-04-29T11:09:50.791Z</time></trkpt><trkpt lat="43.668195" lon="13.05948"><ele>212.0</ele><time>2026-04-29T11:09:51.791Z</time></trkpt><trkpt lat="43.6681" lon="13.0593017"><ele>212.0</ele><time>2026-04-29T11:09:52.79Z</time></trkpt><trkpt lat="43.6680133" lon="13.0591267"><ele>210.25</ele><time>2026-04-29T11:09:53.791Z</time></trkpt><trkpt lat="43.667925" lon="13.058965"><ele>208.5</ele><time>2026-04-29T11:09:54.791Z</time></trkpt><trkpt lat="43.6678483" lon="13.0588017"><ele>206.75</ele><time>2026-04-29T11:09:55.791Z</time></trkpt><trkpt lat="43.66777" lon="13.0586417"><ele>205.0</ele><time>2026-04-29T11:09:56.791Z</time></trkpt><trkpt lat="43.667695" lon="13.058485"><ele>207.0</ele><time>2026-04-29T11:09:57.791Z</time></trkpt><trkpt lat="43.6676233" lon="13.05833"><ele>209.0</ele><time>2026-04-29T11:09:58.791Z</time></trkpt><trkpt lat="43.6675633" lon="13.058185"><ele>211.0</ele><time>2026-04-29T11:09:59.791Z</time></trkpt><trkpt lat="43.6675217" lon="13.0580367"><ele>213.0</ele><time>2026-04-29T11:10:00.791Z</time></trkpt><trkpt lat="43.6674967" lon="13.0578783"><ele>213.0</ele><time>2026-04-29T11:10:01.791Z</time></trkpt><trkpt lat="43.6674917" lon="13.0577267"><ele>213.0</ele><time>2026-04-29T11:10:02.791Z</time></trkpt><trkpt lat="43.6675017" lon="13.0575767"><ele>213.0</ele><time>2026-04-29T11:10:03.791Z</time></trkpt><trkpt lat="43.6674983" lon="13.05744"><ele>213.0</ele><time>2026-04-29T11:10:04.79Z</time></trkpt><trkpt lat="43.667495" lon="13.0572983"><ele>213.0</ele><time>2026-04-29T11:10:05.791Z</time></trkpt><trkpt lat="43.66748" lon="13.0571333"><ele>212.25</ele><time>2026-04-29T11:10:06.79Z</time></trkpt><trkpt lat="43.6674533" lon="13.0569433"><ele>211.5</ele><time>2026-04-29T11:10:07.791Z</time></trkpt><trkpt lat="43.667445" lon="13.056745"><ele>210.75</ele><time>2026-04-29T11:10:08.791Z</time></trkpt><trkpt lat="43.6674383" lon="13.056535"><ele>210.0</ele><time>2026-04-29T11:10:09.791Z</time></trkpt><trkpt lat="43.6674167" lon="13.0563267"><ele>209.33333333333331</ele><time>2026-04-29T11:10:10.791Z</time></trkpt><trkpt lat="43.6673767" lon="13.056115"><ele>208.66666666666666</ele><time>2026-04-29T11:10:11.791Z</time></trkpt><trkpt lat="43.66733" lon="13.0558983"><ele>208.0</ele><time>2026-04-29T11:10:12.791Z</time></trkpt><trkpt lat="43.667265" lon="13.0556883"><ele>206.66666666666666</ele><time>2026-04-29T11:10:13.791Z</time></trkpt><trkpt lat="43.667205" lon="13.05548"><ele>205.33333333333331</ele><time>2026-04-29T11:10:14.79Z</time></trkpt><trkpt lat="43.667145" lon="13.0552617"><ele>204.0</ele><time>2026-04-29T11:10:15.791Z</time></trkpt><trkpt lat="43.6670883" lon="13.0550417"><ele>203.33333333333331</ele><time>2026-04-29T11:10:16.791Z</time></trkpt><trkpt lat="43.6670267" lon="13.0548117"><ele>202.66666666666666</ele><time>2026-04-29T11:10:17.791Z</time></trkpt><trkpt lat="43.6669717" lon="13.0545833"><ele>202.0</ele><time>2026-04-29T11:10:18.791Z</time></trkpt><trkpt lat="43.6669167" lon="13.054365"><ele>204.33333333333331</ele><time>2026-04-29T11:10:19.79Z</time></trkpt><trkpt lat="43.66685" lon="13.0541333"><ele>206.66666666666669</ele><time>2026-04-29T11:10:20.791Z</time></trkpt><trkpt lat="43.666785" lon="13.0539083"><ele>209.0</ele><time>2026-04-29T11:10:21.791Z</time></trkpt><trkpt lat="43.6667283" lon="13.0536817"><ele>209.66666666666669</ele><time>2026-04-29T11:10:22.79Z</time></trkpt><trkpt lat="43.66666" lon="13.05346"><ele>210.33333333333331</ele><time>2026-04-29T11:10:23.791Z</time></trkpt><trkpt lat="43.6665883" lon="13.0532367"><ele>211.0</ele><time>2026-04-29T11:10:24.791Z</time></trkpt><trkpt lat="43.666515" lon="13.0530217"><ele>211.0</ele><time>2026-04-29T11:10:25.791Z</time></trkpt><trkpt lat="43.6664433" lon="13.0528017"><ele>211.0</ele><time>2026-04-29T11:10:26.791Z</time></trkpt><trkpt lat="43.6663633" lon="13.052585"><ele>211.0</ele><time>2026-04-29T11:10:27.791Z</time></trkpt><trkpt lat="43.66627" lon="13.0523833"><ele>210.66666666666666</ele><time>2026-04-29T11:10:28.791Z</time></trkpt><trkpt lat="43.6661617" lon="13.0522"><ele>210.33333333333331</ele><time>2026-04-29T11:10:29.791Z</time></trkpt><trkpt lat="43.6660367" lon="13.0520267"><ele>210.0</ele><time>2026-04-29T11:10:30.791Z</time></trkpt><trkpt lat="43.6659017" lon="13.0518567"><ele>210.0</ele><time>2026-04-29T11:10:31.791Z</time></trkpt><trkpt lat="43.6657633" lon="13.05168"><ele>210.0</ele><time>2026-04-29T11:10:32.79Z</time></trkpt><trkpt lat="43.665625" lon="13.0515"><ele>210.0</ele><time>2026-04-29T11:10:33.791Z</time></trkpt><trkpt lat="43.6654867" lon="13.0513133"><ele>207.33333333333331</ele><time>2026-04-29T11:10:34.791Z</time></trkpt><trkpt lat="43.6653433" lon="13.05113"><ele>204.66666666666666</ele><time>2026-04-29T11:10:35.791Z</time></trkpt><trkpt lat="43.665195" lon="13.0509433"><ele>202.0</ele><time>2026-04-29T11:10:36.791Z</time></trkpt><trkpt lat="43.6650517" lon="13.050755"><ele>200.66666666666666</ele><time>2026-04-29T11:10:37.791Z</time></trkpt><trkpt lat="43.6649117" lon="13.0505683"><ele>199.33333333333331</ele><time>2026-04-29T11:10:38.791Z</time></trkpt><trkpt lat="43.6647767" lon="13.0503667"><ele>198.0</ele><time>2026-04-29T11:10:39.79Z</time></trkpt><trkpt lat="43.6646483" lon="13.0501667"><ele>200.0</ele><time>2026-04-29T11:10:40.791Z</time></trkpt><trkpt lat="43.664525" lon="13.049955"><ele>202.0</ele><time>2026-04-29T11:10:41.791Z</time></trkpt><trkpt lat="43.6643983" lon="13.0497517"><ele>204.0</ele><time>2026-04-29T11:10:42.791Z</time></trkpt><trkpt lat="43.664275" lon="13.0495383"><ele>204.0</ele><time>2026-04-29T11:10:43.791Z</time></trkpt><trkpt lat="43.6641483" lon="13.049325"><ele>204.0</ele><time>2026-04-29T11:10:44.791Z</time></trkpt><trkpt lat="43.6640333" lon="13.0491083"><ele>204.0</ele><time>2026-04-29T11:10:45.791Z</time></trkpt><trkpt lat="43.66392" lon="13.0488917"><ele>203.0</ele><time>2026-04-29T11:10:46.791Z</time></trkpt><trkpt lat="43.6638083" lon="13.04867"><ele>202.0</ele><time>2026-04-29T11:10:47.791Z</time></trkpt><trkpt lat="43.66369" lon="13.0484817"><ele>201.0</ele><time>2026-04-29T11:10:48.791Z</time></trkpt><trkpt lat="43.6635667" lon="13.0483267"><ele>204.0</ele><time>2026-04-29T11:10:49.791Z</time></trkpt><trkpt lat="43.6634183" lon="13.0481983"><ele>207.0</ele><time>2026-04-29T11:10:50.791Z</time></trkpt><trkpt lat="43.6632517" lon="13.0481133"><ele>210.0</ele><time>2026-04-29T11:10:51.79Z</time></trkpt><trkpt lat="43.6630767" lon="13.0480667"><ele>210.0</ele><time>2026-04-29T11:10:52.79Z</time></trkpt><trkpt lat="43.6629033" lon="13.0480167"><ele>210.0</ele><time>2026-04-29T11:10:53.791Z</time></trkpt><trkpt lat="43.6627467" lon="13.0479467"><ele>210.0</ele><time>2026-04-29T11:10:54.791Z</time></trkpt><trkpt lat="43.6625933" lon="13.0478433"><ele>212.33333333333331</ele><time>2026-04-29T11:10:55.79Z</time></trkpt><trkpt lat="43.66245" lon="13.0477067"><ele>214.66666666666666</ele><time>2026-04-29T11:10:56.791Z</time></trkpt><trkpt lat="43.6623167" lon="13.047545"><ele>217.0</ele><time>2026-04-29T11:10:57.791Z</time></trkpt><trkpt lat="43.6621933" lon="13.0473717"><ele>218.0</ele><time>2026-04-29T11:10:58.79Z</time></trkpt><trkpt lat="43.66206" lon="13.047205"><ele>219.0</ele><time>2026-04-29T11:10:59.791Z</time></trkpt><trkpt lat="43.6619217" lon="13.0470417"><ele>220.0</ele><time>2026-04-29T11:11:00.791Z</time></trkpt><trkpt lat="43.6617767" lon="13.0468867"><ele>220.0</ele><time>2026-04-29T11:11:01.791Z</time></trkpt><trkpt lat="43.6616217" lon="13.0467333"><ele>220.0</ele><time>2026-04-29T11:11:02.791Z</time></trkpt><trkpt lat="43.66147" lon="13.0465783"><ele>220.0</ele><time>2026-04-29T11:11:03.791Z</time></trkpt><trkpt lat="43.6613083" lon="13.046435"><ele>219.66666666666666</ele><time>2026-04-29T11:11:04.791Z</time></trkpt><trkpt lat="43.661155" lon="13.0462883"><ele>219.33333333333331</ele><time>2026-04-29T11:11:05.791Z</time></trkpt><trkpt lat="43.6610033" lon="13.04615"><ele>219.0</ele><time>2026-04-29T11:11:06.791Z</time></trkpt><trkpt lat="43.660855" lon="13.04602"><ele>219.0</ele><time>2026-04-29T11:11:07.79Z</time></trkpt><trkpt lat="43.6607033" lon="13.0458933"><ele>219.0</ele><time>2026-04-29T11:11:08.791Z</time></trkpt><trkpt lat="43.6605483" lon="13.04578"><ele>219.0</ele><time>2026-04-29T11:11:09.791Z</time></trkpt><trkpt lat="43.660395" lon="13.0456833"><ele>221.33333333333331</ele><time>2026-04-29T11:11:10.791Z</time></trkpt><trkpt lat="43.660245" lon="13.0455917"><ele>223.66666666666666</ele><time>2026-04-29T11:11:11.791Z</time></trkpt><trkpt lat="43.6600767" lon="13.0455283"><ele>226.0</ele><time>2026-04-29T11:11:12.791Z</time></trkpt><trkpt lat="43.6599017" lon="13.045475"><ele>226.0</ele><time>2026-04-29T11:11:13.791Z</time></trkpt><trkpt lat="43.6597333" lon="13.0454633"><ele>226.0</ele><time>2026-04-29T11:11:14.791Z</time></trkpt><trkpt lat="43.6595617" lon="13.0454533"><ele>226.0</ele><time>2026-04-29T11:11:15.791Z</time></trkpt><trkpt lat="43.6593767" lon="13.045445"><ele>227.0</ele><time>2026-04-29T11:11:16.791Z</time></trkpt><trkpt lat="43.6592083" lon="13.0454267"><ele>228.0</ele><time>2026-04-29T11:11:17.791Z</time></trkpt><trkpt lat="43.6590533" lon="13.04539"><ele>229.0</ele><time>2026-04-29T11:11:18.79Z</time></trkpt><trkpt lat="43.6588983" lon="13.0453283"><ele>229.0</ele><time>2026-04-29T11:11:19.791Z</time></trkpt><trkpt lat="43.6587417" lon="13.0452583"><ele>229.0</ele><time>2026-04-29T11:11:20.791Z</time></trkpt><trkpt lat="43.658585" lon="13.04519"><ele>229.0</ele><time>2026-04-29T11:11:21.791Z</time></trkpt><trkpt lat="43.6584333" lon="13.045115"><ele>228.75</ele><time>2026-04-29T11:11:22.791Z</time></trkpt><trkpt lat="43.658295" lon="13.0450167"><ele>228.5</ele><time>2026-04-29T11:11:23.791Z</time></trkpt><trkpt lat="43.6581817" lon="13.0448967"><ele>228.25</ele><time>2026-04-29T11:11:24.79Z</time></trkpt><trkpt lat="43.65808" lon="13.044755"><ele>228.0</ele><time>2026-04-29T11:11:25.791Z</time></trkpt><trkpt lat="43.6579833" lon="13.0446217"><ele>227.4</ele><time>2026-04-29T11:11:26.791Z</time></trkpt><trkpt lat="43.6578983" lon="13.0445067"><ele>226.8</ele><time>2026-04-29T11:11:27.79Z</time></trkpt><trkpt lat="43.6578317" lon="13.0444"><ele>226.2</ele><time>2026-04-29T11:11:28.791Z</time></trkpt><trkpt lat="43.6577883" lon="13.0443117"><ele>225.6</ele><time>2026-04-29T11:11:29.79Z</time></trkpt><trkpt lat="43.6577417" lon="13.0442067"><ele>225.0</ele><time>2026-04-29T11:11:31.791Z</time></trkpt><trkpt lat="43.6577" lon="13.0441383"><ele>222.0</ele><time>2026-04-29T11:11:33.791Z</time></trkpt><trkpt lat="43.657575" lon="13.0440433"><ele>219.0</ele><time>2026-04-29T11:11:35.791Z</time></trkpt><trkpt lat="43.6574733" lon="13.0439767"><ele>216.0</ele><time>2026-04-29T11:11:36.791Z</time></trkpt><trkpt lat="43.6573617" lon="13.04387"><ele>213.0</ele><time>2026-04-29T11:11:37.791Z</time></trkpt><trkpt lat="43.6572467" lon="13.0437383"><ele>213.0</ele><time>2026-04-29T11:11:38.79Z</time></trkpt><trkpt lat="43.6571433" lon="13.043605"><ele>213.0</ele><time>2026-04-29T11:11:39.791Z</time></trkpt><trkpt lat="43.6570367" lon="13.0435017"><ele>213.0</ele><time>2026-04-29T11:11:40.791Z</time></trkpt><trkpt lat="43.6569283" lon="13.0434233"><ele>213.0</ele><time>2026-04-29T11:11:41.791Z</time></trkpt><trkpt lat="43.6568167" lon="13.04339"><ele>213.5</ele><time>2026-04-29T11:11:42.79Z</time></trkpt><trkpt lat="43.6567" lon="13.043395"><ele>214.0</ele><time>2026-04-29T11:11:43.791Z</time></trkpt><trkpt lat="43.656585" lon="13.043435"><ele>214.5</ele><time>2026-04-29T11:11:44.791Z</time></trkpt><trkpt lat="43.6564883" lon="13.043505"><ele>215.0</ele><time>2026-04-29T11:11:45.791Z</time></trkpt><trkpt lat="43.6564167" lon="13.0436167"><ele>215.0</ele><time>2026-04-29T11:11:46.791Z</time></trkpt><trkpt lat="43.6563933" lon="13.0437617"><ele>215.0</ele><time>2026-04-29T11:11:47.791Z</time></trkpt><trkpt lat="43.6563933" lon="13.04393"><ele>215.0</ele><time>2026-04-29T11:11:48.791Z</time></trkpt><trkpt lat="43.6564317" lon="13.04409"><ele>215.0</ele><time>2026-04-29T11:11:49.791Z</time></trkpt><trkpt lat="43.6564867" lon="13.0442717"><ele>215.25</ele><time>2026-04-29T11:11:50.791Z</time></trkpt><trkpt lat="43.6565417" lon="13.0444567"><ele>215.5</ele><time>2026-04-29T11:11:51.791Z</time></trkpt><trkpt lat="43.6566" lon="13.0446483"><ele>215.75</ele><time>2026-04-29T11:11:52.791Z</time></trkpt><trkpt lat="43.6566517" lon="13.0448433"><ele>216.0</ele><time>2026-04-29T11:11:53.791Z</time></trkpt><trkpt lat="43.6566967" lon="13.0450317"><ele>216.0</ele><time>2026-04-29T11:11:54.791Z</time></trkpt><trkpt lat="43.6567133" lon="13.04524"><ele>216.0</ele><time>2026-04-29T11:11:55.79Z</time></trkpt><trkpt lat="43.6566967" lon="13.0454633"><ele>216.0</ele><time>2026-04-29T11:11:56.791Z</time></trkpt><trkpt lat="43.65666" lon="13.0456783"><ele>215.66666666666669</ele><time>2026-04-29T11:11:57.791Z</time></trkpt><trkpt lat="43.6566083" lon="13.0458867"><ele>215.33333333333334</ele><time>2026-04-29T11:11:58.791Z</time></trkpt><trkpt lat="43.6565533" lon="13.0460833"><ele>215.0</ele><time>2026-04-29T11:11:59.791Z</time></trkpt><trkpt lat="43.6565017" lon="13.0462783"><ele>215.0</ele><time>2026-04-29T11:12:00.791Z</time></trkpt><trkpt lat="43.6564517" lon="13.0464683"><ele>215.0</ele><time>2026-04-29T11:12:01.791Z</time></trkpt><trkpt lat="43.656415" lon="13.0466433"><ele>215.0</ele><time>2026-04-29T11:12:02.79Z</time></trkpt><trkpt lat="43.6563767" lon="13.0468067"><ele>215.0</ele><time>2026-04-29T11:12:03.791Z</time></trkpt><trkpt lat="43.6563283" lon="13.0469583"><ele>215.25</ele><time>2026-04-29T11:12:04.791Z</time></trkpt><trkpt lat="43.6562583" lon="13.0470817"><ele>215.5</ele><time>2026-04-29T11:12:05.791Z</time></trkpt><trkpt lat="43.6561583" lon="13.0471883"><ele>215.75</ele><time>2026-04-29T11:12:06.791Z</time></trkpt><trkpt lat="43.6560317" lon="13.0472667"><ele>216.0</ele><time>2026-04-29T11:12:07.791Z</time></trkpt><trkpt lat="43.6558967" lon="13.0473133"><ele>212.5</ele><time>2026-04-29T11:12:08.791Z</time></trkpt><trkpt lat="43.6557533" lon="13.0473467"><ele>209.0</ele><time>2026-04-29T11:12:09.791Z</time></trkpt><trkpt lat="43.6556083" lon="13.0473767"><ele>205.5</ele><time>2026-04-29T11:12:10.791Z</time></trkpt><trkpt lat="43.6554567" lon="13.0474033"><ele>202.0</ele><time>2026-04-29T11:12:11.791Z</time></trkpt><trkpt lat="43.6553117" lon="13.0474217"><ele>201.33333333333331</ele><time>2026-04-29T11:12:12.791Z</time></trkpt><trkpt lat="43.6551617" lon="13.0474533"><ele>200.66666666666669</ele><time>2026-04-29T11:12:13.791Z</time></trkpt><trkpt lat="43.6550167" lon="13.0474867"><ele>200.0</ele><time>2026-04-29T11:12:14.791Z</time></trkpt><trkpt lat="43.654865" lon="13.0475183"><ele>200.0</ele><time>2026-04-29T11:12:15.791Z</time></trkpt><trkpt lat="43.6547183" lon="13.047555"><ele>200.0</ele><time>2026-04-29T11:12:16.79Z</time></trkpt><trkpt lat="43.6545683" lon="13.0475833"><ele>200.0</ele><time>2026-04-29T11:12:17.79Z</time></trkpt><trkpt lat="43.654415" lon="13.0476117"><ele>200.0</ele><time>2026-04-29T11:12:18.79Z</time></trkpt><trkpt lat="43.6542633" lon="13.047655"><ele>200.0</ele><time>2026-04-29T11:12:19.789Z</time></trkpt><trkpt lat="43.6541017" lon="13.0476967"><ele>200.0</ele><time>2026-04-29T11:12:20.79Z</time></trkpt><trkpt lat="43.6539483" lon="13.0477367"><ele>200.0</ele><time>2026-04-29T11:12:21.79Z</time></trkpt><trkpt lat="43.6537933" lon="13.047775"><ele>200.0</ele><time>2026-04-29T11:12:22.79Z</time></trkpt><trkpt lat="43.653645" lon="13.047815"><ele>200.0</ele><time>2026-04-29T11:12:23.79Z</time></trkpt><trkpt lat="43.653495" lon="13.04785"><ele>199.33333333333334</ele><time>2026-04-29T11:12:24.79Z</time></trkpt><trkpt lat="43.6533417" lon="13.047875"><ele>198.66666666666669</ele><time>2026-04-29T11:12:25.79Z</time></trkpt><trkpt lat="43.6531917" lon="13.0478833"><ele>198.0</ele><time>2026-04-29T11:12:26.79Z</time></trkpt><trkpt lat="43.653045" lon="13.0478833"><ele>198.0</ele><time>2026-04-29T11:12:27.79Z</time></trkpt><trkpt lat="43.652905" lon="13.047875"><ele>198.0</ele><time>2026-04-29T11:12:28.79Z</time></trkpt><trkpt lat="43.652775" lon="13.0478733"><ele>198.0</ele><time>2026-04-29T11:12:29.79Z</time></trkpt><trkpt lat="43.6526567" lon="13.0478667"><ele>198.0</ele><time>2026-04-29T11:12:30.789Z</time></trkpt><trkpt lat="43.652545" lon="13.04786"><ele>195.2</ele><time>2026-04-29T11:12:31.79Z</time></trkpt><trkpt lat="43.6524383" lon="13.047855"><ele>192.4</ele><time>2026-04-29T11:12:32.789Z</time></trkpt><trkpt lat="43.65234" lon="13.0478517"><ele>189.6</ele><time>2026-04-29T11:12:33.79Z</time></trkpt><trkpt lat="43.6522583" lon="13.0478517"><ele>186.79999999999998</ele><time>2026-04-29T11:12:34.79Z</time></trkpt><trkpt lat="43.65218" lon="13.04784"><ele>184.0</ele><time>2026-04-29T11:12:35.79Z</time></trkpt><trkpt lat="43.6520917" lon="13.0477717"><ele>184.0</ele><time>2026-04-29T11:12:37.79Z</time></trkpt><trkpt lat="43.65208" lon="13.0476833"><ele>184.0</ele><time>2026-04-29T11:12:38.789Z</time></trkpt><trkpt lat="43.65209" lon="13.04757"><ele>184.0</ele><time>2026-04-29T11:12:39.79Z</time></trkpt><trkpt lat="43.6520983" lon="13.0474467"><ele>184.0</ele><time>2026-04-29T11:12:40.79Z</time></trkpt><trkpt lat="43.6520917" lon="13.0473367"><ele>184.0</ele><time>2026-04-29T11:12:41.79Z</time></trkpt><trkpt lat="43.6520783" lon="13.047245"><ele>184.0</ele><time>2026-04-29T11:12:42.79Z</time></trkpt><trkpt lat="43.6520467" lon="13.0471367"><ele>184.0</ele><time>2026-04-29T11:12:44.79Z</time></trkpt><trkpt lat="43.6519833" lon="13.04713"><ele>184.0</ele><time>2026-04-29T11:13:16.79Z</time></trkpt><trkpt lat="43.652025" lon="13.047215"><ele>184.0</ele><time>2026-04-29T11:13:19.789Z</time></trkpt><trkpt lat="43.65207" lon="13.0473367"><ele>184.0</ele><time>2026-04-29T11:13:21.789Z</time></trkpt><trkpt lat="43.6520867" lon="13.0474417"><ele>184.0</ele><time>2026-04-29T11:13:22.789Z</time></trkpt><trkpt lat="43.652095" lon="13.0475617"><ele>184.0</ele><time>2026-04-29T11:13:23.79Z</time></trkpt><trkpt lat="43.6521033" lon="13.0476783"><ele>184.0</ele><time>2026-04-29T11:13:24.79Z</time></trkpt><trkpt lat="43.6520883" lon="13.04777"><ele>184.0</ele><time>2026-04-29T11:13:25.79Z</time></trkpt><trkpt lat="43.652085" lon="13.0478617"><ele>184.0</ele><time>2026-04-29T11:13:27.79Z</time></trkpt><trkpt lat="43.6521517" lon="13.04792"><ele>184.0</ele><time>2026-04-29T11:13:31.79Z</time></trkpt><trkpt lat="43.652085" lon="13.0478733"><ele>184.0</ele><time>2026-04-29T11:15:12.79Z</time></trkpt><trkpt lat="43.6520067" lon="13.0478733"><ele>184.0</ele><time>2026-04-29T11:15:15.789Z</time></trkpt><trkpt lat="43.6519267" lon="13.0478367"><ele>184.6</ele><time>2026-04-29T11:15:17.789Z</time></trkpt><trkpt lat="43.6518183" lon="13.047835"><ele>185.2</ele><time>2026-04-29T11:15:19.79Z</time></trkpt><trkpt lat="43.65172" lon="13.0478333"><ele>185.79999999999998</ele><time>2026-04-29T11:15:21.79Z</time></trkpt><trkpt lat="43.6516167" lon="13.0478217"><ele>186.39999999999998</ele><time>2026-04-29T11:15:23.79Z</time></trkpt><trkpt lat="43.651515" lon="13.0478167"><ele>187.0</ele><time>2026-04-29T11:15:25.79Z</time></trkpt><trkpt lat="43.6514183" lon="13.047815"><ele>187.0</ele><time>2026-04-29T11:15:27.79Z</time></trkpt><trkpt lat="43.6513233" lon="13.0478083"><ele>187.0</ele><time>2026-04-29T11:15:29.79Z</time></trkpt><trkpt lat="43.65121" lon="13.0478067"><ele>187.0</ele><time>2026-04-29T11:15:31.79Z</time></trkpt><trkpt lat="43.6510917" lon="13.0478167"><ele>187.0</ele><time>2026-04-29T11:15:33.79Z</time></trkpt><trkpt lat="43.65102" lon="13.0478167"><ele>187.0</ele><time>2026-04-29T11:15:34.79Z</time></trkpt><trkpt lat="43.6509533" lon="13.047815"><ele>188.16666666666669</ele><time>2026-04-29T11:15:35.79Z</time></trkpt><trkpt lat="43.6508883" lon="13.0478167"><ele>189.33333333333334</ele><time>2026-04-29T11:15:36.789Z</time></trkpt><trkpt lat="43.65082" lon="13.0478083"><ele>190.5</ele><time>2026-04-29T11:15:37.79Z</time></trkpt><trkpt lat="43.6507567" lon="13.0478017"><ele>191.66666666666669</ele><time>2026-04-29T11:15:38.79Z</time></trkpt><trkpt lat="43.6506867" lon="13.0477917"><ele>192.83333333333334</ele><time>2026-04-29T11:15:39.79Z</time></trkpt><trkpt lat="43.6505767" lon="13.0477467"><ele>194.0</ele><time>2026-04-29T11:15:41.79Z</time></trkpt><trkpt lat="43.6505317" lon="13.0476167"><ele>194.00000000000003</ele><time>2026-04-29T11:15:43.79Z</time></trkpt><trkpt lat="43.650505" lon="13.0474617"><ele>194.0</ele><time>2026-04-29T11:15:45.79Z</time></trkpt><trkpt lat="43.65049" lon="13.047375"><ele>194.0</ele><time>2026-04-29T11:15:46.79Z</time></trkpt><trkpt lat="43.6504783" lon="13.0472683"><ele>194.0</ele><time>2026-04-29T11:15:47.79Z</time></trkpt><trkpt lat="43.6504567" lon="13.0471683"><ele>194.00000000000003</ele><time>2026-04-29T11:15:48.79Z</time></trkpt><trkpt lat="43.6504383" lon="13.0470567"><ele>194.0</ele><time>2026-04-29T11:15:49.79Z</time></trkpt><trkpt lat="43.6504217" lon="13.0469467"><ele>193.33333333333334</ele><time>2026-04-29T11:15:50.789Z</time></trkpt><trkpt lat="43.6503867" lon="13.0468367"><ele>192.66666666666669</ele><time>2026-04-29T11:15:51.79Z</time></trkpt><trkpt lat="43.6503417" lon="13.04674"><ele>192.0</ele><time>2026-04-29T11:15:52.79Z</time></trkpt><trkpt lat="43.6503" lon="13.046635"><ele>191.33333333333334</ele><time>2026-04-29T11:15:53.789Z</time></trkpt><trkpt lat="43.6502717" lon="13.0465417"><ele>190.66666666666669</ele><time>2026-04-29T11:15:54.79Z</time></trkpt><trkpt lat="43.6502433" lon="13.0464367"><ele>190.0</ele><time>2026-04-29T11:15:55.79Z</time></trkpt><trkpt lat="43.6502067" lon="13.0463317"><ele>190.0</ele><time>2026-04-29T11:15:56.79Z</time></trkpt><trkpt lat="43.6501667" lon="13.0462333"><ele>190.0</ele><time>2026-04-29T11:15:57.79Z</time></trkpt><trkpt lat="43.6501133" lon="13.046145"><ele>190.0</ele><time>2026-04-29T11:15:58.79Z</time></trkpt><trkpt lat="43.65006" lon="13.046075"><ele>190.0</ele><time>2026-04-29T11:15:59.789Z</time></trkpt><trkpt lat="43.6499967" lon="13.0460033"><ele>190.0</ele><time>2026-04-29T11:16:00.79Z</time></trkpt><trkpt lat="43.6499433" lon="13.0459383"><ele>190.0</ele><time>2026-04-29T11:16:01.79Z</time></trkpt><trkpt lat="43.6498867" lon="13.0458683"><ele>190.0</ele><time>2026-04-29T11:16:02.79Z</time></trkpt><trkpt lat="43.649825" lon="13.0458017"><ele>190.0</ele><time>2026-04-29T11:16:03.79Z</time></trkpt><trkpt lat="43.6497733" lon="13.0457467"><ele>190.0</ele><time>2026-04-29T11:16:04.79Z</time></trkpt><trkpt lat="43.649695" lon="13.0456933"><ele>190.0</ele><time>2026-04-29T11:16:05.79Z</time></trkpt><trkpt lat="43.6496133" lon="13.045635"><ele>190.0</ele><time>2026-04-29T11:16:06.79Z</time></trkpt><trkpt lat="43.6495467" lon="13.0455883"><ele>190.0</ele><time>2026-04-29T11:16:07.79Z</time></trkpt><trkpt lat="43.6494883" lon="13.0455333"><ele>189.0</ele><time>2026-04-29T11:16:08.79Z</time></trkpt><trkpt lat="43.6494317" lon="13.0454717"><ele>188.0</ele><time>2026-04-29T11:16:09.79Z</time></trkpt><trkpt lat="43.6493717" lon="13.0454117"><ele>187.0</ele><time>2026-04-29T11:16:10.789Z</time></trkpt><trkpt lat="43.6493167" lon="13.0453367"><ele>186.0</ele><time>2026-04-29T11:16:11.789Z</time></trkpt><trkpt lat="43.6492633" lon="13.0452867"><ele>185.0</ele><time>2026-04-29T11:16:12.789Z</time></trkpt><trkpt lat="43.6491733" lon="13.0452967"><ele>184.0</ele><time>2026-04-29T11:16:14.79Z</time></trkpt><trkpt lat="43.6490933" lon="13.0454117"><ele>184.0</ele><time>2026-04-29T11:16:16.79Z</time></trkpt><trkpt lat="43.6490467" lon="13.045485"><ele>184.0</ele><time>2026-04-29T11:16:17.79Z</time></trkpt><trkpt lat="43.6490117" lon="13.04557"><ele>184.0</ele><time>2026-04-29T11:16:18.79Z</time></trkpt><trkpt lat="43.6489683" lon="13.0456567"><ele>184.0</ele><time>2026-04-29T11:16:19.79Z</time></trkpt><trkpt lat="43.64893" lon="13.0457583"><ele>184.0</ele><time>2026-04-29T11:16:20.79Z</time></trkpt><trkpt lat="43.6488867" lon="13.045855"><ele>184.0</ele><time>2026-04-29T11:16:21.79Z</time></trkpt><trkpt lat="43.6488433" lon="13.0459617"><ele>186.2</ele><time>2026-04-29T11:16:22.79Z</time></trkpt><trkpt lat="43.6488167" lon="13.0460867"><ele>188.39999999999998</ele><time>2026-04-29T11:16:23.79Z</time></trkpt><trkpt lat="43.648785" lon="13.0462283"><ele>190.6</ele><time>2026-04-29T11:16:24.79Z</time></trkpt><trkpt lat="43.6487533" lon="13.0463783"><ele>192.8</ele><time>2026-04-29T11:16:25.789Z</time></trkpt><trkpt lat="43.6487267" lon="13.0465317"><ele>195.0</ele><time>2026-04-29T11:16:26.79Z</time></trkpt><trkpt lat="43.6486883" lon="13.0466833"><ele>195.8</ele><time>2026-04-29T11:16:27.789Z</time></trkpt><trkpt lat="43.6486483" lon="13.0468383"><ele>196.6</ele><time>2026-04-29T11:16:28.79Z</time></trkpt><trkpt lat="43.6486117" lon="13.0469867"><ele>197.39999999999998</ele><time>2026-04-29T11:16:29.789Z</time></trkpt><trkpt lat="43.6485733" lon="13.0471267"><ele>198.2</ele><time>2026-04-29T11:16:30.789Z</time></trkpt><trkpt lat="43.648535" lon="13.0472617"><ele>199.0</ele><time>2026-04-29T11:16:31.789Z</time></trkpt><trkpt lat="43.6485033" lon="13.0473883"><ele>194.2</ele><time>2026-04-29T11:16:32.79Z</time></trkpt><trkpt lat="43.6484667" lon="13.0475233"><ele>189.39999999999998</ele><time>2026-04-29T11:16:33.79Z</time></trkpt><trkpt lat="43.6484267" lon="13.0476383"><ele>184.6</ele><time>2026-04-29T11:16:34.79Z</time></trkpt><trkpt lat="43.648395" lon="13.047755"><ele>179.8</ele><time>2026-04-29T11:16:35.79Z</time></trkpt><trkpt lat="43.6483917" lon="13.04787"><ele>175.0</ele><time>2026-04-29T11:16:36.79Z</time></trkpt><trkpt lat="43.64841" lon="13.04799"><ele>175.0</ele><time>2026-04-29T11:16:37.79Z</time></trkpt><trkpt lat="43.6484383" lon="13.048115"><ele>175.0</ele><time>2026-04-29T11:16:38.79Z</time></trkpt><trkpt lat="43.648465" lon="13.0482467"><ele>175.0</ele><time>2026-04-29T11:16:39.79Z</time></trkpt><trkpt lat="43.6484867" lon="13.0483767"><ele>175.0</ele><time>2026-04-29T11:16:40.79Z</time></trkpt><trkpt lat="43.6485133" lon="13.04851"><ele>175.0</ele><time>2026-04-29T11:16:41.79Z</time></trkpt><trkpt lat="43.6485383" lon="13.0486333"><ele>174.33333333333334</ele><time>2026-04-29T11:16:42.79Z</time></trkpt><trkpt lat="43.6485617" lon="13.0487467"><ele>173.66666666666669</ele><time>2026-04-29T11:16:43.79Z</time></trkpt><trkpt lat="43.6485817" lon="13.048855"><ele>173.0</ele><time>2026-04-29T11:16:44.79Z</time></trkpt><trkpt lat="43.6486" lon="13.0489533"><ele>172.33333333333334</ele><time>2026-04-29T11:16:45.79Z</time></trkpt><trkpt lat="43.64862" lon="13.0490433"><ele>171.66666666666666</ele><time>2026-04-29T11:16:46.79Z</time></trkpt><trkpt lat="43.6486433" lon="13.0491283"><ele>171.0</ele><time>2026-04-29T11:16:47.789Z</time></trkpt><trkpt lat="43.6486667" lon="13.0492833"><ele>169.60000000000002</ele><time>2026-04-29T11:16:49.79Z</time></trkpt><trkpt lat="43.64861" lon="13.0494217"><ele>168.2</ele><time>2026-04-29T11:16:51.79Z</time></trkpt><trkpt lat="43.6485517" lon="13.04949"><ele>166.8</ele><time>2026-04-29T11:16:52.79Z</time></trkpt><trkpt lat="43.6484933" lon="13.04956"><ele>165.39999999999998</ele><time>2026-04-29T11:16:53.79Z</time></trkpt><trkpt lat="43.6484417" lon="13.049625"><ele>164.0</ele><time>2026-04-29T11:16:54.79Z</time></trkpt><trkpt lat="43.6483517" lon="13.0497167"><ele>164.0</ele><time>2026-04-29T11:16:56.79Z</time></trkpt><trkpt lat="43.6482883" lon="13.04979"><ele>164.0</ele><time>2026-04-29T11:16:58.79Z</time></trkpt><trkpt lat="43.64823" lon="13.0498517"><ele>164.0</ele><time>2026-04-29T11:17:00.79Z</time></trkpt><trkpt lat="43.6481583" lon="13.0499017"><ele>164.0</ele><time>2026-04-29T11:17:02.79Z</time></trkpt><trkpt lat="43.6480733" lon="13.0499217"><ele>164.0</ele><time>2026-04-29T11:17:04.79Z</time></trkpt><trkpt lat="43.648005" lon="13.0498517"><ele>164.0</ele><time>2026-04-29T11:17:06.789Z</time></trkpt><trkpt lat="43.6479817" lon="13.0497567"><ele>164.0</ele><time>2026-04-29T11:17:08.79Z</time></trkpt><trkpt lat="43.6479433" lon="13.0496517"><ele>164.0</ele><time>2026-04-29T11:17:11.789Z</time></trkpt><trkpt lat="43.6478833" lon="13.04958"><ele>164.0</ele><time>2026-04-29T11:17:13.79Z</time></trkpt><trkpt lat="43.6477867" lon="13.0494433"><ele>164.0</ele><time>2026-04-29T11:17:15.79Z</time></trkpt><trkpt lat="43.6477317" lon="13.0493483"><ele>164.0</ele><time>2026-04-29T11:17:16.79Z</time></trkpt><trkpt lat="43.647665" lon="13.0492483"><ele>162.0</ele><time>2026-04-29T11:17:17.79Z</time></trkpt><trkpt lat="43.6475967" lon="13.0491433"><ele>160.0</ele><time>2026-04-29T11:17:18.79Z</time></trkpt><trkpt lat="43.6475233" lon="13.04903"><ele>158.0</ele><time>2026-04-29T11:17:19.79Z</time></trkpt><trkpt lat="43.6474483" lon="13.04892"><ele>156.0</ele><time>2026-04-29T11:17:20.789Z</time></trkpt><trkpt lat="43.64736" lon="13.0488033"><ele>154.0</ele><time>2026-04-29T11:17:21.789Z</time></trkpt><trkpt lat="43.647265" lon="13.0486733"><ele>153.5</ele><time>2026-04-29T11:17:22.79Z</time></trkpt><trkpt lat="43.6471567" lon="13.048545"><ele>153.0</ele><time>2026-04-29T11:17:23.79Z</time></trkpt><trkpt lat="43.64705" lon="13.04842"><ele>152.5</ele><time>2026-04-29T11:17:24.79Z</time></trkpt><trkpt lat="43.6469433" lon="13.0483083"><ele>152.0</ele><time>2026-04-29T11:17:25.79Z</time></trkpt><trkpt lat="43.6468433" lon="13.048195"><ele>147.5</ele><time>2026-04-29T11:17:26.79Z</time></trkpt><trkpt lat="43.64676" lon="13.04809"><ele>143.0</ele><time>2026-04-29T11:17:27.79Z</time></trkpt><trkpt lat="43.6466733" lon="13.0479833"><ele>138.5</ele><time>2026-04-29T11:17:28.79Z</time></trkpt><trkpt lat="43.64657" lon="13.047875"><ele>134.0</ele><time>2026-04-29T11:17:29.789Z</time></trkpt><trkpt lat="43.6464533" lon="13.0477733"><ele>134.0</ele><time>2026-04-29T11:17:30.789Z</time></trkpt><trkpt lat="43.646335" lon="13.0476717"><ele>134.0</ele><time>2026-04-29T11:17:31.79Z</time></trkpt><trkpt lat="43.6462267" lon="13.0475667"><ele>134.0</ele><time>2026-04-29T11:17:32.79Z</time></trkpt><trkpt lat="43.6461317" lon="13.04745"><ele>134.0</ele><time>2026-04-29T11:17:33.79Z</time></trkpt><trkpt lat="43.6460467" lon="13.047315"><ele>129.75</ele><time>2026-04-29T11:17:34.79Z</time></trkpt><trkpt lat="43.6459683" lon="13.0471733"><ele>125.5</ele><time>2026-04-29T11:17:35.79Z</time></trkpt><trkpt lat="43.6458867" lon="13.0470183"><ele>121.25</ele><time>2026-04-29T11:17:36.79Z</time></trkpt><trkpt lat="43.64581" lon="13.0468533"><ele>117.0</ele><time>2026-04-29T11:17:37.79Z</time></trkpt><trkpt lat="43.6457267" lon="13.0466867"><ele>116.33333333333334</ele><time>2026-04-29T11:17:38.79Z</time></trkpt><trkpt lat="43.6456317" lon="13.04652"><ele>115.66666666666667</ele><time>2026-04-29T11:17:39.79Z</time></trkpt><trkpt lat="43.6455233" lon="13.0463567"><ele>115.0</ele><time>2026-04-29T11:17:40.79Z</time></trkpt><trkpt lat="43.6454167" lon="13.0462033"><ele>115.0</ele><time>2026-04-29T11:17:41.79Z</time></trkpt><trkpt lat="43.6453033" lon="13.0460617"><ele>115.0</ele><time>2026-04-29T11:17:42.79Z</time></trkpt><trkpt lat="43.6451733" lon="13.0459317"><ele>115.0</ele><time>2026-04-29T11:17:43.79Z</time></trkpt><trkpt lat="43.6450367" lon="13.0458217"><ele>112.0</ele><time>2026-04-29T11:17:44.79Z</time></trkpt><trkpt lat="43.6448883" lon="13.0457333"><ele>109.0</ele><time>2026-04-29T11:17:45.79Z</time></trkpt><trkpt lat="43.6447333" lon="13.0456567"><ele>106.0</ele><time>2026-04-29T11:17:46.79Z</time></trkpt><trkpt lat="43.644565" lon="13.04557"><ele>107.66666666666667</ele><time>2026-04-29T11:17:47.79Z</time></trkpt><trkpt lat="43.6444" lon="13.0454733"><ele>109.33333333333334</ele><time>2026-04-29T11:17:48.789Z</time></trkpt><trkpt lat="43.6442383" lon="13.0453733"><ele>111.0</ele><time>2026-04-29T11:17:49.79Z</time></trkpt><trkpt lat="43.6440783" lon="13.0452617"><ele>111.0</ele><time>2026-04-29T11:17:50.79Z</time></trkpt><trkpt lat="43.64392" lon="13.0451433"><ele>111.0</ele><time>2026-04-29T11:17:51.79Z</time></trkpt><trkpt lat="43.643775" lon="13.045025"><ele>111.0</ele><time>2026-04-29T11:17:52.789Z</time></trkpt><trkpt lat="43.6436517" lon="13.0449217"><ele>113.25</ele><time>2026-04-29T11:17:53.79Z</time></trkpt><trkpt lat="43.64354" lon="13.0448083"><ele>115.5</ele><time>2026-04-29T11:17:54.79Z</time></trkpt><trkpt lat="43.6434367" lon="13.0446767"><ele>117.75</ele><time>2026-04-29T11:17:55.79Z</time></trkpt><trkpt lat="43.6433333" lon="13.0445367"><ele>120.0</ele><time>2026-04-29T11:17:56.79Z</time></trkpt><trkpt lat="43.6432333" lon="13.0444033"><ele>120.0</ele><time>2026-04-29T11:17:57.79Z</time></trkpt><trkpt lat="43.643135" lon="13.0442767"><ele>120.0</ele><time>2026-04-29T11:17:58.79Z</time></trkpt><trkpt lat="43.6430433" lon="13.0441617"><ele>120.0</ele><time>2026-04-29T11:17:59.79Z</time></trkpt><trkpt lat="43.6429467" lon="13.0440667"><ele>120.0</ele><time>2026-04-29T11:18:00.79Z</time></trkpt><trkpt lat="43.6428467" lon="13.0439717"><ele>121.25</ele><time>2026-04-29T11:18:01.79Z</time></trkpt><trkpt lat="43.6427483" lon="13.0438833"><ele>122.5</ele><time>2026-04-29T11:18:02.789Z</time></trkpt><trkpt lat="43.6426433" lon="13.0437983"><ele>123.75</ele><time>2026-04-29T11:18:03.789Z</time></trkpt><trkpt lat="43.642535" lon="13.0437117"><ele>125.0</ele><time>2026-04-29T11:18:04.789Z</time></trkpt><trkpt lat="43.642425" lon="13.0436333"><ele>125.0</ele><time>2026-04-29T11:18:05.789Z</time></trkpt><trkpt lat="43.6423117" lon="13.0435583"><ele>125.0</ele><time>2026-04-29T11:18:06.79Z</time></trkpt><trkpt lat="43.6422" lon="13.0434817"><ele>125.0</ele><time>2026-04-29T11:18:07.79Z</time></trkpt><trkpt lat="43.6420883" lon="13.043405"><ele>125.0</ele><time>2026-04-29T11:18:08.79Z</time></trkpt><trkpt lat="43.6419733" lon="13.0433267"><ele>127.0</ele><time>2026-04-29T11:18:09.79Z</time></trkpt><trkpt lat="43.6418617" lon="13.043255"><ele>129.0</ele><time>2026-04-29T11:18:10.79Z</time></trkpt><trkpt lat="43.6417417" lon="13.04318"><ele>131.0</ele><time>2026-04-29T11:18:11.79Z</time></trkpt><trkpt lat="43.6416267" lon="13.04311"><ele>133.0</ele><time>2026-04-29T11:18:12.79Z</time></trkpt><trkpt lat="43.641505" lon="13.043055"><ele>133.0</ele><time>2026-04-29T11:18:13.79Z</time></trkpt><trkpt lat="43.6413783" lon="13.043035"><ele>133.0</ele><time>2026-04-29T11:18:14.79Z</time></trkpt><trkpt lat="43.6412617" lon="13.04304"><ele>133.0</ele><time>2026-04-29T11:18:15.79Z</time></trkpt><trkpt lat="43.6411367" lon="13.0430483"><ele>133.0</ele><time>2026-04-29T11:18:16.789Z</time></trkpt><trkpt lat="43.641" lon="13.0430433"><ele>136.5</ele><time>2026-04-29T11:18:17.79Z</time></trkpt><trkpt lat="43.640875" lon="13.043015"><ele>140.0</ele><time>2026-04-29T11:18:18.79Z</time></trkpt><trkpt lat="43.640755" lon="13.042955"><ele>143.5</ele><time>2026-04-29T11:18:19.789Z</time></trkpt><trkpt lat="43.6406433" lon="13.0428667"><ele>147.0</ele><time>2026-04-29T11:18:20.79Z</time></trkpt><trkpt lat="43.6405317" lon="13.0427567"><ele>147.0</ele><time>2026-04-29T11:18:21.79Z</time></trkpt><trkpt lat="43.6404183" lon="13.04264"><ele>147.0</ele><time>2026-04-29T11:18:22.79Z</time></trkpt><trkpt lat="43.6402967" lon="13.04253"><ele>147.0</ele><time>2026-04-29T11:18:23.789Z</time></trkpt><trkpt lat="43.64019" lon="13.0424183"><ele>147.0</ele><time>2026-04-29T11:18:24.789Z</time></trkpt><trkpt lat="43.6400733" lon="13.0423167"><ele>149.75</ele><time>2026-04-29T11:18:25.79Z</time></trkpt><trkpt lat="43.63996" lon="13.0422233"><ele>152.5</ele><time>2026-04-29T11:18:26.79Z</time></trkpt><trkpt lat="43.6398483" lon="13.0421367"><ele>155.25</ele><time>2026-04-29T11:18:27.79Z</time></trkpt><trkpt lat="43.6397367" lon="13.0420433"><ele>158.0</ele><time>2026-04-29T11:18:28.79Z</time></trkpt><trkpt lat="43.6396283" lon="13.0419433"><ele>158.0</ele><time>2026-04-29T11:18:29.79Z</time></trkpt><trkpt lat="43.6395283" lon="13.04184"><ele>158.0</ele><time>2026-04-29T11:18:30.789Z</time></trkpt><trkpt lat="43.6394533" lon="13.0417267"><ele>158.0</ele><time>2026-04-29T11:18:31.79Z</time></trkpt><trkpt lat="43.639415" lon="13.0416017"><ele>158.0</ele><time>2026-04-29T11:18:32.79Z</time></trkpt><trkpt lat="43.63941" lon="13.04148"><ele>158.0</ele><time>2026-04-29T11:18:33.79Z</time></trkpt><trkpt lat="43.63943" lon="13.0413533"><ele>158.8</ele><time>2026-04-29T11:18:34.79Z</time></trkpt><trkpt lat="43.6394617" lon="13.04122"><ele>159.60000000000002</ele><time>2026-04-29T11:18:35.79Z</time></trkpt><trkpt lat="43.6394867" lon="13.0410867"><ele>160.39999999999998</ele><time>2026-04-29T11:18:36.79Z</time></trkpt><trkpt lat="43.6394817" lon="13.040965"><ele>161.2</ele><time>2026-04-29T11:18:37.79Z</time></trkpt><trkpt lat="43.6394467" lon="13.040845"><ele>162.0</ele><time>2026-04-29T11:18:38.789Z</time></trkpt><trkpt lat="43.6393817" lon="13.040735"><ele>164.2</ele><time>2026-04-29T11:18:39.79Z</time></trkpt><trkpt lat="43.6393033" lon="13.04065"><ele>166.39999999999998</ele><time>2026-04-29T11:18:40.79Z</time></trkpt><trkpt lat="43.63922" lon="13.04056"><ele>168.60000000000002</ele><time>2026-04-29T11:18:41.79Z</time></trkpt><trkpt lat="43.6391367" lon="13.0404667"><ele>170.8</ele><time>2026-04-29T11:18:42.79Z</time></trkpt><trkpt lat="43.6390517" lon="13.0403717"><ele>173.0</ele><time>2026-04-29T11:18:43.79Z</time></trkpt><trkpt lat="43.6389783" lon="13.0402817"><ele>173.0</ele><time>2026-04-29T11:18:44.79Z</time></trkpt><trkpt lat="43.63892" lon="13.0401983"><ele>173.0</ele><time>2026-04-29T11:18:45.789Z</time></trkpt><trkpt lat="43.63887" lon="13.0401317"><ele>173.0</ele><time>2026-04-29T11:18:46.79Z</time></trkpt><trkpt lat="43.638815" lon="13.0400633"><ele>173.0</ele><time>2026-04-29T11:18:48.79Z</time></trkpt><trkpt lat="43.638735" lon="13.04007"><ele>173.0</ele><time>2026-04-29T11:19:03.79Z</time></trkpt><trkpt lat="43.6386333" lon="13.04009"><ele>173.0</ele><time>2026-04-29T11:19:05.79Z</time></trkpt><trkpt lat="43.6385683" lon="13.0400767"><ele>173.16666666666666</ele><time>2026-04-29T11:19:06.79Z</time></trkpt><trkpt lat="43.6384917" lon="13.040045"><ele>173.33333333333331</ele><time>2026-04-29T11:19:07.789Z</time></trkpt><trkpt lat="43.6384117" lon="13.0400067"><ele>173.5</ele><time>2026-04-29T11:19:08.79Z</time></trkpt><trkpt lat="43.6383333" lon="13.0399617"><ele>173.66666666666666</ele><time>2026-04-29T11:19:09.789Z</time></trkpt><trkpt lat="43.638255" lon="13.0399033"><ele>173.83333333333334</ele><time>2026-04-29T11:19:10.79Z</time></trkpt><trkpt lat="43.638175" lon="13.039835"><ele>174.0</ele><time>2026-04-29T11:19:11.79Z</time></trkpt><trkpt lat="43.638095" lon="13.0397667"><ele>174.0</ele><time>2026-04-29T11:19:12.79Z</time></trkpt><trkpt lat="43.63801" lon="13.0396983"><ele>174.0</ele><time>2026-04-29T11:19:13.789Z</time></trkpt><trkpt lat="43.63793" lon="13.0396283"><ele>174.0</ele><time>2026-04-29T11:19:14.789Z</time></trkpt><trkpt lat="43.6378467" lon="13.03955"><ele>174.0</ele><time>2026-04-29T11:19:15.789Z</time></trkpt><trkpt lat="43.63777" lon="13.0394667"><ele>174.0</ele><time>2026-04-29T11:19:16.789Z</time></trkpt><trkpt lat="43.6377167" lon="13.0393783"><ele>172.39999999999998</ele><time>2026-04-29T11:19:17.789Z</time></trkpt><trkpt lat="43.6376783" lon="13.0392683"><ele>170.8</ele><time>2026-04-29T11:19:18.788Z</time></trkpt><trkpt lat="43.6376467" lon="13.03914"><ele>169.2</ele><time>2026-04-29T11:19:19.789Z</time></trkpt><trkpt lat="43.6376167" lon="13.0390133"><ele>167.60000000000002</ele><time>2026-04-29T11:19:20.789Z</time></trkpt><trkpt lat="43.637575" lon="13.038895"><ele>166.0</ele><time>2026-04-29T11:19:21.789Z</time></trkpt><trkpt lat="43.6375183" lon="13.0387767"><ele>164.8</ele><time>2026-04-29T11:19:22.789Z</time></trkpt><trkpt lat="43.63745" lon="13.0386617"><ele>163.60000000000002</ele><time>2026-04-29T11:19:23.788Z</time></trkpt><trkpt lat="43.637375" lon="13.0385583"><ele>162.4</ele><time>2026-04-29T11:19:24.789Z</time></trkpt><trkpt lat="43.6372967" lon="13.0384567"><ele>161.2</ele><time>2026-04-29T11:19:25.789Z</time></trkpt><trkpt lat="43.6372167" lon="13.0383533"><ele>160.0</ele><time>2026-04-29T11:19:26.789Z</time></trkpt><trkpt lat="43.6371333" lon="13.0382517"><ele>159.25</ele><time>2026-04-29T11:19:27.789Z</time></trkpt><trkpt lat="43.6370517" lon="13.0381433"><ele>158.5</ele><time>2026-04-29T11:19:28.789Z</time></trkpt><trkpt lat="43.6369717" lon="13.038035"><ele>157.75</ele><time>2026-04-29T11:19:29.789Z</time></trkpt><trkpt lat="43.6368967" lon="13.037915"><ele>157.0</ele><time>2026-04-29T11:19:30.789Z</time></trkpt><trkpt lat="43.6368183" lon="13.03779"><ele>153.5</ele><time>2026-04-29T11:19:31.789Z</time></trkpt><trkpt lat="43.6367483" lon="13.0376517"><ele>150.0</ele><time>2026-04-29T11:19:32.789Z</time></trkpt><trkpt lat="43.63668" lon="13.0375067"><ele>146.5</ele><time>2026-04-29T11:19:33.789Z</time></trkpt><trkpt lat="43.63661" lon="13.037365"><ele>143.0</ele><time>2026-04-29T11:19:34.789Z</time></trkpt><trkpt lat="43.6365383" lon="13.0372233"><ele>143.0</ele><time>2026-04-29T11:19:35.789Z</time></trkpt><trkpt lat="43.636465" lon="13.03708"><ele>143.0</ele><time>2026-04-29T11:19:36.789Z</time></trkpt><trkpt lat="43.63638" lon="13.036945"><ele>143.0</ele><time>2026-04-29T11:19:37.789Z</time></trkpt><trkpt lat="43.6362983" lon="13.036825"><ele>143.0</ele><time>2026-04-29T11:19:38.789Z</time></trkpt><trkpt lat="43.63621" lon="13.0367017"><ele>141.5</ele><time>2026-04-29T11:19:39.789Z</time></trkpt><trkpt lat="43.6361267" lon="13.0365833"><ele>140.0</ele><time>2026-04-29T11:19:40.789Z</time></trkpt><trkpt lat="43.6360367" lon="13.0364617"><ele>138.5</ele><time>2026-04-29T11:19:41.789Z</time></trkpt><trkpt lat="43.6359533" lon="13.0363383"><ele>137.0</ele><time>2026-04-29T11:19:42.789Z</time></trkpt><trkpt lat="43.6358683" lon="13.0362233"><ele>137.0</ele><time>2026-04-29T11:19:43.789Z</time></trkpt><trkpt lat="43.6357867" lon="13.0361133"><ele>137.0</ele><time>2026-04-29T11:19:44.788Z</time></trkpt><trkpt lat="43.63571" lon="13.0360083"><ele>137.0</ele><time>2026-04-29T11:19:45.788Z</time></trkpt><trkpt lat="43.63563" lon="13.0359"><ele>137.0</ele><time>2026-04-29T11:19:46.789Z</time></trkpt><trkpt lat="43.635555" lon="13.0357867"><ele>137.0</ele><time>2026-04-29T11:19:47.789Z</time></trkpt><trkpt lat="43.6354917" lon="13.03567"><ele>136.4</ele><time>2026-04-29T11:19:48.789Z</time></trkpt><trkpt lat="43.6354283" lon="13.03556"><ele>135.79999999999998</ele><time>2026-04-29T11:19:49.789Z</time></trkpt><trkpt lat="43.635355" lon="13.0354517"><ele>135.2</ele><time>2026-04-29T11:19:50.789Z</time></trkpt><trkpt lat="43.635265" lon="13.03536"><ele>134.6</ele><time>2026-04-29T11:19:51.789Z</time></trkpt><trkpt lat="43.6351667" lon="13.03529"><ele>134.0</ele><time>2026-04-29T11:19:52.789Z</time></trkpt><trkpt lat="43.635055" lon="13.035235"><ele>134.0</ele><time>2026-04-29T11:19:53.789Z</time></trkpt><trkpt lat="43.6349383" lon="13.0351917"><ele>134.0</ele><time>2026-04-29T11:19:54.789Z</time></trkpt><trkpt lat="43.6348217" lon="13.035145"><ele>134.0</ele><time>2026-04-29T11:19:55.789Z</time></trkpt><trkpt lat="43.6347017" lon="13.0350983"><ele>134.0</ele><time>2026-04-29T11:19:56.789Z</time></trkpt><trkpt lat="43.63458" lon="13.0350483"><ele>134.0</ele><time>2026-04-29T11:19:57.789Z</time></trkpt><trkpt lat="43.63446" lon="13.0350083"><ele>134.0</ele><time>2026-04-29T11:19:58.789Z</time></trkpt><trkpt lat="43.6343417" lon="13.0349717"><ele>134.0</ele><time>2026-04-29T11:19:59.789Z</time></trkpt><trkpt lat="43.6342267" lon="13.0349283"><ele>134.0</ele><time>2026-04-29T11:20:00.789Z</time></trkpt><trkpt lat="43.6341117" lon="13.0348867"><ele>134.0</ele><time>2026-04-29T11:20:01.789Z</time></trkpt><trkpt lat="43.633995" lon="13.0348467"><ele>134.0</ele><time>2026-04-29T11:20:02.789Z</time></trkpt><trkpt lat="43.633875" lon="13.0348033"><ele>134.0</ele><time>2026-04-29T11:20:03.789Z</time></trkpt><trkpt lat="43.6337567" lon="13.0347567"><ele>134.0</ele><time>2026-04-29T11:20:04.788Z</time></trkpt><trkpt lat="43.6336433" lon="13.0347283"><ele>131.0</ele><time>2026-04-29T11:20:05.789Z</time></trkpt><trkpt lat="43.63353" lon="13.034705"><ele>128.0</ele><time>2026-04-29T11:20:06.789Z</time></trkpt><trkpt lat="43.6334133" lon="13.0346833"><ele>125.0</ele><time>2026-04-29T11:20:07.789Z</time></trkpt><trkpt lat="43.6332917" lon="13.0346633"><ele>122.0</ele><time>2026-04-29T11:20:08.789Z</time></trkpt><trkpt lat="43.633175" lon="13.034635"><ele>122.0</ele><time>2026-04-29T11:20:09.789Z</time></trkpt><trkpt lat="43.6330583" lon="13.0345883"><ele>122.0</ele><time>2026-04-29T11:20:10.789Z</time></trkpt><trkpt lat="43.6329467" lon="13.0345283"><ele>122.0</ele><time>2026-04-29T11:20:11.789Z</time></trkpt><trkpt lat="43.6328367" lon="13.034455"><ele>122.0</ele><time>2026-04-29T11:20:12.789Z</time></trkpt><trkpt lat="43.632725" lon="13.034385"><ele>121.75</ele><time>2026-04-29T11:20:13.789Z</time></trkpt><trkpt lat="43.63262" lon="13.03432"><ele>121.5</ele><time>2026-04-29T11:20:14.789Z</time></trkpt><trkpt lat="43.6325117" lon="13.0342533"><ele>121.25</ele><time>2026-04-29T11:20:15.789Z</time></trkpt><trkpt lat="43.6324017" lon="13.0341717"><ele>121.0</ele><time>2026-04-29T11:20:16.788Z</time></trkpt><trkpt lat="43.6322883" lon="13.03408"><ele>121.0</ele><time>2026-04-29T11:20:17.789Z</time></trkpt><trkpt lat="43.63218" lon="13.0339783"><ele>121.0</ele><time>2026-04-29T11:20:18.789Z</time></trkpt><trkpt lat="43.6320733" lon="13.03387"><ele>121.0</ele><time>2026-04-29T11:20:19.789Z</time></trkpt><trkpt lat="43.631975" lon="13.0337633"><ele>121.0</ele><time>2026-04-29T11:20:20.789Z</time></trkpt><trkpt lat="43.63188" lon="13.0336583"><ele>120.5</ele><time>2026-04-29T11:20:21.789Z</time></trkpt><trkpt lat="43.631775" lon="13.0335533"><ele>120.0</ele><time>2026-04-29T11:20:22.789Z</time></trkpt><trkpt lat="43.6316783" lon="13.0334517"><ele>119.5</ele><time>2026-04-29T11:20:23.789Z</time></trkpt><trkpt lat="43.631575" lon="13.0333517"><ele>119.0</ele><time>2026-04-29T11:20:24.789Z</time></trkpt><trkpt lat="43.631475" lon="13.03325"><ele>119.0</ele><time>2026-04-29T11:20:25.788Z</time></trkpt><trkpt lat="43.6313833" lon="13.0331467"><ele>119.0</ele><time>2026-04-29T11:20:26.789Z</time></trkpt><trkpt lat="43.6312917" lon="13.0330417"><ele>119.0</ele><time>2026-04-29T11:20:27.789Z</time></trkpt><trkpt lat="43.6312" lon="13.0329417"><ele>119.0</ele><time>2026-04-29T11:20:28.789Z</time></trkpt><trkpt lat="43.631105" lon="13.0328417"><ele>117.6</ele><time>2026-04-29T11:20:29.789Z</time></trkpt><trkpt lat="43.631005" lon="13.0327567"><ele>116.2</ele><time>2026-04-29T11:20:30.789Z</time></trkpt><trkpt lat="43.6309067" lon="13.0326783"><ele>114.79999999999998</ele><time>2026-04-29T11:20:31.789Z</time></trkpt><trkpt lat="43.6308133" lon="13.03261"><ele>113.39999999999999</ele><time>2026-04-29T11:20:32.789Z</time></trkpt><trkpt lat="43.63073" lon="13.0325417"><ele>112.0</ele><time>2026-04-29T11:20:33.789Z</time></trkpt><trkpt lat="43.63066" lon="13.032455"><ele>112.0</ele><time>2026-04-29T11:20:34.788Z</time></trkpt><trkpt lat="43.630605" lon="13.03235"><ele>111.99999999999999</ele><time>2026-04-29T11:20:35.789Z</time></trkpt><trkpt lat="43.6305533" lon="13.03224"><ele>111.99999999999999</ele><time>2026-04-29T11:20:36.788Z</time></trkpt><trkpt lat="43.6304917" lon="13.0321217"><ele>112.0</ele><time>2026-04-29T11:20:37.789Z</time></trkpt><trkpt lat="43.630425" lon="13.032005"><ele>112.0</ele><time>2026-04-29T11:20:38.789Z</time></trkpt><trkpt lat="43.630345" lon="13.03188"><ele>108.75</ele><time>2026-04-29T11:20:39.789Z</time></trkpt><trkpt lat="43.630265" lon="13.03176"><ele>105.5</ele><time>2026-04-29T11:20:40.789Z</time></trkpt><trkpt lat="43.6301783" lon="13.031645"><ele>102.25</ele><time>2026-04-29T11:20:41.789Z</time></trkpt><trkpt lat="43.63009" lon="13.0315317"><ele>99.0</ele><time>2026-04-29T11:20:42.789Z</time></trkpt><trkpt lat="43.6300017" lon="13.03142"><ele>98.75</ele><time>2026-04-29T11:20:43.789Z</time></trkpt><trkpt lat="43.629905" lon="13.031315"><ele>98.5</ele><time>2026-04-29T11:20:44.789Z</time></trkpt><trkpt lat="43.6298067" lon="13.031215"><ele>98.25</ele><time>2026-04-29T11:20:45.789Z</time></trkpt><trkpt lat="43.6297067" lon="13.031115"><ele>98.0</ele><time>2026-04-29T11:20:46.789Z</time></trkpt><trkpt lat="43.629605" lon="13.0310167"><ele>98.0</ele><time>2026-04-29T11:20:47.788Z</time></trkpt><trkpt lat="43.6295017" lon="13.030925"><ele>98.0</ele><time>2026-04-29T11:20:48.789Z</time></trkpt><trkpt lat="43.6294017" lon="13.0308333"><ele>98.0</ele><time>2026-04-29T11:20:49.789Z</time></trkpt><trkpt lat="43.6293183" lon="13.0307533"><ele>98.0</ele><time>2026-04-29T11:20:50.789Z</time></trkpt><trkpt lat="43.629235" lon="13.0306683"><ele>98.0</ele><time>2026-04-29T11:20:51.789Z</time></trkpt><trkpt lat="43.62916" lon="13.0305783"><ele>98.5</ele><time>2026-04-29T11:20:52.789Z</time></trkpt><trkpt lat="43.62909" lon="13.0304683"><ele>99.0</ele><time>2026-04-29T11:20:53.789Z</time></trkpt><trkpt lat="43.629015" lon="13.0303433"><ele>99.5</ele><time>2026-04-29T11:20:54.788Z</time></trkpt><trkpt lat="43.6289333" lon="13.0302217"><ele>100.0</ele><time>2026-04-29T11:20:55.788Z</time></trkpt><trkpt lat="43.6288517" lon="13.030095"><ele>100.0</ele><time>2026-04-29T11:20:56.789Z</time></trkpt><trkpt lat="43.6287767" lon="13.0299633"><ele>100.0</ele><time>2026-04-29T11:20:57.789Z</time></trkpt><trkpt lat="43.6287083" lon="13.0298283"><ele>100.0</ele><time>2026-04-29T11:20:58.789Z</time></trkpt><trkpt lat="43.628645" lon="13.0296933"><ele>100.0</ele><time>2026-04-29T11:20:59.789Z</time></trkpt><trkpt lat="43.62859" lon="13.029555"><ele>101.25</ele><time>2026-04-29T11:21:00.789Z</time></trkpt><trkpt lat="43.6285433" lon="13.0293983"><ele>102.5</ele><time>2026-04-29T11:21:01.789Z</time></trkpt><trkpt lat="43.628505" lon="13.0292383"><ele>103.75</ele><time>2026-04-29T11:21:02.789Z</time></trkpt><trkpt lat="43.6284767" lon="13.0290883"><ele>105.0</ele><time>2026-04-29T11:21:03.789Z</time></trkpt><trkpt lat="43.6284567" lon="13.0289433"><ele>105.0</ele><time>2026-04-29T11:21:04.789Z</time></trkpt><trkpt lat="43.6284267" lon="13.0288067"><ele>105.0</ele><time>2026-04-29T11:21:05.789Z</time></trkpt><trkpt lat="43.6283833" lon="13.028675"><ele>105.0</ele><time>2026-04-29T11:21:06.789Z</time></trkpt><trkpt lat="43.6283283" lon="13.0285567"><ele>105.0</ele><time>2026-04-29T11:21:07.789Z</time></trkpt><trkpt lat="43.628265" lon="13.0284333"><ele>105.0</ele><time>2026-04-29T11:21:08.788Z</time></trkpt><trkpt lat="43.628195" lon="13.0283117"><ele>105.2</ele><time>2026-04-29T11:21:09.789Z</time></trkpt><trkpt lat="43.6281217" lon="13.0281983"><ele>105.4</ele><time>2026-04-29T11:21:10.789Z</time></trkpt><trkpt lat="43.6280517" lon="13.0280867"><ele>105.6</ele><time>2026-04-29T11:21:11.789Z</time></trkpt><trkpt lat="43.6279733" lon="13.0279833"><ele>105.8</ele><time>2026-04-29T11:21:12.789Z</time></trkpt><trkpt lat="43.6278983" lon="13.02789"><ele>106.0</ele><time>2026-04-29T11:21:13.789Z</time></trkpt><trkpt lat="43.6278433" lon="13.0278"><ele>106.00000000000001</ele><time>2026-04-29T11:21:14.789Z</time></trkpt><trkpt lat="43.6278133" lon="13.0277067"><ele>106.0</ele><time>2026-04-29T11:21:15.789Z</time></trkpt><trkpt lat="43.627815" lon="13.027605"><ele>106.0</ele><time>2026-04-29T11:21:16.789Z</time></trkpt><trkpt lat="43.6278567" lon="13.027515"><ele>106.0</ele><time>2026-04-29T11:21:17.788Z</time></trkpt><trkpt lat="43.6279233" lon="13.0274467"><ele>106.00000000000001</ele><time>2026-04-29T11:21:18.789Z</time></trkpt><trkpt lat="43.6280133" lon="13.027395"><ele>106.0</ele><time>2026-04-29T11:21:19.789Z</time></trkpt><trkpt lat="43.6281117" lon="13.0273433"><ele>108.4</ele><time>2026-04-29T11:21:20.789Z</time></trkpt><trkpt lat="43.62821" lon="13.027285"><ele>110.8</ele><time>2026-04-29T11:21:21.789Z</time></trkpt><trkpt lat="43.6283067" lon="13.02722"><ele>113.20000000000002</ele><time>2026-04-29T11:21:22.788Z</time></trkpt><trkpt lat="43.6283917" lon="13.0271383"><ele>115.60000000000001</ele><time>2026-04-29T11:21:23.789Z</time></trkpt><trkpt lat="43.6284733" lon="13.0270433"><ele>118.0</ele><time>2026-04-29T11:21:24.789Z</time></trkpt><trkpt lat="43.6285417" lon="13.0269433"><ele>118.0</ele><time>2026-04-29T11:21:25.788Z</time></trkpt><trkpt lat="43.6286017" lon="13.02684"><ele>118.00000000000001</ele><time>2026-04-29T11:21:26.789Z</time></trkpt><trkpt lat="43.6286517" lon="13.0267167"><ele>118.00000000000001</ele><time>2026-04-29T11:21:27.789Z</time></trkpt><trkpt lat="43.6286783" lon="13.0265867"><ele>118.0</ele><time>2026-04-29T11:21:28.789Z</time></trkpt><trkpt lat="43.628695" lon="13.026435"><ele>118.0</ele><time>2026-04-29T11:21:29.789Z</time></trkpt><trkpt lat="43.628705" lon="13.0262833"><ele>117.60000000000001</ele><time>2026-04-29T11:21:30.789Z</time></trkpt><trkpt lat="43.6287033" lon="13.0261317"><ele>117.20000000000002</ele><time>2026-04-29T11:21:31.789Z</time></trkpt><trkpt lat="43.6286917" lon="13.025985"><ele>116.8</ele><time>2026-04-29T11:21:32.789Z</time></trkpt><trkpt lat="43.628685" lon="13.0258667"><ele>116.4</ele><time>2026-04-29T11:21:33.789Z</time></trkpt><trkpt lat="43.6286817" lon="13.0257533"><ele>116.0</ele><time>2026-04-29T11:21:34.788Z</time></trkpt><trkpt lat="43.6286933" lon="13.0256333"><ele>116.0</ele><time>2026-04-29T11:21:35.788Z</time></trkpt><trkpt lat="43.628725" lon="13.0255083"><ele>116.0</ele><time>2026-04-29T11:21:36.788Z</time></trkpt><trkpt lat="43.6287667" lon="13.0253867"><ele>116.0</ele><time>2026-04-29T11:21:37.789Z</time></trkpt><trkpt lat="43.6288033" lon="13.0252633"><ele>116.0</ele><time>2026-04-29T11:21:38.789Z</time></trkpt><trkpt lat="43.6288317" lon="13.025145"><ele>116.0</ele><time>2026-04-29T11:21:39.789Z</time></trkpt><trkpt lat="43.6288533" lon="13.0250167"><ele>116.8</ele><time>2026-04-29T11:21:40.789Z</time></trkpt><trkpt lat="43.62888" lon="13.02488"><ele>117.6</ele><time>2026-04-29T11:21:41.789Z</time></trkpt><trkpt lat="43.6289133" lon="13.0247367"><ele>118.4</ele><time>2026-04-29T11:21:42.789Z</time></trkpt><trkpt lat="43.628945" lon="13.02459"><ele>119.2</ele><time>2026-04-29T11:21:43.789Z</time></trkpt><trkpt lat="43.6289783" lon="13.024445"><ele>120.0</ele><time>2026-04-29T11:21:44.789Z</time></trkpt><trkpt lat="43.6290033" lon="13.0243"><ele>120.0</ele><time>2026-04-29T11:21:45.788Z</time></trkpt><trkpt lat="43.629035" lon="13.0241517"><ele>120.0</ele><time>2026-04-29T11:21:46.788Z</time></trkpt><trkpt lat="43.6290717" lon="13.024005"><ele>120.0</ele><time>2026-04-29T11:21:47.789Z</time></trkpt><trkpt lat="43.6291033" lon="13.0238517"><ele>120.0</ele><time>2026-04-29T11:21:48.788Z</time></trkpt><trkpt lat="43.6291233" lon="13.02369"><ele>120.75</ele><time>2026-04-29T11:21:49.789Z</time></trkpt><trkpt lat="43.62914" lon="13.0235217"><ele>121.5</ele><time>2026-04-29T11:21:50.789Z</time></trkpt><trkpt lat="43.6291483" lon="13.0233583"><ele>122.25</ele><time>2026-04-29T11:21:51.789Z</time></trkpt><trkpt lat="43.62915" lon="13.023195"><ele>123.0</ele><time>2026-04-29T11:21:52.789Z</time></trkpt><trkpt lat="43.6291517" lon="13.0230317"><ele>124.0</ele><time>2026-04-29T11:21:53.789Z</time></trkpt><trkpt lat="43.62914" lon="13.0228583"><ele>125.0</ele><time>2026-04-29T11:21:54.789Z</time></trkpt><trkpt lat="43.6291183" lon="13.0226883"><ele>126.0</ele><time>2026-04-29T11:21:55.789Z</time></trkpt><trkpt lat="43.6291" lon="13.0225167"><ele>127.0</ele><time>2026-04-29T11:21:56.788Z</time></trkpt><trkpt lat="43.6290783" lon="13.022345"><ele>128.0</ele><time>2026-04-29T11:21:57.789Z</time></trkpt><trkpt lat="43.6290533" lon="13.0221767"><ele>129.0</ele><time>2026-04-29T11:21:58.789Z</time></trkpt><trkpt lat="43.6290233" lon="13.0220083"><ele>130.0</ele><time>2026-04-29T11:21:59.789Z</time></trkpt><trkpt lat="43.6289883" lon="13.0218483"><ele>131.0</ele><time>2026-04-29T11:22:00.789Z</time></trkpt><trkpt lat="43.6289467" lon="13.0216967"><ele>131.75</ele><time>2026-04-29T11:22:01.789Z</time></trkpt><trkpt lat="43.62889" lon="13.0215533"><ele>132.5</ele><time>2026-04-29T11:22:02.789Z</time></trkpt><trkpt lat="43.6288233" lon="13.021425"><ele>133.25</ele><time>2026-04-29T11:22:03.789Z</time></trkpt><trkpt lat="43.6287533" lon="13.0213033"><ele>134.0</ele><time>2026-04-29T11:22:04.789Z</time></trkpt><trkpt lat="43.6286733" lon="13.021185"><ele>136.5</ele><time>2026-04-29T11:22:05.789Z</time></trkpt><trkpt lat="43.6285883" lon="13.02107"><ele>139.0</ele><time>2026-04-29T11:22:06.788Z</time></trkpt><trkpt lat="43.628495" lon="13.02096"><ele>141.5</ele><time>2026-04-29T11:22:07.789Z</time></trkpt><trkpt lat="43.6283883" lon="13.0208533"><ele>144.0</ele><time>2026-04-29T11:22:08.789Z</time></trkpt><trkpt lat="43.628265" lon="13.020755"><ele>145.0</ele><time>2026-04-29T11:22:09.788Z</time></trkpt><trkpt lat="43.6281383" lon="13.0206483"><ele>146.0</ele><time>2026-04-29T11:22:10.789Z</time></trkpt><trkpt lat="43.6280067" lon="13.0205333"><ele>147.0</ele><time>2026-04-29T11:22:11.789Z</time></trkpt><trkpt lat="43.6278783" lon="13.020415"><ele>150.66666666666666</ele><time>2026-04-29T11:22:12.789Z</time></trkpt><trkpt lat="43.6277483" lon="13.0202933"><ele>154.33333333333331</ele><time>2026-04-29T11:22:13.789Z</time></trkpt><trkpt lat="43.62761" lon="13.0201567"><ele>158.0</ele><time>2026-04-29T11:22:14.789Z</time></trkpt><trkpt lat="43.627465" lon="13.0200083"><ele>159.66666666666666</ele><time>2026-04-29T11:22:15.789Z</time></trkpt><trkpt lat="43.6273217" lon="13.0198567"><ele>161.33333333333334</ele><time>2026-04-29T11:22:16.789Z</time></trkpt><trkpt lat="43.6271833" lon="13.0197083"><ele>163.0</ele><time>2026-04-29T11:22:17.789Z</time></trkpt><trkpt lat="43.627045" lon="13.0195633"><ele>165.66666666666669</ele><time>2026-04-29T11:22:18.789Z</time></trkpt><trkpt lat="43.6269117" lon="13.0194217"><ele>168.33333333333334</ele><time>2026-04-29T11:22:19.789Z</time></trkpt><trkpt lat="43.6267817" lon="13.0192767"><ele>171.0</ele><time>2026-04-29T11:22:20.789Z</time></trkpt><trkpt lat="43.6266633" lon="13.0191433"><ele>171.0</ele><time>2026-04-29T11:22:21.789Z</time></trkpt><trkpt lat="43.6265533" lon="13.0190033"><ele>171.0</ele><time>2026-04-29T11:22:22.789Z</time></trkpt><trkpt lat="43.6264467" lon="13.0188683"><ele>171.0</ele><time>2026-04-29T11:22:23.789Z</time></trkpt><trkpt lat="43.6263533" lon="13.0187317"><ele>171.0</ele><time>2026-04-29T11:22:24.788Z</time></trkpt><trkpt lat="43.62627" lon="13.0185817"><ele>171.0</ele><time>2026-04-29T11:22:25.789Z</time></trkpt><trkpt lat="43.6261933" lon="13.018425"><ele>171.0</ele><time>2026-04-29T11:22:26.789Z</time></trkpt><trkpt lat="43.62612" lon="13.0182683"><ele>171.0</ele><time>2026-04-29T11:22:27.789Z</time></trkpt><trkpt lat="43.6260467" lon="13.0181133"><ele>171.0</ele><time>2026-04-29T11:22:28.789Z</time></trkpt><trkpt lat="43.6259817" lon="13.0179683"><ele>174.5</ele><time>2026-04-29T11:22:29.789Z</time></trkpt><trkpt lat="43.6259183" lon="13.01783"><ele>178.0</ele><time>2026-04-29T11:22:30.789Z</time></trkpt><trkpt lat="43.6258517" lon="13.0176983"><ele>181.5</ele><time>2026-04-29T11:22:31.789Z</time></trkpt><trkpt lat="43.62579" lon="13.0175667"><ele>185.0</ele><time>2026-04-29T11:22:32.789Z</time></trkpt><trkpt lat="43.625725" lon="13.017435"><ele>185.75</ele><time>2026-04-29T11:22:33.789Z</time></trkpt><trkpt lat="43.6256633" lon="13.0173"><ele>186.5</ele><time>2026-04-29T11:22:34.789Z</time></trkpt><trkpt lat="43.6256" lon="13.01717"><ele>187.25</ele><time>2026-04-29T11:22:35.789Z</time></trkpt><trkpt lat="43.62554" lon="13.0170417"><ele>188.0</ele><time>2026-04-29T11:22:36.789Z</time></trkpt><trkpt lat="43.6254733" lon="13.0169167"><ele>188.0</ele><time>2026-04-29T11:22:37.789Z</time></trkpt><trkpt lat="43.6254083" lon="13.0167883"><ele>188.0</ele><time>2026-04-29T11:22:38.789Z</time></trkpt><trkpt lat="43.625345" lon="13.0166683"><ele>188.0</ele><time>2026-04-29T11:22:39.788Z</time></trkpt><trkpt lat="43.6252817" lon="13.0165433"><ele>188.0</ele><time>2026-04-29T11:22:40.789Z</time></trkpt><trkpt lat="43.625215" lon="13.01642"><ele>188.0</ele><time>2026-04-29T11:22:41.789Z</time></trkpt><trkpt lat="43.62515" lon="13.0162883"><ele>190.75</ele><time>2026-04-29T11:22:42.789Z</time></trkpt><trkpt lat="43.6250817" lon="13.0161583"><ele>193.5</ele><time>2026-04-29T11:22:43.789Z</time></trkpt><trkpt lat="43.6250167" lon="13.016035"><ele>196.25</ele><time>2026-04-29T11:22:44.789Z</time></trkpt><trkpt lat="43.6249483" lon="13.0159117"><ele>199.0</ele><time>2026-04-29T11:22:45.789Z</time></trkpt><trkpt lat="43.6248817" lon="13.015785"><ele>199.6</ele><time>2026-04-29T11:22:46.789Z</time></trkpt><trkpt lat="43.6248183" lon="13.01566"><ele>200.2</ele><time>2026-04-29T11:22:47.789Z</time></trkpt><trkpt lat="43.6247533" lon="13.0155317"><ele>200.79999999999998</ele><time>2026-04-29T11:22:48.789Z</time></trkpt><trkpt lat="43.6246933" lon="13.0154067"><ele>201.39999999999998</ele><time>2026-04-29T11:22:49.789Z</time></trkpt><trkpt lat="43.6246283" lon="13.0152867"><ele>202.0</ele><time>2026-04-29T11:22:50.789Z</time></trkpt><trkpt lat="43.6245717" lon="13.0151783"><ele>201.99999999999997</ele><time>2026-04-29T11:22:51.788Z</time></trkpt><trkpt lat="43.6245217" lon="13.0150833"><ele>202.0</ele><time>2026-04-29T11:22:52.789Z</time></trkpt><trkpt lat="43.6244783" lon="13.0149983"><ele>202.0</ele><time>2026-04-29T11:22:53.789Z</time></trkpt><trkpt lat="43.62444" lon="13.0149233"><ele>202.0</ele><time>2026-04-29T11:22:54.788Z</time></trkpt><trkpt lat="43.6243883" lon="13.01481"><ele>201.99999999999997</ele><time>2026-04-29T11:22:56.788Z</time></trkpt><trkpt lat="43.62437" lon="13.0147133"><ele>202.0</ele><time>2026-04-29T11:25:34.789Z</time></trkpt><trkpt lat="43.6243883" lon="13.0145483"><ele>202.5</ele><time>2026-04-29T11:25:36.789Z</time></trkpt><trkpt lat="43.6244183" lon="13.0143933"><ele>203.0</ele><time>2026-04-29T11:25:37.789Z</time></trkpt><trkpt lat="43.62445" lon="13.0141867"><ele>203.5</ele><time>2026-04-29T11:25:38.789Z</time></trkpt><trkpt lat="43.6244783" lon="13.0139433"><ele>204.0</ele><time>2026-04-29T11:25:39.788Z</time></trkpt><trkpt lat="43.6245" lon="13.0137033"><ele>204.0</ele><time>2026-04-29T11:25:40.789Z</time></trkpt><trkpt lat="43.6245183" lon="13.0134983"><ele>204.0</ele><time>2026-04-29T11:25:41.788Z</time></trkpt><trkpt lat="43.6245167" lon="13.0133283"><ele>204.0</ele><time>2026-04-29T11:25:42.789Z</time></trkpt><trkpt lat="43.624495" lon="13.0131767"><ele>204.0</ele><time>2026-04-29T11:25:43.789Z</time></trkpt><trkpt lat="43.6244683" lon="13.0130317"><ele>206.25</ele><time>2026-04-29T11:25:44.789Z</time></trkpt><trkpt lat="43.6244383" lon="13.012885"><ele>208.5</ele><time>2026-04-29T11:25:45.789Z</time></trkpt><trkpt lat="43.6243983" lon="13.0127333"><ele>210.75</ele><time>2026-04-29T11:25:46.789Z</time></trkpt><trkpt lat="43.6243633" lon="13.012565"><ele>213.0</ele><time>2026-04-29T11:25:47.789Z</time></trkpt><trkpt lat="43.624335" lon="13.0123867"><ele>213.66666666666669</ele><time>2026-04-29T11:25:48.789Z</time></trkpt><trkpt lat="43.6243117" lon="13.0121767"><ele>214.33333333333334</ele><time>2026-04-29T11:25:49.789Z</time></trkpt><trkpt lat="43.624285" lon="13.0119517"><ele>215.0</ele><time>2026-04-29T11:25:50.789Z</time></trkpt><trkpt lat="43.624245" lon="13.0117117"><ele>215.66666666666669</ele><time>2026-04-29T11:25:51.789Z</time></trkpt><trkpt lat="43.6242083" lon="13.0114583"><ele>216.33333333333331</ele><time>2026-04-29T11:25:52.789Z</time></trkpt><trkpt lat="43.624175" lon="13.011195"><ele>217.0</ele><time>2026-04-29T11:25:53.789Z</time></trkpt><trkpt lat="43.6241467" lon="13.0109433"><ele>217.0</ele><time>2026-04-29T11:25:54.789Z</time></trkpt><trkpt lat="43.6241117" lon="13.0107017"><ele>217.0</ele><time>2026-04-29T11:25:55.789Z</time></trkpt><trkpt lat="43.6240683" lon="13.0104583"><ele>217.0</ele><time>2026-04-29T11:25:56.789Z</time></trkpt><trkpt lat="43.6240317" lon="13.01022"><ele>217.33333333333331</ele><time>2026-04-29T11:25:57.789Z</time></trkpt><trkpt lat="43.6240017" lon="13.0099883"><ele>217.66666666666669</ele><time>2026-04-29T11:25:58.789Z</time></trkpt><trkpt lat="43.623965" lon="13.0097583"><ele>218.0</ele><time>2026-04-29T11:25:59.789Z</time></trkpt><trkpt lat="43.6239183" lon="13.0095317"><ele>218.0</ele><time>2026-04-29T11:26:00.789Z</time></trkpt><trkpt lat="43.6238617" lon="13.0093083"><ele>218.0</ele><time>2026-04-29T11:26:01.789Z</time></trkpt><trkpt lat="43.6238017" lon="13.009085"><ele>218.0</ele><time>2026-04-29T11:26:02.789Z</time></trkpt><trkpt lat="43.6237433" lon="13.0088483"><ele>218.0</ele><time>2026-04-29T11:26:03.788Z</time></trkpt><trkpt lat="43.623685" lon="13.0086083"><ele>218.0</ele><time>2026-04-29T11:26:04.789Z</time></trkpt><trkpt lat="43.62364" lon="13.00836"><ele>218.0</ele><time>2026-04-29T11:26:05.789Z</time></trkpt><trkpt lat="43.6236167" lon="13.0080983"><ele>224.0</ele><time>2026-04-29T11:26:06.789Z</time></trkpt><trkpt lat="43.6236067" lon="13.0078217"><ele>230.0</ele><time>2026-04-29T11:26:07.789Z</time></trkpt><trkpt lat="43.6236017" lon="13.0075417"><ele>236.0</ele><time>2026-04-29T11:26:08.789Z</time></trkpt><trkpt lat="43.6235817" lon="13.0072733"><ele>236.66666666666669</ele><time>2026-04-29T11:26:09.788Z</time></trkpt><trkpt lat="43.623565" lon="13.00702"><ele>237.33333333333331</ele><time>2026-04-29T11:26:10.789Z</time></trkpt><trkpt lat="43.62355" lon="13.0067867"><ele>238.0</ele><time>2026-04-29T11:26:11.788Z</time></trkpt><trkpt lat="43.6235433" lon="13.0065767"><ele>239.0</ele><time>2026-04-29T11:26:12.789Z</time></trkpt><trkpt lat="43.6235483" lon="13.006385"><ele>240.0</ele><time>2026-04-29T11:26:13.789Z</time></trkpt><trkpt lat="43.62357" lon="13.0062183"><ele>241.0</ele><time>2026-04-29T11:26:14.789Z</time></trkpt><trkpt lat="43.623595" lon="13.00607"><ele>242.0</ele><time>2026-04-29T11:26:15.789Z</time></trkpt><trkpt lat="43.623625" lon="13.005945"><ele>242.00000000000003</ele><time>2026-04-29T11:26:16.789Z</time></trkpt><trkpt lat="43.6236417" lon="13.0058517"><ele>242.0</ele><time>2026-04-29T11:26:17.789Z</time></trkpt><trkpt lat="43.6236267" lon="13.0057583"><ele>242.0</ele><time>2026-04-29T11:26:19.789Z</time></trkpt><trkpt lat="43.6235617" lon="13.00577"><ele>242.0</ele><time>2026-04-29T11:26:21.789Z</time></trkpt><trkpt lat="43.623455" lon="13.00582"><ele>242.00000000000003</ele><time>2026-04-29T11:26:23.789Z</time></trkpt><trkpt lat="43.6233933" lon="13.0058467"><ele>242.0</ele><time>2026-04-29T11:26:24.789Z</time></trkpt><trkpt lat="43.62331" lon="13.0058917"><ele>242.0</ele><time>2026-04-29T11:26:26.788Z</time></trkpt><trkpt lat="43.6232317" lon="13.0059333"><ele>242.0</ele><time>2026-04-29T11:27:50.788Z</time></trkpt><trkpt lat="43.6231667" lon="13.00597"><ele>242.0</ele><time>2026-04-29T11:27:51.787Z</time></trkpt><trkpt lat="43.6230817" lon="13.0060183"><ele>242.0</ele><time>2026-04-29T11:27:52.788Z</time></trkpt><trkpt lat="43.6229833" lon="13.006075"><ele>242.0</ele><time>2026-04-29T11:27:53.788Z</time></trkpt><trkpt lat="43.6228767" lon="13.0061467"><ele>241.25</ele><time>2026-04-29T11:27:54.788Z</time></trkpt><trkpt lat="43.6227633" lon="13.00622"><ele>240.5</ele><time>2026-04-29T11:27:55.788Z</time></trkpt><trkpt lat="43.6226417" lon="13.0062933"><ele>239.75</ele><time>2026-04-29T11:27:56.788Z</time></trkpt><trkpt lat="43.622515" lon="13.00638"><ele>239.0</ele><time>2026-04-29T11:27:57.787Z</time></trkpt><trkpt lat="43.6224083" lon="13.0064717"><ele>239.0</ele><time>2026-04-29T11:27:58.788Z</time></trkpt><trkpt lat="43.6223083" lon="13.0065633"><ele>238.99999999999997</ele><time>2026-04-29T11:27:59.788Z</time></trkpt><trkpt lat="43.622215" lon="13.0066417"><ele>238.99999999999997</ele><time>2026-04-29T11:28:00.788Z</time></trkpt><trkpt lat="43.622125" lon="13.00672"><ele>239.0</ele><time>2026-04-29T11:28:01.788Z</time></trkpt><trkpt lat="43.6220367" lon="13.0067967"><ele>239.0</ele><time>2026-04-29T11:28:02.788Z</time></trkpt><trkpt lat="43.6219533" lon="13.0068683"><ele>237.66666666666669</ele><time>2026-04-29T11:28:03.788Z</time></trkpt><trkpt lat="43.6218767" lon="13.0069283"><ele>236.33333333333334</ele><time>2026-04-29T11:28:04.788Z</time></trkpt><trkpt lat="43.6217967" lon="13.0069717"><ele>235.0</ele><time>2026-04-29T11:28:05.788Z</time></trkpt><trkpt lat="43.6217217" lon="13.0069833"><ele>233.66666666666669</ele><time>2026-04-29T11:28:06.788Z</time></trkpt><trkpt lat="43.6216483" lon="13.0069733"><ele>232.33333333333334</ele><time>2026-04-29T11:28:07.788Z</time></trkpt><trkpt lat="43.621565" lon="13.0069383"><ele>231.0</ele><time>2026-04-29T11:28:08.788Z</time></trkpt><trkpt lat="43.6214783" lon="13.0069117"><ele>231.0</ele><time>2026-04-29T11:28:09.788Z</time></trkpt><trkpt lat="43.6213833" lon="13.0068783"><ele>231.00000000000003</ele><time>2026-04-29T11:28:10.788Z</time></trkpt><trkpt lat="43.621285" lon="13.006835"><ele>231.00000000000003</ele><time>2026-04-29T11:28:11.788Z</time></trkpt><trkpt lat="43.6211817" lon="13.00679"><ele>231.0</ele><time>2026-04-29T11:28:12.788Z</time></trkpt><trkpt lat="43.6210767" lon="13.006745"><ele>231.0</ele><time>2026-04-29T11:28:13.787Z</time></trkpt><trkpt lat="43.62097" lon="13.0066967"><ele>228.75</ele><time>2026-04-29T11:28:14.788Z</time></trkpt><trkpt lat="43.6208567" lon="13.00665"><ele>226.5</ele><time>2026-04-29T11:28:15.788Z</time></trkpt><trkpt lat="43.6207333" lon="13.0066017"><ele>224.25</ele><time>2026-04-29T11:28:16.787Z</time></trkpt><trkpt lat="43.6206133" lon="13.0065583"><ele>222.0</ele><time>2026-04-29T11:28:17.788Z</time></trkpt><trkpt lat="43.6204883" lon="13.0065283"><ele>222.0</ele><time>2026-04-29T11:28:18.788Z</time></trkpt><trkpt lat="43.6203583" lon="13.006505"><ele>222.0</ele><time>2026-04-29T11:28:19.788Z</time></trkpt><trkpt lat="43.62022" lon="13.00649"><ele>222.0</ele><time>2026-04-29T11:28:20.788Z</time></trkpt><trkpt lat="43.6200867" lon="13.0064817"><ele>222.0</ele><time>2026-04-29T11:28:21.788Z</time></trkpt><trkpt lat="43.6199417" lon="13.0064783"><ele>222.75</ele><time>2026-04-29T11:28:22.788Z</time></trkpt><trkpt lat="43.6197967" lon="13.0064833"><ele>223.5</ele><time>2026-04-29T11:28:23.788Z</time></trkpt><trkpt lat="43.6196483" lon="13.00649"><ele>224.25</ele><time>2026-04-29T11:28:24.788Z</time></trkpt><trkpt lat="43.6195017" lon="13.006495"><ele>225.0</ele><time>2026-04-29T11:28:25.788Z</time></trkpt><trkpt lat="43.61937" lon="13.006495"><ele>225.0</ele><time>2026-04-29T11:28:26.788Z</time></trkpt><trkpt lat="43.6192467" lon="13.0064883"><ele>225.0</ele><time>2026-04-29T11:28:27.788Z</time></trkpt><trkpt lat="43.61914" lon="13.0064733"><ele>225.0</ele><time>2026-04-29T11:28:28.788Z</time></trkpt><trkpt lat="43.6190417" lon="13.0064333"><ele>225.0</ele><time>2026-04-29T11:28:29.788Z</time></trkpt><trkpt lat="43.6189617" lon="13.00636"><ele>225.0</ele><time>2026-04-29T11:28:30.788Z</time></trkpt><trkpt lat="43.618895" lon="13.0062583"><ele>225.0</ele><time>2026-04-29T11:28:31.788Z</time></trkpt><trkpt lat="43.6188283" lon="13.0061433"><ele>225.0</ele><time>2026-04-29T11:28:32.788Z</time></trkpt><trkpt lat="43.6187517" lon="13.00604"><ele>225.0</ele><time>2026-04-29T11:28:33.788Z</time></trkpt><trkpt lat="43.61866" lon="13.0059467"><ele>225.0</ele><time>2026-04-29T11:28:34.788Z</time></trkpt><trkpt lat="43.61856" lon="13.005855"><ele>225.0</ele><time>2026-04-29T11:28:35.788Z</time></trkpt><trkpt lat="43.618465" lon="13.0057683"><ele>224.2</ele><time>2026-04-29T11:28:36.788Z</time></trkpt><trkpt lat="43.61838" lon="13.005685"><ele>223.4</ele><time>2026-04-29T11:28:37.787Z</time></trkpt><trkpt lat="43.6182983" lon="13.0056033"><ele>222.60000000000002</ele><time>2026-04-29T11:28:38.788Z</time></trkpt><trkpt lat="43.6182167" lon="13.0055233"><ele>221.8</ele><time>2026-04-29T11:28:39.788Z</time></trkpt><trkpt lat="43.61813" lon="13.0054367"><ele>221.0</ele><time>2026-04-29T11:28:40.788Z</time></trkpt><trkpt lat="43.6180467" lon="13.0053517"><ele>221.0</ele><time>2026-04-29T11:28:41.788Z</time></trkpt><trkpt lat="43.6179617" lon="13.0052867"><ele>221.00000000000003</ele><time>2026-04-29T11:28:42.788Z</time></trkpt><trkpt lat="43.6178683" lon="13.0052367"><ele>221.00000000000003</ele><time>2026-04-29T11:28:43.787Z</time></trkpt><trkpt lat="43.6177617" lon="13.0051917"><ele>221.0</ele><time>2026-04-29T11:28:44.788Z</time></trkpt><trkpt lat="43.6176433" lon="13.0051533"><ele>221.0</ele><time>2026-04-29T11:28:45.788Z</time></trkpt><trkpt lat="43.6175133" lon="13.0051283"><ele>219.75</ele><time>2026-04-29T11:28:46.788Z</time></trkpt><trkpt lat="43.6173717" lon="13.0051117"><ele>218.5</ele><time>2026-04-29T11:28:47.788Z</time></trkpt><trkpt lat="43.6172217" lon="13.005095"><ele>217.25</ele><time>2026-04-29T11:28:48.788Z</time></trkpt><trkpt lat="43.617075" lon="13.0050733"><ele>216.0</ele><time>2026-04-29T11:28:49.788Z</time></trkpt><trkpt lat="43.61693" lon="13.0050433"><ele>213.0</ele><time>2026-04-29T11:28:50.787Z</time></trkpt><trkpt lat="43.6167833" lon="13.004995"><ele>210.0</ele><time>2026-04-29T11:28:51.788Z</time></trkpt><trkpt lat="43.6166433" lon="13.004935"><ele>207.0</ele><time>2026-04-29T11:28:52.788Z</time></trkpt><trkpt lat="43.6165" lon="13.004875"><ele>204.0</ele><time>2026-04-29T11:28:53.788Z</time></trkpt><trkpt lat="43.6163583" lon="13.00481"><ele>204.0</ele><time>2026-04-29T11:28:54.788Z</time></trkpt><trkpt lat="43.6162217" lon="13.0047383"><ele>204.0</ele><time>2026-04-29T11:28:55.788Z</time></trkpt><trkpt lat="43.6160817" lon="13.0046583"><ele>204.0</ele><time>2026-04-29T11:28:56.788Z</time></trkpt><trkpt lat="43.6159467" lon="13.00456"><ele>204.33333333333331</ele><time>2026-04-29T11:28:57.788Z</time></trkpt><trkpt lat="43.61581" lon="13.0044517"><ele>204.66666666666666</ele><time>2026-04-29T11:28:58.788Z</time></trkpt><trkpt lat="43.6156717" lon="13.0043483"><ele>205.0</ele><time>2026-04-29T11:28:59.788Z</time></trkpt><trkpt lat="43.61553" lon="13.0042417"><ele>203.33333333333331</ele><time>2026-04-29T11:29:00.788Z</time></trkpt><trkpt lat="43.615385" lon="13.004135"><ele>201.66666666666669</ele><time>2026-04-29T11:29:01.788Z</time></trkpt><trkpt lat="43.6152433" lon="13.0040317"><ele>200.0</ele><time>2026-04-29T11:29:02.788Z</time></trkpt><trkpt lat="43.6150983" lon="13.0039267"><ele>200.0</ele><time>2026-04-29T11:29:03.788Z</time></trkpt><trkpt lat="43.61495" lon="13.0038233"><ele>200.0</ele><time>2026-04-29T11:29:04.788Z</time></trkpt><trkpt lat="43.6148083" lon="13.0037167"><ele>200.0</ele><time>2026-04-29T11:29:05.787Z</time></trkpt><trkpt lat="43.6146633" lon="13.003615"><ele>200.0</ele><time>2026-04-29T11:29:06.788Z</time></trkpt><trkpt lat="43.6145233" lon="13.0035167"><ele>200.0</ele><time>2026-04-29T11:29:07.788Z</time></trkpt><trkpt lat="43.61439" lon="13.0034233"><ele>200.0</ele><time>2026-04-29T11:29:08.788Z</time></trkpt><trkpt lat="43.61427" lon="13.00334"><ele>200.0</ele><time>2026-04-29T11:29:09.787Z</time></trkpt><trkpt lat="43.61416" lon="13.003265"><ele>199.75</ele><time>2026-04-29T11:29:10.788Z</time></trkpt><trkpt lat="43.61406" lon="13.0032017"><ele>199.5</ele><time>2026-04-29T11:29:11.788Z</time></trkpt><trkpt lat="43.6139567" lon="13.003125"><ele>199.25</ele><time>2026-04-29T11:29:12.788Z</time></trkpt><trkpt lat="43.6138467" lon="13.00304"><ele>199.0</ele><time>2026-04-29T11:29:13.788Z</time></trkpt><trkpt lat="43.6137217" lon="13.0029517"><ele>198.0</ele><time>2026-04-29T11:29:14.788Z</time></trkpt><trkpt lat="43.6136033" lon="13.0028633"><ele>197.0</ele><time>2026-04-29T11:29:15.788Z</time></trkpt><trkpt lat="43.613485" lon="13.00277"><ele>196.0</ele><time>2026-04-29T11:29:16.788Z</time></trkpt><trkpt lat="43.613365" lon="13.0026767"><ele>195.0</ele><time>2026-04-29T11:29:17.788Z</time></trkpt><trkpt lat="43.6132483" lon="13.00258"><ele>193.75</ele><time>2026-04-29T11:29:18.788Z</time></trkpt><trkpt lat="43.6131317" lon="13.00248"><ele>192.5</ele><time>2026-04-29T11:29:19.788Z</time></trkpt><trkpt lat="43.61302" lon="13.0023917"><ele>191.25</ele><time>2026-04-29T11:29:20.788Z</time></trkpt><trkpt lat="43.6129133" lon="13.0023067"><ele>190.0</ele><time>2026-04-29T11:29:21.788Z</time></trkpt><trkpt lat="43.61281" lon="13.0022283"><ele>189.6</ele><time>2026-04-29T11:29:22.788Z</time></trkpt><trkpt lat="43.61271" lon="13.0021467"><ele>189.2</ele><time>2026-04-29T11:29:23.788Z</time></trkpt><trkpt lat="43.6126133" lon="13.0020717"><ele>188.8</ele><time>2026-04-29T11:29:24.788Z</time></trkpt><trkpt lat="43.6125133" lon="13.002005"><ele>188.4</ele><time>2026-04-29T11:29:25.788Z</time></trkpt><trkpt lat="43.6124267" lon="13.00194"><ele>188.0</ele><time>2026-04-29T11:29:26.788Z</time></trkpt><trkpt lat="43.6123517" lon="13.00188"><ele>188.0</ele><time>2026-04-29T11:29:27.788Z</time></trkpt><trkpt lat="43.6123" lon="13.0018"><ele>188.0</ele><time>2026-04-29T11:29:28.787Z</time></trkpt><trkpt lat="43.6122717" lon="13.0017083"><ele>188.0</ele><time>2026-04-29T11:29:29.788Z</time></trkpt><trkpt lat="43.6122733" lon="13.0016067"><ele>188.0</ele><time>2026-04-29T11:29:30.788Z</time></trkpt><trkpt lat="43.6122933" lon="13.0015"><ele>188.0</ele><time>2026-04-29T11:29:31.788Z</time></trkpt><trkpt lat="43.6123183" lon="13.001385"><ele>188.0</ele><time>2026-04-29T11:29:32.788Z</time></trkpt><trkpt lat="43.612325" lon="13.001265"><ele>186.60000000000002</ele><time>2026-04-29T11:29:33.788Z</time></trkpt><trkpt lat="43.612315" lon="13.0011383"><ele>185.20000000000002</ele><time>2026-04-29T11:29:34.788Z</time></trkpt><trkpt lat="43.6122817" lon="13.00101"><ele>183.8</ele><time>2026-04-29T11:29:35.787Z</time></trkpt><trkpt lat="43.6122433" lon="13.00088"><ele>182.4</ele><time>2026-04-29T11:29:36.788Z</time></trkpt><trkpt lat="43.6121967" lon="13.0007483"><ele>181.0</ele><time>2026-04-29T11:29:37.788Z</time></trkpt><trkpt lat="43.61215" lon="13.0006167"><ele>180.20000000000002</ele><time>2026-04-29T11:29:38.788Z</time></trkpt><trkpt lat="43.6121033" lon="13.0004817"><ele>179.4</ele><time>2026-04-29T11:29:39.788Z</time></trkpt><trkpt lat="43.6120533" lon="13.0003517"><ele>178.6</ele><time>2026-04-29T11:29:40.788Z</time></trkpt><trkpt lat="43.6120017" lon="13.0002183"><ele>177.8</ele><time>2026-04-29T11:29:41.788Z</time></trkpt><trkpt lat="43.6119483" lon="13.0000767"><ele>177.0</ele><time>2026-04-29T11:29:42.788Z</time></trkpt><trkpt lat="43.6118917" lon="12.9999333"><ele>175.8</ele><time>2026-04-29T11:29:43.788Z</time></trkpt><trkpt lat="43.611845" lon="12.999795"><ele>174.6</ele><time>2026-04-29T11:29:44.787Z</time></trkpt><trkpt lat="43.6118" lon="12.9996683"><ele>173.4</ele><time>2026-04-29T11:29:45.788Z</time></trkpt><trkpt lat="43.611755" lon="12.999535"><ele>172.20000000000002</ele><time>2026-04-29T11:29:46.788Z</time></trkpt><trkpt lat="43.6117133" lon="12.999405"><ele>171.0</ele><time>2026-04-29T11:29:47.788Z</time></trkpt><trkpt lat="43.6116683" lon="12.9992767"><ele>169.20000000000002</ele><time>2026-04-29T11:29:48.788Z</time></trkpt><trkpt lat="43.6116233" lon="12.9991533"><ele>167.4</ele><time>2026-04-29T11:29:49.788Z</time></trkpt><trkpt lat="43.61158" lon="12.999035"><ele>165.6</ele><time>2026-04-29T11:29:50.788Z</time></trkpt><trkpt lat="43.61153" lon="12.9989183"><ele>163.8</ele><time>2026-04-29T11:29:51.788Z</time></trkpt><trkpt lat="43.6114767" lon="12.9988"><ele>162.0</ele><time>2026-04-29T11:29:52.788Z</time></trkpt><trkpt lat="43.6114183" lon="12.998685"><ele>162.0</ele><time>2026-04-29T11:29:53.788Z</time></trkpt><trkpt lat="43.6113567" lon="12.99859"><ele>162.0</ele><time>2026-04-29T11:29:54.788Z</time></trkpt><trkpt lat="43.6112967" lon="12.9985"><ele>162.0</ele><time>2026-04-29T11:29:55.788Z</time></trkpt><trkpt lat="43.61123" lon="12.9984183"><ele>162.0</ele><time>2026-04-29T11:29:56.787Z</time></trkpt><trkpt lat="43.6111767" lon="12.9983367"><ele>162.0</ele><time>2026-04-29T11:29:57.788Z</time></trkpt><trkpt lat="43.6111283" lon="12.99825"><ele>162.0</ele><time>2026-04-29T11:29:58.788Z</time></trkpt><trkpt lat="43.61108" lon="12.9981317"><ele>159.4</ele><time>2026-04-29T11:29:59.787Z</time></trkpt><trkpt lat="43.61104" lon="12.9980117"><ele>156.79999999999998</ele><time>2026-04-29T11:30:00.788Z</time></trkpt><trkpt lat="43.6110083" lon="12.9978933"><ele>154.2</ele><time>2026-04-29T11:30:01.788Z</time></trkpt><trkpt lat="43.6109867" lon="12.99777"><ele>151.6</ele><time>2026-04-29T11:30:02.788Z</time></trkpt><trkpt lat="43.610975" lon="12.9976417"><ele>149.0</ele><time>2026-04-29T11:30:03.788Z</time></trkpt><trkpt lat="43.6109767" lon="12.9975283"><ele>147.83333333333331</ele><time>2026-04-29T11:30:04.787Z</time></trkpt><trkpt lat="43.61097" lon="12.9973967"><ele>146.66666666666666</ele><time>2026-04-29T11:30:05.788Z</time></trkpt><trkpt lat="43.61097" lon="12.997275"><ele>145.5</ele><time>2026-04-29T11:30:06.788Z</time></trkpt><trkpt lat="43.6109667" lon="12.9971533"><ele>144.33333333333334</ele><time>2026-04-29T11:30:07.787Z</time></trkpt><trkpt lat="43.6109533" lon="12.997035"><ele>143.16666666666669</ele><time>2026-04-29T11:30:08.788Z</time></trkpt><trkpt lat="43.6109333" lon="12.9969167"><ele>142.0</ele><time>2026-04-29T11:30:09.788Z</time></trkpt><trkpt lat="43.61091" lon="12.99681"><ele>142.0</ele><time>2026-04-29T11:30:10.788Z</time></trkpt><trkpt lat="43.610875" lon="12.9967233"><ele>142.0</ele><time>2026-04-29T11:30:11.788Z</time></trkpt><trkpt lat="43.610775" lon="12.9966133"><ele>142.0</ele><time>2026-04-29T11:30:13.788Z</time></trkpt><trkpt lat="43.6106917" lon="12.9965733"><ele>142.0</ele><time>2026-04-29T11:30:14.787Z</time></trkpt><trkpt lat="43.6106017" lon="12.99653"><ele>142.0</ele><time>2026-04-29T11:30:15.788Z</time></trkpt><trkpt lat="43.6105033" lon="12.9964767"><ele>143.6</ele><time>2026-04-29T11:30:16.788Z</time></trkpt><trkpt lat="43.6104017" lon="12.9964283"><ele>145.2</ele><time>2026-04-29T11:30:17.788Z</time></trkpt><trkpt lat="43.610295" lon="12.9963817"><ele>146.8</ele><time>2026-04-29T11:30:18.788Z</time></trkpt><trkpt lat="43.610195" lon="12.9963217"><ele>148.4</ele><time>2026-04-29T11:30:19.788Z</time></trkpt><trkpt lat="43.6101017" lon="12.9962633"><ele>150.0</ele><time>2026-04-29T11:30:20.788Z</time></trkpt><trkpt lat="43.61002" lon="12.996195"><ele>150.4</ele><time>2026-04-29T11:30:21.788Z</time></trkpt><trkpt lat="43.6099183" lon="12.9961083"><ele>150.8</ele><time>2026-04-29T11:30:22.788Z</time></trkpt><trkpt lat="43.6098267" lon="12.9960283"><ele>151.2</ele><time>2026-04-29T11:30:23.788Z</time></trkpt><trkpt lat="43.609735" lon="12.9959483"><ele>151.6</ele><time>2026-04-29T11:30:24.788Z</time></trkpt><trkpt lat="43.6096433" lon="12.995875"><ele>152.0</ele><time>2026-04-29T11:30:25.788Z</time></trkpt><trkpt lat="43.6095667" lon="12.995805"><ele>154.0</ele><time>2026-04-29T11:30:26.788Z</time></trkpt><trkpt lat="43.6095033" lon="12.9957267"><ele>156.0</ele><time>2026-04-29T11:30:27.788Z</time></trkpt><trkpt lat="43.6094567" lon="12.995645"><ele>158.0</ele><time>2026-04-29T11:30:28.788Z</time></trkpt><trkpt lat="43.6094183" lon="12.99554"><ele>160.0</ele><time>2026-04-29T11:30:29.788Z</time></trkpt><trkpt lat="43.6093733" lon="12.99542"><ele>162.0</ele><time>2026-04-29T11:30:30.788Z</time></trkpt><trkpt lat="43.6093367" lon="12.9952967"><ele>164.0</ele><time>2026-04-29T11:30:31.788Z</time></trkpt><trkpt lat="43.6093117" lon="12.995165"><ele>164.0</ele><time>2026-04-29T11:30:32.788Z</time></trkpt><trkpt lat="43.6093017" lon="12.9950433"><ele>164.0</ele><time>2026-04-29T11:30:33.788Z</time></trkpt><trkpt lat="43.6092983" lon="12.9949267"><ele>164.0</ele><time>2026-04-29T11:30:34.787Z</time></trkpt><trkpt lat="43.609295" lon="12.9948183"><ele>164.0</ele><time>2026-04-29T11:30:35.787Z</time></trkpt><trkpt lat="43.6092917" lon="12.9947233"><ele>164.0</ele><time>2026-04-29T11:30:36.788Z</time></trkpt><trkpt lat="43.6092833" lon="12.9945783"><ele>164.0</ele><time>2026-04-29T11:30:38.788Z</time></trkpt><trkpt lat="43.6092783" lon="12.9944383"><ele>164.6</ele><time>2026-04-29T11:30:40.788Z</time></trkpt><trkpt lat="43.6092767" lon="12.9942917"><ele>165.2</ele><time>2026-04-29T11:30:42.788Z</time></trkpt><trkpt lat="43.60927" lon="12.9941867"><ele>165.79999999999998</ele><time>2026-04-29T11:30:43.788Z</time></trkpt><trkpt lat="43.609265" lon="12.9940633"><ele>166.39999999999998</ele><time>2026-04-29T11:30:44.788Z</time></trkpt><trkpt lat="43.6092633" lon="12.9939033"><ele>167.0</ele><time>2026-04-29T11:30:45.788Z</time></trkpt><trkpt lat="43.6092683" lon="12.9937267"><ele>167.0</ele><time>2026-04-29T11:30:46.788Z</time></trkpt><trkpt lat="43.60927" lon="12.99353"><ele>167.0</ele><time>2026-04-29T11:30:47.788Z</time></trkpt><trkpt lat="43.6092817" lon="12.993345"><ele>167.0</ele><time>2026-04-29T11:30:48.788Z</time></trkpt><trkpt lat="43.6092783" lon="12.9931617"><ele>167.0</ele><time>2026-04-29T11:30:49.787Z</time></trkpt><trkpt lat="43.6092683" lon="12.9929983"><ele>166.0</ele><time>2026-04-29T11:30:50.788Z</time></trkpt><trkpt lat="43.6092567" lon="12.9928583"><ele>165.0</ele><time>2026-04-29T11:30:51.788Z</time></trkpt><trkpt lat="43.6092267" lon="12.9927517"><ele>164.0</ele><time>2026-04-29T11:30:52.788Z</time></trkpt><trkpt lat="43.6091933" lon="12.9926683"><ele>163.0</ele><time>2026-04-29T11:30:53.787Z</time></trkpt><trkpt lat="43.6091533" lon="12.99255"><ele>162.0</ele><time>2026-04-29T11:30:55.788Z</time></trkpt><trkpt lat="43.6091683" lon="12.9924317"><ele>161.0</ele><time>2026-04-29T11:31:06.787Z</time></trkpt><trkpt lat="43.6092267" lon="12.9923617"><ele>160.75</ele><time>2026-04-29T11:31:08.788Z</time></trkpt><trkpt lat="43.6093517" lon="12.99233"><ele>160.5</ele><time>2026-04-29T11:31:10.788Z</time></trkpt><trkpt lat="43.6094417" lon="12.9923533"><ele>160.25</ele><time>2026-04-29T11:31:11.788Z</time></trkpt><trkpt lat="43.6095483" lon="12.99241"><ele>160.0</ele><time>2026-04-29T11:31:12.788Z</time></trkpt><trkpt lat="43.6096767" lon="12.9924967"><ele>164.66666666666669</ele><time>2026-04-29T11:31:13.788Z</time></trkpt><trkpt lat="43.6098117" lon="12.9925933"><ele>169.33333333333334</ele><time>2026-04-29T11:31:14.788Z</time></trkpt><trkpt lat="43.6099467" lon="12.99269"><ele>174.0</ele><time>2026-04-29T11:31:15.788Z</time></trkpt><trkpt lat="43.6100817" lon="12.9927833"><ele>174.0</ele><time>2026-04-29T11:31:16.788Z</time></trkpt><trkpt lat="43.6102133" lon="12.99288"><ele>174.0</ele><time>2026-04-29T11:31:17.788Z</time></trkpt><trkpt lat="43.6103383" lon="12.9929767"><ele>174.0</ele><time>2026-04-29T11:31:18.788Z</time></trkpt><trkpt lat="43.6104517" lon="12.9930833"><ele>174.0</ele><time>2026-04-29T11:31:19.788Z</time></trkpt><trkpt lat="43.6105583" lon="12.9931917"><ele>177.0</ele><time>2026-04-29T11:31:20.788Z</time></trkpt><trkpt lat="43.61066" lon="12.9933"><ele>180.0</ele><time>2026-04-29T11:31:21.787Z</time></trkpt><trkpt lat="43.610755" lon="12.9934083"><ele>183.0</ele><time>2026-04-29T11:31:22.788Z</time></trkpt><trkpt lat="43.610845" lon="12.9935133"><ele>186.0</ele><time>2026-04-29T11:31:23.788Z</time></trkpt><trkpt lat="43.6109233" lon="12.9936167"><ele>186.8</ele><time>2026-04-29T11:31:24.788Z</time></trkpt><trkpt lat="43.6109967" lon="12.9937133"><ele>187.60000000000002</ele><time>2026-04-29T11:31:25.787Z</time></trkpt><trkpt lat="43.6110667" lon="12.9938083"><ele>188.4</ele><time>2026-04-29T11:31:26.788Z</time></trkpt><trkpt lat="43.6111317" lon="12.9938933"><ele>189.2</ele><time>2026-04-29T11:31:27.788Z</time></trkpt><trkpt lat="43.6111917" lon="12.9939783"><ele>190.0</ele><time>2026-04-29T11:31:28.788Z</time></trkpt><trkpt lat="43.611245" lon="12.9940583"><ele>189.83333333333334</ele><time>2026-04-29T11:31:29.788Z</time></trkpt><trkpt lat="43.6112967" lon="12.9941483"><ele>189.66666666666669</ele><time>2026-04-29T11:31:30.788Z</time></trkpt><trkpt lat="43.6113467" lon="12.9942433"><ele>189.5</ele><time>2026-04-29T11:31:31.788Z</time></trkpt><trkpt lat="43.6113883" lon="12.9943417"><ele>189.33333333333334</ele><time>2026-04-29T11:31:32.788Z</time></trkpt><trkpt lat="43.6114317" lon="12.9944283"><ele>189.16666666666666</ele><time>2026-04-29T11:31:33.788Z</time></trkpt><trkpt lat="43.611475" lon="12.9945133"><ele>189.0</ele><time>2026-04-29T11:31:34.788Z</time></trkpt><trkpt lat="43.6115317" lon="12.9945817"><ele>189.0</ele><time>2026-04-29T11:31:35.788Z</time></trkpt><trkpt lat="43.6115867" lon="12.9946283"><ele>189.0</ele><time>2026-04-29T11:31:36.788Z</time></trkpt><trkpt lat="43.6116483" lon="12.9946617"><ele>189.0</ele><time>2026-04-29T11:31:37.788Z</time></trkpt><trkpt lat="43.6117117" lon="12.99468"><ele>189.0</ele><time>2026-04-29T11:31:38.788Z</time></trkpt><trkpt lat="43.6117767" lon="12.9946683"><ele>189.0</ele><time>2026-04-29T11:31:39.787Z</time></trkpt><trkpt lat="43.6118533" lon="12.9946383"><ele>189.0</ele><time>2026-04-29T11:31:40.788Z</time></trkpt><trkpt lat="43.6119433" lon="12.9945917"><ele>189.0</ele><time>2026-04-29T11:31:41.787Z</time></trkpt><trkpt lat="43.6120533" lon="12.99454"><ele>190.0</ele><time>2026-04-29T11:31:42.788Z</time></trkpt><trkpt lat="43.6121767" lon="12.9944983"><ele>191.0</ele><time>2026-04-29T11:31:43.788Z</time></trkpt><trkpt lat="43.6123017" lon="12.9944617"><ele>192.0</ele><time>2026-04-29T11:31:44.788Z</time></trkpt><trkpt lat="43.6124367" lon="12.994465"><ele>193.0</ele><time>2026-04-29T11:31:45.788Z</time></trkpt><trkpt lat="43.6125817" lon="12.9944933"><ele>193.0</ele><time>2026-04-29T11:31:46.788Z</time></trkpt><trkpt lat="43.6127317" lon="12.99453"><ele>193.0</ele><time>2026-04-29T11:31:47.788Z</time></trkpt><trkpt lat="43.6128683" lon="12.9945783"><ele>193.0</ele><time>2026-04-29T11:31:48.788Z</time></trkpt><trkpt lat="43.6129933" lon="12.9946467"><ele>193.0</ele><time>2026-04-29T11:31:49.787Z</time></trkpt><trkpt lat="43.6131167" lon="12.994725"><ele>191.75</ele><time>2026-04-29T11:31:50.788Z</time></trkpt><trkpt lat="43.613225" lon="12.994815"><ele>190.5</ele><time>2026-04-29T11:31:51.787Z</time></trkpt><trkpt lat="43.6133317" lon="12.9949217"><ele>189.25</ele><time>2026-04-29T11:31:52.788Z</time></trkpt><trkpt lat="43.6134367" lon="12.9950267"><ele>188.0</ele><time>2026-04-29T11:31:53.788Z</time></trkpt><trkpt lat="43.6135467" lon="12.9951117"><ele>190.5</ele><time>2026-04-29T11:31:54.788Z</time></trkpt><trkpt lat="43.6136583" lon="12.9951717"><ele>193.0</ele><time>2026-04-29T11:31:55.787Z</time></trkpt><trkpt lat="43.61377" lon="12.9952033"><ele>195.5</ele><time>2026-04-29T11:31:56.788Z</time></trkpt><trkpt lat="43.6138817" lon="12.9952167"><ele>198.0</ele><time>2026-04-29T11:31:57.788Z</time></trkpt><trkpt lat="43.6139933" lon="12.9952083"><ele>198.0</ele><time>2026-04-29T11:31:58.787Z</time></trkpt><trkpt lat="43.614115" lon="12.9951817"><ele>198.0</ele><time>2026-04-29T11:31:59.788Z</time></trkpt><trkpt lat="43.6142417" lon="12.9951533"><ele>198.0</ele><time>2026-04-29T11:32:00.788Z</time></trkpt><trkpt lat="43.6143683" lon="12.995125"><ele>198.0</ele><time>2026-04-29T11:32:01.787Z</time></trkpt><trkpt lat="43.6145033" lon="12.9951033"><ele>199.25</ele><time>2026-04-29T11:32:02.788Z</time></trkpt><trkpt lat="43.6146383" lon="12.995095"><ele>200.5</ele><time>2026-04-29T11:32:03.788Z</time></trkpt><trkpt lat="43.6147867" lon="12.9951033"><ele>201.75</ele><time>2026-04-29T11:32:04.788Z</time></trkpt><trkpt lat="43.61494" lon="12.9951217"><ele>203.0</ele><time>2026-04-29T11:32:05.787Z</time></trkpt><trkpt lat="43.61511" lon="12.9951467"><ele>203.0</ele><time>2026-04-29T11:32:06.787Z</time></trkpt><trkpt lat="43.615275" lon="12.995175"><ele>203.0</ele><time>2026-04-29T11:32:07.788Z</time></trkpt><trkpt lat="43.615435" lon="12.995205"><ele>203.0</ele><time>2026-04-29T11:32:08.787Z</time></trkpt><trkpt lat="43.6155883" lon="12.9952417"><ele>204.5</ele><time>2026-04-29T11:32:09.788Z</time></trkpt><trkpt lat="43.615735" lon="12.9952817"><ele>206.0</ele><time>2026-04-29T11:32:10.788Z</time></trkpt><trkpt lat="43.615875" lon="12.9953317"><ele>207.5</ele><time>2026-04-29T11:32:11.788Z</time></trkpt><trkpt lat="43.6159983" lon="12.995375"><ele>209.0</ele><time>2026-04-29T11:32:12.788Z</time></trkpt><trkpt lat="43.616115" lon="12.99543"><ele>210.2</ele><time>2026-04-29T11:32:13.787Z</time></trkpt><trkpt lat="43.616215" lon="12.9955017"><ele>211.39999999999998</ele><time>2026-04-29T11:32:14.788Z</time></trkpt><trkpt lat="43.6163083" lon="12.9955717"><ele>212.6</ele><time>2026-04-29T11:32:15.788Z</time></trkpt><trkpt lat="43.61639" lon="12.9956367"><ele>213.8</ele><time>2026-04-29T11:32:16.788Z</time></trkpt><trkpt lat="43.6164633" lon="12.9956883"><ele>215.0</ele><time>2026-04-29T11:32:17.788Z</time></trkpt><trkpt lat="43.61653" lon="12.9957467"><ele>215.00000000000003</ele><time>2026-04-29T11:32:18.788Z</time></trkpt><trkpt lat="43.6165833" lon="12.9958283"><ele>215.0</ele><time>2026-04-29T11:32:19.787Z</time></trkpt><trkpt lat="43.6166333" lon="12.99593"><ele>215.0</ele><time>2026-04-29T11:32:20.788Z</time></trkpt><trkpt lat="43.616685" lon="12.9960283"><ele>215.0</ele><time>2026-04-29T11:32:21.787Z</time></trkpt><trkpt lat="43.6167433" lon="12.9961283"><ele>215.00000000000003</ele><time>2026-04-29T11:32:22.788Z</time></trkpt><trkpt lat="43.6168033" lon="12.99622"><ele>215.0</ele><time>2026-04-29T11:32:23.788Z</time></trkpt><trkpt lat="43.6168633" lon="12.996305"><ele>214.6</ele><time>2026-04-29T11:32:24.787Z</time></trkpt><trkpt lat="43.6169233" lon="12.9963917"><ele>214.2</ele><time>2026-04-29T11:32:25.787Z</time></trkpt><trkpt lat="43.6169967" lon="12.996485"><ele>213.8</ele><time>2026-04-29T11:32:26.788Z</time></trkpt><trkpt lat="43.61708" lon="12.9965833"><ele>213.4</ele><time>2026-04-29T11:32:27.787Z</time></trkpt><trkpt lat="43.617175" lon="12.9966833"><ele>213.0</ele><time>2026-04-29T11:32:28.788Z</time></trkpt><trkpt lat="43.6172733" lon="12.99678"><ele>211.0</ele><time>2026-04-29T11:32:29.788Z</time></trkpt><trkpt lat="43.6173817" lon="12.9968683"><ele>209.0</ele><time>2026-04-29T11:32:30.788Z</time></trkpt><trkpt lat="43.6174983" lon="12.9969567"><ele>207.0</ele><time>2026-04-29T11:32:31.788Z</time></trkpt><trkpt lat="43.61762" lon="12.9970383"><ele>205.0</ele><time>2026-04-29T11:32:32.788Z</time></trkpt><trkpt lat="43.617745" lon="12.9971083"><ele>206.75</ele><time>2026-04-29T11:32:33.787Z</time></trkpt><trkpt lat="43.6178717" lon="12.9971717"><ele>208.5</ele><time>2026-04-29T11:32:34.788Z</time></trkpt><trkpt lat="43.6179917" lon="12.99721"><ele>210.25</ele><time>2026-04-29T11:32:35.787Z</time></trkpt><trkpt lat="43.6181183" lon="12.997235"><ele>212.0</ele><time>2026-04-29T11:32:36.788Z</time></trkpt><trkpt lat="43.618245" lon="12.9972717"><ele>212.0</ele><time>2026-04-29T11:32:37.788Z</time></trkpt><trkpt lat="43.61837" lon="12.9973217"><ele>212.0</ele><time>2026-04-29T11:32:38.788Z</time></trkpt><trkpt lat="43.6184933" lon="12.99738"><ele>212.0</ele><time>2026-04-29T11:32:39.788Z</time></trkpt><trkpt lat="43.6186133" lon="12.9974433"><ele>212.0</ele><time>2026-04-29T11:32:40.788Z</time></trkpt><trkpt lat="43.6187433" lon="12.9975117"><ele>212.25</ele><time>2026-04-29T11:32:41.788Z</time></trkpt><trkpt lat="43.618875" lon="12.9975817"><ele>212.5</ele><time>2026-04-29T11:32:42.788Z</time></trkpt><trkpt lat="43.6190033" lon="12.99766"><ele>212.75</ele><time>2026-04-29T11:32:43.788Z</time></trkpt><trkpt lat="43.619125" lon="12.997745"><ele>213.0</ele><time>2026-04-29T11:32:44.788Z</time></trkpt><trkpt lat="43.61924" lon="12.9978417"><ele>213.0</ele><time>2026-04-29T11:32:45.787Z</time></trkpt><trkpt lat="43.61935" lon="12.9979533"><ele>213.0</ele><time>2026-04-29T11:32:46.788Z</time></trkpt><trkpt lat="43.6194517" lon="12.99808"><ele>213.0</ele><time>2026-04-29T11:32:47.788Z</time></trkpt><trkpt lat="43.6195417" lon="12.9982183"><ele>213.0</ele><time>2026-04-29T11:32:48.788Z</time></trkpt><trkpt lat="43.6196217" lon="12.99837"><ele>215.0</ele><time>2026-04-29T11:32:49.788Z</time></trkpt><trkpt lat="43.6197" lon="12.9985233"><ele>217.0</ele><time>2026-04-29T11:32:50.788Z</time></trkpt><trkpt lat="43.6197717" lon="12.998675"><ele>219.0</ele><time>2026-04-29T11:32:51.788Z</time></trkpt><trkpt lat="43.6198433" lon="12.9988267"><ele>221.0</ele><time>2026-04-29T11:32:52.788Z</time></trkpt><trkpt lat="43.6199133" lon="12.9989733"><ele>221.0</ele><time>2026-04-29T11:32:53.788Z</time></trkpt><trkpt lat="43.619985" lon="12.9991183"><ele>221.0</ele><time>2026-04-29T11:32:54.787Z</time></trkpt><trkpt lat="43.6200517" lon="12.9992617"><ele>221.0</ele><time>2026-04-29T11:32:55.788Z</time></trkpt><trkpt lat="43.62012" lon="12.99939"><ele>221.0</ele><time>2026-04-29T11:32:56.788Z</time></trkpt><trkpt lat="43.6202" lon="12.999485"><ele>221.0</ele><time>2026-04-29T11:32:57.787Z</time></trkpt><trkpt lat="43.6202983" lon="12.99956"><ele>221.0</ele><time>2026-04-29T11:32:58.788Z</time></trkpt><trkpt lat="43.6204083" lon="12.9996117"><ele>221.0</ele><time>2026-04-29T11:32:59.788Z</time></trkpt><trkpt lat="43.6205233" lon="12.9996467"><ele>221.0</ele><time>2026-04-29T11:33:00.788Z</time></trkpt><trkpt lat="43.6206517" lon="12.99968"><ele>224.0</ele><time>2026-04-29T11:33:01.788Z</time></trkpt><trkpt lat="43.620785" lon="12.9997183"><ele>227.0</ele><time>2026-04-29T11:33:02.787Z</time></trkpt><trkpt lat="43.62092" lon="12.9997767"><ele>230.0</ele><time>2026-04-29T11:33:03.788Z</time></trkpt><trkpt lat="43.62105" lon="12.999855"><ele>233.0</ele><time>2026-04-29T11:33:04.788Z</time></trkpt><trkpt lat="43.6211717" lon="12.9999567"><ele>234.25</ele><time>2026-04-29T11:33:05.787Z</time></trkpt><trkpt lat="43.6212883" lon="13.00007"><ele>235.5</ele><time>2026-04-29T11:33:06.788Z</time></trkpt><trkpt lat="43.6213867" lon="13.00019"><ele>236.75</ele><time>2026-04-29T11:33:07.788Z</time></trkpt><trkpt lat="43.621485" lon="13.000325"><ele>238.0</ele><time>2026-04-29T11:33:08.788Z</time></trkpt><trkpt lat="43.6215767" lon="13.0004767"><ele>238.0</ele><time>2026-04-29T11:33:09.788Z</time></trkpt><trkpt lat="43.62167" lon="13.00064"><ele>238.0</ele><time>2026-04-29T11:33:10.788Z</time></trkpt><trkpt lat="43.621755" lon="13.0008383"><ele>238.0</ele><time>2026-04-29T11:33:11.788Z</time></trkpt><trkpt lat="43.6218433" lon="13.0010633"><ele>238.66666666666666</ele><time>2026-04-29T11:33:12.788Z</time></trkpt><trkpt lat="43.621935" lon="13.001315"><ele>239.33333333333331</ele><time>2026-04-29T11:33:13.788Z</time></trkpt><trkpt lat="43.6220283" lon="13.0015867"><ele>240.0</ele><time>2026-04-29T11:33:14.787Z</time></trkpt><trkpt lat="43.6221233" lon="13.0018683"><ele>240.0</ele><time>2026-04-29T11:33:15.787Z</time></trkpt><trkpt lat="43.622225" lon="13.0021483"><ele>240.0</ele><time>2026-04-29T11:33:16.787Z</time></trkpt><trkpt lat="43.622335" lon="13.00241"><ele>240.0</ele><time>2026-04-29T11:33:17.787Z</time></trkpt><trkpt lat="43.6224467" lon="13.0026417"><ele>239.66666666666669</ele><time>2026-04-29T11:33:18.787Z</time></trkpt><trkpt lat="43.6225767" lon="13.0028733"><ele>239.33333333333334</ele><time>2026-04-29T11:33:19.787Z</time></trkpt><trkpt lat="43.6227067" lon="13.0031"><ele>239.0</ele><time>2026-04-29T11:33:20.786Z</time></trkpt><trkpt lat="43.6228217" lon="13.0033217"><ele>242.0</ele><time>2026-04-29T11:33:21.787Z</time></trkpt><trkpt lat="43.6229267" lon="13.0035317"><ele>245.0</ele><time>2026-04-29T11:33:22.787Z</time></trkpt><trkpt lat="43.623015" lon="13.0037333"><ele>248.0</ele><time>2026-04-29T11:33:23.787Z</time></trkpt><trkpt lat="43.6230917" lon="13.0039267"><ele>248.0</ele><time>2026-04-29T11:33:24.787Z</time></trkpt><trkpt lat="43.6231583" lon="13.0041233"><ele>248.0</ele><time>2026-04-29T11:33:25.786Z</time></trkpt><trkpt lat="43.6232167" lon="13.00432"><ele>248.0</ele><time>2026-04-29T11:33:26.787Z</time></trkpt><trkpt lat="43.62328" lon="13.0045083"><ele>248.0</ele><time>2026-04-29T11:33:27.787Z</time></trkpt><trkpt lat="43.6233417" lon="13.0046917"><ele>248.0</ele><time>2026-04-29T11:33:28.786Z</time></trkpt><trkpt lat="43.623395" lon="13.0048617"><ele>248.0</ele><time>2026-04-29T11:33:29.786Z</time></trkpt><trkpt lat="43.62344" lon="13.0050067"><ele>248.0</ele><time>2026-04-29T11:33:30.787Z</time></trkpt><trkpt lat="43.6234717" lon="13.0051517"><ele>248.0</ele><time>2026-04-29T11:33:31.787Z</time></trkpt><trkpt lat="43.6235" lon="13.0052833"><ele>248.0</ele><time>2026-04-29T11:33:32.787Z</time></trkpt><trkpt lat="43.6235067" lon="13.0054183"><ele>248.0</ele><time>2026-04-29T11:33:33.787Z</time></trkpt><trkpt lat="43.6235033" lon="13.0055283"><ele>248.0</ele><time>2026-04-29T11:33:34.787Z</time></trkpt><trkpt lat="43.6234867" lon="13.0056233"><ele>248.0</ele><time>2026-04-29T11:33:35.787Z</time></trkpt><trkpt lat="43.6234433" lon="13.0057567"><ele>248.00000000000003</ele><time>2026-04-29T11:33:37.787Z</time></trkpt><trkpt lat="43.6235117" lon="13.0058133"><ele>248.0</ele><time>2026-04-29T11:33:40.787Z</time></trkpt><trkpt lat="43.6235733" lon="13.0057933"><ele>248.0</ele><time>2026-04-29T11:33:42.787Z</time></trkpt><trkpt lat="43.62361" lon="13.0059117"><ele>248.0</ele><time>2026-04-29T11:33:45.787Z</time></trkpt><trkpt lat="43.623595" lon="13.0060083"><ele>248.00000000000003</ele><time>2026-04-29T11:33:46.786Z</time></trkpt><trkpt lat="43.6235667" lon="13.0061317"><ele>248.0</ele><time>2026-04-29T11:33:47.787Z</time></trkpt><trkpt lat="43.6235417" lon="13.00629"><ele>246.0</ele><time>2026-04-29T11:33:48.787Z</time></trkpt><trkpt lat="43.6235267" lon="13.00649"><ele>244.0</ele><time>2026-04-29T11:33:49.787Z</time></trkpt><trkpt lat="43.6235183" lon="13.0067217"><ele>242.0</ele><time>2026-04-29T11:33:50.787Z</time></trkpt><trkpt lat="43.6235333" lon="13.006975"><ele>240.66666666666669</ele><time>2026-04-29T11:33:51.787Z</time></trkpt><trkpt lat="43.6235567" lon="13.007255"><ele>239.33333333333331</ele><time>2026-04-29T11:33:52.786Z</time></trkpt><trkpt lat="43.6235733" lon="13.0075617"><ele>238.0</ele><time>2026-04-29T11:33:53.787Z</time></trkpt><trkpt lat="43.62358" lon="13.0078633"><ele>237.33333333333331</ele><time>2026-04-29T11:33:54.787Z</time></trkpt><trkpt lat="43.6235933" lon="13.0081483"><ele>236.66666666666669</ele><time>2026-04-29T11:33:55.787Z</time></trkpt><trkpt lat="43.6236317" lon="13.0084367"><ele>236.0</ele><time>2026-04-29T11:33:56.787Z</time></trkpt><trkpt lat="43.6236883" lon="13.00873"><ele>227.0</ele><time>2026-04-29T11:33:57.787Z</time></trkpt><trkpt lat="43.6237633" lon="13.0090267"><ele>218.0</ele><time>2026-04-29T11:33:58.786Z</time></trkpt><trkpt lat="43.6238467" lon="13.009315"><ele>218.0</ele><time>2026-04-29T11:33:59.787Z</time></trkpt><trkpt lat="43.6239167" lon="13.009585"><ele>218.0</ele><time>2026-04-29T11:34:00.787Z</time></trkpt><trkpt lat="43.6239717" lon="13.009865"><ele>218.0</ele><time>2026-04-29T11:34:01.787Z</time></trkpt><trkpt lat="43.62402" lon="13.0101583"><ele>217.5</ele><time>2026-04-29T11:34:02.787Z</time></trkpt><trkpt lat="43.6240633" lon="13.01047"><ele>217.0</ele><time>2026-04-29T11:34:03.787Z</time></trkpt><trkpt lat="43.62411" lon="13.0107917"><ele>217.0</ele><time>2026-04-29T11:34:04.787Z</time></trkpt><trkpt lat="43.6241483" lon="13.0111117"><ele>217.0</ele><time>2026-04-29T11:34:05.787Z</time></trkpt><trkpt lat="43.6241867" lon="13.0114333"><ele>216.33333333333331</ele><time>2026-04-29T11:34:06.787Z</time></trkpt><trkpt lat="43.6242233" lon="13.0117417"><ele>215.66666666666669</ele><time>2026-04-29T11:34:07.787Z</time></trkpt><trkpt lat="43.6242617" lon="13.0120383"><ele>215.0</ele><time>2026-04-29T11:34:08.787Z</time></trkpt><trkpt lat="43.6243033" lon="13.0123217"><ele>214.33333333333334</ele><time>2026-04-29T11:34:09.787Z</time></trkpt><trkpt lat="43.62435" lon="13.0125883"><ele>213.66666666666669</ele><time>2026-04-29T11:34:10.787Z</time></trkpt><trkpt lat="43.6244" lon="13.0128367"><ele>213.0</ele><time>2026-04-29T11:34:11.786Z</time></trkpt><trkpt lat="43.624445" lon="13.01308"><ele>210.0</ele><time>2026-04-29T11:34:12.787Z</time></trkpt><trkpt lat="43.624485" lon="13.0133067"><ele>207.0</ele><time>2026-04-29T11:34:13.787Z</time></trkpt><trkpt lat="43.6244983" lon="13.01354"><ele>204.0</ele><time>2026-04-29T11:34:14.787Z</time></trkpt><trkpt lat="43.6244933" lon="13.013765"><ele>205.0</ele><time>2026-04-29T11:34:15.787Z</time></trkpt><trkpt lat="43.62447" lon="13.0139883"><ele>206.0</ele><time>2026-04-29T11:34:16.787Z</time></trkpt><trkpt lat="43.62444" lon="13.0141883"><ele>207.0</ele><time>2026-04-29T11:34:17.787Z</time></trkpt><trkpt lat="43.624415" lon="13.0143633"><ele>208.0</ele><time>2026-04-29T11:34:18.787Z</time></trkpt><trkpt lat="43.624385" lon="13.01451"><ele>207.99999999999997</ele><time>2026-04-29T11:34:19.787Z</time></trkpt><trkpt lat="43.624355" lon="13.0146233"><ele>208.0</ele><time>2026-04-29T11:34:20.787Z</time></trkpt><trkpt lat="43.6243233" lon="13.0147083"><ele>208.0</ele><time>2026-04-29T11:34:21.787Z</time></trkpt><trkpt lat="43.6242983" lon="13.0148133"><ele>208.0</ele><time>2026-04-29T11:34:23.787Z</time></trkpt><trkpt lat="43.6243567" lon="13.0147533"><ele>207.99999999999997</ele><time>2026-04-29T11:36:12.787Z</time></trkpt><trkpt lat="43.6243733" lon="13.0146033"><ele>208.0</ele><time>2026-04-29T11:36:15.786Z</time></trkpt><trkpt lat="43.6243983" lon="13.01452"><ele>207.99999999999997</ele><time>2026-04-29T11:36:16.787Z</time></trkpt><trkpt lat="43.6244233" lon="13.0144183"><ele>208.0</ele><time>2026-04-29T11:36:17.787Z</time></trkpt><trkpt lat="43.6244383" lon="13.01431"><ele>208.0</ele><time>2026-04-29T11:36:18.787Z</time></trkpt><trkpt lat="43.624455" lon="13.0141883"><ele>208.0</ele><time>2026-04-29T11:36:19.787Z</time></trkpt><trkpt lat="43.62447" lon="13.014055"><ele>207.99999999999997</ele><time>2026-04-29T11:36:20.786Z</time></trkpt><trkpt lat="43.6244867" lon="13.013915"><ele>208.0</ele><time>2026-04-29T11:36:21.787Z</time></trkpt><trkpt lat="43.624505" lon="13.0137617"><ele>207.0</ele><time>2026-04-29T11:36:22.787Z</time></trkpt><trkpt lat="43.6245217" lon="13.0136133"><ele>206.0</ele><time>2026-04-29T11:36:23.787Z</time></trkpt><trkpt lat="43.624525" lon="13.0134633"><ele>205.0</ele><time>2026-04-29T11:36:24.787Z</time></trkpt><trkpt lat="43.6245133" lon="13.0133017"><ele>204.0</ele><time>2026-04-29T11:36:25.786Z</time></trkpt><trkpt lat="43.6244833" lon="13.0131417"><ele>206.25</ele><time>2026-04-29T11:36:26.787Z</time></trkpt><trkpt lat="43.62445" lon="13.0129817"><ele>208.5</ele><time>2026-04-29T11:36:27.787Z</time></trkpt><trkpt lat="43.624415" lon="13.0128067"><ele>210.75</ele><time>2026-04-29T11:36:28.787Z</time></trkpt><trkpt lat="43.6243783" lon="13.0126133"><ele>213.0</ele><time>2026-04-29T11:36:29.787Z</time></trkpt><trkpt lat="43.6243467" lon="13.012415"><ele>213.66666666666669</ele><time>2026-04-29T11:36:30.787Z</time></trkpt><trkpt lat="43.624315" lon="13.01221"><ele>214.33333333333334</ele><time>2026-04-29T11:36:31.787Z</time></trkpt><trkpt lat="43.6242817" lon="13.0119983"><ele>215.0</ele><time>2026-04-29T11:36:32.786Z</time></trkpt><trkpt lat="43.6242517" lon="13.011785"><ele>215.66666666666669</ele><time>2026-04-29T11:36:33.786Z</time></trkpt><trkpt lat="43.6242183" lon="13.01157"><ele>216.33333333333331</ele><time>2026-04-29T11:36:34.787Z</time></trkpt><trkpt lat="43.6241867" lon="13.01136"><ele>217.0</ele><time>2026-04-29T11:36:35.787Z</time></trkpt><trkpt lat="43.6241567" lon="13.01115"><ele>217.0</ele><time>2026-04-29T11:36:36.786Z</time></trkpt><trkpt lat="43.6241367" lon="13.0109533"><ele>217.0</ele><time>2026-04-29T11:36:37.787Z</time></trkpt><trkpt lat="43.6241083" lon="13.0107583"><ele>217.0</ele><time>2026-04-29T11:36:38.787Z</time></trkpt><trkpt lat="43.62408" lon="13.01056"><ele>217.0</ele><time>2026-04-29T11:36:39.787Z</time></trkpt><trkpt lat="43.6240533" lon="13.0103567"><ele>217.0</ele><time>2026-04-29T11:36:40.787Z</time></trkpt><trkpt lat="43.6240267" lon="13.010155"><ele>217.0</ele><time>2026-04-29T11:36:41.786Z</time></trkpt><trkpt lat="43.624" lon="13.0099583"><ele>217.0</ele><time>2026-04-29T11:36:42.787Z</time></trkpt><trkpt lat="43.62397" lon="13.009765"><ele>217.0</ele><time>2026-04-29T11:36:43.787Z</time></trkpt><trkpt lat="43.6239317" lon="13.0095833"><ele>217.25</ele><time>2026-04-29T11:36:44.787Z</time></trkpt><trkpt lat="43.6238867" lon="13.009405"><ele>217.5</ele><time>2026-04-29T11:36:45.787Z</time></trkpt><trkpt lat="43.6238383" lon="13.0092233"><ele>217.75</ele><time>2026-04-29T11:36:46.787Z</time></trkpt><trkpt lat="43.6237817" lon="13.0090367"><ele>218.0</ele><time>2026-04-29T11:36:47.786Z</time></trkpt><trkpt lat="43.6237317" lon="13.0088467"><ele>218.0</ele><time>2026-04-29T11:36:48.787Z</time></trkpt><trkpt lat="43.623685" lon="13.0086517"><ele>218.0</ele><time>2026-04-29T11:36:49.787Z</time></trkpt><trkpt lat="43.6236483" lon="13.0084533"><ele>218.0</ele><time>2026-04-29T11:36:50.787Z</time></trkpt><trkpt lat="43.623625" lon="13.008245"><ele>218.0</ele><time>2026-04-29T11:36:51.787Z</time></trkpt><trkpt lat="43.623615" lon="13.0080383"><ele>224.0</ele><time>2026-04-29T11:36:52.786Z</time></trkpt><trkpt lat="43.6236017" lon="13.0078333"><ele>230.0</ele><time>2026-04-29T11:36:53.786Z</time></trkpt><trkpt lat="43.6235967" lon="13.0076233"><ele>236.0</ele><time>2026-04-29T11:36:54.787Z</time></trkpt><trkpt lat="43.62359" lon="13.00741"><ele>236.66666666666669</ele><time>2026-04-29T11:36:55.787Z</time></trkpt><trkpt lat="43.6235733" lon="13.0072"><ele>237.33333333333331</ele><time>2026-04-29T11:36:56.787Z</time></trkpt><trkpt lat="43.6235533" lon="13.0069917"><ele>238.0</ele><time>2026-04-29T11:36:57.786Z</time></trkpt><trkpt lat="43.6235433" lon="13.00679"><ele>239.0</ele><time>2026-04-29T11:36:58.787Z</time></trkpt><trkpt lat="43.62354" lon="13.0065967"><ele>240.0</ele><time>2026-04-29T11:36:59.787Z</time></trkpt><trkpt lat="43.62354" lon="13.00642"><ele>241.0</ele><time>2026-04-29T11:37:00.786Z</time></trkpt><trkpt lat="43.6235533" lon="13.0062633"><ele>242.0</ele><time>2026-04-29T11:37:01.787Z</time></trkpt><trkpt lat="43.6235817" lon="13.00612"><ele>242.00000000000003</ele><time>2026-04-29T11:37:02.787Z</time></trkpt><trkpt lat="43.623615" lon="13.0059983"><ele>242.0</ele><time>2026-04-29T11:37:03.786Z</time></trkpt><trkpt lat="43.6236417" lon="13.0059067"><ele>242.0</ele><time>2026-04-29T11:37:04.787Z</time></trkpt><trkpt lat="43.6236433" lon="13.0057917"><ele>242.0</ele><time>2026-04-29T11:37:06.787Z</time></trkpt><trkpt lat="43.623575" lon="13.0057817"><ele>242.00000000000003</ele><time>2026-04-29T11:37:08.787Z</time></trkpt><trkpt lat="43.623475" lon="13.0058183"><ele>242.0</ele><time>2026-04-29T11:37:10.787Z</time></trkpt><trkpt lat="43.623365" lon="13.0058683"><ele>242.00000000000003</ele><time>2026-04-29T11:37:12.786Z</time></trkpt><trkpt lat="43.6232983" lon="13.0059"><ele>242.0</ele><time>2026-04-29T11:37:13.787Z</time></trkpt><trkpt lat="43.62323" lon="13.0059383"><ele>242.0</ele><time>2026-04-29T11:37:14.787Z</time></trkpt><trkpt lat="43.6231583" lon="13.005985"><ele>242.0</ele><time>2026-04-29T11:37:15.786Z</time></trkpt><trkpt lat="43.6230817" lon="13.0060283"><ele>242.00000000000003</ele><time>2026-04-29T11:37:16.787Z</time></trkpt><trkpt lat="43.6230033" lon="13.0060733"><ele>242.0</ele><time>2026-04-29T11:37:17.787Z</time></trkpt><trkpt lat="43.6229183" lon="13.0061183"><ele>242.0</ele><time>2026-04-29T11:37:18.786Z</time></trkpt><trkpt lat="43.622835" lon="13.0061717"><ele>242.0</ele><time>2026-04-29T11:37:19.786Z</time></trkpt><trkpt lat="43.6227467" lon="13.0062267"><ele>242.0</ele><time>2026-04-29T11:37:20.787Z</time></trkpt><trkpt lat="43.6226533" lon="13.0062783"><ele>242.0</ele><time>2026-04-29T11:37:21.787Z</time></trkpt><trkpt lat="43.6225633" lon="13.0063333"><ele>242.0</ele><time>2026-04-29T11:37:22.787Z</time></trkpt><trkpt lat="43.622475" lon="13.0064"><ele>241.39999999999998</ele><time>2026-04-29T11:37:23.787Z</time></trkpt><trkpt lat="43.6223883" lon="13.0064767"><ele>240.79999999999998</ele><time>2026-04-29T11:37:24.787Z</time></trkpt><trkpt lat="43.6223117" lon="13.0065567"><ele>240.2</ele><time>2026-04-29T11:37:25.787Z</time></trkpt><trkpt lat="43.6222317" lon="13.0066283"><ele>239.6</ele><time>2026-04-29T11:37:26.787Z</time></trkpt><trkpt lat="43.6221433" lon="13.0067067"><ele>239.0</ele><time>2026-04-29T11:37:27.786Z</time></trkpt><trkpt lat="43.6220517" lon="13.0067867"><ele>237.39999999999998</ele><time>2026-04-29T11:37:28.787Z</time></trkpt><trkpt lat="43.62196" lon="13.0068683"><ele>235.79999999999998</ele><time>2026-04-29T11:37:29.786Z</time></trkpt><trkpt lat="43.6218633" lon="13.006935"><ele>234.20000000000002</ele><time>2026-04-29T11:37:30.787Z</time></trkpt><trkpt lat="43.621765" lon="13.0069733"><ele>232.60000000000002</ele><time>2026-04-29T11:37:31.787Z</time></trkpt><trkpt lat="43.621665" lon="13.0069683"><ele>231.0</ele><time>2026-04-29T11:37:32.787Z</time></trkpt><trkpt lat="43.62156" lon="13.00694"><ele>231.0</ele><time>2026-04-29T11:37:33.787Z</time></trkpt><trkpt lat="43.62146" lon="13.0069083"><ele>231.00000000000003</ele><time>2026-04-29T11:37:34.787Z</time></trkpt><trkpt lat="43.6213567" lon="13.00687"><ele>231.00000000000003</ele><time>2026-04-29T11:37:35.787Z</time></trkpt><trkpt lat="43.6212533" lon="13.0068283"><ele>231.0</ele><time>2026-04-29T11:37:36.787Z</time></trkpt><trkpt lat="43.6211533" lon="13.0067817"><ele>231.0</ele><time>2026-04-29T11:37:37.787Z</time></trkpt><trkpt lat="43.62105" lon="13.0067383"><ele>231.4</ele><time>2026-04-29T11:37:38.787Z</time></trkpt><trkpt lat="43.62095" lon="13.0066917"><ele>231.8</ele><time>2026-04-29T11:37:39.786Z</time></trkpt><trkpt lat="43.6208517" lon="13.0066467"><ele>232.20000000000002</ele><time>2026-04-29T11:37:40.787Z</time></trkpt><trkpt lat="43.6207467" lon="13.0066067"><ele>232.60000000000002</ele><time>2026-04-29T11:37:41.786Z</time></trkpt><trkpt lat="43.6206367" lon="13.0065683"><ele>233.0</ele><time>2026-04-29T11:37:42.787Z</time></trkpt><trkpt lat="43.6205267" lon="13.0065417"><ele>231.0</ele><time>2026-04-29T11:37:43.787Z</time></trkpt><trkpt lat="43.62041" lon="13.006515"><ele>229.0</ele><time>2026-04-29T11:37:44.787Z</time></trkpt><trkpt lat="43.62029" lon="13.0064933"><ele>227.0</ele><time>2026-04-29T11:37:45.787Z</time></trkpt><trkpt lat="43.620175" lon="13.0064817"><ele>225.0</ele><time>2026-04-29T11:37:46.787Z</time></trkpt><trkpt lat="43.6200567" lon="13.0064767"><ele>225.0</ele><time>2026-04-29T11:37:47.787Z</time></trkpt><trkpt lat="43.6199383" lon="13.0064783"><ele>225.0</ele><time>2026-04-29T11:37:48.787Z</time></trkpt><trkpt lat="43.619825" lon="13.0064767"><ele>225.0</ele><time>2026-04-29T11:37:49.786Z</time></trkpt><trkpt lat="43.6197183" lon="13.0064767"><ele>225.0</ele><time>2026-04-29T11:37:50.786Z</time></trkpt><trkpt lat="43.6196217" lon="13.0064833"><ele>225.0</ele><time>2026-04-29T11:37:51.787Z</time></trkpt><trkpt lat="43.6195333" lon="13.00649"><ele>225.0</ele><time>2026-04-29T11:37:52.787Z</time></trkpt><trkpt lat="43.6194533" lon="13.0064967"><ele>225.0</ele><time>2026-04-29T11:37:53.787Z</time></trkpt><trkpt lat="43.6193767" lon="13.0064983"><ele>225.0</ele><time>2026-04-29T11:37:54.786Z</time></trkpt><trkpt lat="43.6193133" lon="13.0064983"><ele>225.0</ele><time>2026-04-29T11:37:55.787Z</time></trkpt><trkpt lat="43.6192383" lon="13.0064867"><ele>225.0</ele><time>2026-04-29T11:37:57.787Z</time></trkpt><trkpt lat="43.619175" lon="13.00648"><ele>225.0</ele><time>2026-04-29T11:39:10.786Z</time></trkpt><trkpt lat="43.6190733" lon="13.00645"><ele>225.0</ele><time>2026-04-29T11:39:12.787Z</time></trkpt><trkpt lat="43.619015" lon="13.0064117"><ele>225.0</ele><time>2026-04-29T11:39:13.787Z</time></trkpt><trkpt lat="43.618955" lon="13.0063483"><ele>225.0</ele><time>2026-04-29T11:39:14.787Z</time></trkpt><trkpt lat="43.6189017" lon="13.0062717"><ele>225.0</ele><time>2026-04-29T11:39:15.787Z</time></trkpt><trkpt lat="43.618845" lon="13.006175"><ele>225.0</ele><time>2026-04-29T11:39:16.787Z</time></trkpt><trkpt lat="43.6187783" lon="13.0060767"><ele>225.0</ele><time>2026-04-29T11:39:17.787Z</time></trkpt><trkpt lat="43.6187017" lon="13.005985"><ele>225.6</ele><time>2026-04-29T11:39:18.787Z</time></trkpt><trkpt lat="43.6186117" lon="13.0058983"><ele>226.2</ele><time>2026-04-29T11:39:19.787Z</time></trkpt><trkpt lat="43.6185233" lon="13.00581"><ele>226.8</ele><time>2026-04-29T11:39:20.786Z</time></trkpt><trkpt lat="43.618435" lon="13.0057317"><ele>227.4</ele><time>2026-04-29T11:39:21.787Z</time></trkpt><trkpt lat="43.61835" lon="13.0056467"><ele>228.0</ele><time>2026-04-29T11:39:22.787Z</time></trkpt><trkpt lat="43.6182683" lon="13.0055633"><ele>226.60000000000002</ele><time>2026-04-29T11:39:23.787Z</time></trkpt><trkpt lat="43.618185" lon="13.0054767"><ele>225.20000000000002</ele><time>2026-04-29T11:39:24.786Z</time></trkpt><trkpt lat="43.618105" lon="13.0053917"><ele>223.8</ele><time>2026-04-29T11:39:25.787Z</time></trkpt><trkpt lat="43.6180217" lon="13.00532"><ele>222.4</ele><time>2026-04-29T11:39:26.787Z</time></trkpt><trkpt lat="43.617935" lon="13.00526"><ele>221.0</ele><time>2026-04-29T11:39:27.787Z</time></trkpt><trkpt lat="43.61784" lon="13.0052133"><ele>220.0</ele><time>2026-04-29T11:39:28.786Z</time></trkpt><trkpt lat="43.6177417" lon="13.0051817"><ele>219.00000000000003</ele><time>2026-04-29T11:39:29.786Z</time></trkpt><trkpt lat="43.6176383" lon="13.0051567"><ele>218.00000000000003</ele><time>2026-04-29T11:39:30.786Z</time></trkpt><trkpt lat="43.61753" lon="13.005135"><ele>217.0</ele><time>2026-04-29T11:39:31.786Z</time></trkpt><trkpt lat="43.617415" lon="13.0051183"><ele>216.0</ele><time>2026-04-29T11:39:32.786Z</time></trkpt><trkpt lat="43.6172967" lon="13.0051033"><ele>216.0</ele><time>2026-04-29T11:39:33.785Z</time></trkpt><trkpt lat="43.6171683" lon="13.0050883"><ele>216.0</ele><time>2026-04-29T11:39:34.786Z</time></trkpt><trkpt lat="43.617045" lon="13.0050683"><ele>216.0</ele><time>2026-04-29T11:39:35.786Z</time></trkpt><trkpt lat="43.6169183" lon="13.005035"><ele>216.0</ele><time>2026-04-29T11:39:36.786Z</time></trkpt><trkpt lat="43.6167933" lon="13.0049967"><ele>213.0</ele><time>2026-04-29T11:39:37.786Z</time></trkpt><trkpt lat="43.616665" lon="13.0049483"><ele>210.0</ele><time>2026-04-29T11:39:38.785Z</time></trkpt><trkpt lat="43.6165333" lon="13.00489"><ele>207.0</ele><time>2026-04-29T11:39:39.786Z</time></trkpt><trkpt lat="43.6163983" lon="13.0048317"><ele>204.0</ele><time>2026-04-29T11:39:40.786Z</time></trkpt><trkpt lat="43.6162717" lon="13.004765"><ele>204.25</ele><time>2026-04-29T11:39:41.786Z</time></trkpt><trkpt lat="43.6161433" lon="13.0046917"><ele>204.5</ele><time>2026-04-29T11:39:42.786Z</time></trkpt><trkpt lat="43.61601" lon="13.0046083"><ele>204.75</ele><time>2026-04-29T11:39:43.786Z</time></trkpt><trkpt lat="43.6158817" lon="13.0045183"><ele>205.0</ele><time>2026-04-29T11:39:44.786Z</time></trkpt><trkpt lat="43.6157533" lon="13.0044183"><ele>205.0</ele><time>2026-04-29T11:39:45.786Z</time></trkpt><trkpt lat="43.61562" lon="13.004315"><ele>205.0</ele><time>2026-04-29T11:39:46.786Z</time></trkpt><trkpt lat="43.6154917" lon="13.0042167"><ele>205.0</ele><time>2026-04-29T11:39:47.786Z</time></trkpt><trkpt lat="43.6153617" lon="13.004115"><ele>205.0</ele><time>2026-04-29T11:39:48.786Z</time></trkpt><trkpt lat="43.6152333" lon="13.0040183"><ele>203.75</ele><time>2026-04-29T11:39:49.786Z</time></trkpt><trkpt lat="43.6151033" lon="13.0039217"><ele>202.5</ele><time>2026-04-29T11:39:50.786Z</time></trkpt><trkpt lat="43.614975" lon="13.003825"><ele>201.25</ele><time>2026-04-29T11:39:51.786Z</time></trkpt><trkpt lat="43.6148467" lon="13.0037367"><ele>200.0</ele><time>2026-04-29T11:39:52.785Z</time></trkpt><trkpt lat="43.6147167" lon="13.0036467"><ele>200.0</ele><time>2026-04-29T11:39:53.786Z</time></trkpt><trkpt lat="43.61459" lon="13.0035583"><ele>200.0</ele><time>2026-04-29T11:39:54.786Z</time></trkpt><trkpt lat="43.6144667" lon="13.0034717"><ele>200.0</ele><time>2026-04-29T11:39:55.785Z</time></trkpt><trkpt lat="43.61434" lon="13.003385"><ele>200.0</ele><time>2026-04-29T11:39:56.786Z</time></trkpt><trkpt lat="43.6142217" lon="13.0033033"><ele>199.75</ele><time>2026-04-29T11:39:57.786Z</time></trkpt><trkpt lat="43.6141117" lon="13.00323"><ele>199.5</ele><time>2026-04-29T11:39:58.786Z</time></trkpt><trkpt lat="43.6140083" lon="13.0031617"><ele>199.25</ele><time>2026-04-29T11:39:59.786Z</time></trkpt><trkpt lat="43.6139033" lon="13.0030883"><ele>199.0</ele><time>2026-04-29T11:40:00.786Z</time></trkpt><trkpt lat="43.6138" lon="13.0030067"><ele>199.0</ele><time>2026-04-29T11:40:01.786Z</time></trkpt><trkpt lat="43.6136967" lon="13.0029233"><ele>199.0</ele><time>2026-04-29T11:40:02.786Z</time></trkpt><trkpt lat="43.6135883" lon="13.0028433"><ele>199.0</ele><time>2026-04-29T11:40:03.785Z</time></trkpt><trkpt lat="43.6134792" lon="13.0027593"><ele>199.0</ele><time>2026-04-29T11:40:04.786Z</time></trkpt><trkpt lat="43.6133729" lon="13.0026745"><ele>198.0</ele><time>2026-04-29T11:40:05.785Z</time></trkpt><trkpt lat="43.6132679" lon="13.0025878"><ele>197.0</ele><time>2026-04-29T11:40:06.786Z</time></trkpt><trkpt lat="43.6131633" lon="13.0025026"><ele>196.0</ele><time>2026-04-29T11:40:07.786Z</time></trkpt><trkpt lat="43.6130614" lon="13.0024203"><ele>195.0</ele><time>2026-04-29T11:40:08.786Z</time></trkpt><trkpt lat="43.6129624" lon="13.0023377"><ele>194.0</ele><time>2026-04-29T11:40:09.786Z</time></trkpt><trkpt lat="43.6128662" lon="13.0022589"><ele>193.0</ele><time>2026-04-29T11:40:10.786Z</time></trkpt><trkpt lat="43.6127704" lon="13.0021866"><ele>192.0</ele><time>2026-04-29T11:40:11.785Z</time></trkpt><trkpt lat="43.6126755" lon="13.0021181"><ele>191.0</ele><time>2026-04-29T11:40:12.785Z</time></trkpt><trkpt lat="43.6125843" lon="13.0020501"><ele>190.0</ele><time>2026-04-29T11:40:13.786Z</time></trkpt><trkpt lat="43.6124946" lon="13.0019864"><ele>189.66666666666669</ele><time>2026-04-29T11:40:14.786Z</time></trkpt><trkpt lat="43.6124142" lon="13.0019257"><ele>189.33333333333334</ele><time>2026-04-29T11:40:15.786Z</time></trkpt><trkpt lat="43.6123445" lon="13.0018638"><ele>189.0</ele><time>2026-04-29T11:40:16.786Z</time></trkpt><trkpt lat="43.6122925" lon="13.0017876"><ele>188.66666666666666</ele><time>2026-04-29T11:40:17.786Z</time></trkpt><trkpt lat="43.6122654" lon="13.0016944"><ele>188.33333333333331</ele><time>2026-04-29T11:40:18.786Z</time></trkpt><trkpt lat="43.6122661" lon="13.0015905"><ele>188.0</ele><time>2026-04-29T11:40:19.786Z</time></trkpt><trkpt lat="43.612288" lon="13.00148"><ele>186.60000000000002</ele><time>2026-04-29T11:40:20.786Z</time></trkpt><trkpt lat="43.6123108" lon="13.001364"><ele>185.20000000000002</ele><time>2026-04-29T11:40:21.786Z</time></trkpt><trkpt lat="43.612317" lon="13.0012333"><ele>183.8</ele><time>2026-04-29T11:40:22.786Z</time></trkpt><trkpt lat="43.6123099" lon="13.0010957"><ele>182.4</ele><time>2026-04-29T11:40:23.785Z</time></trkpt><trkpt lat="43.6122799" lon="13.0009607"><ele>181.0</ele><time>2026-04-29T11:40:24.786Z</time></trkpt><trkpt lat="43.6122339" lon="13.0008238"><ele>180.0</ele><time>2026-04-29T11:40:25.786Z</time></trkpt><trkpt lat="43.6121831" lon="13.0006873"><ele>179.0</ele><time>2026-04-29T11:40:26.785Z</time></trkpt><trkpt lat="43.6121277" lon="13.0005473"><ele>178.0</ele><time>2026-04-29T11:40:27.786Z</time></trkpt><trkpt lat="43.6120734" lon="13.0004062"><ele>177.0</ele><time>2026-04-29T11:40:28.786Z</time></trkpt><trkpt lat="43.6120194" lon="13.0002677"><ele>175.5</ele><time>2026-04-29T11:40:29.786Z</time></trkpt><trkpt lat="43.6119612" lon="13.0001238"><ele>174.0</ele><time>2026-04-29T11:40:30.786Z</time></trkpt><trkpt lat="43.6119076" lon="12.9999731"><ele>172.5</ele><time>2026-04-29T11:40:31.786Z</time></trkpt><trkpt lat="43.6118506" lon="12.9998156"><ele>171.0</ele><time>2026-04-29T11:40:32.786Z</time></trkpt><trkpt lat="43.611799" lon="12.9996522"><ele>171.0</ele><time>2026-04-29T11:40:33.786Z</time></trkpt><trkpt lat="43.611745" lon="12.9994899"><ele>171.0</ele><time>2026-04-29T11:40:34.786Z</time></trkpt><trkpt lat="43.6116844" lon="12.9993306"><ele>171.0</ele><time>2026-04-29T11:40:35.786Z</time></trkpt><trkpt lat="43.6116253" lon="12.9991748"><ele>171.0</ele><time>2026-04-29T11:40:36.786Z</time></trkpt><trkpt lat="43.6115723" lon="12.9990165"><ele>168.75</ele><time>2026-04-29T11:40:37.786Z</time></trkpt><trkpt lat="43.6115059" lon="12.9988552"><ele>166.5</ele><time>2026-04-29T11:40:38.785Z</time></trkpt><trkpt lat="43.6114245" lon="12.9987042"><ele>164.25</ele><time>2026-04-29T11:40:39.786Z</time></trkpt><trkpt lat="43.6113354" lon="12.9985603"><ele>162.0</ele><time>2026-04-29T11:40:40.785Z</time></trkpt><trkpt lat="43.6112408" lon="12.9984182"><ele>158.75</ele><time>2026-04-29T11:40:41.785Z</time></trkpt><trkpt lat="43.611149" lon="12.9982698"><ele>155.5</ele><time>2026-04-29T11:40:42.785Z</time></trkpt><trkpt lat="43.6110679" lon="12.9981103"><ele>152.25</ele><time>2026-04-29T11:40:43.786Z</time></trkpt><trkpt lat="43.6110021" lon="12.9979418"><ele>149.0</ele><time>2026-04-29T11:40:44.786Z</time></trkpt><trkpt lat="43.6109642" lon="12.9977519"><ele>149.0</ele><time>2026-04-29T11:40:45.786Z</time></trkpt><trkpt lat="43.6109522" lon="12.9975553"><ele>149.0</ele><time>2026-04-29T11:40:46.786Z</time></trkpt><trkpt lat="43.6109526" lon="12.9973511"><ele>149.0</ele><time>2026-04-29T11:40:47.786Z</time></trkpt><trkpt lat="43.6109514" lon="12.9971617"><ele>149.0</ele><time>2026-04-29T11:40:48.786Z</time></trkpt><trkpt lat="43.6109356" lon="12.9970023"><ele>149.2</ele><time>2026-04-29T11:40:49.786Z</time></trkpt><trkpt lat="43.6109085" lon="12.9968692"><ele>149.4</ele><time>2026-04-29T11:40:50.786Z</time></trkpt><trkpt lat="43.6108629" lon="12.9967531"><ele>149.6</ele><time>2026-04-29T11:40:51.786Z</time></trkpt><trkpt lat="43.6107917" lon="12.9966683"><ele>149.8</ele><time>2026-04-29T11:40:52.786Z</time></trkpt><trkpt lat="43.61071" lon="12.996595"><ele>150.0</ele><time>2026-04-29T11:40:53.786Z</time></trkpt><trkpt lat="43.6106233" lon="12.99654"><ele>150.0</ele><time>2026-04-29T11:40:54.786Z</time></trkpt><trkpt lat="43.6105433" lon="12.99649"><ele>150.0</ele><time>2026-04-29T11:40:55.786Z</time></trkpt><trkpt lat="43.61045" lon="12.996435"><ele>150.0</ele><time>2026-04-29T11:40:56.786Z</time></trkpt><trkpt lat="43.6103533" lon="12.996395"><ele>150.0</ele><time>2026-04-29T11:40:57.786Z</time></trkpt><trkpt lat="43.6102517" lon="12.99635"><ele>150.0</ele><time>2026-04-29T11:40:58.786Z</time></trkpt><trkpt lat="43.6101567" lon="12.9962933"><ele>150.5</ele><time>2026-04-29T11:40:59.786Z</time></trkpt><trkpt lat="43.6100583" lon="12.99623"><ele>151.0</ele><time>2026-04-29T11:41:00.786Z</time></trkpt><trkpt lat="43.609955" lon="12.9961567"><ele>151.5</ele><time>2026-04-29T11:41:01.786Z</time></trkpt><trkpt lat="43.6098583" lon="12.9960767"><ele>152.0</ele><time>2026-04-29T11:41:02.786Z</time></trkpt><trkpt lat="43.6097633" lon="12.9959917"><ele>152.0</ele><time>2026-04-29T11:41:03.785Z</time></trkpt><trkpt lat="43.6096783" lon="12.99591"><ele>152.0</ele><time>2026-04-29T11:41:04.785Z</time></trkpt><trkpt lat="43.6095933" lon="12.995825"><ele>152.0</ele><time>2026-04-29T11:41:05.786Z</time></trkpt><trkpt lat="43.6095183" lon="12.9957367"><ele>152.0</ele><time>2026-04-29T11:41:06.786Z</time></trkpt><trkpt lat="43.6094583" lon="12.9956367"><ele>152.0</ele><time>2026-04-29T11:41:07.785Z</time></trkpt><trkpt lat="43.6093983" lon="12.9955067"><ele>155.0</ele><time>2026-04-29T11:41:08.785Z</time></trkpt><trkpt lat="43.6093467" lon="12.9953633"><ele>158.0</ele><time>2026-04-29T11:41:09.786Z</time></trkpt><trkpt lat="43.609315" lon="12.99521"><ele>161.0</ele><time>2026-04-29T11:41:10.786Z</time></trkpt><trkpt lat="43.6093033" lon="12.995055"><ele>164.0</ele><time>2026-04-29T11:41:11.786Z</time></trkpt><trkpt lat="43.609295" lon="12.9949"><ele>165.0</ele><time>2026-04-29T11:41:12.785Z</time></trkpt><trkpt lat="43.6092867" lon="12.99475"><ele>166.0</ele><time>2026-04-29T11:41:13.786Z</time></trkpt><trkpt lat="43.6092833" lon="12.9946117"><ele>167.0</ele><time>2026-04-29T11:41:14.786Z</time></trkpt><trkpt lat="43.6092717" lon="12.9944717"><ele>168.0</ele><time>2026-04-29T11:41:15.786Z</time></trkpt><trkpt lat="43.60926" lon="12.9943333"><ele>169.0</ele><time>2026-04-29T11:41:16.786Z</time></trkpt><trkpt lat="43.6092517" lon="12.9941983"><ele>168.5</ele><time>2026-04-29T11:41:17.785Z</time></trkpt><trkpt lat="43.609245" lon="12.9940433"><ele>168.0</ele><time>2026-04-29T11:41:18.785Z</time></trkpt><trkpt lat="43.6092483" lon="12.9938933"><ele>167.5</ele><time>2026-04-29T11:41:19.786Z</time></trkpt><trkpt lat="43.6092533" lon="12.99373"><ele>167.0</ele><time>2026-04-29T11:41:20.786Z</time></trkpt><trkpt lat="43.609265" lon="12.99356"><ele>167.0</ele><time>2026-04-29T11:41:21.786Z</time></trkpt><trkpt lat="43.609275" lon="12.9933867"><ele>167.0</ele><time>2026-04-29T11:41:22.786Z</time></trkpt><trkpt lat="43.6092733" lon="12.993205"><ele>167.0</ele><time>2026-04-29T11:41:23.786Z</time></trkpt><trkpt lat="43.6092683" lon="12.9930467"><ele>167.0</ele><time>2026-04-29T11:41:24.786Z</time></trkpt><trkpt lat="43.6092517" lon="12.9929167"><ele>166.0</ele><time>2026-04-29T11:41:25.786Z</time></trkpt><trkpt lat="43.6092233" lon="12.9927983"><ele>165.0</ele><time>2026-04-29T11:41:26.786Z</time></trkpt><trkpt lat="43.609195" lon="12.992695"><ele>164.0</ele><time>2026-04-29T11:41:27.786Z</time></trkpt><trkpt lat="43.609165" lon="12.992615"><ele>163.0</ele><time>2026-04-29T11:41:28.786Z</time></trkpt><trkpt lat="43.6091417" lon="12.9924783"><ele>162.0</ele><time>2026-04-29T11:41:30.786Z</time></trkpt><trkpt lat="43.6091933" lon="12.9923733"><ele>161.0</ele><time>2026-04-29T11:41:32.786Z</time></trkpt><trkpt lat="43.6092883" lon="12.9923317"><ele>160.8</ele><time>2026-04-29T11:41:34.786Z</time></trkpt><trkpt lat="43.6094217" lon="12.9923633"><ele>160.60000000000002</ele><time>2026-04-29T11:41:36.786Z</time></trkpt><trkpt lat="43.6095033" lon="12.9924017"><ele>160.4</ele><time>2026-04-29T11:41:37.786Z</time></trkpt><trkpt lat="43.6095917" lon="12.99245"><ele>160.2</ele><time>2026-04-29T11:41:38.786Z</time></trkpt><trkpt lat="43.609685" lon="12.992515"><ele>160.0</ele><time>2026-04-29T11:41:39.786Z</time></trkpt><trkpt lat="43.6097767" lon="12.9925817"><ele>162.8</ele><time>2026-04-29T11:41:40.786Z</time></trkpt><trkpt lat="43.6098783" lon="12.9926533"><ele>165.6</ele><time>2026-04-29T11:41:41.786Z</time></trkpt><trkpt lat="43.6099717" lon="12.99272"><ele>168.39999999999998</ele><time>2026-04-29T11:41:42.786Z</time></trkpt><trkpt lat="43.6100667" lon="12.9927867"><ele>171.2</ele><time>2026-04-29T11:41:43.786Z</time></trkpt><trkpt lat="43.61016" lon="12.9928533"><ele>174.0</ele><time>2026-04-29T11:41:44.786Z</time></trkpt><trkpt lat="43.610255" lon="12.9929233"><ele>177.0</ele><time>2026-04-29T11:41:45.786Z</time></trkpt><trkpt lat="43.61035" lon="12.993"><ele>180.0</ele><time>2026-04-29T11:41:46.786Z</time></trkpt><trkpt lat="43.610445" lon="12.993085"><ele>183.0</ele><time>2026-04-29T11:41:47.786Z</time></trkpt><trkpt lat="43.6105483" lon="12.993185"><ele>186.0</ele><time>2026-04-29T11:41:48.786Z</time></trkpt><trkpt lat="43.6106483" lon="12.9932867"><ele>187.0</ele><time>2026-04-29T11:41:49.786Z</time></trkpt><trkpt lat="43.6107483" lon="12.9933967"><ele>188.0</ele><time>2026-04-29T11:41:50.785Z</time></trkpt><trkpt lat="43.610845" lon="12.99352"><ele>189.0</ele><time>2026-04-29T11:41:51.786Z</time></trkpt><trkpt lat="43.6109367" lon="12.993645"><ele>190.0</ele><time>2026-04-29T11:41:52.786Z</time></trkpt><trkpt lat="43.6110267" lon="12.9937717"><ele>190.0</ele><time>2026-04-29T11:41:53.786Z</time></trkpt><trkpt lat="43.611115" lon="12.9938983"><ele>190.0</ele><time>2026-04-29T11:41:54.786Z</time></trkpt><trkpt lat="43.6112" lon="12.99402"><ele>190.0</ele><time>2026-04-29T11:41:55.786Z</time></trkpt><trkpt lat="43.6112783" lon="12.994145"><ele>190.0</ele><time>2026-04-29T11:41:56.786Z</time></trkpt><trkpt lat="43.6113433" lon="12.9942633"><ele>189.83333333333334</ele><time>2026-04-29T11:41:57.785Z</time></trkpt><trkpt lat="43.6114" lon="12.9943767"><ele>189.66666666666669</ele><time>2026-04-29T11:41:58.786Z</time></trkpt><trkpt lat="43.611455" lon="12.9944767"><ele>189.5</ele><time>2026-04-29T11:41:59.786Z</time></trkpt><trkpt lat="43.6115083" lon="12.9945567"><ele>189.33333333333334</ele><time>2026-04-29T11:42:00.786Z</time></trkpt><trkpt lat="43.6115633" lon="12.99461"><ele>189.16666666666666</ele><time>2026-04-29T11:42:01.786Z</time></trkpt><trkpt lat="43.6116367" lon="12.994655"><ele>189.0</ele><time>2026-04-29T11:42:02.786Z</time></trkpt><trkpt lat="43.611705" lon="12.9946767"><ele>189.0</ele><time>2026-04-29T11:42:03.786Z</time></trkpt><trkpt lat="43.61178" lon="12.99467"><ele>189.0</ele><time>2026-04-29T11:42:04.786Z</time></trkpt><trkpt lat="43.611855" lon="12.9946433"><ele>189.0</ele><time>2026-04-29T11:42:05.785Z</time></trkpt><trkpt lat="43.6119233" lon="12.9946133"><ele>189.0</ele><time>2026-04-29T11:42:06.786Z</time></trkpt><trkpt lat="43.611995" lon="12.9945783"><ele>189.0</ele><time>2026-04-29T11:42:07.786Z</time></trkpt><trkpt lat="43.61207" lon="12.9945467"><ele>189.0</ele><time>2026-04-29T11:42:08.786Z</time></trkpt><trkpt lat="43.6121517" lon="12.9945117"><ele>189.66666666666666</ele><time>2026-04-29T11:42:09.786Z</time></trkpt><trkpt lat="43.61223" lon="12.9944833"><ele>190.33333333333331</ele><time>2026-04-29T11:42:10.786Z</time></trkpt><trkpt lat="43.61231" lon="12.99446"><ele>191.0</ele><time>2026-04-29T11:42:11.786Z</time></trkpt><trkpt lat="43.6123967" lon="12.9944567"><ele>191.66666666666666</ele><time>2026-04-29T11:42:12.786Z</time></trkpt><trkpt lat="43.6124917" lon="12.9944717"><ele>192.33333333333331</ele><time>2026-04-29T11:42:13.786Z</time></trkpt><trkpt lat="43.612595" lon="12.9944917"><ele>193.0</ele><time>2026-04-29T11:42:14.786Z</time></trkpt><trkpt lat="43.6127017" lon="12.9945217"><ele>193.0</ele><time>2026-04-29T11:42:15.785Z</time></trkpt><trkpt lat="43.61281" lon="12.9945633"><ele>193.0</ele><time>2026-04-29T11:42:16.786Z</time></trkpt><trkpt lat="43.6129217" lon="12.9946167"><ele>193.0</ele><time>2026-04-29T11:42:17.786Z</time></trkpt><trkpt lat="43.613035" lon="12.99468"><ele>193.0</ele><time>2026-04-29T11:42:18.786Z</time></trkpt><trkpt lat="43.6131383" lon="12.9947433"><ele>191.75</ele><time>2026-04-29T11:42:19.786Z</time></trkpt><trkpt lat="43.61324" lon="12.99483"><ele>190.5</ele><time>2026-04-29T11:42:20.786Z</time></trkpt><trkpt lat="43.6133317" lon="12.9949217"><ele>189.25</ele><time>2026-04-29T11:42:21.786Z</time></trkpt><trkpt lat="43.61341" lon="12.995015"><ele>188.0</ele><time>2026-04-29T11:42:22.786Z</time></trkpt><trkpt lat="43.6135083" lon="12.9950933"><ele>188.0</ele><time>2026-04-29T11:42:23.785Z</time></trkpt><trkpt lat="43.6136083" lon="12.99515"><ele>188.0</ele><time>2026-04-29T11:42:24.786Z</time></trkpt><trkpt lat="43.6137117" lon="12.9951867"><ele>188.0</ele><time>2026-04-29T11:42:25.786Z</time></trkpt><trkpt lat="43.613815" lon="12.9952067"><ele>188.0</ele><time>2026-04-29T11:42:26.786Z</time></trkpt><trkpt lat="43.61392" lon="12.9952"><ele>188.0</ele><time>2026-04-29T11:42:27.785Z</time></trkpt><trkpt lat="43.6140283" lon="12.9951817"><ele>190.5</ele><time>2026-04-29T11:42:28.786Z</time></trkpt><trkpt lat="43.61414" lon="12.995165"><ele>193.0</ele><time>2026-04-29T11:42:29.785Z</time></trkpt><trkpt lat="43.614255" lon="12.9951417"><ele>195.5</ele><time>2026-04-29T11:42:30.786Z</time></trkpt><trkpt lat="43.614365" lon="12.995115"><ele>198.0</ele><time>2026-04-29T11:42:31.786Z</time></trkpt><trkpt lat="43.6144817" lon="12.995095"><ele>199.25</ele><time>2026-04-29T11:42:32.786Z</time></trkpt><trkpt lat="43.6146" lon="12.9950867"><ele>200.5</ele><time>2026-04-29T11:42:33.786Z</time></trkpt><trkpt lat="43.614715" lon="12.9950917"><ele>201.75</ele><time>2026-04-29T11:42:34.785Z</time></trkpt><trkpt lat="43.6148433" lon="12.99511"><ele>203.0</ele><time>2026-04-29T11:42:35.786Z</time></trkpt><trkpt lat="43.614965" lon="12.9951283"><ele>203.0</ele><time>2026-04-29T11:42:36.785Z</time></trkpt><trkpt lat="43.6150917" lon="12.9951483"><ele>203.0</ele><time>2026-04-29T11:42:37.786Z</time></trkpt><trkpt lat="43.6152167" lon="12.99517"><ele>203.0</ele><time>2026-04-29T11:42:38.786Z</time></trkpt><trkpt lat="43.6153367" lon="12.99519"><ele>203.0</ele><time>2026-04-29T11:42:39.786Z</time></trkpt><trkpt lat="43.615465" lon="12.995215"><ele>204.5</ele><time>2026-04-29T11:42:40.786Z</time></trkpt><trkpt lat="43.615585" lon="12.9952467"><ele>206.0</ele><time>2026-04-29T11:42:41.786Z</time></trkpt><trkpt lat="43.6157017" lon="12.9952783"><ele>207.5</ele><time>2026-04-29T11:42:42.786Z</time></trkpt><trkpt lat="43.6158117" lon="12.9953133"><ele>209.0</ele><time>2026-04-29T11:42:43.786Z</time></trkpt><trkpt lat="43.615915" lon="12.99535"><ele>209.0</ele><time>2026-04-29T11:42:44.786Z</time></trkpt><trkpt lat="43.61601" lon="12.9953883"><ele>209.0</ele><time>2026-04-29T11:42:45.785Z</time></trkpt><trkpt lat="43.616105" lon="12.995435"><ele>209.0</ele><time>2026-04-29T11:42:46.786Z</time></trkpt><trkpt lat="43.6161967" lon="12.9954983"><ele>209.0</ele><time>2026-04-29T11:42:47.786Z</time></trkpt><trkpt lat="43.61629" lon="12.9955633"><ele>209.0</ele><time>2026-04-29T11:42:48.786Z</time></trkpt><trkpt lat="43.6163767" lon="12.99563"><ele>208.50000000000003</ele><time>2026-04-29T11:42:49.786Z</time></trkpt><trkpt lat="43.616455" lon="12.9956833"><ele>208.0</ele><time>2026-04-29T11:42:50.786Z</time></trkpt><trkpt lat="43.61653" lon="12.995755"><ele>207.5</ele><time>2026-04-29T11:42:51.785Z</time></trkpt><trkpt lat="43.6165817" lon="12.995845"><ele>207.0</ele><time>2026-04-29T11:42:52.786Z</time></trkpt><trkpt lat="43.61663" lon="12.995945"><ele>206.50000000000003</ele><time>2026-04-29T11:42:53.786Z</time></trkpt><trkpt lat="43.616685" lon="12.9960433"><ele>206.0</ele><time>2026-04-29T11:42:54.786Z</time></trkpt><trkpt lat="43.616745" lon="12.99614"><ele>206.00000000000003</ele><time>2026-04-29T11:42:55.786Z</time></trkpt><trkpt lat="43.6167967" lon="12.9962233"><ele>206.0</ele><time>2026-04-29T11:42:56.785Z</time></trkpt><trkpt lat="43.6168433" lon="12.9963"><ele>206.0</ele><time>2026-04-29T11:42:57.786Z</time></trkpt><trkpt lat="43.616895" lon="12.9963733"><ele>206.0</ele><time>2026-04-29T11:42:58.786Z</time></trkpt><trkpt lat="43.616955" lon="12.99645"><ele>206.00000000000003</ele><time>2026-04-29T11:42:59.786Z</time></trkpt><trkpt lat="43.6170183" lon="12.9965267"><ele>206.0</ele><time>2026-04-29T11:43:00.785Z</time></trkpt><trkpt lat="43.6170867" lon="12.996605"><ele>205.8</ele><time>2026-04-29T11:43:01.786Z</time></trkpt><trkpt lat="43.6171617" lon="12.9966767"><ele>205.60000000000002</ele><time>2026-04-29T11:43:02.786Z</time></trkpt><trkpt lat="43.6172367" lon="12.9967433"><ele>205.4</ele><time>2026-04-29T11:43:03.786Z</time></trkpt><trkpt lat="43.6173133" lon="12.9968067"><ele>205.2</ele><time>2026-04-29T11:43:04.786Z</time></trkpt><trkpt lat="43.617395" lon="12.9968733"><ele>205.0</ele><time>2026-04-29T11:43:05.786Z</time></trkpt><trkpt lat="43.6174767" lon="12.9969367"><ele>205.0</ele><time>2026-04-29T11:43:06.786Z</time></trkpt><trkpt lat="43.6175633" lon="12.996995"><ele>205.0</ele><time>2026-04-29T11:43:07.786Z</time></trkpt><trkpt lat="43.6176533" lon="12.997055"><ele>205.0</ele><time>2026-04-29T11:43:08.786Z</time></trkpt><trkpt lat="43.6177467" lon="12.99711"><ele>205.0</ele><time>2026-04-29T11:43:09.786Z</time></trkpt><trkpt lat="43.61784" lon="12.9971583"><ele>205.0</ele><time>2026-04-29T11:43:10.786Z</time></trkpt><trkpt lat="43.6179367" lon="12.9971933"><ele>206.4</ele><time>2026-04-29T11:43:11.786Z</time></trkpt><trkpt lat="43.6180367" lon="12.997215"><ele>207.8</ele><time>2026-04-29T11:43:12.786Z</time></trkpt><trkpt lat="43.6181333" lon="12.997235"><ele>209.2</ele><time>2026-04-29T11:43:13.785Z</time></trkpt><trkpt lat="43.6182417" lon="12.997265"><ele>210.6</ele><time>2026-04-29T11:43:14.786Z</time></trkpt><trkpt lat="43.6183433" lon="12.9973083"><ele>212.0</ele><time>2026-04-29T11:43:15.785Z</time></trkpt><trkpt lat="43.6184483" lon="12.9973633"><ele>212.0</ele><time>2026-04-29T11:43:16.786Z</time></trkpt><trkpt lat="43.618555" lon="12.9974167"><ele>212.0</ele><time>2026-04-29T11:43:17.786Z</time></trkpt><trkpt lat="43.61866" lon="12.99747"><ele>212.0</ele><time>2026-04-29T11:43:18.785Z</time></trkpt><trkpt lat="43.6187667" lon="12.99753"><ele>212.0</ele><time>2026-04-29T11:43:19.786Z</time></trkpt><trkpt lat="43.6188783" lon="12.99759"><ele>212.25</ele><time>2026-04-29T11:43:20.786Z</time></trkpt><trkpt lat="43.6189883" lon="12.997655"><ele>212.5</ele><time>2026-04-29T11:43:21.786Z</time></trkpt><trkpt lat="43.6191017" lon="12.9977333"><ele>212.75</ele><time>2026-04-29T11:43:22.785Z</time></trkpt><trkpt lat="43.6192117" lon="12.9978183"><ele>213.0</ele><time>2026-04-29T11:43:23.786Z</time></trkpt><trkpt lat="43.619315" lon="12.997915"><ele>213.0</ele><time>2026-04-29T11:43:24.786Z</time></trkpt><trkpt lat="43.6194117" lon="12.9980267"><ele>213.0</ele><time>2026-04-29T11:43:25.786Z</time></trkpt><trkpt lat="43.619495" lon="12.9981483"><ele>213.0</ele><time>2026-04-29T11:43:26.786Z</time></trkpt><trkpt lat="43.6195717" lon="12.9982783"><ele>213.0</ele><time>2026-04-29T11:43:27.786Z</time></trkpt><trkpt lat="43.619645" lon="12.998415"><ele>215.0</ele><time>2026-04-29T11:43:28.786Z</time></trkpt><trkpt lat="43.6197183" lon="12.9985567"><ele>217.0</ele><time>2026-04-29T11:43:29.786Z</time></trkpt><trkpt lat="43.6197883" lon="12.9986967"><ele>219.0</ele><time>2026-04-29T11:43:30.786Z</time></trkpt><trkpt lat="43.619855" lon="12.998835"><ele>221.0</ele><time>2026-04-29T11:43:31.786Z</time></trkpt><trkpt lat="43.6199267" lon="12.9989733"><ele>221.0</ele><time>2026-04-29T11:43:32.786Z</time></trkpt><trkpt lat="43.6199883" lon="12.999105"><ele>221.00000000000003</ele><time>2026-04-29T11:43:33.786Z</time></trkpt><trkpt lat="43.6200467" lon="12.9992383"><ele>221.00000000000003</ele><time>2026-04-29T11:43:34.786Z</time></trkpt><trkpt lat="43.62011" lon="12.9993583"><ele>221.0</ele><time>2026-04-29T11:43:35.786Z</time></trkpt><trkpt lat="43.6201817" lon="12.999455"><ele>221.0</ele><time>2026-04-29T11:43:36.786Z</time></trkpt><trkpt lat="43.6202633" lon="12.9995233"><ele>223.4</ele><time>2026-04-29T11:43:37.786Z</time></trkpt><trkpt lat="43.6203583" lon="12.9995783"><ele>225.8</ele><time>2026-04-29T11:43:38.786Z</time></trkpt><trkpt lat="43.6204617" lon="12.9996217"><ele>228.20000000000002</ele><time>2026-04-29T11:43:39.786Z</time></trkpt><trkpt lat="43.6205733" lon="12.9996583"><ele>230.60000000000002</ele><time>2026-04-29T11:43:40.786Z</time></trkpt><trkpt lat="43.6206783" lon="12.9996883"><ele>233.0</ele><time>2026-04-29T11:43:41.786Z</time></trkpt><trkpt lat="43.62079" lon="12.9997233"><ele>233.0</ele><time>2026-04-29T11:43:42.786Z</time></trkpt><trkpt lat="43.6209017" lon="12.9997683"><ele>233.0</ele><time>2026-04-29T11:43:43.786Z</time></trkpt><trkpt lat="43.6210117" lon="12.99983"><ele>233.0</ele><time>2026-04-29T11:43:44.786Z</time></trkpt><trkpt lat="43.621115" lon="12.999905"><ele>233.0</ele><time>2026-04-29T11:43:45.785Z</time></trkpt><trkpt lat="43.6212067" lon="12.9999883"><ele>234.0</ele><time>2026-04-29T11:43:46.786Z</time></trkpt><trkpt lat="43.6212933" lon="13.00008"><ele>235.0</ele><time>2026-04-29T11:43:47.785Z</time></trkpt><trkpt lat="43.621375" lon="13.00017"><ele>236.0</ele><time>2026-04-29T11:43:48.786Z</time></trkpt><trkpt lat="43.62145" lon="13.00027"><ele>237.0</ele><time>2026-04-29T11:43:49.785Z</time></trkpt><trkpt lat="43.6215167" lon="13.0003783"><ele>238.0</ele><time>2026-04-29T11:43:50.786Z</time></trkpt><trkpt lat="43.6215867" lon="13.000495"><ele>238.0</ele><time>2026-04-29T11:43:51.786Z</time></trkpt><trkpt lat="43.6216517" lon="13.0006233"><ele>238.0</ele><time>2026-04-29T11:43:52.786Z</time></trkpt><trkpt lat="43.6217133" lon="13.0007633"><ele>238.0</ele><time>2026-04-29T11:43:53.786Z</time></trkpt><trkpt lat="43.6217767" lon="13.0009067"><ele>238.0</ele><time>2026-04-29T11:43:54.785Z</time></trkpt><trkpt lat="43.6218333" lon="13.00105"><ele>238.5</ele><time>2026-04-29T11:43:55.786Z</time></trkpt><trkpt lat="43.6218867" lon="13.0011983"><ele>239.0</ele><time>2026-04-29T11:43:56.786Z</time></trkpt><trkpt lat="43.6219383" lon="13.0013483"><ele>239.5</ele><time>2026-04-29T11:43:57.786Z</time></trkpt><trkpt lat="43.62199" lon="13.001505"><ele>240.0</ele><time>2026-04-29T11:43:58.786Z</time></trkpt><trkpt lat="43.62204" lon="13.0016567"><ele>240.0</ele><time>2026-04-29T11:43:59.785Z</time></trkpt><trkpt lat="43.622095" lon="13.0018133"><ele>240.0</ele><time>2026-04-29T11:44:00.786Z</time></trkpt><trkpt lat="43.6221467" lon="13.0019667"><ele>240.0</ele><time>2026-04-29T11:44:01.786Z</time></trkpt><trkpt lat="43.62221" lon="13.0021217"><ele>240.0</ele><time>2026-04-29T11:44:02.786Z</time></trkpt><trkpt lat="43.6222717" lon="13.0022767"><ele>240.0</ele><time>2026-04-29T11:44:03.786Z</time></trkpt><trkpt lat="43.6223383" lon="13.0024283"><ele>240.0</ele><time>2026-04-29T11:44:04.786Z</time></trkpt><trkpt lat="43.6224117" lon="13.0025817"><ele>240.0</ele><time>2026-04-29T11:44:05.786Z</time></trkpt><trkpt lat="43.6224867" lon="13.00273"><ele>240.0</ele><time>2026-04-29T11:44:06.786Z</time></trkpt><trkpt lat="43.62257" lon="13.0028783"><ele>241.75</ele><time>2026-04-29T11:44:07.786Z</time></trkpt><trkpt lat="43.62266" lon="13.00303"><ele>243.5</ele><time>2026-04-29T11:44:08.786Z</time></trkpt><trkpt lat="43.6227467" lon="13.00318"><ele>245.25</ele><time>2026-04-29T11:44:09.786Z</time></trkpt><trkpt lat="43.6228217" lon="13.0033317"><ele>247.0</ele><time>2026-04-29T11:44:10.786Z</time></trkpt><trkpt lat="43.6229" lon="13.003485"><ele>247.25</ele><time>2026-04-29T11:44:11.786Z</time></trkpt><trkpt lat="43.6229683" lon="13.0036383"><ele>247.5</ele><time>2026-04-29T11:44:12.786Z</time></trkpt><trkpt lat="43.6230283" lon="13.0037833"><ele>247.75</ele><time>2026-04-29T11:44:13.786Z</time></trkpt><trkpt lat="43.6230783" lon="13.0039217"><ele>248.0</ele><time>2026-04-29T11:44:14.786Z</time></trkpt><trkpt lat="43.6231267" lon="13.00405"><ele>248.66666666666669</ele><time>2026-04-29T11:44:15.786Z</time></trkpt><trkpt lat="43.6231617" lon="13.0041683"><ele>249.33333333333334</ele><time>2026-04-29T11:44:16.786Z</time></trkpt><trkpt lat="43.6231933" lon="13.004275"><ele>250.0</ele><time>2026-04-29T11:44:17.786Z</time></trkpt><trkpt lat="43.6232217" lon="13.0043633"><ele>250.66666666666669</ele><time>2026-04-29T11:44:18.786Z</time></trkpt><trkpt lat="43.623255" lon="13.004475"><ele>251.33333333333334</ele><time>2026-04-29T11:44:20.785Z</time></trkpt><trkpt lat="43.6233" lon="13.0045817"><ele>252.0</ele><time>2026-04-29T11:46:02.786Z</time></trkpt><trkpt lat="43.6233283" lon="13.0046633"><ele>252.0</ele><time>2026-04-29T11:46:04.785Z</time></trkpt><trkpt lat="43.6233817" lon="13.0048367"><ele>252.0</ele><time>2026-04-29T11:46:06.785Z</time></trkpt><trkpt lat="43.62342" lon="13.00495"><ele>252.0</ele><time>2026-04-29T11:46:07.785Z</time></trkpt><trkpt lat="43.6234517" lon="13.00507"><ele>252.0</ele><time>2026-04-29T11:46:08.785Z</time></trkpt><trkpt lat="43.623485" lon="13.0052067"><ele>252.0</ele><time>2026-04-29T11:46:09.785Z</time></trkpt><trkpt lat="43.6235" lon="13.00535"><ele>251.33333333333334</ele><time>2026-04-29T11:46:10.785Z</time></trkpt><trkpt lat="43.6235" lon="13.00548"><ele>250.66666666666669</ele><time>2026-04-29T11:46:11.784Z</time></trkpt><trkpt lat="43.6234867" lon="13.0055817"><ele>250.0</ele><time>2026-04-29T11:46:12.784Z</time></trkpt><trkpt lat="43.6234433" lon="13.005735"><ele>249.33333333333334</ele><time>2026-04-29T11:46:14.785Z</time></trkpt><trkpt lat="43.6234567" lon="13.0058267"><ele>248.66666666666669</ele><time>2026-04-29T11:46:17.784Z</time></trkpt><trkpt lat="43.6235433" lon="13.0057883"><ele>248.0</ele><time>2026-04-29T11:46:20.785Z</time></trkpt><trkpt lat="43.6236067" lon="13.0058017"><ele>246.8</ele><time>2026-04-29T11:46:23.785Z</time></trkpt><trkpt lat="43.623605" lon="13.0058917"><ele>245.60000000000002</ele><time>2026-04-29T11:46:25.785Z</time></trkpt><trkpt lat="43.62357" lon="13.0060717"><ele>244.39999999999998</ele><time>2026-04-29T11:46:27.785Z</time></trkpt><trkpt lat="43.623545" lon="13.0062017"><ele>243.2</ele><time>2026-04-29T11:46:28.785Z</time></trkpt><trkpt lat="43.62353" lon="13.0063383"><ele>242.0</ele><time>2026-04-29T11:46:29.785Z</time></trkpt><trkpt lat="43.6235233" lon="13.00649"><ele>242.0</ele><time>2026-04-29T11:46:30.785Z</time></trkpt><trkpt lat="43.62352" lon="13.006645"><ele>242.0</ele><time>2026-04-29T11:46:31.785Z</time></trkpt><trkpt lat="43.6235217" lon="13.0068017"><ele>242.0</ele><time>2026-04-29T11:46:32.784Z</time></trkpt><trkpt lat="43.623535" lon="13.0069683"><ele>242.0</ele><time>2026-04-29T11:46:33.785Z</time></trkpt><trkpt lat="43.6235483" lon="13.0071317"><ele>241.0</ele><time>2026-04-29T11:46:34.784Z</time></trkpt><trkpt lat="43.623565" lon="13.0072933"><ele>240.0</ele><time>2026-04-29T11:46:35.785Z</time></trkpt><trkpt lat="43.6235767" lon="13.0074517"><ele>239.0</ele><time>2026-04-29T11:46:36.785Z</time></trkpt><trkpt lat="43.6235783" lon="13.0076167"><ele>238.0</ele><time>2026-04-29T11:46:37.784Z</time></trkpt><trkpt lat="43.6235767" lon="13.007785"><ele>237.5</ele><time>2026-04-29T11:46:38.785Z</time></trkpt><trkpt lat="43.6235767" lon="13.0079517"><ele>237.0</ele><time>2026-04-29T11:46:39.785Z</time></trkpt><trkpt lat="43.6235883" lon="13.0081183"><ele>236.5</ele><time>2026-04-29T11:46:40.785Z</time></trkpt><trkpt lat="43.6236083" lon="13.008285"><ele>236.0</ele><time>2026-04-29T11:46:41.784Z</time></trkpt><trkpt lat="43.6236233" lon="13.0084517"><ele>231.5</ele><time>2026-04-29T11:46:42.785Z</time></trkpt><trkpt lat="43.6236517" lon="13.0086233"><ele>227.0</ele><time>2026-04-29T11:46:43.785Z</time></trkpt><trkpt lat="43.6236933" lon="13.0087967"><ele>222.5</ele><time>2026-04-29T11:46:44.785Z</time></trkpt><trkpt lat="43.62374" lon="13.008975"><ele>218.0</ele><time>2026-04-29T11:46:45.784Z</time></trkpt><trkpt lat="43.623795" lon="13.00915"><ele>218.0</ele><time>2026-04-29T11:46:46.785Z</time></trkpt><trkpt lat="43.6238383" lon="13.0093183"><ele>218.0</ele><time>2026-04-29T11:46:47.785Z</time></trkpt><trkpt lat="43.6238817" lon="13.0094783"><ele>218.0</ele><time>2026-04-29T11:46:48.785Z</time></trkpt><trkpt lat="43.62392" lon="13.0096417"><ele>218.0</ele><time>2026-04-29T11:46:49.785Z</time></trkpt><trkpt lat="43.62395" lon="13.0098033"><ele>218.0</ele><time>2026-04-29T11:46:50.785Z</time></trkpt><trkpt lat="43.6239717" lon="13.0099767"><ele>218.0</ele><time>2026-04-29T11:46:51.785Z</time></trkpt><trkpt lat="43.6239933" lon="13.01015"><ele>218.0</ele><time>2026-04-29T11:46:52.785Z</time></trkpt><trkpt lat="43.6240183" lon="13.0103133"><ele>218.0</ele><time>2026-04-29T11:46:53.784Z</time></trkpt><trkpt lat="43.62404" lon="13.0104817"><ele>217.75</ele><time>2026-04-29T11:46:54.785Z</time></trkpt><trkpt lat="43.6240617" lon="13.01065"><ele>217.5</ele><time>2026-04-29T11:46:55.785Z</time></trkpt><trkpt lat="43.624085" lon="13.0108167"><ele>217.25</ele><time>2026-04-29T11:46:56.785Z</time></trkpt><trkpt lat="43.6241133" lon="13.0109833"><ele>217.0</ele><time>2026-04-29T11:46:57.785Z</time></trkpt><trkpt lat="43.6241367" lon="13.0111533"><ele>217.0</ele><time>2026-04-29T11:46:58.785Z</time></trkpt><trkpt lat="43.6241633" lon="13.0113267"><ele>217.0</ele><time>2026-04-29T11:46:59.784Z</time></trkpt><trkpt lat="43.6241883" lon="13.011495"><ele>217.0</ele><time>2026-04-29T11:47:00.785Z</time></trkpt><trkpt lat="43.62421" lon="13.01167"><ele>217.0</ele><time>2026-04-29T11:47:01.785Z</time></trkpt><trkpt lat="43.624235" lon="13.0118517"><ele>216.5</ele><time>2026-04-29T11:47:02.785Z</time></trkpt><trkpt lat="43.62426" lon="13.0120367"><ele>216.0</ele><time>2026-04-29T11:47:03.784Z</time></trkpt><trkpt lat="43.6242883" lon="13.0122167"><ele>215.5</ele><time>2026-04-29T11:47:04.785Z</time></trkpt><trkpt lat="43.624315" lon="13.0123983"><ele>215.0</ele><time>2026-04-29T11:47:05.785Z</time></trkpt><trkpt lat="43.624345" lon="13.0125817"><ele>214.5</ele><time>2026-04-29T11:47:06.785Z</time></trkpt><trkpt lat="43.6243767" lon="13.0127583"><ele>214.0</ele><time>2026-04-29T11:47:07.785Z</time></trkpt><trkpt lat="43.6244117" lon="13.0129383"><ele>213.5</ele><time>2026-04-29T11:47:08.785Z</time></trkpt><trkpt lat="43.6244467" lon="13.0131117"><ele>213.0</ele><time>2026-04-29T11:47:09.785Z</time></trkpt><trkpt lat="43.6244733" lon="13.0132783"><ele>213.0</ele><time>2026-04-29T11:47:10.785Z</time></trkpt><trkpt lat="43.6244867" lon="13.0134517"><ele>213.0</ele><time>2026-04-29T11:47:11.785Z</time></trkpt><trkpt lat="43.6244933" lon="13.01362"><ele>213.0</ele><time>2026-04-29T11:47:12.784Z</time></trkpt><trkpt lat="43.6244833" lon="13.0137883"><ele>213.0</ele><time>2026-04-29T11:47:13.785Z</time></trkpt><trkpt lat="43.6244683" lon="13.0139533"><ele>213.0</ele><time>2026-04-29T11:47:14.785Z</time></trkpt><trkpt lat="43.6244483" lon="13.01411"><ele>213.0</ele><time>2026-04-29T11:47:15.784Z</time></trkpt><trkpt lat="43.624435" lon="13.0142583"><ele>213.0</ele><time>2026-04-29T11:47:16.785Z</time></trkpt><trkpt lat="43.6244133" lon="13.0143867"><ele>213.0</ele><time>2026-04-29T11:47:17.785Z</time></trkpt><trkpt lat="43.6243933" lon="13.014505"><ele>213.0</ele><time>2026-04-29T11:47:18.784Z</time></trkpt><trkpt lat="43.6243717" lon="13.0146"><ele>212.16666666666666</ele><time>2026-04-29T11:47:19.784Z</time></trkpt><trkpt lat="43.6243433" lon="13.01475"><ele>211.33333333333331</ele><time>2026-04-29T11:47:21.785Z</time></trkpt><trkpt lat="43.6243183" lon="13.01483"><ele>210.5</ele><time>2026-04-29T11:47:23.785Z</time></trkpt><trkpt lat="43.6242633" lon="13.01488"><ele>209.66666666666666</ele><time>2026-04-29T11:48:52.785Z</time></trkpt><trkpt lat="43.6241967" lon="13.01495"><ele>208.83333333333331</ele><time>2026-04-29T11:48:54.785Z</time></trkpt><trkpt lat="43.6241433" lon="13.0150417"><ele>208.0</ele><time>2026-04-29T11:51:17.785Z</time></trkpt><trkpt lat="43.6242067" lon="13.0149633"><ele>207.99999999999997</ele><time>2026-04-29T11:51:24.785Z</time></trkpt><trkpt lat="43.6242483" lon="13.0148917"><ele>208.0</ele><time>2026-04-29T11:51:26.784Z</time></trkpt><trkpt lat="43.6242967" lon="13.0148283"><ele>208.0</ele><time>2026-04-29T11:51:30.785Z</time></trkpt><trkpt lat="43.6243783" lon="13.0148567"><ele>208.0</ele><time>2026-04-29T11:51:34.785Z</time></trkpt><trkpt lat="43.6244233" lon="13.014925"><ele>207.99999999999997</ele><time>2026-04-29T11:51:36.785Z</time></trkpt><trkpt lat="43.6244717" lon="13.0150167"><ele>208.0</ele><time>2026-04-29T11:51:38.785Z</time></trkpt><trkpt lat="43.62452" lon="13.0151117"><ele>206.99999999999997</ele><time>2026-04-29T11:51:40.785Z</time></trkpt><trkpt lat="43.6245817" lon="13.015215"><ele>206.0</ele><time>2026-04-29T11:51:42.785Z</time></trkpt><trkpt lat="43.6246517" lon="13.0153517"><ele>205.0</ele><time>2026-04-29T11:51:44.785Z</time></trkpt><trkpt lat="43.6246933" lon="13.0154333"><ele>204.0</ele><time>2026-04-29T11:51:45.785Z</time></trkpt><trkpt lat="43.6247367" lon="13.0155167"><ele>202.99999999999997</ele><time>2026-04-29T11:51:46.785Z</time></trkpt><trkpt lat="43.6247833" lon="13.0156083"><ele>202.0</ele><time>2026-04-29T11:51:47.785Z</time></trkpt><trkpt lat="43.6248367" lon="13.015705"><ele>202.0</ele><time>2026-04-29T11:51:48.784Z</time></trkpt><trkpt lat="43.6248883" lon="13.01581"><ele>202.0</ele><time>2026-04-29T11:51:49.785Z</time></trkpt><trkpt lat="43.6249467" lon="13.0159217"><ele>202.0</ele><time>2026-04-29T11:51:50.785Z</time></trkpt><trkpt lat="43.625005" lon="13.016035"><ele>202.0</ele><time>2026-04-29T11:51:51.785Z</time></trkpt><trkpt lat="43.6250667" lon="13.01615"><ele>202.0</ele><time>2026-04-29T11:51:52.785Z</time></trkpt><trkpt lat="43.6251283" lon="13.0162717"><ele>201.39999999999998</ele><time>2026-04-29T11:51:53.785Z</time></trkpt><trkpt lat="43.6251917" lon="13.016395"><ele>200.79999999999998</ele><time>2026-04-29T11:51:54.785Z</time></trkpt><trkpt lat="43.6252583" lon="13.0165167"><ele>200.2</ele><time>2026-04-29T11:51:55.785Z</time></trkpt><trkpt lat="43.6253217" lon="13.01664"><ele>199.6</ele><time>2026-04-29T11:51:56.784Z</time></trkpt><trkpt lat="43.6253833" lon="13.0167683"><ele>199.0</ele><time>2026-04-29T11:51:57.785Z</time></trkpt><trkpt lat="43.6254433" lon="13.0168883"><ele>196.79999999999998</ele><time>2026-04-29T11:51:58.784Z</time></trkpt><trkpt lat="43.6255067" lon="13.01701"><ele>194.6</ele><time>2026-04-29T11:51:59.785Z</time></trkpt><trkpt lat="43.62557" lon="13.0171267"><ele>192.4</ele><time>2026-04-29T11:52:00.785Z</time></trkpt><trkpt lat="43.6256283" lon="13.017245"><ele>190.2</ele><time>2026-04-29T11:52:01.785Z</time></trkpt><trkpt lat="43.6256817" lon="13.017365"><ele>188.0</ele><time>2026-04-29T11:52:02.785Z</time></trkpt><trkpt lat="43.6257333" lon="13.0174783"><ele>187.4</ele><time>2026-04-29T11:52:03.785Z</time></trkpt><trkpt lat="43.6257883" lon="13.0175883"><ele>186.8</ele><time>2026-04-29T11:52:04.785Z</time></trkpt><trkpt lat="43.62584" lon="13.0176933"><ele>186.2</ele><time>2026-04-29T11:52:05.785Z</time></trkpt><trkpt lat="43.6258983" lon="13.0178067"><ele>185.6</ele><time>2026-04-29T11:52:06.785Z</time></trkpt><trkpt lat="43.6259533" lon="13.017925"><ele>185.0</ele><time>2026-04-29T11:52:07.785Z</time></trkpt><trkpt lat="43.6260117" lon="13.018045"><ele>185.0</ele><time>2026-04-29T11:52:08.784Z</time></trkpt><trkpt lat="43.62607" lon="13.01817"><ele>185.0</ele><time>2026-04-29T11:52:09.785Z</time></trkpt><trkpt lat="43.626125" lon="13.0182967"><ele>185.0</ele><time>2026-04-29T11:52:10.785Z</time></trkpt><trkpt lat="43.6261817" lon="13.0184217"><ele>185.0</ele><time>2026-04-29T11:52:11.784Z</time></trkpt><trkpt lat="43.62624" lon="13.0185433"><ele>185.0</ele><time>2026-04-29T11:52:12.784Z</time></trkpt><trkpt lat="43.6263017" lon="13.0186633"><ele>182.2</ele><time>2026-04-29T11:52:13.785Z</time></trkpt><trkpt lat="43.6263633" lon="13.018775"><ele>179.4</ele><time>2026-04-29T11:52:14.785Z</time></trkpt><trkpt lat="43.626435" lon="13.0188767"><ele>176.60000000000002</ele><time>2026-04-29T11:52:15.785Z</time></trkpt><trkpt lat="43.62651" lon="13.0189733"><ele>173.8</ele><time>2026-04-29T11:52:16.785Z</time></trkpt><trkpt lat="43.62659" lon="13.01907"><ele>171.0</ele><time>2026-04-29T11:52:17.785Z</time></trkpt><trkpt lat="43.6266667" lon="13.0191633"><ele>171.0</ele><time>2026-04-29T11:52:18.784Z</time></trkpt><trkpt lat="43.6267483" lon="13.0192533"><ele>171.0</ele><time>2026-04-29T11:52:19.785Z</time></trkpt><trkpt lat="43.62683" lon="13.019345"><ele>171.0</ele><time>2026-04-29T11:52:20.785Z</time></trkpt><trkpt lat="43.6269117" lon="13.019435"><ele>171.0</ele><time>2026-04-29T11:52:21.785Z</time></trkpt><trkpt lat="43.62699" lon="13.01952"><ele>171.0</ele><time>2026-04-29T11:52:22.785Z</time></trkpt><trkpt lat="43.6270683" lon="13.019605"><ele>169.4</ele><time>2026-04-29T11:52:23.785Z</time></trkpt><trkpt lat="43.62715" lon="13.0196933"><ele>167.8</ele><time>2026-04-29T11:52:24.785Z</time></trkpt><trkpt lat="43.6272317" lon="13.0197833"><ele>166.20000000000002</ele><time>2026-04-29T11:52:25.785Z</time></trkpt><trkpt lat="43.6273167" lon="13.0198733"><ele>164.60000000000002</ele><time>2026-04-29T11:52:26.785Z</time></trkpt><trkpt lat="43.627405" lon="13.0199667"><ele>163.0</ele><time>2026-04-29T11:52:27.785Z</time></trkpt><trkpt lat="43.6274917" lon="13.0200517"><ele>162.0</ele><time>2026-04-29T11:52:28.785Z</time></trkpt><trkpt lat="43.62758" lon="13.02014"><ele>161.0</ele><time>2026-04-29T11:52:29.784Z</time></trkpt><trkpt lat="43.627665" lon="13.0202317"><ele>160.0</ele><time>2026-04-29T11:52:30.784Z</time></trkpt><trkpt lat="43.627755" lon="13.02032"><ele>159.0</ele><time>2026-04-29T11:52:31.784Z</time></trkpt><trkpt lat="43.6278383" lon="13.020405"><ele>158.0</ele><time>2026-04-29T11:52:32.785Z</time></trkpt><trkpt lat="43.6279283" lon="13.02048"><ele>155.8</ele><time>2026-04-29T11:52:33.784Z</time></trkpt><trkpt lat="43.62801" lon="13.0205533"><ele>153.60000000000002</ele><time>2026-04-29T11:52:34.785Z</time></trkpt><trkpt lat="43.6280917" lon="13.0206233"><ele>151.39999999999998</ele><time>2026-04-29T11:52:35.785Z</time></trkpt><trkpt lat="43.62817" lon="13.020695"><ele>149.2</ele><time>2026-04-29T11:52:36.784Z</time></trkpt><trkpt lat="43.62825" lon="13.020765"><ele>147.0</ele><time>2026-04-29T11:52:37.785Z</time></trkpt><trkpt lat="43.6283367" lon="13.0208367"><ele>146.4</ele><time>2026-04-29T11:52:38.785Z</time></trkpt><trkpt lat="43.6284217" lon="13.02091"><ele>145.79999999999998</ele><time>2026-04-29T11:52:39.785Z</time></trkpt><trkpt lat="43.6284967" lon="13.0209883"><ele>145.2</ele><time>2026-04-29T11:52:40.785Z</time></trkpt><trkpt lat="43.6285717" lon="13.021075"><ele>144.6</ele><time>2026-04-29T11:52:41.785Z</time></trkpt><trkpt lat="43.6286483" lon="13.021175"><ele>144.0</ele><time>2026-04-29T11:52:42.785Z</time></trkpt><trkpt lat="43.62872" lon="13.0212817"><ele>142.0</ele><time>2026-04-29T11:52:43.785Z</time></trkpt><trkpt lat="43.628785" lon="13.0213867"><ele>140.0</ele><time>2026-04-29T11:52:44.784Z</time></trkpt><trkpt lat="43.6288533" lon="13.021495"><ele>138.0</ele><time>2026-04-29T11:52:45.785Z</time></trkpt><trkpt lat="43.6289117" lon="13.02161"><ele>136.0</ele><time>2026-04-29T11:52:46.784Z</time></trkpt><trkpt lat="43.628955" lon="13.02173"><ele>134.0</ele><time>2026-04-29T11:52:47.785Z</time></trkpt><trkpt lat="43.62899" lon="13.0218583"><ele>133.4</ele><time>2026-04-29T11:52:48.785Z</time></trkpt><trkpt lat="43.6290217" lon="13.0219933"><ele>132.8</ele><time>2026-04-29T11:52:49.785Z</time></trkpt><trkpt lat="43.6290467" lon="13.0221283"><ele>132.2</ele><time>2026-04-29T11:52:50.785Z</time></trkpt><trkpt lat="43.6290733" lon="13.022265"><ele>131.6</ele><time>2026-04-29T11:52:51.785Z</time></trkpt><trkpt lat="43.629095" lon="13.022405"><ele>131.0</ele><time>2026-04-29T11:52:52.785Z</time></trkpt><trkpt lat="43.6291183" lon="13.02254"><ele>130.2</ele><time>2026-04-29T11:52:53.785Z</time></trkpt><trkpt lat="43.6291317" lon="13.0226833"><ele>129.39999999999998</ele><time>2026-04-29T11:52:54.784Z</time></trkpt><trkpt lat="43.6291467" lon="13.0228267"><ele>128.6</ele><time>2026-04-29T11:52:55.785Z</time></trkpt><trkpt lat="43.6291583" lon="13.02297"><ele>127.8</ele><time>2026-04-29T11:52:56.784Z</time></trkpt><trkpt lat="43.6291633" lon="13.02312"><ele>127.0</ele><time>2026-04-29T11:52:57.785Z</time></trkpt><trkpt lat="43.6291617" lon="13.0232667"><ele>126.0</ele><time>2026-04-29T11:52:58.785Z</time></trkpt><trkpt lat="43.6291533" lon="13.0234217"><ele>125.0</ele><time>2026-04-29T11:52:59.785Z</time></trkpt><trkpt lat="43.6291467" lon="13.0235783"><ele>124.0</ele><time>2026-04-29T11:53:00.785Z</time></trkpt><trkpt lat="43.629135" lon="13.0237367"><ele>123.0</ele><time>2026-04-29T11:53:01.785Z</time></trkpt><trkpt lat="43.6291117" lon="13.0238833"><ele>123.0</ele><time>2026-04-29T11:53:02.785Z</time></trkpt><trkpt lat="43.6290817" lon="13.024035"><ele>123.0</ele><time>2026-04-29T11:53:03.785Z</time></trkpt><trkpt lat="43.6290483" lon="13.0241833"><ele>123.0</ele><time>2026-04-29T11:53:04.784Z</time></trkpt><trkpt lat="43.6290133" lon="13.0243367"><ele>123.0</ele><time>2026-04-29T11:53:05.785Z</time></trkpt><trkpt lat="43.6289717" lon="13.024495"><ele>122.4</ele><time>2026-04-29T11:53:06.785Z</time></trkpt><trkpt lat="43.6289367" lon="13.0246517"><ele>121.80000000000001</ele><time>2026-04-29T11:53:07.785Z</time></trkpt><trkpt lat="43.6289033" lon="13.0248"><ele>121.2</ele><time>2026-04-29T11:53:08.784Z</time></trkpt><trkpt lat="43.6288733" lon="13.024945"><ele>120.6</ele><time>2026-04-29T11:53:09.785Z</time></trkpt><trkpt lat="43.6288483" lon="13.0250783"><ele>120.0</ele><time>2026-04-29T11:53:10.785Z</time></trkpt><trkpt lat="43.628815" lon="13.0252133"><ele>119.2</ele><time>2026-04-29T11:53:11.785Z</time></trkpt><trkpt lat="43.6287767" lon="13.025345"><ele>118.4</ele><time>2026-04-29T11:53:12.785Z</time></trkpt><trkpt lat="43.628735" lon="13.02548"><ele>117.6</ele><time>2026-04-29T11:53:13.785Z</time></trkpt><trkpt lat="43.628705" lon="13.025605"><ele>116.8</ele><time>2026-04-29T11:53:14.785Z</time></trkpt><trkpt lat="43.6286817" lon="13.0257117"><ele>116.0</ele><time>2026-04-29T11:53:15.784Z</time></trkpt><trkpt lat="43.62867" lon="13.0258233"><ele>115.33333333333333</ele><time>2026-04-29T11:53:16.785Z</time></trkpt><trkpt lat="43.6286783" lon="13.0259417"><ele>114.66666666666666</ele><time>2026-04-29T11:53:17.785Z</time></trkpt><trkpt lat="43.6286917" lon="13.026065"><ele>114.0</ele><time>2026-04-29T11:53:18.785Z</time></trkpt><trkpt lat="43.6287033" lon="13.026175"><ele>113.33333333333334</ele><time>2026-04-29T11:53:19.785Z</time></trkpt><trkpt lat="43.6287117" lon="13.0262883"><ele>112.66666666666667</ele><time>2026-04-29T11:53:20.784Z</time></trkpt><trkpt lat="43.6287083" lon="13.026405"><ele>112.0</ele><time>2026-04-29T11:53:21.785Z</time></trkpt><trkpt lat="43.6286967" lon="13.02653"><ele>111.0</ele><time>2026-04-29T11:53:22.784Z</time></trkpt><trkpt lat="43.6286767" lon="13.026665"><ele>109.99999999999999</ele><time>2026-04-29T11:53:23.785Z</time></trkpt><trkpt lat="43.6286333" lon="13.0267983"><ele>108.99999999999999</ele><time>2026-04-29T11:53:24.785Z</time></trkpt><trkpt lat="43.6285733" lon="13.0269233"><ele>108.0</ele><time>2026-04-29T11:53:25.785Z</time></trkpt><trkpt lat="43.6284983" lon="13.0270333"><ele>107.0</ele><time>2026-04-29T11:53:26.785Z</time></trkpt><trkpt lat="43.62841" lon="13.0271267"><ele>109.19999999999999</ele><time>2026-04-29T11:53:27.785Z</time></trkpt><trkpt lat="43.6283167" lon="13.0272083"><ele>111.39999999999999</ele><time>2026-04-29T11:53:28.785Z</time></trkpt><trkpt lat="43.6282183" lon="13.0272767"><ele>113.60000000000001</ele><time>2026-04-29T11:53:29.785Z</time></trkpt><trkpt lat="43.6281167" lon="13.02734"><ele>115.80000000000001</ele><time>2026-04-29T11:53:30.785Z</time></trkpt><trkpt lat="43.62802" lon="13.0273967"><ele>118.0</ele><time>2026-04-29T11:53:31.785Z</time></trkpt><trkpt lat="43.6279333" lon="13.0274533"><ele>116.50000000000001</ele><time>2026-04-29T11:53:32.784Z</time></trkpt><trkpt lat="43.627865" lon="13.027515"><ele>115.0</ele><time>2026-04-29T11:53:33.785Z</time></trkpt><trkpt lat="43.6278233" lon="13.0275917"><ele>113.5</ele><time>2026-04-29T11:53:34.785Z</time></trkpt><trkpt lat="43.627805" lon="13.0276933"><ele>112.0</ele><time>2026-04-29T11:53:35.785Z</time></trkpt><trkpt lat="43.62782" lon="13.027795"><ele>110.50000000000001</ele><time>2026-04-29T11:53:36.785Z</time></trkpt><trkpt lat="43.6278617" lon="13.0278867"><ele>109.0</ele><time>2026-04-29T11:53:37.785Z</time></trkpt><trkpt lat="43.62792" lon="13.0279683"><ele>108.4</ele><time>2026-04-29T11:53:38.784Z</time></trkpt><trkpt lat="43.6279967" lon="13.0280567"><ele>107.80000000000001</ele><time>2026-04-29T11:53:39.784Z</time></trkpt><trkpt lat="43.6280817" lon="13.0281483"><ele>107.19999999999999</ele><time>2026-04-29T11:53:40.785Z</time></trkpt><trkpt lat="43.6281583" lon="13.02826"><ele>106.6</ele><time>2026-04-29T11:53:41.785Z</time></trkpt><trkpt lat="43.628235" lon="13.0283917"><ele>106.0</ele><time>2026-04-29T11:53:42.785Z</time></trkpt><trkpt lat="43.6283033" lon="13.0285183"><ele>105.8</ele><time>2026-04-29T11:53:43.785Z</time></trkpt><trkpt lat="43.62836" lon="13.028635"><ele>105.6</ele><time>2026-04-29T11:53:44.785Z</time></trkpt><trkpt lat="43.6284117" lon="13.028745"><ele>105.4</ele><time>2026-04-29T11:53:45.784Z</time></trkpt><trkpt lat="43.62844" lon="13.02887"><ele>105.2</ele><time>2026-04-29T11:53:46.785Z</time></trkpt><trkpt lat="43.628465" lon="13.028995"><ele>105.0</ele><time>2026-04-29T11:53:47.785Z</time></trkpt><trkpt lat="43.628495" lon="13.0291367"><ele>105.4</ele><time>2026-04-29T11:53:48.785Z</time></trkpt><trkpt lat="43.6285217" lon="13.0292867"><ele>105.8</ele><time>2026-04-29T11:53:49.785Z</time></trkpt><trkpt lat="43.6285583" lon="13.0294333"><ele>106.19999999999999</ele><time>2026-04-29T11:53:50.785Z</time></trkpt><trkpt lat="43.628595" lon="13.0295683"><ele>106.6</ele><time>2026-04-29T11:53:51.784Z</time></trkpt><trkpt lat="43.6286467" lon="13.0297"><ele>107.0</ele><time>2026-04-29T11:53:52.785Z</time></trkpt><trkpt lat="43.6287083" lon="13.0298267"><ele>105.25</ele><time>2026-04-29T11:53:53.784Z</time></trkpt><trkpt lat="43.6287733" lon="13.0299583"><ele>103.5</ele><time>2026-04-29T11:53:54.785Z</time></trkpt><trkpt lat="43.62884" lon="13.0300817"><ele>101.75</ele><time>2026-04-29T11:53:55.785Z</time></trkpt><trkpt lat="43.6289233" lon="13.030205"><ele>100.0</ele><time>2026-04-29T11:53:56.785Z</time></trkpt><trkpt lat="43.628995" lon="13.03033"><ele>100.0</ele><time>2026-04-29T11:53:57.785Z</time></trkpt><trkpt lat="43.6290683" lon="13.03045"><ele>100.0</ele><time>2026-04-29T11:53:58.785Z</time></trkpt><trkpt lat="43.629135" lon="13.0305633"><ele>100.0</ele><time>2026-04-29T11:53:59.785Z</time></trkpt><trkpt lat="43.629205" lon="13.0306717"><ele>100.0</ele><time>2026-04-29T11:54:00.784Z</time></trkpt><trkpt lat="43.6292867" lon="13.0307633"><ele>100.0</ele><time>2026-04-29T11:54:01.785Z</time></trkpt><trkpt lat="43.629375" lon="13.030845"><ele>99.5</ele><time>2026-04-29T11:54:02.785Z</time></trkpt><trkpt lat="43.6294783" lon="13.03093"><ele>99.0</ele><time>2026-04-29T11:54:03.785Z</time></trkpt><trkpt lat="43.6295833" lon="13.0310117"><ele>98.5</ele><time>2026-04-29T11:54:04.785Z</time></trkpt><trkpt lat="43.6296833" lon="13.0311067"><ele>98.0</ele><time>2026-04-29T11:54:05.784Z</time></trkpt><trkpt lat="43.62978" lon="13.031205"><ele>98.0</ele><time>2026-04-29T11:54:06.785Z</time></trkpt><trkpt lat="43.6298733" lon="13.0313117"><ele>98.0</ele><time>2026-04-29T11:54:07.785Z</time></trkpt><trkpt lat="43.62997" lon="13.0314167"><ele>98.0</ele><time>2026-04-29T11:54:08.785Z</time></trkpt><trkpt lat="43.6300667" lon="13.0315267"><ele>98.0</ele><time>2026-04-29T11:54:09.785Z</time></trkpt><trkpt lat="43.6301617" lon="13.031645"><ele>98.25</ele><time>2026-04-29T11:54:10.785Z</time></trkpt><trkpt lat="43.6302517" lon="13.031765"><ele>98.5</ele><time>2026-04-29T11:54:11.785Z</time></trkpt><trkpt lat="43.6303483" lon="13.03189"><ele>98.75</ele><time>2026-04-29T11:54:12.784Z</time></trkpt><trkpt lat="43.6304283" lon="13.0320183"><ele>99.0</ele><time>2026-04-29T11:54:13.785Z</time></trkpt><trkpt lat="43.6305017" lon="13.0321467"><ele>100.4</ele><time>2026-04-29T11:54:14.785Z</time></trkpt><trkpt lat="43.6305617" lon="13.0322717"><ele>101.80000000000001</ele><time>2026-04-29T11:54:15.785Z</time></trkpt><trkpt lat="43.6306167" lon="13.0323917"><ele>103.19999999999999</ele><time>2026-04-29T11:54:16.785Z</time></trkpt><trkpt lat="43.63067" lon="13.0324917"><ele>104.6</ele><time>2026-04-29T11:54:17.784Z</time></trkpt><trkpt lat="43.6307317" lon="13.0325783"><ele>106.0</ele><time>2026-04-29T11:54:18.784Z</time></trkpt><trkpt lat="43.6308083" lon="13.03264"><ele>106.0</ele><time>2026-04-29T11:54:19.783Z</time></trkpt><trkpt lat="43.6308933" lon="13.0327"><ele>106.0</ele><time>2026-04-29T11:54:20.784Z</time></trkpt><trkpt lat="43.6309817" lon="13.0327617"><ele>106.0</ele><time>2026-04-29T11:54:21.784Z</time></trkpt><trkpt lat="43.6310667" lon="13.0328283"><ele>106.0</ele><time>2026-04-29T11:54:22.784Z</time></trkpt><trkpt lat="43.6311517" lon="13.0329083"><ele>106.0</ele><time>2026-04-29T11:54:23.784Z</time></trkpt><trkpt lat="43.631245" lon="13.0330067"><ele>107.25</ele><time>2026-04-29T11:54:24.784Z</time></trkpt><trkpt lat="43.6313367" lon="13.0331133"><ele>108.5</ele><time>2026-04-29T11:54:25.784Z</time></trkpt><trkpt lat="43.6314333" lon="13.0332283"><ele>109.75</ele><time>2026-04-29T11:54:26.784Z</time></trkpt><trkpt lat="43.6315333" lon="13.0333383"><ele>111.0</ele><time>2026-04-29T11:54:27.783Z</time></trkpt><trkpt lat="43.6316333" lon="13.0334433"><ele>111.0</ele><time>2026-04-29T11:54:28.784Z</time></trkpt><trkpt lat="43.6317383" lon="13.0335483"><ele>111.0</ele><time>2026-04-29T11:54:29.784Z</time></trkpt><trkpt lat="43.6318417" lon="13.0336483"><ele>111.0</ele><time>2026-04-29T11:54:30.784Z</time></trkpt><trkpt lat="43.631945" lon="13.033755"><ele>111.0</ele><time>2026-04-29T11:54:31.784Z</time></trkpt><trkpt lat="43.6320433" lon="13.0338617"><ele>111.5</ele><time>2026-04-29T11:54:32.784Z</time></trkpt><trkpt lat="43.6321433" lon="13.0339633"><ele>112.0</ele><time>2026-04-29T11:54:33.784Z</time></trkpt><trkpt lat="43.6322433" lon="13.0340567"><ele>112.5</ele><time>2026-04-29T11:54:34.784Z</time></trkpt><trkpt lat="43.63234" lon="13.0341483"><ele>113.0</ele><time>2026-04-29T11:54:35.784Z</time></trkpt><trkpt lat="43.632445" lon="13.034225"><ele>113.0</ele><time>2026-04-29T11:54:36.784Z</time></trkpt><trkpt lat="43.63255" lon="13.0342933"><ele>113.0</ele><time>2026-04-29T11:54:37.784Z</time></trkpt><trkpt lat="43.632665" lon="13.0343633"><ele>113.0</ele><time>2026-04-29T11:54:38.784Z</time></trkpt><trkpt lat="43.632775" lon="13.0344317"><ele>113.0</ele><time>2026-04-29T11:54:39.784Z</time></trkpt><trkpt lat="43.6328883" lon="13.0345067"><ele>115.25</ele><time>2026-04-29T11:54:40.784Z</time></trkpt><trkpt lat="43.6330067" lon="13.03458"><ele>117.5</ele><time>2026-04-29T11:54:41.783Z</time></trkpt><trkpt lat="43.6331267" lon="13.0346367"><ele>119.75</ele><time>2026-04-29T11:54:42.784Z</time></trkpt><trkpt lat="43.63325" lon="13.0346717"><ele>122.0</ele><time>2026-04-29T11:54:43.784Z</time></trkpt><trkpt lat="43.633375" lon="13.034705"><ele>122.0</ele><time>2026-04-29T11:54:44.784Z</time></trkpt><trkpt lat="43.633505" lon="13.0347283"><ele>122.0</ele><time>2026-04-29T11:54:45.784Z</time></trkpt><trkpt lat="43.633635" lon="13.0347533"><ele>122.0</ele><time>2026-04-29T11:54:46.784Z</time></trkpt><trkpt lat="43.63376" lon="13.0347833"><ele>122.0</ele><time>2026-04-29T11:54:47.783Z</time></trkpt><trkpt lat="43.6338883" lon="13.0348283"><ele>122.75</ele><time>2026-04-29T11:54:48.784Z</time></trkpt><trkpt lat="43.6340133" lon="13.0348767"><ele>123.5</ele><time>2026-04-29T11:54:49.784Z</time></trkpt><trkpt lat="43.634135" lon="13.0349183"><ele>124.25</ele><time>2026-04-29T11:54:50.784Z</time></trkpt><trkpt lat="43.6342567" lon="13.03496"><ele>125.0</ele><time>2026-04-29T11:54:51.784Z</time></trkpt><trkpt lat="43.6343817" lon="13.035"><ele>127.25</ele><time>2026-04-29T11:54:52.784Z</time></trkpt><trkpt lat="43.634505" lon="13.0350417"><ele>129.5</ele><time>2026-04-29T11:54:53.784Z</time></trkpt><trkpt lat="43.6346317" lon="13.0350883"><ele>131.75</ele><time>2026-04-29T11:54:54.784Z</time></trkpt><trkpt lat="43.6347567" lon="13.0351367"><ele>134.0</ele><time>2026-04-29T11:54:55.784Z</time></trkpt><trkpt lat="43.6348783" lon="13.035185"><ele>134.0</ele><time>2026-04-29T11:54:56.783Z</time></trkpt><trkpt lat="43.6350033" lon="13.0352367"><ele>134.0</ele><time>2026-04-29T11:54:57.784Z</time></trkpt><trkpt lat="43.63512" lon="13.0352867"><ele>134.0</ele><time>2026-04-29T11:54:58.784Z</time></trkpt><trkpt lat="43.635225" lon="13.0353433"><ele>134.0</ele><time>2026-04-29T11:54:59.784Z</time></trkpt><trkpt lat="43.6353233" lon="13.0354217"><ele>134.75</ele><time>2026-04-29T11:55:00.783Z</time></trkpt><trkpt lat="43.6354" lon="13.035525"><ele>135.5</ele><time>2026-04-29T11:55:01.784Z</time></trkpt><trkpt lat="43.63548" lon="13.0356517"><ele>136.25</ele><time>2026-04-29T11:55:02.783Z</time></trkpt><trkpt lat="43.635555" lon="13.0357867"><ele>137.0</ele><time>2026-04-29T11:55:03.784Z</time></trkpt><trkpt lat="43.6356283" lon="13.0359133"><ele>137.0</ele><time>2026-04-29T11:55:04.783Z</time></trkpt><trkpt lat="43.635715" lon="13.0360317"><ele>137.0</ele><time>2026-04-29T11:55:05.784Z</time></trkpt><trkpt lat="43.6357983" lon="13.0361533"><ele>137.0</ele><time>2026-04-29T11:55:06.783Z</time></trkpt><trkpt lat="43.635885" lon="13.0362733"><ele>137.0</ele><time>2026-04-29T11:55:07.784Z</time></trkpt><trkpt lat="43.635975" lon="13.0363933"><ele>137.0</ele><time>2026-04-29T11:55:08.784Z</time></trkpt><trkpt lat="43.6360633" lon="13.0365133"><ele>137.0</ele><time>2026-04-29T11:55:09.784Z</time></trkpt><trkpt lat="43.63615" lon="13.0366367"><ele>137.0</ele><time>2026-04-29T11:55:10.784Z</time></trkpt><trkpt lat="43.6362283" lon="13.0367533"><ele>137.0</ele><time>2026-04-29T11:55:11.784Z</time></trkpt><trkpt lat="43.63631" lon="13.0368683"><ele>138.5</ele><time>2026-04-29T11:55:12.784Z</time></trkpt><trkpt lat="43.636395" lon="13.0369917"><ele>140.0</ele><time>2026-04-29T11:55:13.784Z</time></trkpt><trkpt lat="43.6364683" lon="13.0371167"><ele>141.5</ele><time>2026-04-29T11:55:14.784Z</time></trkpt><trkpt lat="43.6365417" lon="13.0372567"><ele>143.0</ele><time>2026-04-29T11:55:15.784Z</time></trkpt><trkpt lat="43.6366133" lon="13.0373967"><ele>143.0</ele><time>2026-04-29T11:55:16.784Z</time></trkpt><trkpt lat="43.6366867" lon="13.0375383"><ele>143.0</ele><time>2026-04-29T11:55:17.783Z</time></trkpt><trkpt lat="43.6367567" lon="13.0376783"><ele>143.0</ele><time>2026-04-29T11:55:18.784Z</time></trkpt><trkpt lat="43.6368233" lon="13.0378117"><ele>143.0</ele><time>2026-04-29T11:55:19.784Z</time></trkpt><trkpt lat="43.6368933" lon="13.03794"><ele>143.0</ele><time>2026-04-29T11:55:20.784Z</time></trkpt><trkpt lat="43.6369667" lon="13.0380483"><ele>143.0</ele><time>2026-04-29T11:55:21.784Z</time></trkpt><trkpt lat="43.6370417" lon="13.038155"><ele>143.0</ele><time>2026-04-29T11:55:22.784Z</time></trkpt><trkpt lat="43.63712" lon="13.038255"><ele>143.0</ele><time>2026-04-29T11:55:23.784Z</time></trkpt><trkpt lat="43.6371983" lon="13.03835"><ele>143.0</ele><time>2026-04-29T11:55:24.784Z</time></trkpt><trkpt lat="43.6372817" lon="13.03845"><ele>146.4</ele><time>2026-04-29T11:55:25.784Z</time></trkpt><trkpt lat="43.6373617" lon="13.038555"><ele>149.8</ele><time>2026-04-29T11:55:26.784Z</time></trkpt><trkpt lat="43.6374367" lon="13.0386583"><ele>153.2</ele><time>2026-04-29T11:55:27.784Z</time></trkpt><trkpt lat="43.6375017" lon="13.0387583"><ele>156.6</ele><time>2026-04-29T11:55:28.783Z</time></trkpt><trkpt lat="43.6375633" lon="13.0388583"><ele>160.0</ele><time>2026-04-29T11:55:29.783Z</time></trkpt><trkpt lat="43.637605" lon="13.0389633"><ele>160.0</ele><time>2026-04-29T11:55:30.784Z</time></trkpt><trkpt lat="43.6376417" lon="13.03909"><ele>160.0</ele><time>2026-04-29T11:55:31.783Z</time></trkpt><trkpt lat="43.6376683" lon="13.03922"><ele>160.0</ele><time>2026-04-29T11:55:32.783Z</time></trkpt><trkpt lat="43.6377017" lon="13.039345"><ele>160.0</ele><time>2026-04-29T11:55:33.783Z</time></trkpt><trkpt lat="43.6377567" lon="13.0394633"><ele>160.0</ele><time>2026-04-29T11:55:34.784Z</time></trkpt><trkpt lat="43.637825" lon="13.0395617"><ele>162.8</ele><time>2026-04-29T11:55:35.783Z</time></trkpt><trkpt lat="43.63791" lon="13.03964"><ele>165.6</ele><time>2026-04-29T11:55:36.784Z</time></trkpt><trkpt lat="43.6380067" lon="13.0397217"><ele>168.39999999999998</ele><time>2026-04-29T11:55:37.784Z</time></trkpt><trkpt lat="43.6381083" lon="13.0398033"><ele>171.2</ele><time>2026-04-29T11:55:38.783Z</time></trkpt><trkpt lat="43.6382" lon="13.0398717"><ele>174.0</ele><time>2026-04-29T11:55:39.784Z</time></trkpt><trkpt lat="43.6382917" lon="13.03995"><ele>174.16666666666666</ele><time>2026-04-29T11:55:40.784Z</time></trkpt><trkpt lat="43.6383833" lon="13.040005"><ele>174.33333333333334</ele><time>2026-04-29T11:55:41.784Z</time></trkpt><trkpt lat="43.6384717" lon="13.0400567"><ele>174.5</ele><time>2026-04-29T11:55:42.783Z</time></trkpt><trkpt lat="43.638545" lon="13.0400933"><ele>174.66666666666669</ele><time>2026-04-29T11:55:43.784Z</time></trkpt><trkpt lat="43.6386083" lon="13.040115"><ele>174.83333333333334</ele><time>2026-04-29T11:55:44.784Z</time></trkpt><trkpt lat="43.6386733" lon="13.0401433"><ele>175.0</ele><time>2026-04-29T11:55:46.784Z</time></trkpt><trkpt lat="43.6387667" lon="13.04013"><ele>174.6</ele><time>2026-04-29T11:56:31.784Z</time></trkpt><trkpt lat="43.6388583" lon="13.0401433"><ele>174.2</ele><time>2026-04-29T11:56:33.784Z</time></trkpt><trkpt lat="43.6389367" lon="13.0402483"><ele>173.8</ele><time>2026-04-29T11:56:35.783Z</time></trkpt><trkpt lat="43.63899" lon="13.0403267"><ele>173.4</ele><time>2026-04-29T11:56:38.784Z</time></trkpt><trkpt lat="43.6390667" lon="13.04041"><ele>173.0</ele><time>2026-04-29T11:56:43.784Z</time></trkpt><trkpt lat="43.6391283" lon="13.04049"><ele>173.0</ele><time>2026-04-29T11:56:44.784Z</time></trkpt><trkpt lat="43.639215" lon="13.0405883"><ele>173.0</ele><time>2026-04-29T11:56:45.784Z</time></trkpt><trkpt lat="43.6393117" lon="13.040705"><ele>173.0</ele><time>2026-04-29T11:56:46.783Z</time></trkpt><trkpt lat="43.6393933" lon="13.04082"><ele>173.0</ele><time>2026-04-29T11:56:47.784Z</time></trkpt><trkpt lat="43.639445" lon="13.0409333"><ele>172.4</ele><time>2026-04-29T11:56:48.784Z</time></trkpt><trkpt lat="43.639465" lon="13.0410517"><ele>171.8</ele><time>2026-04-29T11:56:49.784Z</time></trkpt><trkpt lat="43.6394517" lon="13.041185"><ele>171.2</ele><time>2026-04-29T11:56:50.784Z</time></trkpt><trkpt lat="43.63942" lon="13.0413517"><ele>170.6</ele><time>2026-04-29T11:56:51.784Z</time></trkpt><trkpt lat="43.6393917" lon="13.0415017"><ele>170.0</ele><time>2026-04-29T11:56:52.784Z</time></trkpt><trkpt lat="43.6393917" lon="13.04163"><ele>169.2</ele><time>2026-04-29T11:56:53.784Z</time></trkpt><trkpt lat="43.63942" lon="13.04174"><ele>168.4</ele><time>2026-04-29T11:56:54.784Z</time></trkpt><trkpt lat="43.63949" lon="13.0418333"><ele>167.60000000000002</ele><time>2026-04-29T11:56:55.784Z</time></trkpt><trkpt lat="43.6395883" lon="13.041925"><ele>166.8</ele><time>2026-04-29T11:56:56.784Z</time></trkpt><trkpt lat="43.6396933" lon="13.0420233"><ele>166.0</ele><time>2026-04-29T11:56:57.784Z</time></trkpt><trkpt lat="43.6398017" lon="13.04212"><ele>164.0</ele><time>2026-04-29T11:56:58.783Z</time></trkpt><trkpt lat="43.63992" lon="13.0422183"><ele>162.0</ele><time>2026-04-29T11:56:59.783Z</time></trkpt><trkpt lat="43.64003" lon="13.0423083"><ele>160.0</ele><time>2026-04-29T11:57:00.784Z</time></trkpt><trkpt lat="43.640135" lon="13.0423983"><ele>158.0</ele><time>2026-04-29T11:57:01.783Z</time></trkpt><trkpt lat="43.640235" lon="13.0424983"><ele>155.8</ele><time>2026-04-29T11:57:02.783Z</time></trkpt><trkpt lat="43.6403233" lon="13.04258"><ele>153.60000000000002</ele><time>2026-04-29T11:57:03.784Z</time></trkpt><trkpt lat="43.6404033" lon="13.0426633"><ele>151.39999999999998</ele><time>2026-04-29T11:57:04.784Z</time></trkpt><trkpt lat="43.6404767" lon="13.0427417"><ele>149.2</ele><time>2026-04-29T11:57:05.784Z</time></trkpt><trkpt lat="43.6405467" lon="13.0428167"><ele>147.0</ele><time>2026-04-29T11:57:06.784Z</time></trkpt><trkpt lat="43.6406267" lon="13.04289"><ele>147.0</ele><time>2026-04-29T11:57:07.783Z</time></trkpt><trkpt lat="43.6407067" lon="13.0429517"><ele>147.0</ele><time>2026-04-29T11:57:08.784Z</time></trkpt><trkpt lat="43.6407883" lon="13.043015"><ele>147.0</ele><time>2026-04-29T11:57:09.784Z</time></trkpt><trkpt lat="43.6408783" lon="13.0430633"><ele>147.0</ele><time>2026-04-29T11:57:10.784Z</time></trkpt><trkpt lat="43.6409717" lon="13.0430883"><ele>147.0</ele><time>2026-04-29T11:57:11.783Z</time></trkpt><trkpt lat="43.64107" lon="13.043095"><ele>144.2</ele><time>2026-04-29T11:57:12.784Z</time></trkpt><trkpt lat="43.6411667" lon="13.0430833"><ele>141.39999999999998</ele><time>2026-04-29T11:57:13.784Z</time></trkpt><trkpt lat="43.64127" lon="13.0430633"><ele>138.60000000000002</ele><time>2026-04-29T11:57:14.784Z</time></trkpt><trkpt lat="43.641375" lon="13.0430633"><ele>135.8</ele><time>2026-04-29T11:57:15.784Z</time></trkpt><trkpt lat="43.6414833" lon="13.0430833"><ele>133.0</ele><time>2026-04-29T11:57:16.784Z</time></trkpt><trkpt lat="43.6416" lon="13.043125"><ele>133.0</ele><time>2026-04-29T11:57:17.784Z</time></trkpt><trkpt lat="43.6417133" lon="13.043185"><ele>133.0</ele><time>2026-04-29T11:57:18.784Z</time></trkpt><trkpt lat="43.6418283" lon="13.043255"><ele>133.0</ele><time>2026-04-29T11:57:19.784Z</time></trkpt><trkpt lat="43.6419383" lon="13.043325"><ele>133.0</ele><time>2026-04-29T11:57:20.784Z</time></trkpt><trkpt lat="43.6420533" lon="13.0434033"><ele>131.0</ele><time>2026-04-29T11:57:21.783Z</time></trkpt><trkpt lat="43.6421733" lon="13.04348"><ele>129.0</ele><time>2026-04-29T11:57:22.783Z</time></trkpt><trkpt lat="43.642295" lon="13.043555"><ele>127.0</ele><time>2026-04-29T11:57:23.784Z</time></trkpt><trkpt lat="43.6424083" lon="13.0436333"><ele>125.0</ele><time>2026-04-29T11:57:24.784Z</time></trkpt><trkpt lat="43.642525" lon="13.0437183"><ele>125.0</ele><time>2026-04-29T11:57:25.784Z</time></trkpt><trkpt lat="43.6426367" lon="13.0438067"><ele>125.0</ele><time>2026-04-29T11:57:26.784Z</time></trkpt><trkpt lat="43.6427367" lon="13.0438933"><ele>125.0</ele><time>2026-04-29T11:57:27.784Z</time></trkpt><trkpt lat="43.642845" lon="13.0439883"><ele>125.0</ele><time>2026-04-29T11:57:28.784Z</time></trkpt><trkpt lat="43.6429517" lon="13.0440867"><ele>123.75</ele><time>2026-04-29T11:57:29.784Z</time></trkpt><trkpt lat="43.64305" lon="13.0441933"><ele>122.5</ele><time>2026-04-29T11:57:30.784Z</time></trkpt><trkpt lat="43.6431433" lon="13.0443083"><ele>121.25</ele><time>2026-04-29T11:57:31.784Z</time></trkpt><trkpt lat="43.64323" lon="13.04443"><ele>120.0</ele><time>2026-04-29T11:57:32.784Z</time></trkpt><trkpt lat="43.6433167" lon="13.0445483"><ele>120.0</ele><time>2026-04-29T11:57:33.784Z</time></trkpt><trkpt lat="43.6434033" lon="13.0446633"><ele>120.0</ele><time>2026-04-29T11:57:34.784Z</time></trkpt><trkpt lat="43.6434867" lon="13.0447733"><ele>120.0</ele><time>2026-04-29T11:57:35.784Z</time></trkpt><trkpt lat="43.6435817" lon="13.0448733"><ele>120.0</ele><time>2026-04-29T11:57:36.784Z</time></trkpt><trkpt lat="43.6436833" lon="13.04497"><ele>117.75</ele><time>2026-04-29T11:57:37.784Z</time></trkpt><trkpt lat="43.64379" lon="13.04506"><ele>115.5</ele><time>2026-04-29T11:57:38.784Z</time></trkpt><trkpt lat="43.6439083" lon="13.04515"><ele>113.25</ele><time>2026-04-29T11:57:39.784Z</time></trkpt><trkpt lat="43.6440217" lon="13.045235"><ele>111.0</ele><time>2026-04-29T11:57:40.783Z</time></trkpt><trkpt lat="43.6441383" lon="13.0453167"><ele>111.0</ele><time>2026-04-29T11:57:41.784Z</time></trkpt><trkpt lat="43.6442567" lon="13.0453983"><ele>111.0</ele><time>2026-04-29T11:57:42.784Z</time></trkpt><trkpt lat="43.64437" lon="13.0454767"><ele>111.0</ele><time>2026-04-29T11:57:43.783Z</time></trkpt><trkpt lat="43.6444833" lon="13.0455533"><ele>111.0</ele><time>2026-04-29T11:57:44.784Z</time></trkpt><trkpt lat="43.6446083" lon="13.045625"><ele>109.75</ele><time>2026-04-29T11:57:45.784Z</time></trkpt><trkpt lat="43.6447283" lon="13.04569"><ele>108.5</ele><time>2026-04-29T11:57:46.783Z</time></trkpt><trkpt lat="43.644855" lon="13.04576"><ele>107.25</ele><time>2026-04-29T11:57:47.784Z</time></trkpt><trkpt lat="43.6449883" lon="13.0458383"><ele>106.0</ele><time>2026-04-29T11:57:48.784Z</time></trkpt><trkpt lat="43.6451167" lon="13.0459233"><ele>105.25</ele><time>2026-04-29T11:57:49.784Z</time></trkpt><trkpt lat="43.6452367" lon="13.0460267"><ele>104.5</ele><time>2026-04-29T11:57:50.784Z</time></trkpt><trkpt lat="43.6453467" lon="13.0461383"><ele>103.75</ele><time>2026-04-29T11:57:51.784Z</time></trkpt><trkpt lat="43.6454467" lon="13.04627"><ele>103.0</ele><time>2026-04-29T11:57:52.784Z</time></trkpt><trkpt lat="43.6455417" lon="13.0464167"><ele>106.0</ele><time>2026-04-29T11:57:53.784Z</time></trkpt><trkpt lat="43.6456383" lon="13.046575"><ele>109.0</ele><time>2026-04-29T11:57:54.784Z</time></trkpt><trkpt lat="43.6457317" lon="13.0467333"><ele>112.0</ele><time>2026-04-29T11:57:55.784Z</time></trkpt><trkpt lat="43.6458233" lon="13.046895"><ele>115.0</ele><time>2026-04-29T11:57:56.783Z</time></trkpt><trkpt lat="43.6459033" lon="13.0470633"><ele>115.5</ele><time>2026-04-29T11:57:57.784Z</time></trkpt><trkpt lat="43.645975" lon="13.0472117"><ele>116.0</ele><time>2026-04-29T11:57:58.783Z</time></trkpt><trkpt lat="43.64605" lon="13.0473467"><ele>116.5</ele><time>2026-04-29T11:57:59.784Z</time></trkpt><trkpt lat="43.64613" lon="13.04747"><ele>117.0</ele><time>2026-04-29T11:58:00.784Z</time></trkpt><trkpt lat="43.6462133" lon="13.0475867"><ele>121.25</ele><time>2026-04-29T11:58:01.784Z</time></trkpt><trkpt lat="43.6463067" lon="13.047685"><ele>125.5</ele><time>2026-04-29T11:58:02.784Z</time></trkpt><trkpt lat="43.646405" lon="13.0477683"><ele>129.75</ele><time>2026-04-29T11:58:03.784Z</time></trkpt><trkpt lat="43.6465133" lon="13.0478533"><ele>134.0</ele><time>2026-04-29T11:58:04.783Z</time></trkpt><trkpt lat="43.646615" lon="13.047945"><ele>134.0</ele><time>2026-04-29T11:58:05.783Z</time></trkpt><trkpt lat="43.6467117" lon="13.04804"><ele>134.0</ele><time>2026-04-29T11:58:06.784Z</time></trkpt><trkpt lat="43.6467983" lon="13.0481583"><ele>134.0</ele><time>2026-04-29T11:58:07.784Z</time></trkpt><trkpt lat="43.6468883" lon="13.0482717"><ele>134.0</ele><time>2026-04-29T11:58:08.783Z</time></trkpt><trkpt lat="43.6469783" lon="13.0483833"><ele>137.6</ele><time>2026-04-29T11:58:09.784Z</time></trkpt><trkpt lat="43.6470583" lon="13.0484883"><ele>141.2</ele><time>2026-04-29T11:58:10.784Z</time></trkpt><trkpt lat="43.647135" lon="13.04858"><ele>144.79999999999998</ele><time>2026-04-29T11:58:11.783Z</time></trkpt><trkpt lat="43.647205" lon="13.0486617"><ele>148.4</ele><time>2026-04-29T11:58:12.784Z</time></trkpt><trkpt lat="43.6472567" lon="13.0487317"><ele>152.0</ele><time>2026-04-29T11:58:13.784Z</time></trkpt><trkpt lat="43.6473283" lon="13.0488233"><ele>152.0</ele><time>2026-04-29T11:58:15.783Z</time></trkpt><trkpt lat="43.6474" lon="13.04892"><ele>152.0</ele><time>2026-04-29T11:58:17.784Z</time></trkpt><trkpt lat="43.6474833" lon="13.0490317"><ele>152.0</ele><time>2026-04-29T11:58:19.784Z</time></trkpt><trkpt lat="43.6475317" lon="13.049095"><ele>152.0</ele><time>2026-04-29T11:58:20.784Z</time></trkpt><trkpt lat="43.6475783" lon="13.049165"><ele>152.0</ele><time>2026-04-29T11:58:21.783Z</time></trkpt><trkpt lat="43.6476217" lon="13.0492417"><ele>152.0</ele><time>2026-04-29T11:58:22.784Z</time></trkpt><trkpt lat="43.647665" lon="13.0493133"><ele>152.33333333333331</ele><time>2026-04-29T11:58:23.784Z</time></trkpt><trkpt lat="43.6477483" lon="13.0494483"><ele>152.66666666666666</ele><time>2026-04-29T11:58:25.784Z</time></trkpt><trkpt lat="43.6477883" lon="13.0495283"><ele>153.0</ele><time>2026-04-29T11:58:26.783Z</time></trkpt><trkpt lat="43.6478367" lon="13.0496033"><ele>153.33333333333334</ele><time>2026-04-29T11:58:27.784Z</time></trkpt><trkpt lat="43.6478783" lon="13.0496717"><ele>153.66666666666669</ele><time>2026-04-29T11:58:28.784Z</time></trkpt><trkpt lat="43.6479233" lon="13.0497883"><ele>154.0</ele><time>2026-04-29T11:58:30.784Z</time></trkpt><trkpt lat="43.6479317" lon="13.0499267"><ele>154.8</ele><time>2026-04-29T11:58:33.784Z</time></trkpt><trkpt lat="43.6479183" lon="13.0500567"><ele>155.60000000000002</ele><time>2026-04-29T11:58:35.784Z</time></trkpt><trkpt lat="43.647885" lon="13.05015"><ele>156.4</ele><time>2026-04-29T11:58:37.784Z</time></trkpt><trkpt lat="43.6478433" lon="13.0502367"><ele>157.20000000000002</ele><time>2026-04-29T11:58:40.784Z</time></trkpt><trkpt lat="43.6477683" lon="13.0503433"><ele>158.0</ele><time>2026-04-29T11:58:43.784Z</time></trkpt><trkpt lat="43.6476667" lon="13.0504717"><ele>158.0</ele><time>2026-04-29T11:58:45.784Z</time></trkpt><trkpt lat="43.6476" lon="13.050565"><ele>158.0</ele><time>2026-04-29T11:58:46.784Z</time></trkpt><trkpt lat="43.6475283" lon="13.0506683"><ele>158.0</ele><time>2026-04-29T11:58:47.784Z</time></trkpt><trkpt lat="43.64746" lon="13.0507533"><ele>158.0</ele><time>2026-04-29T11:58:48.784Z</time></trkpt><trkpt lat="43.64738" lon="13.0508433"><ele>158.0</ele><time>2026-04-29T11:58:50.784Z</time></trkpt><trkpt lat="43.6473333" lon="13.05092"><ele>158.0</ele><time>2026-04-29T11:58:52.783Z</time></trkpt><trkpt lat="43.6472667" lon="13.0510283"><ele>158.0</ele><time>2026-04-29T11:58:54.784Z</time></trkpt><trkpt lat="43.6472267" lon="13.0511017"><ele>158.0</ele><time>2026-04-29T11:58:55.783Z</time></trkpt><trkpt lat="43.64718" lon="13.0511867"><ele>158.0</ele><time>2026-04-29T11:58:56.784Z</time></trkpt><trkpt lat="43.6471267" lon="13.0512767"><ele>158.0</ele><time>2026-04-29T11:58:57.784Z</time></trkpt><trkpt lat="43.6470617" lon="13.05137"><ele>158.0</ele><time>2026-04-29T11:58:58.783Z</time></trkpt><trkpt lat="43.6469917" lon="13.051475"><ele>157.8</ele><time>2026-04-29T11:58:59.783Z</time></trkpt><trkpt lat="43.646925" lon="13.05157"><ele>157.60000000000002</ele><time>2026-04-29T11:59:00.784Z</time></trkpt><trkpt lat="43.6468667" lon="13.0516767"><ele>157.39999999999998</ele><time>2026-04-29T11:59:01.784Z</time></trkpt><trkpt lat="43.6468" lon="13.0517767"><ele>157.2</ele><time>2026-04-29T11:59:02.784Z</time></trkpt><trkpt lat="43.6467317" lon="13.0518817"><ele>157.0</ele><time>2026-04-29T11:59:03.784Z</time></trkpt><trkpt lat="43.64666" lon="13.051995"><ele>156.25</ele><time>2026-04-29T11:59:04.784Z</time></trkpt><trkpt lat="43.6465833" lon="13.0520983"><ele>155.5</ele><time>2026-04-29T11:59:05.784Z</time></trkpt><trkpt lat="43.6465033" lon="13.0522183"><ele>154.75</ele><time>2026-04-29T11:59:06.784Z</time></trkpt><trkpt lat="43.646425" lon="13.0523383"><ele>154.0</ele><time>2026-04-29T11:59:07.784Z</time></trkpt><trkpt lat="43.6463483" lon="13.0524567"><ele>152.5</ele><time>2026-04-29T11:59:08.784Z</time></trkpt><trkpt lat="43.646265" lon="13.0525683"><ele>151.0</ele><time>2026-04-29T11:59:09.784Z</time></trkpt><trkpt lat="43.646185" lon="13.0526883"><ele>149.5</ele><time>2026-04-29T11:59:10.783Z</time></trkpt><trkpt lat="43.646105" lon="13.0528017"><ele>148.0</ele><time>2026-04-29T11:59:11.784Z</time></trkpt><trkpt lat="43.6460183" lon="13.0529233"><ele>147.5</ele><time>2026-04-29T11:59:12.784Z</time></trkpt><trkpt lat="43.6459267" lon="13.0530383"><ele>147.0</ele><time>2026-04-29T11:59:13.784Z</time></trkpt><trkpt lat="43.645835" lon="13.053145"><ele>146.5</ele><time>2026-04-29T11:59:14.784Z</time></trkpt><trkpt lat="43.6457417" lon="13.0532333"><ele>146.0</ele><time>2026-04-29T11:59:15.784Z</time></trkpt><trkpt lat="43.6456317" lon="13.0533217"><ele>146.0</ele><time>2026-04-29T11:59:16.784Z</time></trkpt><trkpt lat="43.64552" lon="13.0534033"><ele>146.0</ele><time>2026-04-29T11:59:17.784Z</time></trkpt><trkpt lat="43.6454017" lon="13.053475"><ele>146.0</ele><time>2026-04-29T11:59:18.783Z</time></trkpt><trkpt lat="43.6452933" lon="13.0535583"><ele>146.0</ele><time>2026-04-29T11:59:19.784Z</time></trkpt><trkpt lat="43.645175" lon="13.05364"><ele>145.5</ele><time>2026-04-29T11:59:20.784Z</time></trkpt><trkpt lat="43.64506" lon="13.0537217"><ele>145.0</ele><time>2026-04-29T11:59:21.783Z</time></trkpt><trkpt lat="43.64495" lon="13.0538017"><ele>144.5</ele><time>2026-04-29T11:59:22.784Z</time></trkpt><trkpt lat="43.64483" lon="13.0538867"><ele>144.0</ele><time>2026-04-29T11:59:23.784Z</time></trkpt><trkpt lat="43.644715" lon="13.0539733"><ele>144.0</ele><time>2026-04-29T11:59:24.784Z</time></trkpt><trkpt lat="43.6446" lon="13.0540683"><ele>144.0</ele><time>2026-04-29T11:59:25.783Z</time></trkpt><trkpt lat="43.6444867" lon="13.0541617"><ele>144.0</ele><time>2026-04-29T11:59:26.783Z</time></trkpt><trkpt lat="43.6443817" lon="13.0542583"><ele>144.0</ele><time>2026-04-29T11:59:27.784Z</time></trkpt><trkpt lat="43.6442783" lon="13.0543567"><ele>143.75</ele><time>2026-04-29T11:59:28.783Z</time></trkpt><trkpt lat="43.64419" lon="13.0544617"><ele>143.5</ele><time>2026-04-29T11:59:29.784Z</time></trkpt><trkpt lat="43.6440867" lon="13.05457"><ele>143.25</ele><time>2026-04-29T11:59:30.784Z</time></trkpt><trkpt lat="43.643995" lon="13.0546883"><ele>143.0</ele><time>2026-04-29T11:59:31.784Z</time></trkpt><trkpt lat="43.6439067" lon="13.05481"><ele>143.0</ele><time>2026-04-29T11:59:32.784Z</time></trkpt><trkpt lat="43.6438217" lon="13.0549417"><ele>143.0</ele><time>2026-04-29T11:59:33.784Z</time></trkpt><trkpt lat="43.6437283" lon="13.05508"><ele>143.0</ele><time>2026-04-29T11:59:34.783Z</time></trkpt><trkpt lat="43.6436417" lon="13.0552267"><ele>143.0</ele><time>2026-04-29T11:59:35.784Z</time></trkpt><trkpt lat="43.6435483" lon="13.0553783"><ele>141.5</ele><time>2026-04-29T11:59:36.784Z</time></trkpt><trkpt lat="43.6434583" lon="13.0555267"><ele>140.0</ele><time>2026-04-29T11:59:37.784Z</time></trkpt><trkpt lat="43.643365" lon="13.055675"><ele>138.5</ele><time>2026-04-29T11:59:38.783Z</time></trkpt><trkpt lat="43.6432733" lon="13.055835"><ele>137.0</ele><time>2026-04-29T11:59:39.784Z</time></trkpt><trkpt lat="43.6431917" lon="13.0559883"><ele>135.75</ele><time>2026-04-29T11:59:40.784Z</time></trkpt><trkpt lat="43.6431" lon="13.0561383"><ele>134.5</ele><time>2026-04-29T11:59:41.784Z</time></trkpt><trkpt lat="43.6430083" lon="13.0562933"><ele>133.25</ele><time>2026-04-29T11:59:42.784Z</time></trkpt><trkpt lat="43.6429167" lon="13.0564517"><ele>132.0</ele><time>2026-04-29T11:59:43.784Z</time></trkpt><trkpt lat="43.64283" lon="13.0566017"><ele>131.0</ele><time>2026-04-29T11:59:44.783Z</time></trkpt><trkpt lat="43.6427467" lon="13.056755"><ele>130.0</ele><time>2026-04-29T11:59:45.784Z</time></trkpt><trkpt lat="43.6426583" lon="13.056915"><ele>129.0</ele><time>2026-04-29T11:59:46.784Z</time></trkpt><trkpt lat="43.6425767" lon="13.05707"><ele>128.0</ele><time>2026-04-29T11:59:47.784Z</time></trkpt><trkpt lat="43.6425" lon="13.0572333"><ele>128.0</ele><time>2026-04-29T11:59:48.784Z</time></trkpt><trkpt lat="43.6424233" lon="13.0573883"><ele>128.0</ele><time>2026-04-29T11:59:49.783Z</time></trkpt><trkpt lat="43.64235" lon="13.0575433"><ele>128.0</ele><time>2026-04-29T11:59:50.784Z</time></trkpt><trkpt lat="43.6422667" lon="13.05769"><ele>128.0</ele><time>2026-04-29T11:59:51.784Z</time></trkpt><trkpt lat="43.6421917" lon="13.057835"><ele>127.25</ele><time>2026-04-29T11:59:52.784Z</time></trkpt><trkpt lat="43.6421267" lon="13.0579733"><ele>126.5</ele><time>2026-04-29T11:59:53.784Z</time></trkpt><trkpt lat="43.6420583" lon="13.0581"><ele>125.75</ele><time>2026-04-29T11:59:54.784Z</time></trkpt><trkpt lat="43.6419833" lon="13.05822"><ele>125.0</ele><time>2026-04-29T11:59:55.784Z</time></trkpt><trkpt lat="43.6419133" lon="13.0583283"><ele>125.0</ele><time>2026-04-29T11:59:56.784Z</time></trkpt><trkpt lat="43.64183" lon="13.0584117"><ele>125.0</ele><time>2026-04-29T11:59:57.784Z</time></trkpt><trkpt lat="43.6417333" lon="13.0584667"><ele>125.0</ele><time>2026-04-29T11:59:58.784Z</time></trkpt><trkpt lat="43.6416267" lon="13.0584833"><ele>125.0</ele><time>2026-04-29T11:59:59.783Z</time></trkpt><trkpt lat="43.6415167" lon="13.0584533"><ele>125.0</ele><time>2026-04-29T12:00:00.784Z</time></trkpt><trkpt lat="43.6414" lon="13.0584267"><ele>125.0</ele><time>2026-04-29T12:00:01.784Z</time></trkpt><trkpt lat="43.6412817" lon="13.0583833"><ele>125.0</ele><time>2026-04-29T12:00:02.784Z</time></trkpt><trkpt lat="43.6411667" lon="13.0583333"><ele>125.0</ele><time>2026-04-29T12:00:03.783Z</time></trkpt><trkpt lat="43.64105" lon="13.05828"><ele>125.0</ele><time>2026-04-29T12:00:04.784Z</time></trkpt><trkpt lat="43.64093" lon="13.058245"><ele>124.0</ele><time>2026-04-29T12:00:05.784Z</time></trkpt><trkpt lat="43.6408133" lon="13.0582367"><ele>123.0</ele><time>2026-04-29T12:00:06.784Z</time></trkpt><trkpt lat="43.6406933" lon="13.0582533"><ele>122.0</ele><time>2026-04-29T12:00:07.783Z</time></trkpt><trkpt lat="43.64057" lon="13.0582933"><ele>121.0</ele><time>2026-04-29T12:00:08.784Z</time></trkpt><trkpt lat="43.64045" lon="13.058345"><ele>121.0</ele><time>2026-04-29T12:00:09.784Z</time></trkpt><trkpt lat="43.6403367" lon="13.0584067"><ele>121.0</ele><time>2026-04-29T12:00:10.784Z</time></trkpt><trkpt lat="43.64022" lon="13.0584733"><ele>121.0</ele><time>2026-04-29T12:00:11.784Z</time></trkpt><trkpt lat="43.6401017" lon="13.0585517"><ele>121.0</ele><time>2026-04-29T12:00:12.784Z</time></trkpt><trkpt lat="43.6399883" lon="13.05865"><ele>121.25</ele><time>2026-04-29T12:00:13.784Z</time></trkpt><trkpt lat="43.6398867" lon="13.0587633"><ele>121.5</ele><time>2026-04-29T12:00:14.784Z</time></trkpt><trkpt lat="43.6397867" lon="13.0588933"><ele>121.75</ele><time>2026-04-29T12:00:15.784Z</time></trkpt><trkpt lat="43.6396983" lon="13.0590267"><ele>122.0</ele><time>2026-04-29T12:00:16.784Z</time></trkpt><trkpt lat="43.6396167" lon="13.05916"><ele>122.0</ele><time>2026-04-29T12:00:17.784Z</time></trkpt><trkpt lat="43.6395217" lon="13.059265"><ele>122.0</ele><time>2026-04-29T12:00:18.784Z</time></trkpt><trkpt lat="43.6394083" lon="13.059345"><ele>122.0</ele><time>2026-04-29T12:00:19.784Z</time></trkpt><trkpt lat="43.639285" lon="13.0593967"><ele>122.0</ele><time>2026-04-29T12:00:20.784Z</time></trkpt><trkpt lat="43.6391583" lon="13.059425"><ele>118.25</ele><time>2026-04-29T12:00:21.783Z</time></trkpt><trkpt lat="43.63904" lon="13.0594517"><ele>114.5</ele><time>2026-04-29T12:00:22.784Z</time></trkpt><trkpt lat="43.63893" lon="13.0595"><ele>110.75</ele><time>2026-04-29T12:00:23.784Z</time></trkpt><trkpt lat="43.6388317" lon="13.0595817"><ele>107.0</ele><time>2026-04-29T12:00:24.784Z</time></trkpt><trkpt lat="43.6387533" lon="13.059685"><ele>107.0</ele><time>2026-04-29T12:00:25.784Z</time></trkpt><trkpt lat="43.638705" lon="13.0598067"><ele>106.99999999999999</ele><time>2026-04-29T12:00:26.784Z</time></trkpt><trkpt lat="43.6386917" lon="13.05995"><ele>106.99999999999999</ele><time>2026-04-29T12:00:27.784Z</time></trkpt><trkpt lat="43.638705" lon="13.06011"><ele>107.0</ele><time>2026-04-29T12:00:28.784Z</time></trkpt><trkpt lat="43.6387267" lon="13.0602767"><ele>107.0</ele><time>2026-04-29T12:00:29.783Z</time></trkpt><trkpt lat="43.6387533" lon="13.0604417"><ele>107.25</ele><time>2026-04-29T12:00:30.783Z</time></trkpt><trkpt lat="43.63878" lon="13.0606133"><ele>107.5</ele><time>2026-04-29T12:00:31.783Z</time></trkpt><trkpt lat="43.6388083" lon="13.0607967"><ele>107.75</ele><time>2026-04-29T12:00:32.784Z</time></trkpt><trkpt lat="43.63883" lon="13.06098"><ele>108.0</ele><time>2026-04-29T12:00:33.784Z</time></trkpt><trkpt lat="43.638855" lon="13.0611617"><ele>108.0</ele><time>2026-04-29T12:00:34.784Z</time></trkpt><trkpt lat="43.638885" lon="13.061335"><ele>108.0</ele><time>2026-04-29T12:00:35.784Z</time></trkpt><trkpt lat="43.6389183" lon="13.0615133"><ele>108.0</ele><time>2026-04-29T12:00:36.784Z</time></trkpt><trkpt lat="43.638945" lon="13.0616867"><ele>108.0</ele><time>2026-04-29T12:00:37.784Z</time></trkpt><trkpt lat="43.63897" lon="13.0618617"><ele>106.25</ele><time>2026-04-29T12:00:38.784Z</time></trkpt><trkpt lat="43.639005" lon="13.0620467"><ele>104.5</ele><time>2026-04-29T12:00:39.784Z</time></trkpt><trkpt lat="43.6390367" lon="13.0622383"><ele>102.75</ele><time>2026-04-29T12:00:40.783Z</time></trkpt><trkpt lat="43.6390667" lon="13.06243"><ele>101.0</ele><time>2026-04-29T12:00:41.784Z</time></trkpt><trkpt lat="43.6391" lon="13.0626233"><ele>99.75</ele><time>2026-04-29T12:00:42.784Z</time></trkpt><trkpt lat="43.6391383" lon="13.0628167"><ele>98.5</ele><time>2026-04-29T12:00:43.784Z</time></trkpt><trkpt lat="43.6391717" lon="13.0630167"><ele>97.25</ele><time>2026-04-29T12:00:44.783Z</time></trkpt><trkpt lat="43.6392117" lon="13.063215"><ele>96.0</ele><time>2026-04-29T12:00:45.783Z</time></trkpt><trkpt lat="43.6392433" lon="13.0634133"><ele>94.5</ele><time>2026-04-29T12:00:46.784Z</time></trkpt><trkpt lat="43.639275" lon="13.0636117"><ele>93.0</ele><time>2026-04-29T12:00:47.784Z</time></trkpt><trkpt lat="43.6393067" lon="13.0638033"><ele>91.5</ele><time>2026-04-29T12:00:48.784Z</time></trkpt><trkpt lat="43.6393367" lon="13.06399"><ele>90.0</ele><time>2026-04-29T12:00:49.784Z</time></trkpt><trkpt lat="43.6393683" lon="13.064175"><ele>88.0</ele><time>2026-04-29T12:00:50.783Z</time></trkpt><trkpt lat="43.6394" lon="13.06434"><ele>86.0</ele><time>2026-04-29T12:00:51.784Z</time></trkpt><trkpt lat="43.63942" lon="13.06453"><ele>84.0</ele><time>2026-04-29T12:00:52.784Z</time></trkpt><trkpt lat="43.63943" lon="13.0647"><ele>82.0</ele><time>2026-04-29T12:00:53.784Z</time></trkpt><trkpt lat="43.639425" lon="13.0648667"><ele>81.19999999999999</ele><time>2026-04-29T12:00:54.784Z</time></trkpt><trkpt lat="43.63941" lon="13.0650283"><ele>80.39999999999999</ele><time>2026-04-29T12:00:55.784Z</time></trkpt><trkpt lat="43.6393917" lon="13.0651817"><ele>79.6</ele><time>2026-04-29T12:00:56.784Z</time></trkpt><trkpt lat="43.639365" lon="13.065325"><ele>78.8</ele><time>2026-04-29T12:00:57.784Z</time></trkpt><trkpt lat="43.6393417" lon="13.0654733"><ele>78.0</ele><time>2026-04-29T12:00:58.784Z</time></trkpt><trkpt lat="43.639325" lon="13.0656017"><ele>78.0</ele><time>2026-04-29T12:00:59.784Z</time></trkpt><trkpt lat="43.6393067" lon="13.0657233"><ele>78.0</ele><time>2026-04-29T12:01:00.784Z</time></trkpt><trkpt lat="43.6393033" lon="13.0658433"><ele>78.0</ele><time>2026-04-29T12:01:01.783Z</time></trkpt><trkpt lat="43.6393117" lon="13.0659567"><ele>78.0</ele><time>2026-04-29T12:01:02.784Z</time></trkpt><trkpt lat="43.639325" lon="13.0660733"><ele>78.0</ele><time>2026-04-29T12:01:03.784Z</time></trkpt><trkpt lat="43.6393483" lon="13.06618"><ele>78.0</ele><time>2026-04-29T12:01:04.784Z</time></trkpt><trkpt lat="43.6393783" lon="13.0662817"><ele>77.85714285714286</ele><time>2026-04-29T12:01:05.783Z</time></trkpt><trkpt lat="43.6394133" lon="13.0663783"><ele>77.71428571428571</ele><time>2026-04-29T12:01:06.784Z</time></trkpt><trkpt lat="43.63945" lon="13.0664633"><ele>77.57142857142857</ele><time>2026-04-29T12:01:07.783Z</time></trkpt><trkpt lat="43.639475" lon="13.06655"><ele>77.42857142857143</ele><time>2026-04-29T12:01:08.784Z</time></trkpt><trkpt lat="43.6394767" lon="13.0666383"><ele>77.28571428571428</ele><time>2026-04-29T12:01:09.784Z</time></trkpt><trkpt lat="43.63946" lon="13.0667283"><ele>77.14285714285714</ele><time>2026-04-29T12:01:10.784Z</time></trkpt><trkpt lat="43.639425" lon="13.066815"><ele>77.0</ele><time>2026-04-29T12:01:11.784Z</time></trkpt><trkpt lat="43.6394017" lon="13.0669067"><ele>76.83333333333334</ele><time>2026-04-29T12:01:12.784Z</time></trkpt><trkpt lat="43.6393967" lon="13.0670067"><ele>76.66666666666667</ele><time>2026-04-29T12:01:13.783Z</time></trkpt><trkpt lat="43.6394167" lon="13.0671083"><ele>76.5</ele><time>2026-04-29T12:01:14.784Z</time></trkpt><trkpt lat="43.639465" lon="13.06719"><ele>76.33333333333333</ele><time>2026-04-29T12:01:15.784Z</time></trkpt><trkpt lat="43.6395317" lon="13.067255"><ele>76.16666666666666</ele><time>2026-04-29T12:01:16.784Z</time></trkpt><trkpt lat="43.63961" lon="13.0673067"><ele>76.0</ele><time>2026-04-29T12:01:17.783Z</time></trkpt><trkpt lat="43.639685" lon="13.067365"><ele>76.0</ele><time>2026-04-29T12:01:18.784Z</time></trkpt><trkpt lat="43.6397433" lon="13.0674433"><ele>76.0</ele><time>2026-04-29T12:01:19.783Z</time></trkpt><trkpt lat="43.63979" lon="13.0675383"><ele>76.0</ele><time>2026-04-29T12:01:20.784Z</time></trkpt><trkpt lat="43.6398267" lon="13.067645"><ele>76.0</ele><time>2026-04-29T12:01:21.784Z</time></trkpt><trkpt lat="43.6398667" lon="13.0677617"><ele>76.0</ele><time>2026-04-29T12:01:22.784Z</time></trkpt><trkpt lat="43.639915" lon="13.0678733"><ele>76.0</ele><time>2026-04-29T12:01:23.784Z</time></trkpt><trkpt lat="43.639975" lon="13.067975"><ele>75.83333333333333</ele><time>2026-04-29T12:01:24.784Z</time></trkpt><trkpt lat="43.6400333" lon="13.0680667"><ele>75.66666666666666</ele><time>2026-04-29T12:01:25.783Z</time></trkpt><trkpt lat="43.640095" lon="13.0681483"><ele>75.5</ele><time>2026-04-29T12:01:26.784Z</time></trkpt><trkpt lat="43.6401517" lon="13.0682233"><ele>75.33333333333333</ele><time>2026-04-29T12:01:27.784Z</time></trkpt><trkpt lat="43.6402067" lon="13.068285"><ele>75.16666666666667</ele><time>2026-04-29T12:01:28.784Z</time></trkpt><trkpt lat="43.64032" lon="13.0683267"><ele>75.0</ele><time>2026-04-29T12:01:30.784Z</time></trkpt><trkpt lat="43.640425" lon="13.06834"><ele>74.0</ele><time>2026-04-29T12:01:32.784Z</time></trkpt><trkpt lat="43.6404883" lon="13.0683917"><ele>74.0</ele><time>2026-04-29T12:01:35.784Z</time></trkpt><trkpt lat="43.6404483" lon="13.068275"><ele>74.0</ele><time>2026-04-29T12:02:54.784Z</time></trkpt><trkpt lat="43.6404017" lon="13.0682117"><ele>74.0</ele><time>2026-04-29T12:03:13.783Z</time></trkpt></trkseg></trk></gpx>